<?xml version="1.0" encoding="UTF-8" standalone="no" ?>
<gpx xmlns="http://www.topografix.com/GPX/1/1" xmlns:xsi="http://www.w3.org/2001/XMLSchema-instance" xsi:schemaLocation="http://www.topografix.com/GPX/1/1 http://www.topografix.com/GPX/1/1/gpx.xsd" version="1.1" creator="VisuGPX - https://www.visugpx.com">
  <metadata>
    <name>Plateau de Calern</name>
    <desc><![CDATA[Chapelle, dolines, grottes, effondrement autour de l\'Observatoire de Calern]]></desc>
  </metadata>
  <trk>
    <name><![CDATA[Tracé actuel: 06 SEP 2011 11:23]]></name>
    <trkseg>
      <trkpt lat="43.75125" lon="6.92405">
        <ele>1264.75</ele>
        <time>2011-09-06T09:23:07Z</time>
      </trkpt>
      <trkpt lat="43.75125" lon="6.92405">
        <ele>1265.71</ele>
        <time>2011-09-06T09:23:09Z</time>
      </trkpt>
    </trkseg>
  </trk>
  <trk>
    <name><![CDATA[Tracé actuel: 06 SEP 2011 11:23]]></name>
    <trkseg>
      <trkpt lat="43.75125" lon="6.92405">
        <ele>1265.23</ele>
        <time>2011-09-06T09:23:10Z</time>
      </trkpt>
      <trkpt lat="43.75126" lon="6.92405">
        <ele>1265.23</ele>
        <time>2011-09-06T09:23:37Z</time>
      </trkpt>
      <trkpt lat="43.75126" lon="6.92405">
        <ele>1265.23</ele>
        <time>2011-09-06T09:24:00Z</time>
      </trkpt>
      <trkpt lat="43.75125" lon="6.92405">
        <ele>1265.23</ele>
        <time>2011-09-06T09:24:37Z</time>
      </trkpt>
      <trkpt lat="43.75125" lon="6.92405">
        <ele>1264.75</ele>
        <time>2011-09-06T09:25:13Z</time>
      </trkpt>
      <trkpt lat="43.75125" lon="6.92405">
        <ele>1266.19</ele>
        <time>2011-09-06T09:25:50Z</time>
      </trkpt>
      <trkpt lat="43.75126" lon="6.92404">
        <ele>1265.23</ele>
        <time>2011-09-06T09:26:03Z</time>
      </trkpt>
      <trkpt lat="43.75129" lon="6.92392">
        <ele>1265.71</ele>
        <time>2011-09-06T09:26:16Z</time>
      </trkpt>
      <trkpt lat="43.75129" lon="6.92387">
        <ele>1266.19</ele>
        <time>2011-09-06T09:26:20Z</time>
      </trkpt>
      <trkpt lat="43.75129" lon="6.92379">
        <ele>1266.19</ele>
        <time>2011-09-06T09:26:33Z</time>
      </trkpt>
      <trkpt lat="43.75129" lon="6.92375">
        <ele>1266.67</ele>
        <time>2011-09-06T09:26:37Z</time>
      </trkpt>
      <trkpt lat="43.75129" lon="6.92372">
        <ele>1266.67</ele>
        <time>2011-09-06T09:26:39Z</time>
      </trkpt>
      <trkpt lat="43.75129" lon="6.92356">
        <ele>1266.67</ele>
        <time>2011-09-06T09:26:52Z</time>
      </trkpt>
      <trkpt lat="43.7513" lon="6.92345">
        <ele>1266.67</ele>
        <time>2011-09-06T09:27:03Z</time>
      </trkpt>
      <trkpt lat="43.75129" lon="6.92343">
        <ele>1266.19</ele>
        <time>2011-09-06T09:27:05Z</time>
      </trkpt>
      <trkpt lat="43.7513" lon="6.92334">
        <ele>1266.19</ele>
        <time>2011-09-06T09:27:11Z</time>
      </trkpt>
      <trkpt lat="43.7513" lon="6.92328">
        <ele>1266.19</ele>
        <time>2011-09-06T09:27:15Z</time>
      </trkpt>
      <trkpt lat="43.75129" lon="6.92323">
        <ele>1266.19</ele>
        <time>2011-09-06T09:27:19Z</time>
      </trkpt>
      <trkpt lat="43.75128" lon="6.92313">
        <ele>1266.19</ele>
        <time>2011-09-06T09:27:29Z</time>
      </trkpt>
      <trkpt lat="43.75127" lon="6.92309">
        <ele>1266.19</ele>
        <time>2011-09-06T09:27:32Z</time>
      </trkpt>
      <trkpt lat="43.75123" lon="6.92301">
        <ele>1266.19</ele>
        <time>2011-09-06T09:27:39Z</time>
      </trkpt>
      <trkpt lat="43.75121" lon="6.92278">
        <ele>1265.23</ele>
        <time>2011-09-06T09:27:54Z</time>
      </trkpt>
      <trkpt lat="43.75119" lon="6.9227">
        <ele>1265.23</ele>
        <time>2011-09-06T09:27:59Z</time>
      </trkpt>
      <trkpt lat="43.7512" lon="6.92259">
        <ele>1264.75</ele>
        <time>2011-09-06T09:28:06Z</time>
      </trkpt>
      <trkpt lat="43.75117" lon="6.92234">
        <ele>1264.27</ele>
        <time>2011-09-06T09:28:22Z</time>
      </trkpt>
      <trkpt lat="43.75107" lon="6.92214">
        <ele>1263.79</ele>
        <time>2011-09-06T09:28:37Z</time>
      </trkpt>
      <trkpt lat="43.75104" lon="6.92193">
        <ele>1263.79</ele>
        <time>2011-09-06T09:28:52Z</time>
      </trkpt>
      <trkpt lat="43.75105" lon="6.92167">
        <ele>1264.27</ele>
        <time>2011-09-06T09:29:07Z</time>
      </trkpt>
      <trkpt lat="43.75106" lon="6.92159">
        <ele>1264.27</ele>
        <time>2011-09-06T09:29:12Z</time>
      </trkpt>
      <trkpt lat="43.75107" lon="6.92151">
        <ele>1264.27</ele>
        <time>2011-09-06T09:29:16Z</time>
      </trkpt>
      <trkpt lat="43.75108" lon="6.92148">
        <ele>1264.27</ele>
        <time>2011-09-06T09:29:19Z</time>
      </trkpt>
      <trkpt lat="43.75112" lon="6.92121">
        <ele>1265.71</ele>
        <time>2011-09-06T09:29:37Z</time>
      </trkpt>
      <trkpt lat="43.75115" lon="6.9211">
        <ele>1264.75</ele>
        <time>2011-09-06T09:29:46Z</time>
      </trkpt>
      <trkpt lat="43.75114" lon="6.92104">
        <ele>1265.23</ele>
        <time>2011-09-06T09:29:53Z</time>
      </trkpt>
      <trkpt lat="43.75117" lon="6.92085">
        <ele>1263.79</ele>
        <time>2011-09-06T09:30:07Z</time>
      </trkpt>
      <trkpt lat="43.75117" lon="6.92083">
        <ele>1263.79</ele>
        <time>2011-09-06T09:30:20Z</time>
      </trkpt>
      <trkpt lat="43.75116" lon="6.92066">
        <ele>1262.35</ele>
        <time>2011-09-06T09:30:33Z</time>
      </trkpt>
      <trkpt lat="43.75111" lon="6.92048">
        <ele>1261.39</ele>
        <time>2011-09-06T09:30:45Z</time>
      </trkpt>
      <trkpt lat="43.75105" lon="6.92032">
        <ele>1259.94</ele>
        <time>2011-09-06T09:30:56Z</time>
      </trkpt>
      <trkpt lat="43.75103" lon="6.9202">
        <ele>1258.98</ele>
        <time>2011-09-06T09:31:04Z</time>
      </trkpt>
      <trkpt lat="43.75095" lon="6.91996">
        <ele>1257.06</ele>
        <time>2011-09-06T09:31:22Z</time>
      </trkpt>
      <trkpt lat="43.75094" lon="6.91991">
        <ele>1257.06</ele>
        <time>2011-09-06T09:31:25Z</time>
      </trkpt>
      <trkpt lat="43.75092" lon="6.91988">
        <ele>1256.1</ele>
        <time>2011-09-06T09:31:37Z</time>
      </trkpt>
      <trkpt lat="43.75092" lon="6.91988">
        <ele>1256.1</ele>
        <time>2011-09-06T09:32:08Z</time>
      </trkpt>
      <trkpt lat="43.75089" lon="6.9198">
        <ele>1256.1</ele>
        <time>2011-09-06T09:32:17Z</time>
      </trkpt>
      <trkpt lat="43.75084" lon="6.91957">
        <ele>1254.66</ele>
        <time>2011-09-06T09:32:33Z</time>
      </trkpt>
      <trkpt lat="43.75083" lon="6.91946">
        <ele>1255.62</ele>
        <time>2011-09-06T09:32:41Z</time>
      </trkpt>
      <trkpt lat="43.75085" lon="6.91925">
        <ele>1256.1</ele>
        <time>2011-09-06T09:32:56Z</time>
      </trkpt>
      <trkpt lat="43.75089" lon="6.9191">
        <ele>1255.62</ele>
        <time>2011-09-06T09:33:06Z</time>
      </trkpt>
      <trkpt lat="43.75098" lon="6.91891">
        <ele>1256.1</ele>
        <time>2011-09-06T09:33:22Z</time>
      </trkpt>
      <trkpt lat="43.75108" lon="6.91874">
        <ele>1256.1</ele>
        <time>2011-09-06T09:33:37Z</time>
      </trkpt>
      <trkpt lat="43.75121" lon="6.91854">
        <ele>1255.62</ele>
        <time>2011-09-06T09:33:55Z</time>
      </trkpt>
      <trkpt lat="43.75132" lon="6.91835">
        <ele>1255.14</ele>
        <time>2011-09-06T09:34:12Z</time>
      </trkpt>
      <trkpt lat="43.75135" lon="6.91839">
        <ele>1255.14</ele>
        <time>2011-09-06T09:34:24Z</time>
      </trkpt>
      <trkpt lat="43.75137" lon="6.91839">
        <ele>1256.58</ele>
        <time>2011-09-06T09:34:41Z</time>
      </trkpt>
      <trkpt lat="43.75139" lon="6.91841">
        <ele>1255.62</ele>
        <time>2011-09-06T09:34:48Z</time>
      </trkpt>
      <trkpt lat="43.75142" lon="6.91849">
        <ele>1255.14</ele>
        <time>2011-09-06T09:35:02Z</time>
      </trkpt>
      <trkpt lat="43.75143" lon="6.91847">
        <ele>1255.14</ele>
        <time>2011-09-06T09:35:26Z</time>
      </trkpt>
      <trkpt lat="43.75143" lon="6.91832">
        <ele>1255.62</ele>
        <time>2011-09-06T09:35:39Z</time>
      </trkpt>
      <trkpt lat="43.75143" lon="6.91829">
        <ele>1256.1</ele>
        <time>2011-09-06T09:35:41Z</time>
      </trkpt>
      <trkpt lat="43.75147" lon="6.91815">
        <ele>1255.14</ele>
        <time>2011-09-06T09:35:55Z</time>
      </trkpt>
      <trkpt lat="43.75161" lon="6.91796">
        <ele>1255.62</ele>
        <time>2011-09-06T09:36:13Z</time>
      </trkpt>
      <trkpt lat="43.75177" lon="6.91778">
        <ele>1254.66</ele>
        <time>2011-09-06T09:36:30Z</time>
      </trkpt>
      <trkpt lat="43.75187" lon="6.91761">
        <ele>1254.66</ele>
        <time>2011-09-06T09:36:45Z</time>
      </trkpt>
      <trkpt lat="43.752" lon="6.91738">
        <ele>1254.18</ele>
        <time>2011-09-06T09:37:04Z</time>
      </trkpt>
      <trkpt lat="43.75206" lon="6.91727">
        <ele>1253.7</ele>
        <time>2011-09-06T09:37:14Z</time>
      </trkpt>
      <trkpt lat="43.75209" lon="6.91723">
        <ele>1254.18</ele>
        <time>2011-09-06T09:37:18Z</time>
      </trkpt>
      <trkpt lat="43.75221" lon="6.91703">
        <ele>1253.7</ele>
        <time>2011-09-06T09:37:34Z</time>
      </trkpt>
      <trkpt lat="43.75229" lon="6.91687">
        <ele>1254.18</ele>
        <time>2011-09-06T09:37:48Z</time>
      </trkpt>
      <trkpt lat="43.75239" lon="6.91668">
        <ele>1253.7</ele>
        <time>2011-09-06T09:38:04Z</time>
      </trkpt>
      <trkpt lat="43.75246" lon="6.91654">
        <ele>1253.7</ele>
        <time>2011-09-06T09:38:16Z</time>
      </trkpt>
      <trkpt lat="43.75247" lon="6.91651">
        <ele>1253.7</ele>
        <time>2011-09-06T09:38:18Z</time>
      </trkpt>
      <trkpt lat="43.7525" lon="6.91646">
        <ele>1253.7</ele>
        <time>2011-09-06T09:38:22Z</time>
      </trkpt>
      <trkpt lat="43.75259" lon="6.91625">
        <ele>1252.74</ele>
        <time>2011-09-06T09:38:38Z</time>
      </trkpt>
      <trkpt lat="43.75268" lon="6.91606">
        <ele>1252.25</ele>
        <time>2011-09-06T09:38:53Z</time>
      </trkpt>
      <trkpt lat="43.75275" lon="6.9159">
        <ele>1251.77</ele>
        <time>2011-09-06T09:39:07Z</time>
      </trkpt>
      <trkpt lat="43.7528" lon="6.91566">
        <ele>1252.74</ele>
        <time>2011-09-06T09:39:23Z</time>
      </trkpt>
      <trkpt lat="43.75282" lon="6.91541">
        <ele>1252.74</ele>
        <time>2011-09-06T09:39:39Z</time>
      </trkpt>
      <trkpt lat="43.75284" lon="6.91526">
        <ele>1253.22</ele>
        <time>2011-09-06T09:39:51Z</time>
      </trkpt>
      <trkpt lat="43.75285" lon="6.91523">
        <ele>1252.74</ele>
        <time>2011-09-06T09:39:53Z</time>
      </trkpt>
      <trkpt lat="43.7529" lon="6.915">
        <ele>1253.22</ele>
        <time>2011-09-06T09:40:10Z</time>
      </trkpt>
      <trkpt lat="43.75291" lon="6.91498">
        <ele>1253.22</ele>
        <time>2011-09-06T09:40:24Z</time>
      </trkpt>
      <trkpt lat="43.75291" lon="6.91498">
        <ele>1253.22</ele>
        <time>2011-09-06T09:40:38Z</time>
      </trkpt>
      <trkpt lat="43.75291" lon="6.91497">
        <ele>1252.74</ele>
        <time>2011-09-06T09:40:39Z</time>
      </trkpt>
      <trkpt lat="43.75292" lon="6.91485">
        <ele>1253.7</ele>
        <time>2011-09-06T09:40:49Z</time>
      </trkpt>
      <trkpt lat="43.75293" lon="6.91477">
        <ele>1254.18</ele>
        <time>2011-09-06T09:40:55Z</time>
      </trkpt>
      <trkpt lat="43.75294" lon="6.9146">
        <ele>1254.18</ele>
        <time>2011-09-06T09:41:10Z</time>
      </trkpt>
      <trkpt lat="43.75295" lon="6.91452">
        <ele>1254.66</ele>
        <time>2011-09-06T09:41:16Z</time>
      </trkpt>
      <trkpt lat="43.75295" lon="6.91449">
        <ele>1254.66</ele>
        <time>2011-09-06T09:41:18Z</time>
      </trkpt>
      <trkpt lat="43.75296" lon="6.91444">
        <ele>1254.66</ele>
        <time>2011-09-06T09:41:22Z</time>
      </trkpt>
      <trkpt lat="43.75293" lon="6.91421">
        <ele>1255.62</ele>
        <time>2011-09-06T09:41:39Z</time>
      </trkpt>
      <trkpt lat="43.75289" lon="6.914">
        <ele>1257.06</ele>
        <time>2011-09-06T09:41:54Z</time>
      </trkpt>
      <trkpt lat="43.75288" lon="6.91384">
        <ele>1256.58</ele>
        <time>2011-09-06T09:42:04Z</time>
      </trkpt>
      <trkpt lat="43.75287" lon="6.9138">
        <ele>1256.58</ele>
        <time>2011-09-06T09:42:07Z</time>
      </trkpt>
      <trkpt lat="43.75284" lon="6.91356">
        <ele>1258.5</ele>
        <time>2011-09-06T09:42:24Z</time>
      </trkpt>
      <trkpt lat="43.75277" lon="6.91335">
        <ele>1258.98</ele>
        <time>2011-09-06T09:42:38Z</time>
      </trkpt>
      <trkpt lat="43.75276" lon="6.91333">
        <ele>1258.02</ele>
        <time>2011-09-06T09:42:40Z</time>
      </trkpt>
      <trkpt lat="43.75275" lon="6.91327">
        <ele>1258.5</ele>
        <time>2011-09-06T09:42:44Z</time>
      </trkpt>
      <trkpt lat="43.7527" lon="6.913">
        <ele>1258.98</ele>
        <time>2011-09-06T09:43:01Z</time>
      </trkpt>
      <trkpt lat="43.75266" lon="6.91277">
        <ele>1258.02</ele>
        <time>2011-09-06T09:43:18Z</time>
      </trkpt>
      <trkpt lat="43.75266" lon="6.91275">
        <ele>1258.5</ele>
        <time>2011-09-06T09:43:20Z</time>
      </trkpt>
      <trkpt lat="43.75265" lon="6.91268">
        <ele>1258.5</ele>
        <time>2011-09-06T09:43:24Z</time>
      </trkpt>
      <trkpt lat="43.75263" lon="6.91249">
        <ele>1258.98</ele>
        <time>2011-09-06T09:43:37Z</time>
      </trkpt>
      <trkpt lat="43.75264" lon="6.91226">
        <ele>1258.02</ele>
        <time>2011-09-06T09:43:52Z</time>
      </trkpt>
      <trkpt lat="43.75265" lon="6.91204">
        <ele>1258.98</ele>
        <time>2011-09-06T09:44:07Z</time>
      </trkpt>
      <trkpt lat="43.75266" lon="6.91196">
        <ele>1259.46</ele>
        <time>2011-09-06T09:44:13Z</time>
      </trkpt>
      <trkpt lat="43.75267" lon="6.91189">
        <ele>1259.94</ele>
        <time>2011-09-06T09:44:18Z</time>
      </trkpt>
      <trkpt lat="43.75269" lon="6.91162">
        <ele>1260.43</ele>
        <time>2011-09-06T09:44:36Z</time>
      </trkpt>
      <trkpt lat="43.7527" lon="6.91145">
        <ele>1261.39</ele>
        <time>2011-09-06T09:44:48Z</time>
      </trkpt>
      <trkpt lat="43.75274" lon="6.91123">
        <ele>1261.87</ele>
        <time>2011-09-06T09:45:02Z</time>
      </trkpt>
      <trkpt lat="43.75275" lon="6.91119">
        <ele>1262.83</ele>
        <time>2011-09-06T09:45:05Z</time>
      </trkpt>
      <trkpt lat="43.75274" lon="6.91095">
        <ele>1262.35</ele>
        <time>2011-09-06T09:45:21Z</time>
      </trkpt>
      <trkpt lat="43.75276" lon="6.91081">
        <ele>1262.35</ele>
        <time>2011-09-06T09:45:31Z</time>
      </trkpt>
      <trkpt lat="43.75277" lon="6.91069">
        <ele>1263.31</ele>
        <time>2011-09-06T09:45:47Z</time>
      </trkpt>
      <trkpt lat="43.75277" lon="6.91069">
        <ele>1263.79</ele>
        <time>2011-09-06T09:46:08Z</time>
      </trkpt>
      <trkpt lat="43.75277" lon="6.91069">
        <ele>1263.79</ele>
        <time>2011-09-06T09:46:36Z</time>
      </trkpt>
      <trkpt lat="43.75277" lon="6.91067">
        <ele>1263.79</ele>
        <time>2011-09-06T09:46:49Z</time>
      </trkpt>
      <trkpt lat="43.7528" lon="6.91052">
        <ele>1264.27</ele>
        <time>2011-09-06T09:47:02Z</time>
      </trkpt>
      <trkpt lat="43.75282" lon="6.91037">
        <ele>1264.75</ele>
        <time>2011-09-06T09:47:16Z</time>
      </trkpt>
      <trkpt lat="43.75286" lon="6.91023">
        <ele>1266.19</ele>
        <time>2011-09-06T09:47:30Z</time>
      </trkpt>
      <trkpt lat="43.7529" lon="6.91002">
        <ele>1267.64</ele>
        <time>2011-09-06T09:47:46Z</time>
      </trkpt>
      <trkpt lat="43.75291" lon="6.90985">
        <ele>1267.64</ele>
        <time>2011-09-06T09:47:58Z</time>
      </trkpt>
      <trkpt lat="43.75292" lon="6.90962">
        <ele>1268.6</ele>
        <time>2011-09-06T09:48:14Z</time>
      </trkpt>
      <trkpt lat="43.75291" lon="6.90959">
        <ele>1268.12</ele>
        <time>2011-09-06T09:48:16Z</time>
      </trkpt>
      <trkpt lat="43.7529" lon="6.90945">
        <ele>1268.6</ele>
        <time>2011-09-06T09:48:26Z</time>
      </trkpt>
      <trkpt lat="43.7529" lon="6.90933">
        <ele>1269.08</ele>
        <time>2011-09-06T09:48:34Z</time>
      </trkpt>
      <trkpt lat="43.75291" lon="6.90926">
        <ele>1268.12</ele>
        <time>2011-09-06T09:48:39Z</time>
      </trkpt>
      <trkpt lat="43.75291" lon="6.90919">
        <ele>1268.12</ele>
        <time>2011-09-06T09:48:44Z</time>
      </trkpt>
      <trkpt lat="43.75293" lon="6.90902">
        <ele>1267.16</ele>
        <time>2011-09-06T09:48:55Z</time>
      </trkpt>
      <trkpt lat="43.75293" lon="6.90896">
        <ele>1267.16</ele>
        <time>2011-09-06T09:48:59Z</time>
      </trkpt>
      <trkpt lat="43.75297" lon="6.90871">
        <ele>1265.71</ele>
        <time>2011-09-06T09:49:15Z</time>
      </trkpt>
      <trkpt lat="43.75296" lon="6.90864">
        <ele>1265.71</ele>
        <time>2011-09-06T09:49:20Z</time>
      </trkpt>
      <trkpt lat="43.75295" lon="6.90852">
        <ele>1264.27</ele>
        <time>2011-09-06T09:49:29Z</time>
      </trkpt>
      <trkpt lat="43.75294" lon="6.90848">
        <ele>1264.75</ele>
        <time>2011-09-06T09:49:43Z</time>
      </trkpt>
      <trkpt lat="43.7529" lon="6.90837">
        <ele>1264.27</ele>
        <time>2011-09-06T09:50:01Z</time>
      </trkpt>
      <trkpt lat="43.75282" lon="6.90818">
        <ele>1264.75</ele>
        <time>2011-09-06T09:50:15Z</time>
      </trkpt>
      <trkpt lat="43.7528" lon="6.90813">
        <ele>1264.27</ele>
        <time>2011-09-06T09:50:19Z</time>
      </trkpt>
      <trkpt lat="43.75276" lon="6.90789">
        <ele>1264.27</ele>
        <time>2011-09-06T09:50:35Z</time>
      </trkpt>
      <trkpt lat="43.75273" lon="6.90778">
        <ele>1264.75</ele>
        <time>2011-09-06T09:50:43Z</time>
      </trkpt>
      <trkpt lat="43.75267" lon="6.90758">
        <ele>1264.27</ele>
        <time>2011-09-06T09:50:58Z</time>
      </trkpt>
      <trkpt lat="43.75265" lon="6.90744">
        <ele>1264.75</ele>
        <time>2011-09-06T09:51:08Z</time>
      </trkpt>
      <trkpt lat="43.75263" lon="6.90734">
        <ele>1264.75</ele>
        <time>2011-09-06T09:51:15Z</time>
      </trkpt>
      <trkpt lat="43.75261" lon="6.90726">
        <ele>1264.27</ele>
        <time>2011-09-06T09:51:21Z</time>
      </trkpt>
      <trkpt lat="43.75259" lon="6.90719">
        <ele>1262.83</ele>
        <time>2011-09-06T09:51:27Z</time>
      </trkpt>
      <trkpt lat="43.75259" lon="6.90714">
        <ele>1263.79</ele>
        <time>2011-09-06T09:51:30Z</time>
      </trkpt>
      <trkpt lat="43.75259" lon="6.90709">
        <ele>1263.31</ele>
        <time>2011-09-06T09:51:33Z</time>
      </trkpt>
      <trkpt lat="43.75258" lon="6.90687">
        <ele>1264.75</ele>
        <time>2011-09-06T09:51:49Z</time>
      </trkpt>
      <trkpt lat="43.75254" lon="6.90671">
        <ele>1266.19</ele>
        <time>2011-09-06T09:52:02Z</time>
      </trkpt>
      <trkpt lat="43.75254" lon="6.90666">
        <ele>1267.16</ele>
        <time>2011-09-06T09:52:07Z</time>
      </trkpt>
      <trkpt lat="43.75253" lon="6.90659">
        <ele>1267.16</ele>
        <time>2011-09-06T09:52:14Z</time>
      </trkpt>
      <trkpt lat="43.75246" lon="6.9064">
        <ele>1268.6</ele>
        <time>2011-09-06T09:52:30Z</time>
      </trkpt>
      <trkpt lat="43.7524" lon="6.90626">
        <ele>1270.52</ele>
        <time>2011-09-06T09:52:43Z</time>
      </trkpt>
      <trkpt lat="43.75235" lon="6.90607">
        <ele>1271</ele>
        <time>2011-09-06T09:52:58Z</time>
      </trkpt>
      <trkpt lat="43.75232" lon="6.90588">
        <ele>1272.92</ele>
        <time>2011-09-06T09:53:13Z</time>
      </trkpt>
      <trkpt lat="43.75232" lon="6.90587">
        <ele>1272.92</ele>
        <time>2011-09-06T09:53:14Z</time>
      </trkpt>
      <trkpt lat="43.75231" lon="6.90584">
        <ele>1272.92</ele>
        <time>2011-09-06T09:53:16Z</time>
      </trkpt>
      <trkpt lat="43.75231" lon="6.90577">
        <ele>1273.4</ele>
        <time>2011-09-06T09:53:21Z</time>
      </trkpt>
      <trkpt lat="43.75227" lon="6.90555">
        <ele>1275.33</ele>
        <time>2011-09-06T09:53:38Z</time>
      </trkpt>
      <trkpt lat="43.75222" lon="6.90539">
        <ele>1275.81</ele>
        <time>2011-09-06T09:53:52Z</time>
      </trkpt>
      <trkpt lat="43.75217" lon="6.90521">
        <ele>1278.21</ele>
        <time>2011-09-06T09:54:06Z</time>
      </trkpt>
      <trkpt lat="43.75211" lon="6.90503">
        <ele>1277.25</ele>
        <time>2011-09-06T09:54:20Z</time>
      </trkpt>
      <trkpt lat="43.75206" lon="6.90482">
        <ele>1277.73</ele>
        <time>2011-09-06T09:54:34Z</time>
      </trkpt>
      <trkpt lat="43.75206" lon="6.9047">
        <ele>1276.29</ele>
        <time>2011-09-06T09:54:47Z</time>
      </trkpt>
      <trkpt lat="43.75202" lon="6.90463">
        <ele>1274.36</ele>
        <time>2011-09-06T09:54:58Z</time>
      </trkpt>
      <trkpt lat="43.75201" lon="6.90449">
        <ele>1275.33</ele>
        <time>2011-09-06T09:55:11Z</time>
      </trkpt>
      <trkpt lat="43.752" lon="6.90439">
        <ele>1275.33</ele>
        <time>2011-09-06T09:55:24Z</time>
      </trkpt>
      <trkpt lat="43.75196" lon="6.90434">
        <ele>1275.81</ele>
        <time>2011-09-06T09:55:36Z</time>
      </trkpt>
      <trkpt lat="43.75194" lon="6.9043">
        <ele>1274.85</ele>
        <time>2011-09-06T09:55:40Z</time>
      </trkpt>
      <trkpt lat="43.75185" lon="6.90424">
        <ele>1273.88</ele>
        <time>2011-09-06T09:55:53Z</time>
      </trkpt>
      <trkpt lat="43.75177" lon="6.9042">
        <ele>1271.96</ele>
        <time>2011-09-06T09:56:01Z</time>
      </trkpt>
      <trkpt lat="43.75169" lon="6.90401">
        <ele>1274.85</ele>
        <time>2011-09-06T09:56:16Z</time>
      </trkpt>
      <trkpt lat="43.75166" lon="6.90395">
        <ele>1276.29</ele>
        <time>2011-09-06T09:56:28Z</time>
      </trkpt>
      <trkpt lat="43.75162" lon="6.90379">
        <ele>1277.25</ele>
        <time>2011-09-06T09:56:43Z</time>
      </trkpt>
      <trkpt lat="43.75163" lon="6.90367">
        <ele>1279.65</ele>
        <time>2011-09-06T09:56:58Z</time>
      </trkpt>
      <trkpt lat="43.75161" lon="6.90357">
        <ele>1281.09</ele>
        <time>2011-09-06T09:57:11Z</time>
      </trkpt>
      <trkpt lat="43.7516" lon="6.90349">
        <ele>1282.06</ele>
        <time>2011-09-06T09:57:25Z</time>
      </trkpt>
      <trkpt lat="43.7516" lon="6.90344">
        <ele>1282.06</ele>
        <time>2011-09-06T09:57:38Z</time>
      </trkpt>
      <trkpt lat="43.7516" lon="6.90338">
        <ele>1283.5</ele>
        <time>2011-09-06T09:57:48Z</time>
      </trkpt>
      <trkpt lat="43.7516" lon="6.90331">
        <ele>1284.46</ele>
        <time>2011-09-06T09:58:02Z</time>
      </trkpt>
      <trkpt lat="43.75158" lon="6.90326">
        <ele>1283.98</ele>
        <time>2011-09-06T09:58:15Z</time>
      </trkpt>
      <trkpt lat="43.75159" lon="6.90326">
        <ele>1285.42</ele>
        <time>2011-09-06T09:58:34Z</time>
      </trkpt>
      <trkpt lat="43.75163" lon="6.90323">
        <ele>1286.38</ele>
        <time>2011-09-06T10:05:19Z</time>
      </trkpt>
      <trkpt lat="43.75159" lon="6.9032">
        <ele>1284.94</ele>
        <time>2011-09-06T10:05:47Z</time>
      </trkpt>
      <trkpt lat="43.7516" lon="6.9032">
        <ele>1285.42</ele>
        <time>2011-09-06T10:06:16Z</time>
      </trkpt>
      <trkpt lat="43.75158" lon="6.90322">
        <ele>1284.94</ele>
        <time>2011-09-06T10:06:43Z</time>
      </trkpt>
      <trkpt lat="43.75158" lon="6.90322">
        <ele>1285.9</ele>
        <time>2011-09-06T10:06:54Z</time>
      </trkpt>
      <trkpt lat="43.7516" lon="6.9032">
        <ele>1284.94</ele>
        <time>2011-09-06T10:07:10Z</time>
      </trkpt>
      <trkpt lat="43.75161" lon="6.9032">
        <ele>1285.42</ele>
        <time>2011-09-06T10:07:25Z</time>
      </trkpt>
      <trkpt lat="43.75159" lon="6.90327">
        <ele>1284.46</ele>
        <time>2011-09-06T10:07:39Z</time>
      </trkpt>
      <trkpt lat="43.75158" lon="6.90333">
        <ele>1284.46</ele>
        <time>2011-09-06T10:07:46Z</time>
      </trkpt>
      <trkpt lat="43.75158" lon="6.90338">
        <ele>1283.02</ele>
        <time>2011-09-06T10:07:51Z</time>
      </trkpt>
      <trkpt lat="43.75159" lon="6.90346">
        <ele>1282.54</ele>
        <time>2011-09-06T10:08:02Z</time>
      </trkpt>
      <trkpt lat="43.75159" lon="6.90358">
        <ele>1280.61</ele>
        <time>2011-09-06T10:08:15Z</time>
      </trkpt>
      <trkpt lat="43.75159" lon="6.90364">
        <ele>1280.61</ele>
        <time>2011-09-06T10:08:21Z</time>
      </trkpt>
      <trkpt lat="43.7516" lon="6.9037">
        <ele>1279.17</ele>
        <time>2011-09-06T10:08:25Z</time>
      </trkpt>
      <trkpt lat="43.7516" lon="6.90373">
        <ele>1278.69</ele>
        <time>2011-09-06T10:08:27Z</time>
      </trkpt>
      <trkpt lat="43.75165" lon="6.90389">
        <ele>1277.73</ele>
        <time>2011-09-06T10:08:42Z</time>
      </trkpt>
      <trkpt lat="43.75166" lon="6.90391">
        <ele>1278.21</ele>
        <time>2011-09-06T10:08:46Z</time>
      </trkpt>
      <trkpt lat="43.75167" lon="6.90394">
        <ele>1277.73</ele>
        <time>2011-09-06T10:08:48Z</time>
      </trkpt>
      <trkpt lat="43.75168" lon="6.90398">
        <ele>1277.25</ele>
        <time>2011-09-06T10:08:51Z</time>
      </trkpt>
      <trkpt lat="43.75172" lon="6.90405">
        <ele>1276.29</ele>
        <time>2011-09-06T10:09:00Z</time>
      </trkpt>
      <trkpt lat="43.75169" lon="6.9041">
        <ele>1273.88</ele>
        <time>2011-09-06T10:09:04Z</time>
      </trkpt>
      <trkpt lat="43.75171" lon="6.90414">
        <ele>1273.4</ele>
        <time>2011-09-06T10:09:15Z</time>
      </trkpt>
      <trkpt lat="43.75174" lon="6.90418">
        <ele>1274.36</ele>
        <time>2011-09-06T10:09:20Z</time>
      </trkpt>
      <trkpt lat="43.75175" lon="6.90423">
        <ele>1272.92</ele>
        <time>2011-09-06T10:09:34Z</time>
      </trkpt>
      <trkpt lat="43.75178" lon="6.90431">
        <ele>1271.48</ele>
        <time>2011-09-06T10:09:53Z</time>
      </trkpt>
      <trkpt lat="43.7518" lon="6.90434">
        <ele>1272.92</ele>
        <time>2011-09-06T10:09:56Z</time>
      </trkpt>
      <trkpt lat="43.75184" lon="6.90438">
        <ele>1273.4</ele>
        <time>2011-09-06T10:10:02Z</time>
      </trkpt>
      <trkpt lat="43.75195" lon="6.90453">
        <ele>1274.36</ele>
        <time>2011-09-06T10:10:18Z</time>
      </trkpt>
      <trkpt lat="43.75201" lon="6.90465">
        <ele>1276.29</ele>
        <time>2011-09-06T10:10:30Z</time>
      </trkpt>
      <trkpt lat="43.75205" lon="6.90474">
        <ele>1277.25</ele>
        <time>2011-09-06T10:10:42Z</time>
      </trkpt>
      <trkpt lat="43.75205" lon="6.90477">
        <ele>1277.73</ele>
        <time>2011-09-06T10:10:45Z</time>
      </trkpt>
      <trkpt lat="43.75204" lon="6.90479">
        <ele>1277.73</ele>
        <time>2011-09-06T10:10:47Z</time>
      </trkpt>
      <trkpt lat="43.75206" lon="6.905">
        <ele>1277.73</ele>
        <time>2011-09-06T10:11:01Z</time>
      </trkpt>
      <trkpt lat="43.75213" lon="6.90518">
        <ele>1277.73</ele>
        <time>2011-09-06T10:11:13Z</time>
      </trkpt>
      <trkpt lat="43.75219" lon="6.90538">
        <ele>1278.21</ele>
        <time>2011-09-06T10:11:28Z</time>
      </trkpt>
      <trkpt lat="43.7522" lon="6.90547">
        <ele>1276.29</ele>
        <time>2011-09-06T10:11:35Z</time>
      </trkpt>
      <trkpt lat="43.75221" lon="6.9055">
        <ele>1275.81</ele>
        <time>2011-09-06T10:11:37Z</time>
      </trkpt>
      <trkpt lat="43.75224" lon="6.90568">
        <ele>1274.85</ele>
        <time>2011-09-06T10:11:51Z</time>
      </trkpt>
      <trkpt lat="43.75226" lon="6.90575">
        <ele>1273.88</ele>
        <time>2011-09-06T10:11:56Z</time>
      </trkpt>
      <trkpt lat="43.75227" lon="6.90581">
        <ele>1273.88</ele>
        <time>2011-09-06T10:12:00Z</time>
      </trkpt>
      <trkpt lat="43.75229" lon="6.90589">
        <ele>1273.88</ele>
        <time>2011-09-06T10:12:06Z</time>
      </trkpt>
      <trkpt lat="43.75232" lon="6.90609">
        <ele>1271</ele>
        <time>2011-09-06T10:12:20Z</time>
      </trkpt>
      <trkpt lat="43.75237" lon="6.90626">
        <ele>1270.52</ele>
        <time>2011-09-06T10:12:32Z</time>
      </trkpt>
      <trkpt lat="43.75242" lon="6.90638">
        <ele>1270.52</ele>
        <time>2011-09-06T10:12:42Z</time>
      </trkpt>
      <trkpt lat="43.75251" lon="6.90658">
        <ele>1268.12</ele>
        <time>2011-09-06T10:12:57Z</time>
      </trkpt>
      <trkpt lat="43.75254" lon="6.90677">
        <ele>1265.71</ele>
        <time>2011-09-06T10:13:10Z</time>
      </trkpt>
      <trkpt lat="43.75257" lon="6.90695">
        <ele>1264.27</ele>
        <time>2011-09-06T10:13:25Z</time>
      </trkpt>
      <trkpt lat="43.75258" lon="6.90695">
        <ele>1264.27</ele>
        <time>2011-09-06T10:13:39Z</time>
      </trkpt>
      <trkpt lat="43.75258" lon="6.90695">
        <ele>1265.71</ele>
        <time>2011-09-06T10:13:42Z</time>
      </trkpt>
      <trkpt lat="43.75263" lon="6.90707">
        <ele>1264.27</ele>
        <time>2011-09-06T10:13:48Z</time>
      </trkpt>
      <trkpt lat="43.75264" lon="6.90708">
        <ele>1264.75</ele>
        <time>2011-09-06T10:13:49Z</time>
      </trkpt>
      <trkpt lat="43.75275" lon="6.90729">
        <ele>1264.75</ele>
        <time>2011-09-06T10:14:04Z</time>
      </trkpt>
      <trkpt lat="43.75276" lon="6.9073">
        <ele>1265.23</ele>
        <time>2011-09-06T10:14:05Z</time>
      </trkpt>
      <trkpt lat="43.7529" lon="6.90748">
        <ele>1266.19</ele>
        <time>2011-09-06T10:14:19Z</time>
      </trkpt>
      <trkpt lat="43.75295" lon="6.90754">
        <ele>1267.16</ele>
        <time>2011-09-06T10:14:24Z</time>
      </trkpt>
      <trkpt lat="43.75301" lon="6.90764">
        <ele>1266.67</ele>
        <time>2011-09-06T10:14:38Z</time>
      </trkpt>
      <trkpt lat="43.75308" lon="6.90767">
        <ele>1268.12</ele>
        <time>2011-09-06T10:14:52Z</time>
      </trkpt>
      <trkpt lat="43.75308" lon="6.90767">
        <ele>1268.6</ele>
        <time>2011-09-06T10:15:09Z</time>
      </trkpt>
      <trkpt lat="43.75316" lon="6.9077">
        <ele>1269.08</ele>
        <time>2011-09-06T10:15:27Z</time>
      </trkpt>
      <trkpt lat="43.75319" lon="6.90773">
        <ele>1264.27</ele>
        <time>2011-09-06T10:15:37Z</time>
      </trkpt>
      <trkpt lat="43.7532" lon="6.90774">
        <ele>1269.08</ele>
        <time>2011-09-06T10:15:38Z</time>
      </trkpt>
      <trkpt lat="43.75326" lon="6.90785">
        <ele>1269.08</ele>
        <time>2011-09-06T10:15:51Z</time>
      </trkpt>
      <trkpt lat="43.75329" lon="6.9079">
        <ele>1271.48</ele>
        <time>2011-09-06T10:16:05Z</time>
      </trkpt>
      <trkpt lat="43.75329" lon="6.90792">
        <ele>1270.52</ele>
        <time>2011-09-06T10:16:07Z</time>
      </trkpt>
      <trkpt lat="43.75331" lon="6.90796">
        <ele>1270.52</ele>
        <time>2011-09-06T10:16:11Z</time>
      </trkpt>
      <trkpt lat="43.75343" lon="6.90806">
        <ele>1271</ele>
        <time>2011-09-06T10:16:26Z</time>
      </trkpt>
      <trkpt lat="43.75344" lon="6.90807">
        <ele>1271</ele>
        <time>2011-09-06T10:16:27Z</time>
      </trkpt>
      <trkpt lat="43.75349" lon="6.90813">
        <ele>1270.52</ele>
        <time>2011-09-06T10:16:35Z</time>
      </trkpt>
      <trkpt lat="43.75352" lon="6.90814">
        <ele>1271</ele>
        <time>2011-09-06T10:16:38Z</time>
      </trkpt>
      <trkpt lat="43.75354" lon="6.90816">
        <ele>1270.52</ele>
        <time>2011-09-06T10:16:41Z</time>
      </trkpt>
      <trkpt lat="43.75359" lon="6.9082">
        <ele>1270.52</ele>
        <time>2011-09-06T10:16:47Z</time>
      </trkpt>
      <trkpt lat="43.75365" lon="6.90825">
        <ele>1269.56</ele>
        <time>2011-09-06T10:16:54Z</time>
      </trkpt>
      <trkpt lat="43.75373" lon="6.90834">
        <ele>1269.08</ele>
        <time>2011-09-06T10:17:06Z</time>
      </trkpt>
      <trkpt lat="43.75375" lon="6.90836">
        <ele>1267.64</ele>
        <time>2011-09-06T10:17:09Z</time>
      </trkpt>
      <trkpt lat="43.75383" lon="6.90848">
        <ele>1267.64</ele>
        <time>2011-09-06T10:17:23Z</time>
      </trkpt>
      <trkpt lat="43.75383" lon="6.90849">
        <ele>1268.6</ele>
        <time>2011-09-06T10:17:24Z</time>
      </trkpt>
      <trkpt lat="43.75388" lon="6.90862">
        <ele>1267.16</ele>
        <time>2011-09-06T10:17:36Z</time>
      </trkpt>
      <trkpt lat="43.75393" lon="6.90877">
        <ele>1267.16</ele>
        <time>2011-09-06T10:17:48Z</time>
      </trkpt>
      <trkpt lat="43.75394" lon="6.90884">
        <ele>1266.67</ele>
        <time>2011-09-06T10:17:52Z</time>
      </trkpt>
      <trkpt lat="43.754" lon="6.90894">
        <ele>1267.64</ele>
        <time>2011-09-06T10:18:00Z</time>
      </trkpt>
      <trkpt lat="43.75403" lon="6.90898">
        <ele>1266.67</ele>
        <time>2011-09-06T10:18:03Z</time>
      </trkpt>
      <trkpt lat="43.75407" lon="6.90905">
        <ele>1267.64</ele>
        <time>2011-09-06T10:18:11Z</time>
      </trkpt>
      <trkpt lat="43.75408" lon="6.90908">
        <ele>1267.16</ele>
        <time>2011-09-06T10:18:13Z</time>
      </trkpt>
      <trkpt lat="43.75414" lon="6.90927">
        <ele>1267.16</ele>
        <time>2011-09-06T10:18:27Z</time>
      </trkpt>
      <trkpt lat="43.75423" lon="6.90938">
        <ele>1267.16</ele>
        <time>2011-09-06T10:18:39Z</time>
      </trkpt>
      <trkpt lat="43.7543" lon="6.90946">
        <ele>1267.64</ele>
        <time>2011-09-06T10:18:48Z</time>
      </trkpt>
      <trkpt lat="43.75432" lon="6.90954">
        <ele>1268.12</ele>
        <time>2011-09-06T10:18:54Z</time>
      </trkpt>
      <trkpt lat="43.75436" lon="6.90972">
        <ele>1267.16</ele>
        <time>2011-09-06T10:19:09Z</time>
      </trkpt>
      <trkpt lat="43.75442" lon="6.90987">
        <ele>1267.16</ele>
        <time>2011-09-06T10:19:22Z</time>
      </trkpt>
      <trkpt lat="43.75446" lon="6.91002">
        <ele>1268.12</ele>
        <time>2011-09-06T10:19:37Z</time>
      </trkpt>
      <trkpt lat="43.75453" lon="6.91011">
        <ele>1268.6</ele>
        <time>2011-09-06T10:19:49Z</time>
      </trkpt>
      <trkpt lat="43.75459" lon="6.91016">
        <ele>1270.04</ele>
        <time>2011-09-06T10:19:59Z</time>
      </trkpt>
      <trkpt lat="43.75462" lon="6.91017">
        <ele>1269.56</ele>
        <time>2011-09-06T10:20:03Z</time>
      </trkpt>
      <trkpt lat="43.75465" lon="6.91015">
        <ele>1268.12</ele>
        <time>2011-09-06T10:20:06Z</time>
      </trkpt>
      <trkpt lat="43.75467" lon="6.91014">
        <ele>1268.6</ele>
        <time>2011-09-06T10:20:08Z</time>
      </trkpt>
      <trkpt lat="43.75478" lon="6.91008">
        <ele>1268.6</ele>
        <time>2011-09-06T10:20:22Z</time>
      </trkpt>
      <trkpt lat="43.75479" lon="6.91005">
        <ele>1267.64</ele>
        <time>2011-09-06T10:20:25Z</time>
      </trkpt>
      <trkpt lat="43.75481" lon="6.90996">
        <ele>1267.64</ele>
        <time>2011-09-06T10:20:38Z</time>
      </trkpt>
      <trkpt lat="43.75482" lon="6.90995">
        <ele>1266.67</ele>
        <time>2011-09-06T10:20:50Z</time>
      </trkpt>
      <trkpt lat="43.75482" lon="6.90993">
        <ele>1267.16</ele>
        <time>2011-09-06T10:21:06Z</time>
      </trkpt>
      <trkpt lat="43.75482" lon="6.90993">
        <ele>1268.12</ele>
        <time>2011-09-06T10:21:38Z</time>
      </trkpt>
      <trkpt lat="43.75483" lon="6.90993">
        <ele>1267.64</ele>
        <time>2011-09-06T10:22:05Z</time>
      </trkpt>
      <trkpt lat="43.75484" lon="6.90993">
        <ele>1268.12</ele>
        <time>2011-09-06T10:22:43Z</time>
      </trkpt>
      <trkpt lat="43.75484" lon="6.90993">
        <ele>1267.16</ele>
        <time>2011-09-06T10:23:13Z</time>
      </trkpt>
      <trkpt lat="43.75483" lon="6.90993">
        <ele>1267.64</ele>
        <time>2011-09-06T10:23:49Z</time>
      </trkpt>
      <trkpt lat="43.75487" lon="6.9099">
        <ele>1266.67</ele>
        <time>2011-09-06T10:24:14Z</time>
      </trkpt>
      <trkpt lat="43.75495" lon="6.90985">
        <ele>1264.27</ele>
        <time>2011-09-06T10:24:26Z</time>
      </trkpt>
      <trkpt lat="43.75503" lon="6.90978">
        <ele>1262.83</ele>
        <time>2011-09-06T10:24:38Z</time>
      </trkpt>
      <trkpt lat="43.75508" lon="6.90977">
        <ele>1261.39</ele>
        <time>2011-09-06T10:24:52Z</time>
      </trkpt>
      <trkpt lat="43.7551" lon="6.90976">
        <ele>1260.43</ele>
        <time>2011-09-06T10:24:59Z</time>
      </trkpt>
      <trkpt lat="43.75516" lon="6.90976">
        <ele>1260.43</ele>
        <time>2011-09-06T10:25:21Z</time>
      </trkpt>
      <trkpt lat="43.75522" lon="6.90979">
        <ele>1258.02</ele>
        <time>2011-09-06T10:25:34Z</time>
      </trkpt>
      <trkpt lat="43.75525" lon="6.90979">
        <ele>1256.58</ele>
        <time>2011-09-06T10:25:43Z</time>
      </trkpt>
      <trkpt lat="43.75527" lon="6.90983">
        <ele>1256.1</ele>
        <time>2011-09-06T10:25:47Z</time>
      </trkpt>
      <trkpt lat="43.75534" lon="6.90988">
        <ele>1253.22</ele>
        <time>2011-09-06T10:25:58Z</time>
      </trkpt>
      <trkpt lat="43.75538" lon="6.90991">
        <ele>1251.77</ele>
        <time>2011-09-06T10:26:08Z</time>
      </trkpt>
      <trkpt lat="43.75546" lon="6.90997">
        <ele>1249.85</ele>
        <time>2011-09-06T10:26:20Z</time>
      </trkpt>
      <trkpt lat="43.75552" lon="6.90997">
        <ele>1247.45</ele>
        <time>2011-09-06T10:26:31Z</time>
      </trkpt>
      <trkpt lat="43.75553" lon="6.90993">
        <ele>1246.01</ele>
        <time>2011-09-06T10:26:37Z</time>
      </trkpt>
      <trkpt lat="43.7556" lon="6.9099">
        <ele>1245.53</ele>
        <time>2011-09-06T10:26:45Z</time>
      </trkpt>
      <trkpt lat="43.75562" lon="6.90989">
        <ele>1244.56</ele>
        <time>2011-09-06T10:26:47Z</time>
      </trkpt>
      <trkpt lat="43.75564" lon="6.90989">
        <ele>1244.08</ele>
        <time>2011-09-06T10:26:49Z</time>
      </trkpt>
      <trkpt lat="43.75576" lon="6.90992">
        <ele>1241.68</ele>
        <time>2011-09-06T10:27:03Z</time>
      </trkpt>
      <trkpt lat="43.75585" lon="6.90996">
        <ele>1242.16</ele>
        <time>2011-09-06T10:27:15Z</time>
      </trkpt>
      <trkpt lat="43.75588" lon="6.90997">
        <ele>1241.68</ele>
        <time>2011-09-06T10:27:18Z</time>
      </trkpt>
      <trkpt lat="43.7559" lon="6.90999">
        <ele>1242.16</ele>
        <time>2011-09-06T10:27:20Z</time>
      </trkpt>
      <trkpt lat="43.75598" lon="6.91005">
        <ele>1242.16</ele>
        <time>2011-09-06T10:27:28Z</time>
      </trkpt>
      <trkpt lat="43.75612" lon="6.91018">
        <ele>1241.68</ele>
        <time>2011-09-06T10:27:43Z</time>
      </trkpt>
      <trkpt lat="43.75618" lon="6.91025">
        <ele>1239.76</ele>
        <time>2011-09-06T10:27:51Z</time>
      </trkpt>
      <trkpt lat="43.75631" lon="6.9104">
        <ele>1240.24</ele>
        <time>2011-09-06T10:28:05Z</time>
      </trkpt>
      <trkpt lat="43.75637" lon="6.91045">
        <ele>1240.72</ele>
        <time>2011-09-06T10:28:11Z</time>
      </trkpt>
      <trkpt lat="43.75641" lon="6.91049">
        <ele>1240.24</ele>
        <time>2011-09-06T10:28:15Z</time>
      </trkpt>
      <trkpt lat="43.75655" lon="6.91061">
        <ele>1240.24</ele>
        <time>2011-09-06T10:28:29Z</time>
      </trkpt>
      <trkpt lat="43.75669" lon="6.9107">
        <ele>1240.24</ele>
        <time>2011-09-06T10:28:43Z</time>
      </trkpt>
      <trkpt lat="43.75674" lon="6.91075">
        <ele>1240.72</ele>
        <time>2011-09-06T10:28:49Z</time>
      </trkpt>
      <trkpt lat="43.7569" lon="6.9108">
        <ele>1240.24</ele>
        <time>2011-09-06T10:29:04Z</time>
      </trkpt>
      <trkpt lat="43.75695" lon="6.91077">
        <ele>1240.24</ele>
        <time>2011-09-06T10:29:11Z</time>
      </trkpt>
      <trkpt lat="43.75701" lon="6.91084">
        <ele>1238.8</ele>
        <time>2011-09-06T10:29:23Z</time>
      </trkpt>
      <trkpt lat="43.75712" lon="6.91104">
        <ele>1238.8</ele>
        <time>2011-09-06T10:29:38Z</time>
      </trkpt>
      <trkpt lat="43.75722" lon="6.91121">
        <ele>1237.35</ele>
        <time>2011-09-06T10:29:51Z</time>
      </trkpt>
      <trkpt lat="43.75729" lon="6.91129">
        <ele>1238.32</ele>
        <time>2011-09-06T10:30:01Z</time>
      </trkpt>
      <trkpt lat="43.75734" lon="6.9114">
        <ele>1238.8</ele>
        <time>2011-09-06T10:30:12Z</time>
      </trkpt>
      <trkpt lat="43.75739" lon="6.91157">
        <ele>1236.87</ele>
        <time>2011-09-06T10:30:26Z</time>
      </trkpt>
      <trkpt lat="43.75747" lon="6.91175">
        <ele>1236.87</ele>
        <time>2011-09-06T10:30:40Z</time>
      </trkpt>
      <trkpt lat="43.75752" lon="6.91191">
        <ele>1236.87</ele>
        <time>2011-09-06T10:30:53Z</time>
      </trkpt>
      <trkpt lat="43.75759" lon="6.91205">
        <ele>1237.35</ele>
        <time>2011-09-06T10:31:05Z</time>
      </trkpt>
      <trkpt lat="43.75772" lon="6.91219">
        <ele>1237.83</ele>
        <time>2011-09-06T10:31:20Z</time>
      </trkpt>
      <trkpt lat="43.75773" lon="6.91221">
        <ele>1237.35</ele>
        <time>2011-09-06T10:31:22Z</time>
      </trkpt>
      <trkpt lat="43.75782" lon="6.91234">
        <ele>1236.87</ele>
        <time>2011-09-06T10:31:34Z</time>
      </trkpt>
      <trkpt lat="43.75794" lon="6.9125">
        <ele>1238.32</ele>
        <time>2011-09-06T10:31:49Z</time>
      </trkpt>
      <trkpt lat="43.75796" lon="6.91252">
        <ele>1237.83</ele>
        <time>2011-09-06T10:31:51Z</time>
      </trkpt>
      <trkpt lat="43.75796" lon="6.91254">
        <ele>1237.83</ele>
        <time>2011-09-06T10:31:53Z</time>
      </trkpt>
      <trkpt lat="43.75805" lon="6.91271">
        <ele>1238.8</ele>
        <time>2011-09-06T10:32:08Z</time>
      </trkpt>
      <trkpt lat="43.7581" lon="6.9128">
        <ele>1238.8</ele>
        <time>2011-09-06T10:32:17Z</time>
      </trkpt>
      <trkpt lat="43.75812" lon="6.91283">
        <ele>1239.28</ele>
        <time>2011-09-06T10:32:20Z</time>
      </trkpt>
      <trkpt lat="43.75814" lon="6.91287">
        <ele>1238.8</ele>
        <time>2011-09-06T10:32:23Z</time>
      </trkpt>
      <trkpt lat="43.75823" lon="6.91305">
        <ele>1239.76</ele>
        <time>2011-09-06T10:32:38Z</time>
      </trkpt>
      <trkpt lat="43.75829" lon="6.91318">
        <ele>1238.8</ele>
        <time>2011-09-06T10:32:51Z</time>
      </trkpt>
      <trkpt lat="43.7583" lon="6.9132">
        <ele>1239.28</ele>
        <time>2011-09-06T10:32:53Z</time>
      </trkpt>
      <trkpt lat="43.75834" lon="6.91332">
        <ele>1237.35</ele>
        <time>2011-09-06T10:33:07Z</time>
      </trkpt>
      <trkpt lat="43.75837" lon="6.91341">
        <ele>1236.39</ele>
        <time>2011-09-06T10:33:15Z</time>
      </trkpt>
      <trkpt lat="43.75842" lon="6.91358">
        <ele>1235.91</ele>
        <time>2011-09-06T10:33:29Z</time>
      </trkpt>
      <trkpt lat="43.75853" lon="6.91371">
        <ele>1233.99</ele>
        <time>2011-09-06T10:33:43Z</time>
      </trkpt>
      <trkpt lat="43.75867" lon="6.91377">
        <ele>1233.99</ele>
        <time>2011-09-06T10:33:56Z</time>
      </trkpt>
      <trkpt lat="43.75871" lon="6.91379">
        <ele>1233.51</ele>
        <time>2011-09-06T10:33:59Z</time>
      </trkpt>
      <trkpt lat="43.7588" lon="6.91378">
        <ele>1234.47</ele>
        <time>2011-09-06T10:34:14Z</time>
      </trkpt>
      <trkpt lat="43.7588" lon="6.91379">
        <ele>1234.47</ele>
        <time>2011-09-06T10:34:25Z</time>
      </trkpt>
      <trkpt lat="43.75887" lon="6.91381">
        <ele>1234.95</ele>
        <time>2011-09-06T10:34:39Z</time>
      </trkpt>
      <trkpt lat="43.75885" lon="6.91378">
        <ele>1234.47</ele>
        <time>2011-09-06T10:34:49Z</time>
      </trkpt>
      <trkpt lat="43.75885" lon="6.91378">
        <ele>1234.47</ele>
        <time>2011-09-06T10:35:04Z</time>
      </trkpt>
      <trkpt lat="43.75885" lon="6.91378">
        <ele>1234.95</ele>
        <time>2011-09-06T10:35:20Z</time>
      </trkpt>
      <trkpt lat="43.75885" lon="6.91378">
        <ele>1235.43</ele>
        <time>2011-09-06T10:35:52Z</time>
      </trkpt>
      <trkpt lat="43.75885" lon="6.91378">
        <ele>1235.43</ele>
        <time>2011-09-06T10:36:17Z</time>
      </trkpt>
      <trkpt lat="43.75885" lon="6.91377">
        <ele>1234.95</ele>
        <time>2011-09-06T10:36:35Z</time>
      </trkpt>
      <trkpt lat="43.75885" lon="6.91377">
        <ele>1234.95</ele>
        <time>2011-09-06T10:37:01Z</time>
      </trkpt>
      <trkpt lat="43.75885" lon="6.91377">
        <ele>1234.95</ele>
        <time>2011-09-06T10:37:30Z</time>
      </trkpt>
      <trkpt lat="43.75886" lon="6.91378">
        <ele>1234.95</ele>
        <time>2011-09-06T10:37:58Z</time>
      </trkpt>
      <trkpt lat="43.75883" lon="6.91375">
        <ele>1235.43</ele>
        <time>2011-09-06T10:38:17Z</time>
      </trkpt>
      <trkpt lat="43.75885" lon="6.91371">
        <ele>1235.43</ele>
        <time>2011-09-06T10:38:29Z</time>
      </trkpt>
      <trkpt lat="43.75882" lon="6.91377">
        <ele>1234.47</ele>
        <time>2011-09-06T10:38:39Z</time>
      </trkpt>
      <trkpt lat="43.75885" lon="6.91383">
        <ele>1233.99</ele>
        <time>2011-09-06T10:38:52Z</time>
      </trkpt>
      <trkpt lat="43.75894" lon="6.91389">
        <ele>1234.47</ele>
        <time>2011-09-06T10:39:06Z</time>
      </trkpt>
      <trkpt lat="43.75896" lon="6.91389">
        <ele>1233.99</ele>
        <time>2011-09-06T10:39:08Z</time>
      </trkpt>
      <trkpt lat="43.75902" lon="6.91387">
        <ele>1235.43</ele>
        <time>2011-09-06T10:39:14Z</time>
      </trkpt>
      <trkpt lat="43.75908" lon="6.91382">
        <ele>1236.87</ele>
        <time>2011-09-06T10:39:22Z</time>
      </trkpt>
      <trkpt lat="43.75913" lon="6.9137">
        <ele>1238.8</ele>
        <time>2011-09-06T10:39:36Z</time>
      </trkpt>
      <trkpt lat="43.75913" lon="6.91368">
        <ele>1239.28</ele>
        <time>2011-09-06T10:39:40Z</time>
      </trkpt>
      <trkpt lat="43.75914" lon="6.91364">
        <ele>1241.2</ele>
        <time>2011-09-06T10:39:43Z</time>
      </trkpt>
      <trkpt lat="43.75916" lon="6.91354">
        <ele>1242.64</ele>
        <time>2011-09-06T10:39:57Z</time>
      </trkpt>
      <trkpt lat="43.75919" lon="6.91346">
        <ele>1243.12</ele>
        <time>2011-09-06T10:40:08Z</time>
      </trkpt>
      <trkpt lat="43.75924" lon="6.91328">
        <ele>1242.64</ele>
        <time>2011-09-06T10:40:23Z</time>
      </trkpt>
      <trkpt lat="43.75925" lon="6.91311">
        <ele>1242.16</ele>
        <time>2011-09-06T10:40:36Z</time>
      </trkpt>
      <trkpt lat="43.75924" lon="6.91302">
        <ele>1241.68</ele>
        <time>2011-09-06T10:40:42Z</time>
      </trkpt>
      <trkpt lat="43.75924" lon="6.91292">
        <ele>1241.2</ele>
        <time>2011-09-06T10:40:56Z</time>
      </trkpt>
      <trkpt lat="43.75923" lon="6.91288">
        <ele>1241.2</ele>
        <time>2011-09-06T10:41:13Z</time>
      </trkpt>
      <trkpt lat="43.75922" lon="6.91285">
        <ele>1241.68</ele>
        <time>2011-09-06T10:41:16Z</time>
      </trkpt>
      <trkpt lat="43.75925" lon="6.91276">
        <ele>1242.16</ele>
        <time>2011-09-06T10:41:28Z</time>
      </trkpt>
      <trkpt lat="43.75925" lon="6.91275">
        <ele>1241.2</ele>
        <time>2011-09-06T10:41:29Z</time>
      </trkpt>
      <trkpt lat="43.75928" lon="6.91261">
        <ele>1241.2</ele>
        <time>2011-09-06T10:41:43Z</time>
      </trkpt>
      <trkpt lat="43.75931" lon="6.91255">
        <ele>1240.72</ele>
        <time>2011-09-06T10:41:59Z</time>
      </trkpt>
      <trkpt lat="43.75932" lon="6.91242">
        <ele>1241.2</ele>
        <time>2011-09-06T10:42:11Z</time>
      </trkpt>
      <trkpt lat="43.75934" lon="6.91227">
        <ele>1241.2</ele>
        <time>2011-09-06T10:42:22Z</time>
      </trkpt>
      <trkpt lat="43.75931" lon="6.91211">
        <ele>1240.24</ele>
        <time>2011-09-06T10:42:36Z</time>
      </trkpt>
      <trkpt lat="43.7593" lon="6.91209">
        <ele>1240.24</ele>
        <time>2011-09-06T10:42:52Z</time>
      </trkpt>
      <trkpt lat="43.7593" lon="6.91209">
        <ele>1240.24</ele>
        <time>2011-09-06T10:43:09Z</time>
      </trkpt>
      <trkpt lat="43.7593" lon="6.91209">
        <ele>1240.24</ele>
        <time>2011-09-06T10:43:28Z</time>
      </trkpt>
      <trkpt lat="43.75932" lon="6.91209">
        <ele>1240.24</ele>
        <time>2011-09-06T10:43:47Z</time>
      </trkpt>
      <trkpt lat="43.75934" lon="6.91209">
        <ele>1240.24</ele>
        <time>2011-09-06T10:44:01Z</time>
      </trkpt>
      <trkpt lat="43.75936" lon="6.91208">
        <ele>1241.2</ele>
        <time>2011-09-06T10:44:17Z</time>
      </trkpt>
      <trkpt lat="43.75937" lon="6.91208">
        <ele>1241.68</ele>
        <time>2011-09-06T10:44:37Z</time>
      </trkpt>
      <trkpt lat="43.75938" lon="6.91203">
        <ele>1240.72</ele>
        <time>2011-09-06T10:44:40Z</time>
      </trkpt>
      <trkpt lat="43.75946" lon="6.91191">
        <ele>1241.68</ele>
        <time>2011-09-06T10:44:56Z</time>
      </trkpt>
      <trkpt lat="43.75948" lon="6.91186">
        <ele>1243.12</ele>
        <time>2011-09-06T10:45:08Z</time>
      </trkpt>
      <trkpt lat="43.7595" lon="6.91185">
        <ele>1243.12</ele>
        <time>2011-09-06T10:45:10Z</time>
      </trkpt>
      <trkpt lat="43.75953" lon="6.91179">
        <ele>1244.56</ele>
        <time>2011-09-06T10:45:23Z</time>
      </trkpt>
      <trkpt lat="43.75953" lon="6.91178">
        <ele>1244.56</ele>
        <time>2011-09-06T10:45:35Z</time>
      </trkpt>
      <trkpt lat="43.75953" lon="6.91176">
        <ele>1245.04</ele>
        <time>2011-09-06T10:45:59Z</time>
      </trkpt>
      <trkpt lat="43.75951" lon="6.91167">
        <ele>1245.04</ele>
        <time>2011-09-06T10:46:08Z</time>
      </trkpt>
      <trkpt lat="43.75951" lon="6.91152">
        <ele>1245.04</ele>
        <time>2011-09-06T10:46:22Z</time>
      </trkpt>
      <trkpt lat="43.75951" lon="6.91149">
        <ele>1245.04</ele>
        <time>2011-09-06T10:46:25Z</time>
      </trkpt>
      <trkpt lat="43.75951" lon="6.91137">
        <ele>1245.53</ele>
        <time>2011-09-06T10:46:39Z</time>
      </trkpt>
      <trkpt lat="43.75951" lon="6.91126">
        <ele>1246.49</ele>
        <time>2011-09-06T10:46:52Z</time>
      </trkpt>
      <trkpt lat="43.75956" lon="6.91112">
        <ele>1246.01</ele>
        <time>2011-09-06T10:47:05Z</time>
      </trkpt>
      <trkpt lat="43.75961" lon="6.91107">
        <ele>1247.45</ele>
        <time>2011-09-06T10:47:13Z</time>
      </trkpt>
      <trkpt lat="43.7597" lon="6.91095">
        <ele>1248.41</ele>
        <time>2011-09-06T10:47:28Z</time>
      </trkpt>
      <trkpt lat="43.75977" lon="6.91084">
        <ele>1248.41</ele>
        <time>2011-09-06T10:47:41Z</time>
      </trkpt>
      <trkpt lat="43.75978" lon="6.91082">
        <ele>1247.93</ele>
        <time>2011-09-06T10:47:43Z</time>
      </trkpt>
      <trkpt lat="43.75983" lon="6.9107">
        <ele>1248.89</ele>
        <time>2011-09-06T10:47:57Z</time>
      </trkpt>
      <trkpt lat="43.75983" lon="6.91062">
        <ele>1249.37</ele>
        <time>2011-09-06T10:48:11Z</time>
      </trkpt>
      <trkpt lat="43.75985" lon="6.91052">
        <ele>1250.33</ele>
        <time>2011-09-06T10:48:25Z</time>
      </trkpt>
      <trkpt lat="43.75986" lon="6.91046">
        <ele>1252.25</ele>
        <time>2011-09-06T10:48:38Z</time>
      </trkpt>
      <trkpt lat="43.75986" lon="6.91046">
        <ele>1252.25</ele>
        <time>2011-09-06T10:48:43Z</time>
      </trkpt>
      <trkpt lat="43.7599" lon="6.91047">
        <ele>1252.25</ele>
        <time>2011-09-06T10:48:57Z</time>
      </trkpt>
      <trkpt lat="43.7599" lon="6.91047">
        <ele>1251.29</ele>
        <time>2011-09-06T10:49:16Z</time>
      </trkpt>
      <trkpt lat="43.7599" lon="6.91047">
        <ele>1252.25</ele>
        <time>2011-09-06T10:49:45Z</time>
      </trkpt>
      <trkpt lat="43.7599" lon="6.91047">
        <ele>1251.29</ele>
        <time>2011-09-06T10:50:19Z</time>
      </trkpt>
      <trkpt lat="43.7599" lon="6.91047">
        <ele>1251.77</ele>
        <time>2011-09-06T10:50:44Z</time>
      </trkpt>
      <trkpt lat="43.7599" lon="6.91047">
        <ele>1251.77</ele>
        <time>2011-09-06T10:51:12Z</time>
      </trkpt>
      <trkpt lat="43.7599" lon="6.91043">
        <ele>1252.74</ele>
        <time>2011-09-06T10:51:25Z</time>
      </trkpt>
      <trkpt lat="43.75989" lon="6.91042">
        <ele>1252.25</ele>
        <time>2011-09-06T10:51:39Z</time>
      </trkpt>
      <trkpt lat="43.75996" lon="6.91044">
        <ele>1253.7</ele>
        <time>2011-09-06T10:51:47Z</time>
      </trkpt>
      <trkpt lat="43.75997" lon="6.91048">
        <ele>1253.7</ele>
        <time>2011-09-06T10:51:51Z</time>
      </trkpt>
      <trkpt lat="43.75998" lon="6.9105">
        <ele>1254.66</ele>
        <time>2011-09-06T10:51:53Z</time>
      </trkpt>
      <trkpt lat="43.76001" lon="6.91052">
        <ele>1255.62</ele>
        <time>2011-09-06T10:52:07Z</time>
      </trkpt>
      <trkpt lat="43.76005" lon="6.91055">
        <ele>1256.58</ele>
        <time>2011-09-06T10:52:22Z</time>
      </trkpt>
      <trkpt lat="43.76006" lon="6.91055">
        <ele>1256.58</ele>
        <time>2011-09-06T10:52:45Z</time>
      </trkpt>
      <trkpt lat="43.76011" lon="6.91056">
        <ele>1256.1</ele>
        <time>2011-09-06T10:52:56Z</time>
      </trkpt>
      <trkpt lat="43.7602" lon="6.91057">
        <ele>1255.14</ele>
        <time>2011-09-06T10:53:10Z</time>
      </trkpt>
      <trkpt lat="43.76024" lon="6.91054">
        <ele>1255.14</ele>
        <time>2011-09-06T10:53:26Z</time>
      </trkpt>
      <trkpt lat="43.76025" lon="6.91055">
        <ele>1256.58</ele>
        <time>2011-09-06T10:53:40Z</time>
      </trkpt>
      <trkpt lat="43.76025" lon="6.91056">
        <ele>1255.62</ele>
        <time>2011-09-06T10:54:01Z</time>
      </trkpt>
      <trkpt lat="43.76026" lon="6.91055">
        <ele>1255.14</ele>
        <time>2011-09-06T10:54:23Z</time>
      </trkpt>
      <trkpt lat="43.76028" lon="6.91058">
        <ele>1255.14</ele>
        <time>2011-09-06T10:54:36Z</time>
      </trkpt>
      <trkpt lat="43.76028" lon="6.91058">
        <ele>1255.62</ele>
        <time>2011-09-06T10:54:47Z</time>
      </trkpt>
      <trkpt lat="43.76028" lon="6.91058">
        <ele>1255.62</ele>
        <time>2011-09-06T10:55:08Z</time>
      </trkpt>
      <trkpt lat="43.76029" lon="6.91058">
        <ele>1255.62</ele>
        <time>2011-09-06T10:55:40Z</time>
      </trkpt>
      <trkpt lat="43.76032" lon="6.91061">
        <ele>1255.14</ele>
        <time>2011-09-06T10:55:45Z</time>
      </trkpt>
      <trkpt lat="43.76034" lon="6.91062">
        <ele>1255.14</ele>
        <time>2011-09-06T10:55:47Z</time>
      </trkpt>
      <trkpt lat="43.76046" lon="6.91069">
        <ele>1255.14</ele>
        <time>2011-09-06T10:56:00Z</time>
      </trkpt>
      <trkpt lat="43.76049" lon="6.91069">
        <ele>1254.18</ele>
        <time>2011-09-06T10:56:03Z</time>
      </trkpt>
      <trkpt lat="43.76054" lon="6.91071">
        <ele>1254.18</ele>
        <time>2011-09-06T10:56:08Z</time>
      </trkpt>
      <trkpt lat="43.76062" lon="6.91076">
        <ele>1252.74</ele>
        <time>2011-09-06T10:56:20Z</time>
      </trkpt>
      <trkpt lat="43.76069" lon="6.91076">
        <ele>1251.77</ele>
        <time>2011-09-06T10:56:33Z</time>
      </trkpt>
      <trkpt lat="43.76071" lon="6.91083">
        <ele>1250.81</ele>
        <time>2011-09-06T10:56:45Z</time>
      </trkpt>
      <trkpt lat="43.76071" lon="6.91085">
        <ele>1249.37</ele>
        <time>2011-09-06T10:56:53Z</time>
      </trkpt>
      <trkpt lat="43.76069" lon="6.91088">
        <ele>1249.37</ele>
        <time>2011-09-06T10:57:06Z</time>
      </trkpt>
      <trkpt lat="43.76069" lon="6.91092">
        <ele>1249.85</ele>
        <time>2011-09-06T10:57:24Z</time>
      </trkpt>
      <trkpt lat="43.76069" lon="6.91091">
        <ele>1249.85</ele>
        <time>2011-09-06T10:57:43Z</time>
      </trkpt>
      <trkpt lat="43.76069" lon="6.91093">
        <ele>1249.85</ele>
        <time>2011-09-06T10:57:46Z</time>
      </trkpt>
      <trkpt lat="43.76071" lon="6.91098">
        <ele>1249.37</ele>
        <time>2011-09-06T10:57:58Z</time>
      </trkpt>
      <trkpt lat="43.76071" lon="6.91098">
        <ele>1250.33</ele>
        <time>2011-09-06T10:58:28Z</time>
      </trkpt>
      <trkpt lat="43.76071" lon="6.91098">
        <ele>1249.85</ele>
        <time>2011-09-06T10:58:44Z</time>
      </trkpt>
      <trkpt lat="43.76071" lon="6.91098">
        <ele>1250.33</ele>
        <time>2011-09-06T10:59:19Z</time>
      </trkpt>
      <trkpt lat="43.7607" lon="6.91097">
        <ele>1250.33</ele>
        <time>2011-09-06T10:59:41Z</time>
      </trkpt>
      <trkpt lat="43.76069" lon="6.9109">
        <ele>1248.89</ele>
        <time>2011-09-06T10:59:58Z</time>
      </trkpt>
      <trkpt lat="43.76069" lon="6.91089">
        <ele>1252.74</ele>
        <time>2011-09-06T10:59:59Z</time>
      </trkpt>
      <trkpt lat="43.76069" lon="6.91088">
        <ele>1246.49</ele>
        <time>2011-09-06T11:00:00Z</time>
      </trkpt>
      <trkpt lat="43.76069" lon="6.91088">
        <ele>1249.85</ele>
        <time>2011-09-06T11:00:01Z</time>
      </trkpt>
      <trkpt lat="43.76069" lon="6.91088">
        <ele>1249.37</ele>
        <time>2011-09-06T11:00:27Z</time>
      </trkpt>
      <trkpt lat="43.76072" lon="6.91078">
        <ele>1250.33</ele>
        <time>2011-09-06T11:00:42Z</time>
      </trkpt>
      <trkpt lat="43.76082" lon="6.91075">
        <ele>1251.29</ele>
        <time>2011-09-06T11:00:55Z</time>
      </trkpt>
      <trkpt lat="43.76086" lon="6.9108">
        <ele>1249.85</ele>
        <time>2011-09-06T11:01:09Z</time>
      </trkpt>
      <trkpt lat="43.76088" lon="6.91081">
        <ele>1250.33</ele>
        <time>2011-09-06T11:01:28Z</time>
      </trkpt>
      <trkpt lat="43.76093" lon="6.91082">
        <ele>1251.29</ele>
        <time>2011-09-06T11:01:35Z</time>
      </trkpt>
      <trkpt lat="43.76106" lon="6.9108">
        <ele>1251.29</ele>
        <time>2011-09-06T11:01:51Z</time>
      </trkpt>
      <trkpt lat="43.76113" lon="6.91079">
        <ele>1252.25</ele>
        <time>2011-09-06T11:01:58Z</time>
      </trkpt>
      <trkpt lat="43.76123" lon="6.91078">
        <ele>1250.81</ele>
        <time>2011-09-06T11:02:09Z</time>
      </trkpt>
      <trkpt lat="43.76124" lon="6.91078">
        <ele>1252.25</ele>
        <time>2011-09-06T11:02:11Z</time>
      </trkpt>
      <trkpt lat="43.76127" lon="6.91078">
        <ele>1251.77</ele>
        <time>2011-09-06T11:02:15Z</time>
      </trkpt>
      <trkpt lat="43.76138" lon="6.91079">
        <ele>1253.22</ele>
        <time>2011-09-06T11:02:30Z</time>
      </trkpt>
      <trkpt lat="43.7614" lon="6.91074">
        <ele>1253.22</ele>
        <time>2011-09-06T11:02:41Z</time>
      </trkpt>
      <trkpt lat="43.76144" lon="6.91073">
        <ele>1254.18</ele>
        <time>2011-09-06T11:02:54Z</time>
      </trkpt>
      <trkpt lat="43.76146" lon="6.91071">
        <ele>1254.18</ele>
        <time>2011-09-06T11:02:57Z</time>
      </trkpt>
      <trkpt lat="43.76156" lon="6.91066">
        <ele>1255.62</ele>
        <time>2011-09-06T11:03:11Z</time>
      </trkpt>
      <trkpt lat="43.76162" lon="6.91059">
        <ele>1255.62</ele>
        <time>2011-09-06T11:03:24Z</time>
      </trkpt>
      <trkpt lat="43.76164" lon="6.91056">
        <ele>1256.1</ele>
        <time>2011-09-06T11:03:34Z</time>
      </trkpt>
      <trkpt lat="43.76168" lon="6.91052">
        <ele>1256.1</ele>
        <time>2011-09-06T11:03:46Z</time>
      </trkpt>
      <trkpt lat="43.76168" lon="6.91042">
        <ele>1257.54</ele>
        <time>2011-09-06T11:03:59Z</time>
      </trkpt>
      <trkpt lat="43.76167" lon="6.91038">
        <ele>1257.06</ele>
        <time>2011-09-06T11:04:02Z</time>
      </trkpt>
      <trkpt lat="43.76167" lon="6.91022">
        <ele>1256.58</ele>
        <time>2011-09-06T11:04:16Z</time>
      </trkpt>
      <trkpt lat="43.76168" lon="6.91015">
        <ele>1257.06</ele>
        <time>2011-09-06T11:04:24Z</time>
      </trkpt>
      <trkpt lat="43.76169" lon="6.91007">
        <ele>1257.06</ele>
        <time>2011-09-06T11:04:33Z</time>
      </trkpt>
      <trkpt lat="43.76172" lon="6.90994">
        <ele>1256.1</ele>
        <time>2011-09-06T11:04:45Z</time>
      </trkpt>
      <trkpt lat="43.76173" lon="6.90985">
        <ele>1256.58</ele>
        <time>2011-09-06T11:04:57Z</time>
      </trkpt>
      <trkpt lat="43.76174" lon="6.90981">
        <ele>1256.58</ele>
        <time>2011-09-06T11:05:12Z</time>
      </trkpt>
      <trkpt lat="43.76174" lon="6.90981">
        <ele>1256.58</ele>
        <time>2011-09-06T11:05:37Z</time>
      </trkpt>
      <trkpt lat="43.76174" lon="6.90981">
        <ele>1256.1</ele>
        <time>2011-09-06T11:06:00Z</time>
      </trkpt>
      <trkpt lat="43.76174" lon="6.90977">
        <ele>1257.54</ele>
        <time>2011-09-06T11:06:26Z</time>
      </trkpt>
      <trkpt lat="43.76175" lon="6.90966">
        <ele>1257.54</ele>
        <time>2011-09-06T11:06:39Z</time>
      </trkpt>
      <trkpt lat="43.76175" lon="6.90965">
        <ele>1257.06</ele>
        <time>2011-09-06T11:06:40Z</time>
      </trkpt>
      <trkpt lat="43.76178" lon="6.90954">
        <ele>1257.06</ele>
        <time>2011-09-06T11:06:51Z</time>
      </trkpt>
      <trkpt lat="43.7618" lon="6.90946">
        <ele>1256.58</ele>
        <time>2011-09-06T11:06:59Z</time>
      </trkpt>
      <trkpt lat="43.7618" lon="6.90933">
        <ele>1257.06</ele>
        <time>2011-09-06T11:07:10Z</time>
      </trkpt>
      <trkpt lat="43.76179" lon="6.90922">
        <ele>1257.06</ele>
        <time>2011-09-06T11:07:21Z</time>
      </trkpt>
      <trkpt lat="43.76178" lon="6.90919">
        <ele>1257.54</ele>
        <time>2011-09-06T11:07:29Z</time>
      </trkpt>
      <trkpt lat="43.76178" lon="6.90914">
        <ele>1257.06</ele>
        <time>2011-09-06T11:07:32Z</time>
      </trkpt>
      <trkpt lat="43.76177" lon="6.909">
        <ele>1257.54</ele>
        <time>2011-09-06T11:07:47Z</time>
      </trkpt>
      <trkpt lat="43.76177" lon="6.90897">
        <ele>1258.5</ele>
        <time>2011-09-06T11:07:59Z</time>
      </trkpt>
      <trkpt lat="43.76175" lon="6.90897">
        <ele>1258.5</ele>
        <time>2011-09-06T11:08:17Z</time>
      </trkpt>
      <trkpt lat="43.76178" lon="6.90893">
        <ele>1258.5</ele>
        <time>2011-09-06T11:08:47Z</time>
      </trkpt>
      <trkpt lat="43.76179" lon="6.90889">
        <ele>1258.02</ele>
        <time>2011-09-06T11:09:02Z</time>
      </trkpt>
      <trkpt lat="43.7618" lon="6.90885">
        <ele>1259.46</ele>
        <time>2011-09-06T11:09:08Z</time>
      </trkpt>
      <trkpt lat="43.76181" lon="6.90877">
        <ele>1258.02</ele>
        <time>2011-09-06T11:09:14Z</time>
      </trkpt>
      <trkpt lat="43.76181" lon="6.90864">
        <ele>1259.94</ele>
        <time>2011-09-06T11:09:25Z</time>
      </trkpt>
      <trkpt lat="43.7618" lon="6.9086">
        <ele>1258.98</ele>
        <time>2011-09-06T11:09:29Z</time>
      </trkpt>
      <trkpt lat="43.76176" lon="6.90842">
        <ele>1260.43</ele>
        <time>2011-09-06T11:09:45Z</time>
      </trkpt>
      <trkpt lat="43.76176" lon="6.90827">
        <ele>1261.87</ele>
        <time>2011-09-06T11:09:58Z</time>
      </trkpt>
      <trkpt lat="43.76181" lon="6.90825">
        <ele>1261.39</ele>
        <time>2011-09-06T11:10:11Z</time>
      </trkpt>
      <trkpt lat="43.76187" lon="6.90828">
        <ele>1259.94</ele>
        <time>2011-09-06T11:10:22Z</time>
      </trkpt>
      <trkpt lat="43.76191" lon="6.90828">
        <ele>1259.94</ele>
        <time>2011-09-06T11:10:32Z</time>
      </trkpt>
      <trkpt lat="43.76197" lon="6.90818">
        <ele>1259.94</ele>
        <time>2011-09-06T11:10:41Z</time>
      </trkpt>
      <trkpt lat="43.76197" lon="6.90811">
        <ele>1259.94</ele>
        <time>2011-09-06T11:10:55Z</time>
      </trkpt>
      <trkpt lat="43.76197" lon="6.90811">
        <ele>1258.98</ele>
        <time>2011-09-06T11:11:25Z</time>
      </trkpt>
      <trkpt lat="43.76193" lon="6.90807">
        <ele>1259.46</ele>
        <time>2011-09-06T11:11:47Z</time>
      </trkpt>
      <trkpt lat="43.76192" lon="6.90806">
        <ele>1259.46</ele>
        <time>2011-09-06T11:12:06Z</time>
      </trkpt>
      <trkpt lat="43.76191" lon="6.90803">
        <ele>1259.46</ele>
        <time>2011-09-06T11:12:21Z</time>
      </trkpt>
      <trkpt lat="43.76191" lon="6.90802">
        <ele>1258.98</ele>
        <time>2011-09-06T11:12:40Z</time>
      </trkpt>
      <trkpt lat="43.7619" lon="6.90802">
        <ele>1259.46</ele>
        <time>2011-09-06T11:13:00Z</time>
      </trkpt>
      <trkpt lat="43.7619" lon="6.90802">
        <ele>1259.94</ele>
        <time>2011-09-06T11:13:18Z</time>
      </trkpt>
      <trkpt lat="43.7619" lon="6.90802">
        <ele>1259.94</ele>
        <time>2011-09-06T11:13:45Z</time>
      </trkpt>
      <trkpt lat="43.76189" lon="6.90802">
        <ele>1259.94</ele>
        <time>2011-09-06T11:14:05Z</time>
      </trkpt>
      <trkpt lat="43.76192" lon="6.90802">
        <ele>1258.98</ele>
        <time>2011-09-06T11:14:19Z</time>
      </trkpt>
      <trkpt lat="43.76195" lon="6.90797">
        <ele>1258.98</ele>
        <time>2011-09-06T11:14:27Z</time>
      </trkpt>
      <trkpt lat="43.76203" lon="6.90795">
        <ele>1258.5</ele>
        <time>2011-09-06T11:14:39Z</time>
      </trkpt>
      <trkpt lat="43.76207" lon="6.90798">
        <ele>1258.02</ele>
        <time>2011-09-06T11:14:51Z</time>
      </trkpt>
      <trkpt lat="43.76215" lon="6.90803">
        <ele>1257.06</ele>
        <time>2011-09-06T11:15:04Z</time>
      </trkpt>
      <trkpt lat="43.76222" lon="6.90807">
        <ele>1254.66</ele>
        <time>2011-09-06T11:15:18Z</time>
      </trkpt>
      <trkpt lat="43.76223" lon="6.90808">
        <ele>1254.66</ele>
        <time>2011-09-06T11:15:20Z</time>
      </trkpt>
      <trkpt lat="43.76223" lon="6.90818">
        <ele>1254.18</ele>
        <time>2011-09-06T11:15:33Z</time>
      </trkpt>
      <trkpt lat="43.76223" lon="6.90818">
        <ele>1255.62</ele>
        <time>2011-09-06T11:15:47Z</time>
      </trkpt>
      <trkpt lat="43.76223" lon="6.90817">
        <ele>1254.66</ele>
        <time>2011-09-06T11:16:11Z</time>
      </trkpt>
      <trkpt lat="43.76223" lon="6.90817">
        <ele>1255.62</ele>
        <time>2011-09-06T11:16:33Z</time>
      </trkpt>
      <trkpt lat="43.76223" lon="6.90817">
        <ele>1255.62</ele>
        <time>2011-09-06T11:16:58Z</time>
      </trkpt>
      <trkpt lat="43.76223" lon="6.90817">
        <ele>1247.45</ele>
        <time>2011-09-06T11:17:23Z</time>
      </trkpt>
      <trkpt lat="43.76223" lon="6.90817">
        <ele>1249.85</ele>
        <time>2011-09-06T11:17:24Z</time>
      </trkpt>
      <trkpt lat="43.76223" lon="6.90817">
        <ele>1261.87</ele>
        <time>2011-09-06T11:17:25Z</time>
      </trkpt>
      <trkpt lat="43.76223" lon="6.90817">
        <ele>1255.14</ele>
        <time>2011-09-06T11:17:26Z</time>
      </trkpt>
      <trkpt lat="43.76223" lon="6.90817">
        <ele>1254.66</ele>
        <time>2011-09-06T11:17:50Z</time>
      </trkpt>
      <trkpt lat="43.76223" lon="6.90817">
        <ele>1254.66</ele>
        <time>2011-09-06T11:17:55Z</time>
      </trkpt>
      <trkpt lat="43.76223" lon="6.90817">
        <ele>1254.66</ele>
        <time>2011-09-06T11:18:22Z</time>
      </trkpt>
      <trkpt lat="43.76223" lon="6.90817">
        <ele>1254.66</ele>
        <time>2011-09-06T11:19:01Z</time>
      </trkpt>
      <trkpt lat="43.76223" lon="6.90816">
        <ele>1254.18</ele>
        <time>2011-09-06T11:19:36Z</time>
      </trkpt>
      <trkpt lat="43.76223" lon="6.90816">
        <ele>1253.22</ele>
        <time>2011-09-06T11:20:05Z</time>
      </trkpt>
      <trkpt lat="43.76222" lon="6.90816">
        <ele>1254.18</ele>
        <time>2011-09-06T11:20:49Z</time>
      </trkpt>
      <trkpt lat="43.76222" lon="6.90816">
        <ele>1254.66</ele>
        <time>2011-09-06T11:21:28Z</time>
      </trkpt>
      <trkpt lat="43.76222" lon="6.90816">
        <ele>1254.18</ele>
        <time>2011-09-06T11:22:07Z</time>
      </trkpt>
      <trkpt lat="43.76222" lon="6.90816">
        <ele>1255.14</ele>
        <time>2011-09-06T11:22:47Z</time>
      </trkpt>
      <trkpt lat="43.76222" lon="6.90815">
        <ele>1253.22</ele>
        <time>2011-09-06T11:23:25Z</time>
      </trkpt>
      <trkpt lat="43.76222" lon="6.90815">
        <ele>1254.18</ele>
        <time>2011-09-06T11:24:03Z</time>
      </trkpt>
      <trkpt lat="43.76222" lon="6.90815">
        <ele>1253.7</ele>
        <time>2011-09-06T11:24:39Z</time>
      </trkpt>
      <trkpt lat="43.76221" lon="6.90816">
        <ele>1254.18</ele>
        <time>2011-09-06T11:25:25Z</time>
      </trkpt>
      <trkpt lat="43.76221" lon="6.90815">
        <ele>1254.66</ele>
        <time>2011-09-06T11:26:03Z</time>
      </trkpt>
      <trkpt lat="43.76222" lon="6.90815">
        <ele>1253.7</ele>
        <time>2011-09-06T11:26:42Z</time>
      </trkpt>
      <trkpt lat="43.76222" lon="6.90815">
        <ele>1253.7</ele>
        <time>2011-09-06T11:27:19Z</time>
      </trkpt>
      <trkpt lat="43.76221" lon="6.90815">
        <ele>1254.66</ele>
        <time>2011-09-06T11:27:51Z</time>
      </trkpt>
      <trkpt lat="43.76221" lon="6.90816">
        <ele>1253.22</ele>
        <time>2011-09-06T11:28:29Z</time>
      </trkpt>
      <trkpt lat="43.76221" lon="6.90815">
        <ele>1253.7</ele>
        <time>2011-09-06T11:29:03Z</time>
      </trkpt>
      <trkpt lat="43.76221" lon="6.90815">
        <ele>1254.18</ele>
        <time>2011-09-06T11:29:40Z</time>
      </trkpt>
      <trkpt lat="43.76221" lon="6.90815">
        <ele>1254.18</ele>
        <time>2011-09-06T11:30:19Z</time>
      </trkpt>
      <trkpt lat="43.76221" lon="6.90816">
        <ele>1253.7</ele>
        <time>2011-09-06T11:30:58Z</time>
      </trkpt>
      <trkpt lat="43.76221" lon="6.90816">
        <ele>1254.18</ele>
        <time>2011-09-06T11:31:27Z</time>
      </trkpt>
      <trkpt lat="43.76221" lon="6.90815">
        <ele>1254.18</ele>
        <time>2011-09-06T11:32:06Z</time>
      </trkpt>
      <trkpt lat="43.7622" lon="6.90815">
        <ele>1254.18</ele>
        <time>2011-09-06T11:32:27Z</time>
      </trkpt>
      <trkpt lat="43.7622" lon="6.90815">
        <ele>1254.66</ele>
        <time>2011-09-06T11:32:49Z</time>
      </trkpt>
      <trkpt lat="43.7622" lon="6.90815">
        <ele>1253.7</ele>
        <time>2011-09-06T11:33:15Z</time>
      </trkpt>
      <trkpt lat="43.7622" lon="6.90815">
        <ele>1254.66</ele>
        <time>2011-09-06T11:33:17Z</time>
      </trkpt>
      <trkpt lat="43.7622" lon="6.90815">
        <ele>1254.18</ele>
        <time>2011-09-06T11:33:49Z</time>
      </trkpt>
      <trkpt lat="43.7622" lon="6.90815">
        <ele>1254.66</ele>
        <time>2011-09-06T11:34:20Z</time>
      </trkpt>
      <trkpt lat="43.7622" lon="6.90815">
        <ele>1254.18</ele>
        <time>2011-09-06T11:34:42Z</time>
      </trkpt>
      <trkpt lat="43.7622" lon="6.90814">
        <ele>1254.66</ele>
        <time>2011-09-06T11:35:18Z</time>
      </trkpt>
      <trkpt lat="43.7622" lon="6.90814">
        <ele>1254.18</ele>
        <time>2011-09-06T11:35:52Z</time>
      </trkpt>
      <trkpt lat="43.7622" lon="6.90814">
        <ele>1253.7</ele>
        <time>2011-09-06T11:36:30Z</time>
      </trkpt>
      <trkpt lat="43.7622" lon="6.90814">
        <ele>1254.66</ele>
        <time>2011-09-06T11:37:00Z</time>
      </trkpt>
      <trkpt lat="43.7622" lon="6.90814">
        <ele>1254.18</ele>
        <time>2011-09-06T11:37:33Z</time>
      </trkpt>
      <trkpt lat="43.7622" lon="6.90814">
        <ele>1254.18</ele>
        <time>2011-09-06T11:38:08Z</time>
      </trkpt>
      <trkpt lat="43.7622" lon="6.90814">
        <ele>1254.18</ele>
        <time>2011-09-06T11:38:37Z</time>
      </trkpt>
      <trkpt lat="43.7622" lon="6.90813">
        <ele>1254.18</ele>
        <time>2011-09-06T11:39:12Z</time>
      </trkpt>
      <trkpt lat="43.7622" lon="6.90813">
        <ele>1254.18</ele>
        <time>2011-09-06T11:39:44Z</time>
      </trkpt>
      <trkpt lat="43.7622" lon="6.90814">
        <ele>1254.18</ele>
        <time>2011-09-06T11:40:19Z</time>
      </trkpt>
      <trkpt lat="43.7622" lon="6.90814">
        <ele>1253.7</ele>
        <time>2011-09-06T11:40:52Z</time>
      </trkpt>
      <trkpt lat="43.7622" lon="6.90813">
        <ele>1253.22</ele>
        <time>2011-09-06T11:41:20Z</time>
      </trkpt>
      <trkpt lat="43.7622" lon="6.90813">
        <ele>1252.74</ele>
        <time>2011-09-06T11:41:39Z</time>
      </trkpt>
      <trkpt lat="43.7622" lon="6.90814">
        <ele>1252.74</ele>
        <time>2011-09-06T11:42:11Z</time>
      </trkpt>
      <trkpt lat="43.7622" lon="6.90814">
        <ele>1253.22</ele>
        <time>2011-09-06T11:42:41Z</time>
      </trkpt>
      <trkpt lat="43.7622" lon="6.90814">
        <ele>1253.7</ele>
        <time>2011-09-06T11:43:10Z</time>
      </trkpt>
      <trkpt lat="43.7622" lon="6.90814">
        <ele>1253.22</ele>
        <time>2011-09-06T11:43:42Z</time>
      </trkpt>
      <trkpt lat="43.7622" lon="6.90814">
        <ele>1252.74</ele>
        <time>2011-09-06T11:44:13Z</time>
      </trkpt>
      <trkpt lat="43.7622" lon="6.90814">
        <ele>1253.22</ele>
        <time>2011-09-06T11:44:42Z</time>
      </trkpt>
      <trkpt lat="43.7622" lon="6.90814">
        <ele>1253.22</ele>
        <time>2011-09-06T11:45:14Z</time>
      </trkpt>
      <trkpt lat="43.7622" lon="6.90814">
        <ele>1252.74</ele>
        <time>2011-09-06T11:45:48Z</time>
      </trkpt>
      <trkpt lat="43.7622" lon="6.90814">
        <ele>1252.74</ele>
        <time>2011-09-06T11:46:17Z</time>
      </trkpt>
      <trkpt lat="43.7622" lon="6.90814">
        <ele>1252.74</ele>
        <time>2011-09-06T11:46:46Z</time>
      </trkpt>
      <trkpt lat="43.7622" lon="6.90814">
        <ele>1253.22</ele>
        <time>2011-09-06T11:47:14Z</time>
      </trkpt>
      <trkpt lat="43.7622" lon="6.90814">
        <ele>1253.22</ele>
        <time>2011-09-06T11:47:38Z</time>
      </trkpt>
      <trkpt lat="43.76221" lon="6.90814">
        <ele>1252.25</ele>
        <time>2011-09-06T11:47:57Z</time>
      </trkpt>
      <trkpt lat="43.76221" lon="6.90814">
        <ele>1252.74</ele>
        <time>2011-09-06T11:48:31Z</time>
      </trkpt>
      <trkpt lat="43.76221" lon="6.90814">
        <ele>1252.74</ele>
        <time>2011-09-06T11:48:58Z</time>
      </trkpt>
      <trkpt lat="43.76221" lon="6.90814">
        <ele>1252.74</ele>
        <time>2011-09-06T11:49:32Z</time>
      </trkpt>
      <trkpt lat="43.7622" lon="6.90814">
        <ele>1253.22</ele>
        <time>2011-09-06T11:49:57Z</time>
      </trkpt>
      <trkpt lat="43.7622" lon="6.90814">
        <ele>1252.74</ele>
        <time>2011-09-06T11:50:24Z</time>
      </trkpt>
      <trkpt lat="43.76221" lon="6.90814">
        <ele>1251.77</ele>
        <time>2011-09-06T11:50:54Z</time>
      </trkpt>
      <trkpt lat="43.76221" lon="6.90814">
        <ele>1252.25</ele>
        <time>2011-09-06T11:51:22Z</time>
      </trkpt>
      <trkpt lat="43.76221" lon="6.90815">
        <ele>1252.74</ele>
        <time>2011-09-06T11:51:54Z</time>
      </trkpt>
      <trkpt lat="43.76221" lon="6.90815">
        <ele>1252.25</ele>
        <time>2011-09-06T11:52:24Z</time>
      </trkpt>
      <trkpt lat="43.76221" lon="6.90815">
        <ele>1252.74</ele>
        <time>2011-09-06T11:52:54Z</time>
      </trkpt>
      <trkpt lat="43.76221" lon="6.90815">
        <ele>1253.22</ele>
        <time>2011-09-06T11:53:25Z</time>
      </trkpt>
      <trkpt lat="43.76221" lon="6.90815">
        <ele>1253.22</ele>
        <time>2011-09-06T11:53:50Z</time>
      </trkpt>
      <trkpt lat="43.76221" lon="6.90814">
        <ele>1252.74</ele>
        <time>2011-09-06T11:54:22Z</time>
      </trkpt>
      <trkpt lat="43.76221" lon="6.90814">
        <ele>1252.25</ele>
        <time>2011-09-06T11:54:52Z</time>
      </trkpt>
      <trkpt lat="43.76221" lon="6.90814">
        <ele>1253.22</ele>
        <time>2011-09-06T11:55:20Z</time>
      </trkpt>
      <trkpt lat="43.76221" lon="6.90814">
        <ele>1253.7</ele>
        <time>2011-09-06T11:55:41Z</time>
      </trkpt>
      <trkpt lat="43.76221" lon="6.90814">
        <ele>1253.22</ele>
        <time>2011-09-06T11:56:04Z</time>
      </trkpt>
      <trkpt lat="43.76222" lon="6.90815">
        <ele>1253.22</ele>
        <time>2011-09-06T11:56:23Z</time>
      </trkpt>
      <trkpt lat="43.76222" lon="6.90815">
        <ele>1253.22</ele>
        <time>2011-09-06T11:56:50Z</time>
      </trkpt>
      <trkpt lat="43.76222" lon="6.90814">
        <ele>1254.18</ele>
        <time>2011-09-06T11:57:15Z</time>
      </trkpt>
      <trkpt lat="43.76222" lon="6.90814">
        <ele>1253.7</ele>
        <time>2011-09-06T11:57:43Z</time>
      </trkpt>
      <trkpt lat="43.76222" lon="6.90814">
        <ele>1253.7</ele>
        <time>2011-09-06T11:58:07Z</time>
      </trkpt>
      <trkpt lat="43.76221" lon="6.90814">
        <ele>1253.7</ele>
        <time>2011-09-06T11:58:40Z</time>
      </trkpt>
      <trkpt lat="43.76222" lon="6.90815">
        <ele>1253.7</ele>
        <time>2011-09-06T11:59:06Z</time>
      </trkpt>
      <trkpt lat="43.76222" lon="6.90815">
        <ele>1253.7</ele>
        <time>2011-09-06T11:59:36Z</time>
      </trkpt>
      <trkpt lat="43.76222" lon="6.90815">
        <ele>1253.22</ele>
        <time>2011-09-06T12:00:10Z</time>
      </trkpt>
      <trkpt lat="43.76222" lon="6.90815">
        <ele>1253.22</ele>
        <time>2011-09-06T12:00:46Z</time>
      </trkpt>
      <trkpt lat="43.76222" lon="6.90814">
        <ele>1253.7</ele>
        <time>2011-09-06T12:01:20Z</time>
      </trkpt>
      <trkpt lat="43.76221" lon="6.90814">
        <ele>1253.22</ele>
        <time>2011-09-06T12:01:56Z</time>
      </trkpt>
      <trkpt lat="43.76221" lon="6.90813">
        <ele>1253.7</ele>
        <time>2011-09-06T12:02:28Z</time>
      </trkpt>
      <trkpt lat="43.76221" lon="6.90813">
        <ele>1254.18</ele>
        <time>2011-09-06T12:02:34Z</time>
      </trkpt>
      <trkpt lat="43.76221" lon="6.90813">
        <ele>1253.22</ele>
        <time>2011-09-06T12:03:00Z</time>
      </trkpt>
      <trkpt lat="43.76221" lon="6.90813">
        <ele>1253.22</ele>
        <time>2011-09-06T12:03:33Z</time>
      </trkpt>
      <trkpt lat="43.76221" lon="6.90814">
        <ele>1253.22</ele>
        <time>2011-09-06T12:04:05Z</time>
      </trkpt>
      <trkpt lat="43.76221" lon="6.90814">
        <ele>1254.66</ele>
        <time>2011-09-06T12:04:32Z</time>
      </trkpt>
      <trkpt lat="43.76221" lon="6.90814">
        <ele>1253.7</ele>
        <time>2011-09-06T12:05:09Z</time>
      </trkpt>
      <trkpt lat="43.76222" lon="6.90813">
        <ele>1253.7</ele>
        <time>2011-09-06T12:05:42Z</time>
      </trkpt>
      <trkpt lat="43.76222" lon="6.90813">
        <ele>1254.18</ele>
        <time>2011-09-06T12:05:46Z</time>
      </trkpt>
      <trkpt lat="43.76222" lon="6.90813">
        <ele>1254.18</ele>
        <time>2011-09-06T12:06:18Z</time>
      </trkpt>
      <trkpt lat="43.76222" lon="6.90813">
        <ele>1253.7</ele>
        <time>2011-09-06T12:06:53Z</time>
      </trkpt>
      <trkpt lat="43.76222" lon="6.90813">
        <ele>1254.66</ele>
        <time>2011-09-06T12:07:22Z</time>
      </trkpt>
      <trkpt lat="43.76222" lon="6.90813">
        <ele>1253.22</ele>
        <time>2011-09-06T12:08:00Z</time>
      </trkpt>
      <trkpt lat="43.76222" lon="6.90813">
        <ele>1253.7</ele>
        <time>2011-09-06T12:08:36Z</time>
      </trkpt>
      <trkpt lat="43.76222" lon="6.90813">
        <ele>1253.7</ele>
        <time>2011-09-06T12:09:15Z</time>
      </trkpt>
      <trkpt lat="43.76222" lon="6.90813">
        <ele>1253.7</ele>
        <time>2011-09-06T12:09:51Z</time>
      </trkpt>
      <trkpt lat="43.76222" lon="6.90813">
        <ele>1252.74</ele>
        <time>2011-09-06T12:10:24Z</time>
      </trkpt>
      <trkpt lat="43.76222" lon="6.90813">
        <ele>1252.74</ele>
        <time>2011-09-06T12:10:58Z</time>
      </trkpt>
      <trkpt lat="43.76222" lon="6.90813">
        <ele>1252.25</ele>
        <time>2011-09-06T12:11:33Z</time>
      </trkpt>
      <trkpt lat="43.76222" lon="6.90813">
        <ele>1252.25</ele>
        <time>2011-09-06T12:12:14Z</time>
      </trkpt>
      <trkpt lat="43.76222" lon="6.90813">
        <ele>1252.74</ele>
        <time>2011-09-06T12:12:48Z</time>
      </trkpt>
      <trkpt lat="43.76221" lon="6.90813">
        <ele>1252.74</ele>
        <time>2011-09-06T12:13:22Z</time>
      </trkpt>
      <trkpt lat="43.76222" lon="6.90813">
        <ele>1253.22</ele>
        <time>2011-09-06T12:13:57Z</time>
      </trkpt>
      <trkpt lat="43.76221" lon="6.90813">
        <ele>1252.25</ele>
        <time>2011-09-06T12:14:32Z</time>
      </trkpt>
      <trkpt lat="43.76221" lon="6.90813">
        <ele>1252.74</ele>
        <time>2011-09-06T12:15:07Z</time>
      </trkpt>
      <trkpt lat="43.76221" lon="6.90813">
        <ele>1253.22</ele>
        <time>2011-09-06T12:15:43Z</time>
      </trkpt>
      <trkpt lat="43.76221" lon="6.90813">
        <ele>1251.77</ele>
        <time>2011-09-06T12:16:19Z</time>
      </trkpt>
      <trkpt lat="43.76221" lon="6.90813">
        <ele>1253.22</ele>
        <time>2011-09-06T12:16:57Z</time>
      </trkpt>
      <trkpt lat="43.76221" lon="6.90813">
        <ele>1252.25</ele>
        <time>2011-09-06T12:17:22Z</time>
      </trkpt>
      <trkpt lat="43.76222" lon="6.90814">
        <ele>1252.25</ele>
        <time>2011-09-06T12:17:59Z</time>
      </trkpt>
      <trkpt lat="43.76222" lon="6.90813">
        <ele>1253.22</ele>
        <time>2011-09-06T12:18:30Z</time>
      </trkpt>
      <trkpt lat="43.76221" lon="6.90814">
        <ele>1252.74</ele>
        <time>2011-09-06T12:19:12Z</time>
      </trkpt>
      <trkpt lat="43.76221" lon="6.90813">
        <ele>1251.77</ele>
        <time>2011-09-06T12:19:48Z</time>
      </trkpt>
      <trkpt lat="43.76221" lon="6.90814">
        <ele>1252.74</ele>
        <time>2011-09-06T12:20:26Z</time>
      </trkpt>
      <trkpt lat="43.76221" lon="6.90814">
        <ele>1252.74</ele>
        <time>2011-09-06T12:21:04Z</time>
      </trkpt>
      <trkpt lat="43.76221" lon="6.90814">
        <ele>1252.25</ele>
        <time>2011-09-06T12:21:43Z</time>
      </trkpt>
      <trkpt lat="43.76222" lon="6.90814">
        <ele>1252.74</ele>
        <time>2011-09-06T12:22:22Z</time>
      </trkpt>
      <trkpt lat="43.76222" lon="6.90814">
        <ele>1252.74</ele>
        <time>2011-09-06T12:22:23Z</time>
      </trkpt>
      <trkpt lat="43.76222" lon="6.90814">
        <ele>1251.77</ele>
        <time>2011-09-06T12:23:01Z</time>
      </trkpt>
      <trkpt lat="43.76222" lon="6.90814">
        <ele>1252.74</ele>
        <time>2011-09-06T12:23:40Z</time>
      </trkpt>
      <trkpt lat="43.76222" lon="6.90814">
        <ele>1251.77</ele>
        <time>2011-09-06T12:24:00Z</time>
      </trkpt>
      <trkpt lat="43.76222" lon="6.90814">
        <ele>1252.25</ele>
        <time>2011-09-06T12:24:37Z</time>
      </trkpt>
      <trkpt lat="43.76222" lon="6.90814">
        <ele>1251.77</ele>
        <time>2011-09-06T12:25:15Z</time>
      </trkpt>
      <trkpt lat="43.76221" lon="6.90813">
        <ele>1253.22</ele>
        <time>2011-09-06T12:25:53Z</time>
      </trkpt>
      <trkpt lat="43.76221" lon="6.90813">
        <ele>1252.25</ele>
        <time>2011-09-06T12:26:33Z</time>
      </trkpt>
      <trkpt lat="43.76221" lon="6.90814">
        <ele>1252.74</ele>
        <time>2011-09-06T12:27:11Z</time>
      </trkpt>
      <trkpt lat="43.76222" lon="6.90814">
        <ele>1252.74</ele>
        <time>2011-09-06T12:27:52Z</time>
      </trkpt>
      <trkpt lat="43.76222" lon="6.90814">
        <ele>1252.25</ele>
        <time>2011-09-06T12:28:33Z</time>
      </trkpt>
      <trkpt lat="43.76222" lon="6.90814">
        <ele>1252.74</ele>
        <time>2011-09-06T12:29:12Z</time>
      </trkpt>
      <trkpt lat="43.76222" lon="6.90814">
        <ele>1251.77</ele>
        <time>2011-09-06T12:29:29Z</time>
      </trkpt>
      <trkpt lat="43.76222" lon="6.90813">
        <ele>1252.74</ele>
        <time>2011-09-06T12:30:09Z</time>
      </trkpt>
      <trkpt lat="43.76222" lon="6.90813">
        <ele>1252.74</ele>
        <time>2011-09-06T12:30:37Z</time>
      </trkpt>
      <trkpt lat="43.76222" lon="6.90813">
        <ele>1251.77</ele>
        <time>2011-09-06T12:30:48Z</time>
      </trkpt>
      <trkpt lat="43.76222" lon="6.90813">
        <ele>1252.25</ele>
        <time>2011-09-06T12:31:18Z</time>
      </trkpt>
      <trkpt lat="43.76222" lon="6.90814">
        <ele>1251.77</ele>
        <time>2011-09-06T12:31:49Z</time>
      </trkpt>
      <trkpt lat="43.76222" lon="6.90814">
        <ele>1253.22</ele>
        <time>2011-09-06T12:31:52Z</time>
      </trkpt>
      <trkpt lat="43.76222" lon="6.90814">
        <ele>1253.22</ele>
        <time>2011-09-06T12:32:01Z</time>
      </trkpt>
      <trkpt lat="43.76222" lon="6.90813">
        <ele>1252.25</ele>
        <time>2011-09-06T12:32:39Z</time>
      </trkpt>
      <trkpt lat="43.76222" lon="6.90813">
        <ele>1251.77</ele>
        <time>2011-09-06T12:33:07Z</time>
      </trkpt>
      <trkpt lat="43.76222" lon="6.90813">
        <ele>1251.29</ele>
        <time>2011-09-06T12:33:28Z</time>
      </trkpt>
      <trkpt lat="43.76222" lon="6.90813">
        <ele>1251.77</ele>
        <time>2011-09-06T12:34:07Z</time>
      </trkpt>
      <trkpt lat="43.76222" lon="6.90813">
        <ele>1251.29</ele>
        <time>2011-09-06T12:34:40Z</time>
      </trkpt>
      <trkpt lat="43.76222" lon="6.90813">
        <ele>1253.22</ele>
        <time>2011-09-06T12:34:46Z</time>
      </trkpt>
      <trkpt lat="43.76222" lon="6.90813">
        <ele>1253.22</ele>
        <time>2011-09-06T12:35:24Z</time>
      </trkpt>
      <trkpt lat="43.76222" lon="6.90813">
        <ele>1253.22</ele>
        <time>2011-09-06T12:35:33Z</time>
      </trkpt>
      <trkpt lat="43.76223" lon="6.90813">
        <ele>1251.77</ele>
        <time>2011-09-06T12:36:18Z</time>
      </trkpt>
      <trkpt lat="43.76222" lon="6.90813">
        <ele>1252.25</ele>
        <time>2011-09-06T12:36:58Z</time>
      </trkpt>
      <trkpt lat="43.76222" lon="6.90813">
        <ele>1252.25</ele>
        <time>2011-09-06T12:37:06Z</time>
      </trkpt>
      <trkpt lat="43.76222" lon="6.90813">
        <ele>1251.29</ele>
        <time>2011-09-06T12:37:31Z</time>
      </trkpt>
      <trkpt lat="43.76223" lon="6.90813">
        <ele>1251.29</ele>
        <time>2011-09-06T12:38:00Z</time>
      </trkpt>
      <trkpt lat="43.76223" lon="6.90814">
        <ele>1252.74</ele>
        <time>2011-09-06T12:38:34Z</time>
      </trkpt>
      <trkpt lat="43.76223" lon="6.90813">
        <ele>1251.77</ele>
        <time>2011-09-06T12:39:11Z</time>
      </trkpt>
      <trkpt lat="43.76223" lon="6.90814">
        <ele>1251.77</ele>
        <time>2011-09-06T12:39:46Z</time>
      </trkpt>
      <trkpt lat="43.76223" lon="6.90812">
        <ele>1251.29</ele>
        <time>2011-09-06T12:40:24Z</time>
      </trkpt>
      <trkpt lat="43.76223" lon="6.90813">
        <ele>1251.29</ele>
        <time>2011-09-06T12:40:57Z</time>
      </trkpt>
      <trkpt lat="43.76223" lon="6.90813">
        <ele>1250.33</ele>
        <time>2011-09-06T12:41:27Z</time>
      </trkpt>
      <trkpt lat="43.76223" lon="6.90813">
        <ele>1251.29</ele>
        <time>2011-09-06T12:42:06Z</time>
      </trkpt>
      <trkpt lat="43.76223" lon="6.90813">
        <ele>1250.81</ele>
        <time>2011-09-06T12:42:39Z</time>
      </trkpt>
      <trkpt lat="43.76223" lon="6.90813">
        <ele>1251.77</ele>
        <time>2011-09-06T12:43:16Z</time>
      </trkpt>
      <trkpt lat="43.76223" lon="6.90813">
        <ele>1250.81</ele>
        <time>2011-09-06T12:43:50Z</time>
      </trkpt>
      <trkpt lat="43.76223" lon="6.90813">
        <ele>1250.81</ele>
        <time>2011-09-06T12:44:11Z</time>
      </trkpt>
      <trkpt lat="43.76223" lon="6.90814">
        <ele>1251.77</ele>
        <time>2011-09-06T12:44:23Z</time>
      </trkpt>
      <trkpt lat="43.76223" lon="6.90813">
        <ele>1251.77</ele>
        <time>2011-09-06T12:44:41Z</time>
      </trkpt>
      <trkpt lat="43.76223" lon="6.90812">
        <ele>1252.74</ele>
        <time>2011-09-06T12:44:53Z</time>
      </trkpt>
      <trkpt lat="43.76223" lon="6.90812">
        <ele>1251.77</ele>
        <time>2011-09-06T12:45:12Z</time>
      </trkpt>
      <trkpt lat="43.76225" lon="6.90817">
        <ele>1253.22</ele>
        <time>2011-09-06T12:45:28Z</time>
      </trkpt>
      <trkpt lat="43.76228" lon="6.90833">
        <ele>1252.25</ele>
        <time>2011-09-06T12:45:44Z</time>
      </trkpt>
      <trkpt lat="43.76226" lon="6.90842">
        <ele>1252.74</ele>
        <time>2011-09-06T12:45:55Z</time>
      </trkpt>
      <trkpt lat="43.76225" lon="6.90845">
        <ele>1252.74</ele>
        <time>2011-09-06T12:45:58Z</time>
      </trkpt>
      <trkpt lat="43.76224" lon="6.90855">
        <ele>1251.77</ele>
        <time>2011-09-06T12:46:09Z</time>
      </trkpt>
      <trkpt lat="43.76222" lon="6.90867">
        <ele>1251.29</ele>
        <time>2011-09-06T12:46:22Z</time>
      </trkpt>
      <trkpt lat="43.7622" lon="6.90885">
        <ele>1251.29</ele>
        <time>2011-09-06T12:46:36Z</time>
      </trkpt>
      <trkpt lat="43.76219" lon="6.90897">
        <ele>1249.37</ele>
        <time>2011-09-06T12:46:47Z</time>
      </trkpt>
      <trkpt lat="43.76218" lon="6.909">
        <ele>1250.33</ele>
        <time>2011-09-06T12:46:49Z</time>
      </trkpt>
      <trkpt lat="43.76219" lon="6.90914">
        <ele>1250.33</ele>
        <time>2011-09-06T12:47:02Z</time>
      </trkpt>
      <trkpt lat="43.7622" lon="6.90931">
        <ele>1250.33</ele>
        <time>2011-09-06T12:47:18Z</time>
      </trkpt>
      <trkpt lat="43.76221" lon="6.90932">
        <ele>1249.37</ele>
        <time>2011-09-06T12:47:20Z</time>
      </trkpt>
      <trkpt lat="43.76222" lon="6.9094">
        <ele>1248.41</ele>
        <time>2011-09-06T12:47:26Z</time>
      </trkpt>
      <trkpt lat="43.76221" lon="6.90943">
        <ele>1247.93</ele>
        <time>2011-09-06T12:47:28Z</time>
      </trkpt>
      <trkpt lat="43.76222" lon="6.90947">
        <ele>1249.85</ele>
        <time>2011-09-06T12:47:31Z</time>
      </trkpt>
      <trkpt lat="43.76221" lon="6.9096">
        <ele>1248.89</ele>
        <time>2011-09-06T12:47:41Z</time>
      </trkpt>
      <trkpt lat="43.76218" lon="6.90972">
        <ele>1245.04</ele>
        <time>2011-09-06T12:47:53Z</time>
      </trkpt>
      <trkpt lat="43.76217" lon="6.90974">
        <ele>1246.01</ele>
        <time>2011-09-06T12:47:54Z</time>
      </trkpt>
      <trkpt lat="43.76217" lon="6.90977">
        <ele>1246.97</ele>
        <time>2011-09-06T12:47:56Z</time>
      </trkpt>
      <trkpt lat="43.76218" lon="6.90982">
        <ele>1246.49</ele>
        <time>2011-09-06T12:48:00Z</time>
      </trkpt>
      <trkpt lat="43.76218" lon="6.90984">
        <ele>1246.49</ele>
        <time>2011-09-06T12:48:02Z</time>
      </trkpt>
      <trkpt lat="43.76218" lon="6.90989">
        <ele>1245.04</ele>
        <time>2011-09-06T12:48:10Z</time>
      </trkpt>
      <trkpt lat="43.76218" lon="6.90992">
        <ele>1246.97</ele>
        <time>2011-09-06T12:48:13Z</time>
      </trkpt>
      <trkpt lat="43.76215" lon="6.90998">
        <ele>1248.41</ele>
        <time>2011-09-06T12:48:20Z</time>
      </trkpt>
      <trkpt lat="43.76219" lon="6.91005">
        <ele>1248.41</ele>
        <time>2011-09-06T12:48:26Z</time>
      </trkpt>
      <trkpt lat="43.76221" lon="6.91008">
        <ele>1245.04</ele>
        <time>2011-09-06T12:48:29Z</time>
      </trkpt>
      <trkpt lat="43.76222" lon="6.91009">
        <ele>1247.93</ele>
        <time>2011-09-06T12:48:31Z</time>
      </trkpt>
      <trkpt lat="43.76219" lon="6.91019">
        <ele>1249.37</ele>
        <time>2011-09-06T12:48:44Z</time>
      </trkpt>
      <trkpt lat="43.76216" lon="6.91021">
        <ele>1246.97</ele>
        <time>2011-09-06T12:48:49Z</time>
      </trkpt>
      <trkpt lat="43.76215" lon="6.91022">
        <ele>1250.81</ele>
        <time>2011-09-06T12:48:51Z</time>
      </trkpt>
      <trkpt lat="43.76215" lon="6.91022">
        <ele>1249.85</ele>
        <time>2011-09-06T12:48:52Z</time>
      </trkpt>
      <trkpt lat="43.76215" lon="6.91024">
        <ele>1248.41</ele>
        <time>2011-09-06T12:48:54Z</time>
      </trkpt>
      <trkpt lat="43.76215" lon="6.91025">
        <ele>1251.77</ele>
        <time>2011-09-06T12:48:56Z</time>
      </trkpt>
      <trkpt lat="43.76215" lon="6.91025">
        <ele>1251.29</ele>
        <time>2011-09-06T12:48:57Z</time>
      </trkpt>
      <trkpt lat="43.76215" lon="6.91027">
        <ele>1250.33</ele>
        <time>2011-09-06T12:48:59Z</time>
      </trkpt>
      <trkpt lat="43.76218" lon="6.91033">
        <ele>1249.85</ele>
        <time>2011-09-06T12:49:06Z</time>
      </trkpt>
      <trkpt lat="43.76218" lon="6.91033">
        <ele>1251.77</ele>
        <time>2011-09-06T12:49:08Z</time>
      </trkpt>
      <trkpt lat="43.76218" lon="6.91035">
        <ele>1249.85</ele>
        <time>2011-09-06T12:49:13Z</time>
      </trkpt>
      <trkpt lat="43.76218" lon="6.9104">
        <ele>1251.77</ele>
        <time>2011-09-06T12:49:17Z</time>
      </trkpt>
      <trkpt lat="43.76218" lon="6.91043">
        <ele>1249.85</ele>
        <time>2011-09-06T12:49:20Z</time>
      </trkpt>
      <trkpt lat="43.76218" lon="6.91047">
        <ele>1251.77</ele>
        <time>2011-09-06T12:49:27Z</time>
      </trkpt>
      <trkpt lat="43.76218" lon="6.91048">
        <ele>1249.85</ele>
        <time>2011-09-06T12:49:29Z</time>
      </trkpt>
      <trkpt lat="43.76218" lon="6.91051">
        <ele>1251.77</ele>
        <time>2011-09-06T12:49:32Z</time>
      </trkpt>
      <trkpt lat="43.76219" lon="6.91059">
        <ele>1249.37</ele>
        <time>2011-09-06T12:49:44Z</time>
      </trkpt>
      <trkpt lat="43.76218" lon="6.91069">
        <ele>1248.41</ele>
        <time>2011-09-06T12:49:55Z</time>
      </trkpt>
      <trkpt lat="43.76217" lon="6.91073">
        <ele>1251.29</ele>
        <time>2011-09-06T12:50:01Z</time>
      </trkpt>
      <trkpt lat="43.76216" lon="6.91077">
        <ele>1250.81</ele>
        <time>2011-09-06T12:50:05Z</time>
      </trkpt>
      <trkpt lat="43.76215" lon="6.91079">
        <ele>1249.37</ele>
        <time>2011-09-06T12:50:07Z</time>
      </trkpt>
      <trkpt lat="43.76214" lon="6.91082">
        <ele>1247.93</ele>
        <time>2011-09-06T12:50:10Z</time>
      </trkpt>
      <trkpt lat="43.76215" lon="6.91086">
        <ele>1250.33</ele>
        <time>2011-09-06T12:50:14Z</time>
      </trkpt>
      <trkpt lat="43.76216" lon="6.91089">
        <ele>1247.93</ele>
        <time>2011-09-06T12:50:17Z</time>
      </trkpt>
      <trkpt lat="43.76217" lon="6.91094">
        <ele>1249.85</ele>
        <time>2011-09-06T12:50:22Z</time>
      </trkpt>
      <trkpt lat="43.76217" lon="6.91096">
        <ele>1249.85</ele>
        <time>2011-09-06T12:50:24Z</time>
      </trkpt>
      <trkpt lat="43.76215" lon="6.91099">
        <ele>1250.81</ele>
        <time>2011-09-06T12:50:28Z</time>
      </trkpt>
      <trkpt lat="43.76212" lon="6.91104">
        <ele>1246.97</ele>
        <time>2011-09-06T12:50:33Z</time>
      </trkpt>
      <trkpt lat="43.76212" lon="6.91109">
        <ele>1248.41</ele>
        <time>2011-09-06T12:50:38Z</time>
      </trkpt>
      <trkpt lat="43.76212" lon="6.91111">
        <ele>1247.93</ele>
        <time>2011-09-06T12:50:39Z</time>
      </trkpt>
      <trkpt lat="43.76211" lon="6.91115">
        <ele>1246.49</ele>
        <time>2011-09-06T12:50:42Z</time>
      </trkpt>
      <trkpt lat="43.7621" lon="6.91119">
        <ele>1246.97</ele>
        <time>2011-09-06T12:50:48Z</time>
      </trkpt>
      <trkpt lat="43.76208" lon="6.91124">
        <ele>1245.04</ele>
        <time>2011-09-06T12:50:54Z</time>
      </trkpt>
      <trkpt lat="43.76208" lon="6.91125">
        <ele>1245.53</ele>
        <time>2011-09-06T12:50:56Z</time>
      </trkpt>
      <trkpt lat="43.76207" lon="6.91132">
        <ele>1246.01</ele>
        <time>2011-09-06T12:51:03Z</time>
      </trkpt>
      <trkpt lat="43.76203" lon="6.91139">
        <ele>1246.49</ele>
        <time>2011-09-06T12:51:15Z</time>
      </trkpt>
      <trkpt lat="43.762" lon="6.91142">
        <ele>1244.56</ele>
        <time>2011-09-06T12:51:19Z</time>
      </trkpt>
      <trkpt lat="43.76197" lon="6.91145">
        <ele>1243.12</ele>
        <time>2011-09-06T12:51:22Z</time>
      </trkpt>
      <trkpt lat="43.76194" lon="6.9115">
        <ele>1244.08</ele>
        <time>2011-09-06T12:51:26Z</time>
      </trkpt>
      <trkpt lat="43.76189" lon="6.91158">
        <ele>1243.6</ele>
        <time>2011-09-06T12:51:36Z</time>
      </trkpt>
      <trkpt lat="43.76189" lon="6.91162">
        <ele>1240.24</ele>
        <time>2011-09-06T12:51:38Z</time>
      </trkpt>
      <trkpt lat="43.76189" lon="6.91163">
        <ele>1240.24</ele>
        <time>2011-09-06T12:51:39Z</time>
      </trkpt>
      <trkpt lat="43.76188" lon="6.91171">
        <ele>1241.68</ele>
        <time>2011-09-06T12:51:44Z</time>
      </trkpt>
      <trkpt lat="43.76187" lon="6.91175">
        <ele>1242.64</ele>
        <time>2011-09-06T12:51:47Z</time>
      </trkpt>
      <trkpt lat="43.76186" lon="6.91181">
        <ele>1239.76</ele>
        <time>2011-09-06T12:51:51Z</time>
      </trkpt>
      <trkpt lat="43.76184" lon="6.91189">
        <ele>1240.24</ele>
        <time>2011-09-06T12:51:57Z</time>
      </trkpt>
      <trkpt lat="43.76183" lon="6.91193">
        <ele>1239.28</ele>
        <time>2011-09-06T12:52:00Z</time>
      </trkpt>
      <trkpt lat="43.76181" lon="6.91196">
        <ele>1243.6</ele>
        <time>2011-09-06T12:52:03Z</time>
      </trkpt>
      <trkpt lat="43.76179" lon="6.91205">
        <ele>1243.12</ele>
        <time>2011-09-06T12:52:15Z</time>
      </trkpt>
      <trkpt lat="43.7618" lon="6.91208">
        <ele>1240.24</ele>
        <time>2011-09-06T12:52:18Z</time>
      </trkpt>
      <trkpt lat="43.7618" lon="6.91209">
        <ele>1239.76</ele>
        <time>2011-09-06T12:52:19Z</time>
      </trkpt>
      <trkpt lat="43.76183" lon="6.91212">
        <ele>1243.12</ele>
        <time>2011-09-06T12:52:24Z</time>
      </trkpt>
      <trkpt lat="43.76184" lon="6.91212">
        <ele>1243.12</ele>
        <time>2011-09-06T12:52:25Z</time>
      </trkpt>
      <trkpt lat="43.76186" lon="6.91214">
        <ele>1243.6</ele>
        <time>2011-09-06T12:52:28Z</time>
      </trkpt>
      <trkpt lat="43.76189" lon="6.91217">
        <ele>1244.56</ele>
        <time>2011-09-06T12:52:32Z</time>
      </trkpt>
      <trkpt lat="43.7619" lon="6.91218">
        <ele>1244.08</ele>
        <time>2011-09-06T12:52:33Z</time>
      </trkpt>
      <trkpt lat="43.76191" lon="6.91222">
        <ele>1242.64</ele>
        <time>2011-09-06T12:52:37Z</time>
      </trkpt>
      <trkpt lat="43.76195" lon="6.91233">
        <ele>1240.72</ele>
        <time>2011-09-06T12:52:51Z</time>
      </trkpt>
      <trkpt lat="43.76196" lon="6.91234">
        <ele>1242.16</ele>
        <time>2011-09-06T12:52:54Z</time>
      </trkpt>
      <trkpt lat="43.76197" lon="6.91234">
        <ele>1240.72</ele>
        <time>2011-09-06T12:52:56Z</time>
      </trkpt>
      <trkpt lat="43.762" lon="6.91237">
        <ele>1244.08</ele>
        <time>2011-09-06T12:53:02Z</time>
      </trkpt>
      <trkpt lat="43.76202" lon="6.91241">
        <ele>1241.68</ele>
        <time>2011-09-06T12:53:13Z</time>
      </trkpt>
      <trkpt lat="43.76203" lon="6.91244">
        <ele>1243.6</ele>
        <time>2011-09-06T12:53:16Z</time>
      </trkpt>
      <trkpt lat="43.76203" lon="6.91245">
        <ele>1245.04</ele>
        <time>2011-09-06T12:53:25Z</time>
      </trkpt>
      <trkpt lat="43.76209" lon="6.91254">
        <ele>1243.6</ele>
        <time>2011-09-06T12:53:38Z</time>
      </trkpt>
      <trkpt lat="43.76209" lon="6.91256">
        <ele>1241.68</ele>
        <time>2011-09-06T12:53:41Z</time>
      </trkpt>
      <trkpt lat="43.7621" lon="6.91257">
        <ele>1245.04</ele>
        <time>2011-09-06T12:53:43Z</time>
      </trkpt>
      <trkpt lat="43.76211" lon="6.91258">
        <ele>1244.56</ele>
        <time>2011-09-06T12:53:44Z</time>
      </trkpt>
      <trkpt lat="43.76214" lon="6.91262">
        <ele>1244.08</ele>
        <time>2011-09-06T12:53:56Z</time>
      </trkpt>
      <trkpt lat="43.76217" lon="6.91275">
        <ele>1243.6</ele>
        <time>2011-09-06T12:54:07Z</time>
      </trkpt>
      <trkpt lat="43.76218" lon="6.91279">
        <ele>1244.56</ele>
        <time>2011-09-06T12:54:10Z</time>
      </trkpt>
      <trkpt lat="43.76219" lon="6.91289">
        <ele>1243.12</ele>
        <time>2011-09-06T12:54:17Z</time>
      </trkpt>
      <trkpt lat="43.7622" lon="6.91296">
        <ele>1241.2</ele>
        <time>2011-09-06T12:54:23Z</time>
      </trkpt>
      <trkpt lat="43.7622" lon="6.91298">
        <ele>1243.12</ele>
        <time>2011-09-06T12:54:25Z</time>
      </trkpt>
      <trkpt lat="43.76218" lon="6.91304">
        <ele>1241.68</ele>
        <time>2011-09-06T12:54:31Z</time>
      </trkpt>
      <trkpt lat="43.76216" lon="6.91308">
        <ele>1243.6</ele>
        <time>2011-09-06T12:54:34Z</time>
      </trkpt>
      <trkpt lat="43.76215" lon="6.9131">
        <ele>1243.12</ele>
        <time>2011-09-06T12:54:36Z</time>
      </trkpt>
      <trkpt lat="43.76214" lon="6.91318">
        <ele>1241.2</ele>
        <time>2011-09-06T12:54:43Z</time>
      </trkpt>
      <trkpt lat="43.76214" lon="6.9132">
        <ele>1239.28</ele>
        <time>2011-09-06T12:54:46Z</time>
      </trkpt>
      <trkpt lat="43.76213" lon="6.91325">
        <ele>1243.12</ele>
        <time>2011-09-06T12:54:51Z</time>
      </trkpt>
      <trkpt lat="43.76214" lon="6.91328">
        <ele>1244.08</ele>
        <time>2011-09-06T12:54:53Z</time>
      </trkpt>
      <trkpt lat="43.76214" lon="6.91334">
        <ele>1244.56</ele>
        <time>2011-09-06T12:55:01Z</time>
      </trkpt>
      <trkpt lat="43.76215" lon="6.91337">
        <ele>1242.16</ele>
        <time>2011-09-06T12:55:05Z</time>
      </trkpt>
      <trkpt lat="43.7621" lon="6.91347">
        <ele>1244.08</ele>
        <time>2011-09-06T12:55:16Z</time>
      </trkpt>
      <trkpt lat="43.7621" lon="6.91349">
        <ele>1242.64</ele>
        <time>2011-09-06T12:55:18Z</time>
      </trkpt>
      <trkpt lat="43.76209" lon="6.91358">
        <ele>1242.16</ele>
        <time>2011-09-06T12:55:29Z</time>
      </trkpt>
      <trkpt lat="43.76206" lon="6.91363">
        <ele>1243.6</ele>
        <time>2011-09-06T12:55:34Z</time>
      </trkpt>
      <trkpt lat="43.76205" lon="6.91371">
        <ele>1244.56</ele>
        <time>2011-09-06T12:55:49Z</time>
      </trkpt>
      <trkpt lat="43.76205" lon="6.91375">
        <ele>1242.16</ele>
        <time>2011-09-06T12:55:52Z</time>
      </trkpt>
      <trkpt lat="43.76209" lon="6.9138">
        <ele>1242.16</ele>
        <time>2011-09-06T12:56:00Z</time>
      </trkpt>
      <trkpt lat="43.76214" lon="6.91389">
        <ele>1246.01</ele>
        <time>2011-09-06T12:56:10Z</time>
      </trkpt>
      <trkpt lat="43.76215" lon="6.91389">
        <ele>1246.01</ele>
        <time>2011-09-06T12:56:11Z</time>
      </trkpt>
      <trkpt lat="43.76218" lon="6.91393">
        <ele>1246.97</ele>
        <time>2011-09-06T12:56:17Z</time>
      </trkpt>
      <trkpt lat="43.76219" lon="6.91397">
        <ele>1244.56</ele>
        <time>2011-09-06T12:56:22Z</time>
      </trkpt>
      <trkpt lat="43.76219" lon="6.91402">
        <ele>1246.49</ele>
        <time>2011-09-06T12:56:27Z</time>
      </trkpt>
      <trkpt lat="43.76219" lon="6.91403">
        <ele>1245.04</ele>
        <time>2011-09-06T12:56:30Z</time>
      </trkpt>
      <trkpt lat="43.76219" lon="6.91405">
        <ele>1243.6</ele>
        <time>2011-09-06T12:56:32Z</time>
      </trkpt>
      <trkpt lat="43.7622" lon="6.91414">
        <ele>1242.64</ele>
        <time>2011-09-06T12:56:40Z</time>
      </trkpt>
      <trkpt lat="43.7622" lon="6.91419">
        <ele>1244.56</ele>
        <time>2011-09-06T12:56:44Z</time>
      </trkpt>
      <trkpt lat="43.76221" lon="6.91425">
        <ele>1242.16</ele>
        <time>2011-09-06T12:56:48Z</time>
      </trkpt>
      <trkpt lat="43.76222" lon="6.91426">
        <ele>1242.16</ele>
        <time>2011-09-06T12:56:49Z</time>
      </trkpt>
      <trkpt lat="43.76222" lon="6.91429">
        <ele>1244.08</ele>
        <time>2011-09-06T12:56:51Z</time>
      </trkpt>
      <trkpt lat="43.76222" lon="6.91433">
        <ele>1241.68</ele>
        <time>2011-09-06T12:56:54Z</time>
      </trkpt>
      <trkpt lat="43.76221" lon="6.91436">
        <ele>1244.56</ele>
        <time>2011-09-06T12:56:56Z</time>
      </trkpt>
      <trkpt lat="43.76221" lon="6.91438">
        <ele>1244.56</ele>
        <time>2011-09-06T12:56:57Z</time>
      </trkpt>
      <trkpt lat="43.7622" lon="6.91443">
        <ele>1241.2</ele>
        <time>2011-09-06T12:57:01Z</time>
      </trkpt>
      <trkpt lat="43.7622" lon="6.91444">
        <ele>1244.56</ele>
        <time>2011-09-06T12:57:02Z</time>
      </trkpt>
      <trkpt lat="43.76219" lon="6.91444">
        <ele>1245.04</ele>
        <time>2011-09-06T12:57:03Z</time>
      </trkpt>
      <trkpt lat="43.76218" lon="6.91445">
        <ele>1243.6</ele>
        <time>2011-09-06T12:57:05Z</time>
      </trkpt>
      <trkpt lat="43.76218" lon="6.91448">
        <ele>1242.16</ele>
        <time>2011-09-06T12:57:07Z</time>
      </trkpt>
      <trkpt lat="43.76215" lon="6.91457">
        <ele>1242.16</ele>
        <time>2011-09-06T12:57:14Z</time>
      </trkpt>
      <trkpt lat="43.76214" lon="6.91459">
        <ele>1244.08</ele>
        <time>2011-09-06T12:57:16Z</time>
      </trkpt>
      <trkpt lat="43.76213" lon="6.91467">
        <ele>1240.24</ele>
        <time>2011-09-06T12:57:22Z</time>
      </trkpt>
      <trkpt lat="43.76214" lon="6.91468">
        <ele>1240.72</ele>
        <time>2011-09-06T12:57:23Z</time>
      </trkpt>
      <trkpt lat="43.76214" lon="6.91473">
        <ele>1241.2</ele>
        <time>2011-09-06T12:57:37Z</time>
      </trkpt>
      <trkpt lat="43.76215" lon="6.91476">
        <ele>1243.12</ele>
        <time>2011-09-06T12:57:40Z</time>
      </trkpt>
      <trkpt lat="43.76215" lon="6.91479">
        <ele>1240.72</ele>
        <time>2011-09-06T12:57:43Z</time>
      </trkpt>
      <trkpt lat="43.76217" lon="6.91482">
        <ele>1239.28</ele>
        <time>2011-09-06T12:57:46Z</time>
      </trkpt>
      <trkpt lat="43.76218" lon="6.91484">
        <ele>1239.76</ele>
        <time>2011-09-06T12:57:49Z</time>
      </trkpt>
      <trkpt lat="43.76221" lon="6.91488">
        <ele>1238.32</ele>
        <time>2011-09-06T12:57:52Z</time>
      </trkpt>
      <trkpt lat="43.76223" lon="6.91491">
        <ele>1239.28</ele>
        <time>2011-09-06T12:57:56Z</time>
      </trkpt>
      <trkpt lat="43.76222" lon="6.91492">
        <ele>1238.8</ele>
        <time>2011-09-06T12:57:58Z</time>
      </trkpt>
      <trkpt lat="43.76223" lon="6.91498">
        <ele>1237.83</ele>
        <time>2011-09-06T12:58:04Z</time>
      </trkpt>
      <trkpt lat="43.76224" lon="6.91498">
        <ele>1241.2</ele>
        <time>2011-09-06T12:58:05Z</time>
      </trkpt>
      <trkpt lat="43.76224" lon="6.91498">
        <ele>1241.2</ele>
        <time>2011-09-06T12:58:06Z</time>
      </trkpt>
      <trkpt lat="43.76222" lon="6.91503">
        <ele>1238.8</ele>
        <time>2011-09-06T12:58:12Z</time>
      </trkpt>
      <trkpt lat="43.76223" lon="6.91509">
        <ele>1235.43</ele>
        <time>2011-09-06T12:58:16Z</time>
      </trkpt>
      <trkpt lat="43.76223" lon="6.91509">
        <ele>1235.91</ele>
        <time>2011-09-06T12:58:17Z</time>
      </trkpt>
      <trkpt lat="43.76224" lon="6.9151">
        <ele>1239.28</ele>
        <time>2011-09-06T12:58:18Z</time>
      </trkpt>
      <trkpt lat="43.76225" lon="6.91511">
        <ele>1238.8</ele>
        <time>2011-09-06T12:58:19Z</time>
      </trkpt>
      <trkpt lat="43.76225" lon="6.91513">
        <ele>1236.87</ele>
        <time>2011-09-06T12:58:21Z</time>
      </trkpt>
      <trkpt lat="43.76225" lon="6.91516">
        <ele>1235.91</ele>
        <time>2011-09-06T12:58:23Z</time>
      </trkpt>
      <trkpt lat="43.76226" lon="6.91525">
        <ele>1234.95</ele>
        <time>2011-09-06T12:58:30Z</time>
      </trkpt>
      <trkpt lat="43.76226" lon="6.91527">
        <ele>1234.95</ele>
        <time>2011-09-06T12:58:32Z</time>
      </trkpt>
      <trkpt lat="43.7623" lon="6.91531">
        <ele>1237.35</ele>
        <time>2011-09-06T12:58:37Z</time>
      </trkpt>
      <trkpt lat="43.76235" lon="6.91539">
        <ele>1237.35</ele>
        <time>2011-09-06T12:58:50Z</time>
      </trkpt>
      <trkpt lat="43.76236" lon="6.9154">
        <ele>1235.43</ele>
        <time>2011-09-06T12:58:55Z</time>
      </trkpt>
      <trkpt lat="43.76238" lon="6.91546">
        <ele>1237.83</ele>
        <time>2011-09-06T12:59:02Z</time>
      </trkpt>
      <trkpt lat="43.76239" lon="6.91551">
        <ele>1236.39</ele>
        <time>2011-09-06T12:59:10Z</time>
      </trkpt>
      <trkpt lat="43.7624" lon="6.91556">
        <ele>1236.39</ele>
        <time>2011-09-06T12:59:17Z</time>
      </trkpt>
      <trkpt lat="43.76239" lon="6.91565">
        <ele>1232.07</ele>
        <time>2011-09-06T12:59:30Z</time>
      </trkpt>
      <trkpt lat="43.76239" lon="6.91565">
        <ele>1234.95</ele>
        <time>2011-09-06T12:59:49Z</time>
      </trkpt>
      <trkpt lat="43.76237" lon="6.91568">
        <ele>1230.62</ele>
        <time>2011-09-06T12:59:53Z</time>
      </trkpt>
      <trkpt lat="43.76236" lon="6.9157">
        <ele>1233.99</ele>
        <time>2011-09-06T12:59:55Z</time>
      </trkpt>
      <trkpt lat="43.76236" lon="6.91573">
        <ele>1232.07</ele>
        <time>2011-09-06T12:59:58Z</time>
      </trkpt>
      <trkpt lat="43.76236" lon="6.91578">
        <ele>1229.66</ele>
        <time>2011-09-06T13:00:02Z</time>
      </trkpt>
      <trkpt lat="43.76236" lon="6.91585">
        <ele>1229.18</ele>
        <time>2011-09-06T13:00:09Z</time>
      </trkpt>
      <trkpt lat="43.76237" lon="6.9159">
        <ele>1230.14</ele>
        <time>2011-09-06T13:00:13Z</time>
      </trkpt>
      <trkpt lat="43.76242" lon="6.91591">
        <ele>1227.26</ele>
        <time>2011-09-06T13:00:21Z</time>
      </trkpt>
      <trkpt lat="43.76243" lon="6.91593">
        <ele>1229.66</ele>
        <time>2011-09-06T13:00:23Z</time>
      </trkpt>
      <trkpt lat="43.76246" lon="6.91598">
        <ele>1227.26</ele>
        <time>2011-09-06T13:00:39Z</time>
      </trkpt>
      <trkpt lat="43.76246" lon="6.91599">
        <ele>1226.78</ele>
        <time>2011-09-06T13:00:40Z</time>
      </trkpt>
      <trkpt lat="43.76246" lon="6.91603">
        <ele>1227.26</ele>
        <time>2011-09-06T13:00:44Z</time>
      </trkpt>
      <trkpt lat="43.76246" lon="6.91606">
        <ele>1226.3</ele>
        <time>2011-09-06T13:00:47Z</time>
      </trkpt>
      <trkpt lat="43.76246" lon="6.91608">
        <ele>1229.18</ele>
        <time>2011-09-06T13:00:49Z</time>
      </trkpt>
      <trkpt lat="43.76245" lon="6.91611">
        <ele>1228.22</ele>
        <time>2011-09-06T13:00:54Z</time>
      </trkpt>
      <trkpt lat="43.76243" lon="6.91616">
        <ele>1228.7</ele>
        <time>2011-09-06T13:00:58Z</time>
      </trkpt>
      <trkpt lat="43.76242" lon="6.91619">
        <ele>1224.86</ele>
        <time>2011-09-06T13:01:01Z</time>
      </trkpt>
      <trkpt lat="43.76243" lon="6.91625">
        <ele>1228.22</ele>
        <time>2011-09-06T13:01:05Z</time>
      </trkpt>
      <trkpt lat="43.76244" lon="6.91627">
        <ele>1224.86</ele>
        <time>2011-09-06T13:01:07Z</time>
      </trkpt>
      <trkpt lat="43.76245" lon="6.91629">
        <ele>1224.86</ele>
        <time>2011-09-06T13:01:08Z</time>
      </trkpt>
      <trkpt lat="43.76247" lon="6.91635">
        <ele>1223.9</ele>
        <time>2011-09-06T13:01:13Z</time>
      </trkpt>
      <trkpt lat="43.76247" lon="6.91636">
        <ele>1223.9</ele>
        <time>2011-09-06T13:01:14Z</time>
      </trkpt>
      <trkpt lat="43.76249" lon="6.91641">
        <ele>1227.74</ele>
        <time>2011-09-06T13:01:18Z</time>
      </trkpt>
      <trkpt lat="43.76251" lon="6.91646">
        <ele>1224.38</ele>
        <time>2011-09-06T13:01:21Z</time>
      </trkpt>
      <trkpt lat="43.76252" lon="6.91653">
        <ele>1226.3</ele>
        <time>2011-09-06T13:01:27Z</time>
      </trkpt>
      <trkpt lat="43.76253" lon="6.91662">
        <ele>1223.9</ele>
        <time>2011-09-06T13:01:32Z</time>
      </trkpt>
      <trkpt lat="43.76257" lon="6.91671">
        <ele>1227.26</ele>
        <time>2011-09-06T13:01:40Z</time>
      </trkpt>
      <trkpt lat="43.76258" lon="6.91673">
        <ele>1222.45</ele>
        <time>2011-09-06T13:01:42Z</time>
      </trkpt>
      <trkpt lat="43.76258" lon="6.91674">
        <ele>1224.38</ele>
        <time>2011-09-06T13:01:43Z</time>
      </trkpt>
      <trkpt lat="43.76259" lon="6.91677">
        <ele>1226.3</ele>
        <time>2011-09-06T13:01:45Z</time>
      </trkpt>
      <trkpt lat="43.76258" lon="6.91679">
        <ele>1224.38</ele>
        <time>2011-09-06T13:01:47Z</time>
      </trkpt>
      <trkpt lat="43.76259" lon="6.91683">
        <ele>1226.78</ele>
        <time>2011-09-06T13:01:50Z</time>
      </trkpt>
      <trkpt lat="43.7626" lon="6.91686">
        <ele>1223.42</ele>
        <time>2011-09-06T13:01:52Z</time>
      </trkpt>
      <trkpt lat="43.7626" lon="6.91687">
        <ele>1225.82</ele>
        <time>2011-09-06T13:01:53Z</time>
      </trkpt>
      <trkpt lat="43.7626" lon="6.91691">
        <ele>1227.26</ele>
        <time>2011-09-06T13:01:55Z</time>
      </trkpt>
      <trkpt lat="43.7626" lon="6.91693">
        <ele>1223.42</ele>
        <time>2011-09-06T13:01:57Z</time>
      </trkpt>
      <trkpt lat="43.76261" lon="6.91697">
        <ele>1224.38</ele>
        <time>2011-09-06T13:02:00Z</time>
      </trkpt>
      <trkpt lat="43.76263" lon="6.91701">
        <ele>1227.74</ele>
        <time>2011-09-06T13:02:04Z</time>
      </trkpt>
      <trkpt lat="43.76264" lon="6.9171">
        <ele>1223.9</ele>
        <time>2011-09-06T13:02:10Z</time>
      </trkpt>
      <trkpt lat="43.76264" lon="6.91711">
        <ele>1224.38</ele>
        <time>2011-09-06T13:02:11Z</time>
      </trkpt>
      <trkpt lat="43.76265" lon="6.91712">
        <ele>1227.74</ele>
        <time>2011-09-06T13:02:13Z</time>
      </trkpt>
      <trkpt lat="43.76265" lon="6.91714">
        <ele>1224.86</ele>
        <time>2011-09-06T13:02:14Z</time>
      </trkpt>
      <trkpt lat="43.76268" lon="6.91721">
        <ele>1223.42</ele>
        <time>2011-09-06T13:02:20Z</time>
      </trkpt>
      <trkpt lat="43.76269" lon="6.91724">
        <ele>1227.74</ele>
        <time>2011-09-06T13:02:23Z</time>
      </trkpt>
      <trkpt lat="43.7627" lon="6.91725">
        <ele>1227.26</ele>
        <time>2011-09-06T13:02:24Z</time>
      </trkpt>
      <trkpt lat="43.76271" lon="6.91728">
        <ele>1226.3</ele>
        <time>2011-09-06T13:02:26Z</time>
      </trkpt>
      <trkpt lat="43.76273" lon="6.9173">
        <ele>1222.93</ele>
        <time>2011-09-06T13:02:29Z</time>
      </trkpt>
      <trkpt lat="43.76273" lon="6.91731">
        <ele>1222.93</ele>
        <time>2011-09-06T13:02:30Z</time>
      </trkpt>
      <trkpt lat="43.76274" lon="6.91733">
        <ele>1227.26</ele>
        <time>2011-09-06T13:02:32Z</time>
      </trkpt>
      <trkpt lat="43.76275" lon="6.91734">
        <ele>1226.78</ele>
        <time>2011-09-06T13:02:33Z</time>
      </trkpt>
      <trkpt lat="43.76275" lon="6.91736">
        <ele>1223.42</ele>
        <time>2011-09-06T13:02:35Z</time>
      </trkpt>
      <trkpt lat="43.76279" lon="6.91744">
        <ele>1226.78</ele>
        <time>2011-09-06T13:02:41Z</time>
      </trkpt>
      <trkpt lat="43.7628" lon="6.91747">
        <ele>1222.45</ele>
        <time>2011-09-06T13:02:44Z</time>
      </trkpt>
      <trkpt lat="43.76281" lon="6.91749">
        <ele>1226.3</ele>
        <time>2011-09-06T13:02:47Z</time>
      </trkpt>
      <trkpt lat="43.76282" lon="6.9175">
        <ele>1225.34</ele>
        <time>2011-09-06T13:02:48Z</time>
      </trkpt>
      <trkpt lat="43.76285" lon="6.91755">
        <ele>1221.97</ele>
        <time>2011-09-06T13:02:54Z</time>
      </trkpt>
      <trkpt lat="43.76286" lon="6.91756">
        <ele>1221.49</ele>
        <time>2011-09-06T13:02:56Z</time>
      </trkpt>
      <trkpt lat="43.76286" lon="6.91757">
        <ele>1224.86</ele>
        <time>2011-09-06T13:02:57Z</time>
      </trkpt>
      <trkpt lat="43.76287" lon="6.91759">
        <ele>1225.34</ele>
        <time>2011-09-06T13:02:58Z</time>
      </trkpt>
      <trkpt lat="43.76288" lon="6.9176">
        <ele>1221.97</ele>
        <time>2011-09-06T13:03:00Z</time>
      </trkpt>
      <trkpt lat="43.76289" lon="6.9177">
        <ele>1220.05</ele>
        <time>2011-09-06T13:03:08Z</time>
      </trkpt>
      <trkpt lat="43.76289" lon="6.91771">
        <ele>1220.05</ele>
        <time>2011-09-06T13:03:09Z</time>
      </trkpt>
      <trkpt lat="43.76289" lon="6.91775">
        <ele>1223.9</ele>
        <time>2011-09-06T13:03:12Z</time>
      </trkpt>
      <trkpt lat="43.76292" lon="6.91778">
        <ele>1220.05</ele>
        <time>2011-09-06T13:03:17Z</time>
      </trkpt>
      <trkpt lat="43.76292" lon="6.91782">
        <ele>1221.49</ele>
        <time>2011-09-06T13:03:20Z</time>
      </trkpt>
      <trkpt lat="43.76293" lon="6.91789">
        <ele>1219.57</ele>
        <time>2011-09-06T13:03:24Z</time>
      </trkpt>
      <trkpt lat="43.76294" lon="6.9179">
        <ele>1222.93</ele>
        <time>2011-09-06T13:03:26Z</time>
      </trkpt>
      <trkpt lat="43.76295" lon="6.9179">
        <ele>1222.93</ele>
        <time>2011-09-06T13:03:27Z</time>
      </trkpt>
      <trkpt lat="43.76297" lon="6.91792">
        <ele>1219.09</ele>
        <time>2011-09-06T13:03:30Z</time>
      </trkpt>
      <trkpt lat="43.76297" lon="6.91793">
        <ele>1219.09</ele>
        <time>2011-09-06T13:03:31Z</time>
      </trkpt>
      <trkpt lat="43.76297" lon="6.91795">
        <ele>1222.45</ele>
        <time>2011-09-06T13:03:33Z</time>
      </trkpt>
      <trkpt lat="43.76297" lon="6.91795">
        <ele>1218.61</ele>
        <time>2011-09-06T13:03:36Z</time>
      </trkpt>
      <trkpt lat="43.76297" lon="6.91795">
        <ele>1219.57</ele>
        <time>2011-09-06T13:03:37Z</time>
      </trkpt>
      <trkpt lat="43.76297" lon="6.91796">
        <ele>1218.61</ele>
        <time>2011-09-06T13:03:45Z</time>
      </trkpt>
      <trkpt lat="43.76299" lon="6.918">
        <ele>1221.01</ele>
        <time>2011-09-06T13:03:48Z</time>
      </trkpt>
      <trkpt lat="43.76301" lon="6.91805">
        <ele>1217.17</ele>
        <time>2011-09-06T13:03:52Z</time>
      </trkpt>
      <trkpt lat="43.76302" lon="6.91807">
        <ele>1221.01</ele>
        <time>2011-09-06T13:03:54Z</time>
      </trkpt>
      <trkpt lat="43.76303" lon="6.91809">
        <ele>1221.01</ele>
        <time>2011-09-06T13:03:55Z</time>
      </trkpt>
      <trkpt lat="43.76304" lon="6.9181">
        <ele>1217.17</ele>
        <time>2011-09-06T13:03:57Z</time>
      </trkpt>
      <trkpt lat="43.76304" lon="6.91811">
        <ele>1218.13</ele>
        <time>2011-09-06T13:03:58Z</time>
      </trkpt>
      <trkpt lat="43.76307" lon="6.91813">
        <ele>1217.65</ele>
        <time>2011-09-06T13:04:03Z</time>
      </trkpt>
      <trkpt lat="43.76307" lon="6.91814">
        <ele>1221.49</ele>
        <time>2011-09-06T13:04:05Z</time>
      </trkpt>
      <trkpt lat="43.76308" lon="6.91816">
        <ele>1217.17</ele>
        <time>2011-09-06T13:04:07Z</time>
      </trkpt>
      <trkpt lat="43.76308" lon="6.91818">
        <ele>1220.53</ele>
        <time>2011-09-06T13:04:09Z</time>
      </trkpt>
      <trkpt lat="43.76309" lon="6.91819">
        <ele>1217.65</ele>
        <time>2011-09-06T13:04:11Z</time>
      </trkpt>
      <trkpt lat="43.7631" lon="6.9182">
        <ele>1217.17</ele>
        <time>2011-09-06T13:04:12Z</time>
      </trkpt>
      <trkpt lat="43.76312" lon="6.91822">
        <ele>1218.61</ele>
        <time>2011-09-06T13:04:15Z</time>
      </trkpt>
      <trkpt lat="43.76313" lon="6.91824">
        <ele>1218.13</ele>
        <time>2011-09-06T13:04:17Z</time>
      </trkpt>
      <trkpt lat="43.76315" lon="6.91825">
        <ele>1216.69</ele>
        <time>2011-09-06T13:04:22Z</time>
      </trkpt>
      <trkpt lat="43.76317" lon="6.91826">
        <ele>1218.61</ele>
        <time>2011-09-06T13:04:24Z</time>
      </trkpt>
      <trkpt lat="43.76317" lon="6.91827">
        <ele>1215.72</ele>
        <time>2011-09-06T13:04:26Z</time>
      </trkpt>
      <trkpt lat="43.7632" lon="6.91831">
        <ele>1215.72</ele>
        <time>2011-09-06T13:04:31Z</time>
      </trkpt>
      <trkpt lat="43.76325" lon="6.91836">
        <ele>1213.8</ele>
        <time>2011-09-06T13:04:38Z</time>
      </trkpt>
      <trkpt lat="43.76325" lon="6.91837">
        <ele>1214.76</ele>
        <time>2011-09-06T13:04:39Z</time>
      </trkpt>
      <trkpt lat="43.76326" lon="6.91839">
        <ele>1218.13</ele>
        <time>2011-09-06T13:04:41Z</time>
      </trkpt>
      <trkpt lat="43.76332" lon="6.91846">
        <ele>1213.32</ele>
        <time>2011-09-06T13:04:50Z</time>
      </trkpt>
      <trkpt lat="43.76333" lon="6.91847">
        <ele>1216.21</ele>
        <time>2011-09-06T13:04:52Z</time>
      </trkpt>
      <trkpt lat="43.76337" lon="6.91851">
        <ele>1217.65</ele>
        <time>2011-09-06T13:04:59Z</time>
      </trkpt>
      <trkpt lat="43.76337" lon="6.91851">
        <ele>1215.72</ele>
        <time>2011-09-06T13:05:00Z</time>
      </trkpt>
      <trkpt lat="43.76337" lon="6.91851">
        <ele>1213.8</ele>
        <time>2011-09-06T13:05:02Z</time>
      </trkpt>
      <trkpt lat="43.76338" lon="6.91852">
        <ele>1216.21</ele>
        <time>2011-09-06T13:05:04Z</time>
      </trkpt>
      <trkpt lat="43.76338" lon="6.91853">
        <ele>1212.36</ele>
        <time>2011-09-06T13:05:05Z</time>
      </trkpt>
      <trkpt lat="43.76338" lon="6.91853">
        <ele>1212.84</ele>
        <time>2011-09-06T13:05:06Z</time>
      </trkpt>
      <trkpt lat="43.76339" lon="6.91855">
        <ele>1215.24</ele>
        <time>2011-09-06T13:05:09Z</time>
      </trkpt>
      <trkpt lat="43.7634" lon="6.91857">
        <ele>1211.88</ele>
        <time>2011-09-06T13:05:12Z</time>
      </trkpt>
      <trkpt lat="43.7634" lon="6.91857">
        <ele>1213.32</ele>
        <time>2011-09-06T13:05:13Z</time>
      </trkpt>
      <trkpt lat="43.7634" lon="6.91857">
        <ele>1215.24</ele>
        <time>2011-09-06T13:05:15Z</time>
      </trkpt>
      <trkpt lat="43.7634" lon="6.91857">
        <ele>1212.36</ele>
        <time>2011-09-06T13:05:16Z</time>
      </trkpt>
      <trkpt lat="43.7634" lon="6.91857">
        <ele>1216.21</ele>
        <time>2011-09-06T13:05:19Z</time>
      </trkpt>
      <trkpt lat="43.7634" lon="6.91857">
        <ele>1212.36</ele>
        <time>2011-09-06T13:05:20Z</time>
      </trkpt>
      <trkpt lat="43.7634" lon="6.91857">
        <ele>1215.24</ele>
        <time>2011-09-06T13:05:21Z</time>
      </trkpt>
      <trkpt lat="43.7634" lon="6.91857">
        <ele>1213.32</ele>
        <time>2011-09-06T13:05:26Z</time>
      </trkpt>
      <trkpt lat="43.76342" lon="6.91862">
        <ele>1214.76</ele>
        <time>2011-09-06T13:05:36Z</time>
      </trkpt>
      <trkpt lat="43.76342" lon="6.91863">
        <ele>1210.92</ele>
        <time>2011-09-06T13:05:37Z</time>
      </trkpt>
      <trkpt lat="43.76342" lon="6.91864">
        <ele>1211.88</ele>
        <time>2011-09-06T13:05:38Z</time>
      </trkpt>
      <trkpt lat="43.76343" lon="6.91866">
        <ele>1213.32</ele>
        <time>2011-09-06T13:05:39Z</time>
      </trkpt>
      <trkpt lat="43.76345" lon="6.91869">
        <ele>1211.4</ele>
        <time>2011-09-06T13:05:41Z</time>
      </trkpt>
      <trkpt lat="43.76345" lon="6.9187">
        <ele>1210.92</ele>
        <time>2011-09-06T13:05:42Z</time>
      </trkpt>
      <trkpt lat="43.76346" lon="6.91874">
        <ele>1214.76</ele>
        <time>2011-09-06T13:05:44Z</time>
      </trkpt>
      <trkpt lat="43.76346" lon="6.91875">
        <ele>1210.92</ele>
        <time>2011-09-06T13:05:45Z</time>
      </trkpt>
      <trkpt lat="43.76347" lon="6.91878">
        <ele>1214.76</ele>
        <time>2011-09-06T13:05:47Z</time>
      </trkpt>
      <trkpt lat="43.76348" lon="6.9188">
        <ele>1210.92</ele>
        <time>2011-09-06T13:05:48Z</time>
      </trkpt>
      <trkpt lat="43.7635" lon="6.91884">
        <ele>1213.8</ele>
        <time>2011-09-06T13:05:51Z</time>
      </trkpt>
      <trkpt lat="43.7635" lon="6.91885">
        <ele>1213.8</ele>
        <time>2011-09-06T13:05:52Z</time>
      </trkpt>
      <trkpt lat="43.7635" lon="6.91886">
        <ele>1209.96</ele>
        <time>2011-09-06T13:05:53Z</time>
      </trkpt>
      <trkpt lat="43.76353" lon="6.9189">
        <ele>1214.28</ele>
        <time>2011-09-06T13:05:56Z</time>
      </trkpt>
      <trkpt lat="43.76354" lon="6.91891">
        <ele>1213.8</ele>
        <time>2011-09-06T13:05:57Z</time>
      </trkpt>
      <trkpt lat="43.76355" lon="6.91893">
        <ele>1210.44</ele>
        <time>2011-09-06T13:05:59Z</time>
      </trkpt>
      <trkpt lat="43.76355" lon="6.91894">
        <ele>1210.44</ele>
        <time>2011-09-06T13:06:00Z</time>
      </trkpt>
      <trkpt lat="43.76356" lon="6.91895">
        <ele>1213.32</ele>
        <time>2011-09-06T13:06:01Z</time>
      </trkpt>
      <trkpt lat="43.76356" lon="6.91898">
        <ele>1210.44</ele>
        <time>2011-09-06T13:06:03Z</time>
      </trkpt>
      <trkpt lat="43.76358" lon="6.91903">
        <ele>1210.92</ele>
        <time>2011-09-06T13:06:07Z</time>
      </trkpt>
      <trkpt lat="43.76359" lon="6.91905">
        <ele>1214.28</ele>
        <time>2011-09-06T13:06:09Z</time>
      </trkpt>
      <trkpt lat="43.76362" lon="6.91909">
        <ele>1210.44</ele>
        <time>2011-09-06T13:06:15Z</time>
      </trkpt>
      <trkpt lat="43.76362" lon="6.9191">
        <ele>1211.4</ele>
        <time>2011-09-06T13:06:16Z</time>
      </trkpt>
      <trkpt lat="43.76363" lon="6.91912">
        <ele>1215.24</ele>
        <time>2011-09-06T13:06:18Z</time>
      </trkpt>
      <trkpt lat="43.76363" lon="6.91913">
        <ele>1213.8</ele>
        <time>2011-09-06T13:06:19Z</time>
      </trkpt>
      <trkpt lat="43.76366" lon="6.91914">
        <ele>1213.32</ele>
        <time>2011-09-06T13:06:21Z</time>
      </trkpt>
      <trkpt lat="43.7637" lon="6.91917">
        <ele>1212.84</ele>
        <time>2011-09-06T13:06:26Z</time>
      </trkpt>
      <trkpt lat="43.76372" lon="6.91919">
        <ele>1215.72</ele>
        <time>2011-09-06T13:06:29Z</time>
      </trkpt>
      <trkpt lat="43.76374" lon="6.91921">
        <ele>1211.88</ele>
        <time>2011-09-06T13:06:32Z</time>
      </trkpt>
      <trkpt lat="43.76375" lon="6.91922">
        <ele>1213.8</ele>
        <time>2011-09-06T13:06:33Z</time>
      </trkpt>
      <trkpt lat="43.76376" lon="6.91924">
        <ele>1216.21</ele>
        <time>2011-09-06T13:06:36Z</time>
      </trkpt>
      <trkpt lat="43.7638" lon="6.91929">
        <ele>1212.84</ele>
        <time>2011-09-06T13:06:41Z</time>
      </trkpt>
      <trkpt lat="43.76382" lon="6.91931">
        <ele>1216.69</ele>
        <time>2011-09-06T13:06:44Z</time>
      </trkpt>
      <trkpt lat="43.76387" lon="6.91937">
        <ele>1212.84</ele>
        <time>2011-09-06T13:06:52Z</time>
      </trkpt>
      <trkpt lat="43.7639" lon="6.91939">
        <ele>1217.17</ele>
        <time>2011-09-06T13:06:56Z</time>
      </trkpt>
      <trkpt lat="43.76391" lon="6.9194">
        <ele>1216.69</ele>
        <time>2011-09-06T13:06:57Z</time>
      </trkpt>
      <trkpt lat="43.76392" lon="6.91941">
        <ele>1212.36</ele>
        <time>2011-09-06T13:06:59Z</time>
      </trkpt>
      <trkpt lat="43.76393" lon="6.91941">
        <ele>1213.32</ele>
        <time>2011-09-06T13:07:00Z</time>
      </trkpt>
      <trkpt lat="43.76395" lon="6.91944">
        <ele>1217.17</ele>
        <time>2011-09-06T13:07:04Z</time>
      </trkpt>
      <trkpt lat="43.76396" lon="6.91944">
        <ele>1217.17</ele>
        <time>2011-09-06T13:07:05Z</time>
      </trkpt>
      <trkpt lat="43.76399" lon="6.91946">
        <ele>1213.32</ele>
        <time>2011-09-06T13:07:08Z</time>
      </trkpt>
      <trkpt lat="43.76399" lon="6.91947">
        <ele>1215.24</ele>
        <time>2011-09-06T13:07:09Z</time>
      </trkpt>
      <trkpt lat="43.76404" lon="6.91953">
        <ele>1213.32</ele>
        <time>2011-09-06T13:07:16Z</time>
      </trkpt>
      <trkpt lat="43.76405" lon="6.91954">
        <ele>1213.32</ele>
        <time>2011-09-06T13:07:17Z</time>
      </trkpt>
      <trkpt lat="43.76407" lon="6.91956">
        <ele>1217.17</ele>
        <time>2011-09-06T13:07:20Z</time>
      </trkpt>
      <trkpt lat="43.76407" lon="6.91957">
        <ele>1217.17</ele>
        <time>2011-09-06T13:07:21Z</time>
      </trkpt>
      <trkpt lat="43.76408" lon="6.9196">
        <ele>1212.84</ele>
        <time>2011-09-06T13:07:24Z</time>
      </trkpt>
      <trkpt lat="43.76409" lon="6.91969">
        <ele>1216.69</ele>
        <time>2011-09-06T13:07:30Z</time>
      </trkpt>
      <trkpt lat="43.7641" lon="6.91971">
        <ele>1217.65</ele>
        <time>2011-09-06T13:07:32Z</time>
      </trkpt>
      <trkpt lat="43.7641" lon="6.91973">
        <ele>1214.28</ele>
        <time>2011-09-06T13:07:33Z</time>
      </trkpt>
      <trkpt lat="43.7641" lon="6.91977">
        <ele>1217.65</ele>
        <time>2011-09-06T13:07:36Z</time>
      </trkpt>
      <trkpt lat="43.7641" lon="6.91977">
        <ele>1213.8</ele>
        <time>2011-09-06T13:07:37Z</time>
      </trkpt>
      <trkpt lat="43.7641" lon="6.91977">
        <ele>1217.17</ele>
        <time>2011-09-06T13:07:38Z</time>
      </trkpt>
      <trkpt lat="43.7641" lon="6.91977">
        <ele>1213.8</ele>
        <time>2011-09-06T13:07:41Z</time>
      </trkpt>
      <trkpt lat="43.7641" lon="6.91977">
        <ele>1217.17</ele>
        <time>2011-09-06T13:07:44Z</time>
      </trkpt>
      <trkpt lat="43.7641" lon="6.91977">
        <ele>1217.17</ele>
        <time>2011-09-06T13:07:45Z</time>
      </trkpt>
      <trkpt lat="43.7641" lon="6.91977">
        <ele>1215.72</ele>
        <time>2011-09-06T13:07:47Z</time>
      </trkpt>
      <trkpt lat="43.76411" lon="6.91979">
        <ele>1213.32</ele>
        <time>2011-09-06T13:08:04Z</time>
      </trkpt>
      <trkpt lat="43.76411" lon="6.91979">
        <ele>1213.8</ele>
        <time>2011-09-06T13:08:05Z</time>
      </trkpt>
      <trkpt lat="43.76411" lon="6.91979">
        <ele>1217.17</ele>
        <time>2011-09-06T13:08:09Z</time>
      </trkpt>
      <trkpt lat="43.76411" lon="6.91979">
        <ele>1216.21</ele>
        <time>2011-09-06T13:08:10Z</time>
      </trkpt>
      <trkpt lat="43.76411" lon="6.9198">
        <ele>1213.32</ele>
        <time>2011-09-06T13:08:11Z</time>
      </trkpt>
      <trkpt lat="43.76411" lon="6.91981">
        <ele>1213.32</ele>
        <time>2011-09-06T13:08:12Z</time>
      </trkpt>
      <trkpt lat="43.76411" lon="6.91982">
        <ele>1216.69</ele>
        <time>2011-09-06T13:08:13Z</time>
      </trkpt>
      <trkpt lat="43.76411" lon="6.91983">
        <ele>1216.69</ele>
        <time>2011-09-06T13:08:14Z</time>
      </trkpt>
      <trkpt lat="43.76411" lon="6.91984">
        <ele>1212.36</ele>
        <time>2011-09-06T13:08:18Z</time>
      </trkpt>
      <trkpt lat="43.76411" lon="6.91985">
        <ele>1214.76</ele>
        <time>2011-09-06T13:08:19Z</time>
      </trkpt>
      <trkpt lat="43.76411" lon="6.91989">
        <ele>1214.76</ele>
        <time>2011-09-06T13:08:32Z</time>
      </trkpt>
      <trkpt lat="43.76411" lon="6.9199">
        <ele>1217.17</ele>
        <time>2011-09-06T13:08:33Z</time>
      </trkpt>
      <trkpt lat="43.76411" lon="6.91994">
        <ele>1214.28</ele>
        <time>2011-09-06T13:08:36Z</time>
      </trkpt>
      <trkpt lat="43.76411" lon="6.91997">
        <ele>1217.65</ele>
        <time>2011-09-06T13:08:38Z</time>
      </trkpt>
      <trkpt lat="43.76411" lon="6.92003">
        <ele>1212.84</ele>
        <time>2011-09-06T13:08:43Z</time>
      </trkpt>
      <trkpt lat="43.76411" lon="6.92004">
        <ele>1214.28</ele>
        <time>2011-09-06T13:08:44Z</time>
      </trkpt>
      <trkpt lat="43.76412" lon="6.92006">
        <ele>1217.65</ele>
        <time>2011-09-06T13:08:46Z</time>
      </trkpt>
      <trkpt lat="43.76411" lon="6.92008">
        <ele>1213.32</ele>
        <time>2011-09-06T13:08:48Z</time>
      </trkpt>
      <trkpt lat="43.76411" lon="6.9201">
        <ele>1214.28</ele>
        <time>2011-09-06T13:08:49Z</time>
      </trkpt>
      <trkpt lat="43.76411" lon="6.92014">
        <ele>1217.65</ele>
        <time>2011-09-06T13:08:52Z</time>
      </trkpt>
      <trkpt lat="43.76411" lon="6.92016">
        <ele>1212.84</ele>
        <time>2011-09-06T13:08:54Z</time>
      </trkpt>
      <trkpt lat="43.76412" lon="6.92018">
        <ele>1214.28</ele>
        <time>2011-09-06T13:08:55Z</time>
      </trkpt>
      <trkpt lat="43.76414" lon="6.92026">
        <ele>1217.65</ele>
        <time>2011-09-06T13:09:01Z</time>
      </trkpt>
      <trkpt lat="43.76415" lon="6.92027">
        <ele>1217.17</ele>
        <time>2011-09-06T13:09:02Z</time>
      </trkpt>
      <trkpt lat="43.76415" lon="6.92028">
        <ele>1212.84</ele>
        <time>2011-09-06T13:09:03Z</time>
      </trkpt>
      <trkpt lat="43.76415" lon="6.92029">
        <ele>1214.76</ele>
        <time>2011-09-06T13:09:04Z</time>
      </trkpt>
      <trkpt lat="43.76416" lon="6.92031">
        <ele>1217.65</ele>
        <time>2011-09-06T13:09:07Z</time>
      </trkpt>
      <trkpt lat="43.76416" lon="6.92032">
        <ele>1214.76</ele>
        <time>2011-09-06T13:09:08Z</time>
      </trkpt>
      <trkpt lat="43.76417" lon="6.92036">
        <ele>1216.69</ele>
        <time>2011-09-06T13:09:12Z</time>
      </trkpt>
      <trkpt lat="43.76418" lon="6.92037">
        <ele>1212.36</ele>
        <time>2011-09-06T13:09:13Z</time>
      </trkpt>
      <trkpt lat="43.76418" lon="6.92038">
        <ele>1214.28</ele>
        <time>2011-09-06T13:09:14Z</time>
      </trkpt>
      <trkpt lat="43.76418" lon="6.9204">
        <ele>1217.65</ele>
        <time>2011-09-06T13:09:16Z</time>
      </trkpt>
      <trkpt lat="43.76419" lon="6.92044">
        <ele>1213.32</ele>
        <time>2011-09-06T13:09:19Z</time>
      </trkpt>
      <trkpt lat="43.76419" lon="6.92045">
        <ele>1214.28</ele>
        <time>2011-09-06T13:09:20Z</time>
      </trkpt>
      <trkpt lat="43.7642" lon="6.92047">
        <ele>1217.65</ele>
        <time>2011-09-06T13:09:21Z</time>
      </trkpt>
      <trkpt lat="43.7642" lon="6.92048">
        <ele>1217.17</ele>
        <time>2011-09-06T13:09:22Z</time>
      </trkpt>
      <trkpt lat="43.76421" lon="6.9205">
        <ele>1214.28</ele>
        <time>2011-09-06T13:09:24Z</time>
      </trkpt>
      <trkpt lat="43.76421" lon="6.92051">
        <ele>1214.28</ele>
        <time>2011-09-06T13:09:25Z</time>
      </trkpt>
      <trkpt lat="43.76422" lon="6.92052">
        <ele>1217.17</ele>
        <time>2011-09-06T13:09:26Z</time>
      </trkpt>
      <trkpt lat="43.76426" lon="6.92056">
        <ele>1213.8</ele>
        <time>2011-09-06T13:09:32Z</time>
      </trkpt>
      <trkpt lat="43.76427" lon="6.92059">
        <ele>1217.65</ele>
        <time>2011-09-06T13:09:34Z</time>
      </trkpt>
      <trkpt lat="43.76429" lon="6.92062">
        <ele>1214.28</ele>
        <time>2011-09-06T13:09:37Z</time>
      </trkpt>
      <trkpt lat="43.76432" lon="6.92066">
        <ele>1218.13</ele>
        <time>2011-09-06T13:09:42Z</time>
      </trkpt>
      <trkpt lat="43.76434" lon="6.92068">
        <ele>1213.32</ele>
        <time>2011-09-06T13:09:44Z</time>
      </trkpt>
      <trkpt lat="43.76434" lon="6.9207">
        <ele>1217.65</ele>
        <time>2011-09-06T13:09:46Z</time>
      </trkpt>
      <trkpt lat="43.76434" lon="6.92071">
        <ele>1217.65</ele>
        <time>2011-09-06T13:09:47Z</time>
      </trkpt>
      <trkpt lat="43.76436" lon="6.92078">
        <ele>1217.65</ele>
        <time>2011-09-06T13:09:53Z</time>
      </trkpt>
      <trkpt lat="43.76437" lon="6.9208">
        <ele>1213.8</ele>
        <time>2011-09-06T13:09:55Z</time>
      </trkpt>
      <trkpt lat="43.76437" lon="6.92081">
        <ele>1214.28</ele>
        <time>2011-09-06T13:09:56Z</time>
      </trkpt>
      <trkpt lat="43.76439" lon="6.92083">
        <ele>1217.65</ele>
        <time>2011-09-06T13:09:58Z</time>
      </trkpt>
      <trkpt lat="43.76439" lon="6.92084">
        <ele>1216.69</ele>
        <time>2011-09-06T13:09:59Z</time>
      </trkpt>
      <trkpt lat="43.7644" lon="6.92086">
        <ele>1212.84</ele>
        <time>2011-09-06T13:10:01Z</time>
      </trkpt>
      <trkpt lat="43.76442" lon="6.92089">
        <ele>1217.65</ele>
        <time>2011-09-06T13:10:04Z</time>
      </trkpt>
      <trkpt lat="43.76442" lon="6.9209">
        <ele>1216.69</ele>
        <time>2011-09-06T13:10:05Z</time>
      </trkpt>
      <trkpt lat="43.76442" lon="6.92091">
        <ele>1213.8</ele>
        <time>2011-09-06T13:10:06Z</time>
      </trkpt>
      <trkpt lat="43.76442" lon="6.92092">
        <ele>1215.72</ele>
        <time>2011-09-06T13:10:07Z</time>
      </trkpt>
      <trkpt lat="43.76444" lon="6.92097">
        <ele>1216.21</ele>
        <time>2011-09-06T13:10:13Z</time>
      </trkpt>
      <trkpt lat="43.76444" lon="6.92098">
        <ele>1213.32</ele>
        <time>2011-09-06T13:10:14Z</time>
      </trkpt>
      <trkpt lat="43.76444" lon="6.92098">
        <ele>1213.32</ele>
        <time>2011-09-06T13:10:15Z</time>
      </trkpt>
      <trkpt lat="43.76445" lon="6.92099">
        <ele>1216.69</ele>
        <time>2011-09-06T13:10:16Z</time>
      </trkpt>
      <trkpt lat="43.76445" lon="6.921">
        <ele>1212.84</ele>
        <time>2011-09-06T13:10:19Z</time>
      </trkpt>
      <trkpt lat="43.76445" lon="6.921">
        <ele>1216.69</ele>
        <time>2011-09-06T13:10:20Z</time>
      </trkpt>
      <trkpt lat="43.76445" lon="6.921">
        <ele>1213.8</ele>
        <time>2011-09-06T13:10:21Z</time>
      </trkpt>
      <trkpt lat="43.76445" lon="6.921">
        <ele>1217.65</ele>
        <time>2011-09-06T13:10:23Z</time>
      </trkpt>
      <trkpt lat="43.76445" lon="6.92101">
        <ele>1215.72</ele>
        <time>2011-09-06T13:10:24Z</time>
      </trkpt>
      <trkpt lat="43.76445" lon="6.92101">
        <ele>1212.84</ele>
        <time>2011-09-06T13:10:25Z</time>
      </trkpt>
      <trkpt lat="43.76445" lon="6.92101">
        <ele>1213.32</ele>
        <time>2011-09-06T13:10:26Z</time>
      </trkpt>
      <trkpt lat="43.76445" lon="6.92101">
        <ele>1217.65</ele>
        <time>2011-09-06T13:10:28Z</time>
      </trkpt>
      <trkpt lat="43.76445" lon="6.92101">
        <ele>1213.32</ele>
        <time>2011-09-06T13:10:30Z</time>
      </trkpt>
      <trkpt lat="43.76445" lon="6.92101">
        <ele>1213.32</ele>
        <time>2011-09-06T13:10:31Z</time>
      </trkpt>
      <trkpt lat="43.76445" lon="6.92101">
        <ele>1216.69</ele>
        <time>2011-09-06T13:10:32Z</time>
      </trkpt>
      <trkpt lat="43.76445" lon="6.92101">
        <ele>1213.32</ele>
        <time>2011-09-06T13:10:33Z</time>
      </trkpt>
      <trkpt lat="43.76445" lon="6.92101">
        <ele>1217.17</ele>
        <time>2011-09-06T13:10:34Z</time>
      </trkpt>
      <trkpt lat="43.76445" lon="6.92101">
        <ele>1212.84</ele>
        <time>2011-09-06T13:10:38Z</time>
      </trkpt>
      <trkpt lat="43.76445" lon="6.92101">
        <ele>1217.17</ele>
        <time>2011-09-06T13:10:40Z</time>
      </trkpt>
      <trkpt lat="43.76445" lon="6.92101">
        <ele>1212.84</ele>
        <time>2011-09-06T13:10:42Z</time>
      </trkpt>
      <trkpt lat="43.76445" lon="6.92102">
        <ele>1216.69</ele>
        <time>2011-09-06T13:10:44Z</time>
      </trkpt>
      <trkpt lat="43.76445" lon="6.92102">
        <ele>1215.24</ele>
        <time>2011-09-06T13:10:45Z</time>
      </trkpt>
      <trkpt lat="43.76445" lon="6.92102">
        <ele>1216.21</ele>
        <time>2011-09-06T13:10:51Z</time>
      </trkpt>
      <trkpt lat="43.76445" lon="6.92102">
        <ele>1212.84</ele>
        <time>2011-09-06T13:10:53Z</time>
      </trkpt>
      <trkpt lat="43.76445" lon="6.92102">
        <ele>1216.69</ele>
        <time>2011-09-06T13:10:54Z</time>
      </trkpt>
      <trkpt lat="43.76445" lon="6.92102">
        <ele>1212.36</ele>
        <time>2011-09-06T13:10:58Z</time>
      </trkpt>
      <trkpt lat="43.76445" lon="6.92102">
        <ele>1213.32</ele>
        <time>2011-09-06T13:10:59Z</time>
      </trkpt>
      <trkpt lat="43.76445" lon="6.92104">
        <ele>1216.69</ele>
        <time>2011-09-06T13:11:01Z</time>
      </trkpt>
      <trkpt lat="43.76445" lon="6.92105">
        <ele>1212.36</ele>
        <time>2011-09-06T13:11:03Z</time>
      </trkpt>
      <trkpt lat="43.76445" lon="6.92106">
        <ele>1215.72</ele>
        <time>2011-09-06T13:11:05Z</time>
      </trkpt>
      <trkpt lat="43.76445" lon="6.92109">
        <ele>1212.36</ele>
        <time>2011-09-06T13:11:10Z</time>
      </trkpt>
      <trkpt lat="43.76445" lon="6.92109">
        <ele>1215.72</ele>
        <time>2011-09-06T13:11:13Z</time>
      </trkpt>
      <trkpt lat="43.76445" lon="6.92109">
        <ele>1211.4</ele>
        <time>2011-09-06T13:11:15Z</time>
      </trkpt>
      <trkpt lat="43.76445" lon="6.92109">
        <ele>1212.84</ele>
        <time>2011-09-06T13:11:16Z</time>
      </trkpt>
      <trkpt lat="43.76445" lon="6.92109">
        <ele>1215.24</ele>
        <time>2011-09-06T13:11:18Z</time>
      </trkpt>
      <trkpt lat="43.76445" lon="6.9211">
        <ele>1211.4</ele>
        <time>2011-09-06T13:11:20Z</time>
      </trkpt>
      <trkpt lat="43.76446" lon="6.92114">
        <ele>1214.76</ele>
        <time>2011-09-06T13:11:24Z</time>
      </trkpt>
      <trkpt lat="43.76446" lon="6.92114">
        <ele>1214.76</ele>
        <time>2011-09-06T13:11:25Z</time>
      </trkpt>
      <trkpt lat="43.76446" lon="6.92114">
        <ele>1211.4</ele>
        <time>2011-09-06T13:11:27Z</time>
      </trkpt>
      <trkpt lat="43.76446" lon="6.92114">
        <ele>1214.76</ele>
        <time>2011-09-06T13:11:30Z</time>
      </trkpt>
      <trkpt lat="43.76446" lon="6.92114">
        <ele>1214.76</ele>
        <time>2011-09-06T13:11:31Z</time>
      </trkpt>
      <trkpt lat="43.76445" lon="6.92114">
        <ele>1210.92</ele>
        <time>2011-09-06T13:11:33Z</time>
      </trkpt>
      <trkpt lat="43.76442" lon="6.92114">
        <ele>1211.88</ele>
        <time>2011-09-06T13:11:35Z</time>
      </trkpt>
      <trkpt lat="43.76436" lon="6.92115">
        <ele>1210.44</ele>
        <time>2011-09-06T13:11:40Z</time>
      </trkpt>
      <trkpt lat="43.76433" lon="6.92116">
        <ele>1214.28</ele>
        <time>2011-09-06T13:11:42Z</time>
      </trkpt>
      <trkpt lat="43.76432" lon="6.92116">
        <ele>1212.36</ele>
        <time>2011-09-06T13:11:43Z</time>
      </trkpt>
      <trkpt lat="43.7643" lon="6.92117">
        <ele>1209.96</ele>
        <time>2011-09-06T13:11:45Z</time>
      </trkpt>
      <trkpt lat="43.76425" lon="6.92118">
        <ele>1213.8</ele>
        <time>2011-09-06T13:11:49Z</time>
      </trkpt>
      <trkpt lat="43.76422" lon="6.92118">
        <ele>1209.96</ele>
        <time>2011-09-06T13:11:51Z</time>
      </trkpt>
      <trkpt lat="43.76421" lon="6.92117">
        <ele>1209.48</ele>
        <time>2011-09-06T13:11:52Z</time>
      </trkpt>
      <trkpt lat="43.76419" lon="6.92117">
        <ele>1213.32</ele>
        <time>2011-09-06T13:11:54Z</time>
      </trkpt>
      <trkpt lat="43.76412" lon="6.92114">
        <ele>1210.44</ele>
        <time>2011-09-06T13:12:00Z</time>
      </trkpt>
      <trkpt lat="43.76411" lon="6.92113">
        <ele>1209.96</ele>
        <time>2011-09-06T13:12:01Z</time>
      </trkpt>
      <trkpt lat="43.76408" lon="6.92114">
        <ele>1212.36</ele>
        <time>2011-09-06T13:12:04Z</time>
      </trkpt>
      <trkpt lat="43.76407" lon="6.92114">
        <ele>1210.44</ele>
        <time>2011-09-06T13:12:06Z</time>
      </trkpt>
      <trkpt lat="43.76405" lon="6.92115">
        <ele>1214.28</ele>
        <time>2011-09-06T13:12:08Z</time>
      </trkpt>
      <trkpt lat="43.76403" lon="6.92117">
        <ele>1210.92</ele>
        <time>2011-09-06T13:12:10Z</time>
      </trkpt>
      <trkpt lat="43.76399" lon="6.92119">
        <ele>1213.8</ele>
        <time>2011-09-06T13:12:16Z</time>
      </trkpt>
      <trkpt lat="43.76395" lon="6.92122">
        <ele>1215.24</ele>
        <time>2011-09-06T13:12:23Z</time>
      </trkpt>
      <trkpt lat="43.76394" lon="6.92124">
        <ele>1210.92</ele>
        <time>2011-09-06T13:12:25Z</time>
      </trkpt>
      <trkpt lat="43.76394" lon="6.92125">
        <ele>1214.28</ele>
        <time>2011-09-06T13:12:26Z</time>
      </trkpt>
      <trkpt lat="43.76393" lon="6.92126">
        <ele>1213.8</ele>
        <time>2011-09-06T13:12:27Z</time>
      </trkpt>
      <trkpt lat="43.76392" lon="6.92127">
        <ele>1210.44</ele>
        <time>2011-09-06T13:12:29Z</time>
      </trkpt>
      <trkpt lat="43.76391" lon="6.9213">
        <ele>1209.48</ele>
        <time>2011-09-06T13:12:34Z</time>
      </trkpt>
      <trkpt lat="43.76391" lon="6.9213">
        <ele>1211.4</ele>
        <time>2011-09-06T13:12:35Z</time>
      </trkpt>
      <trkpt lat="43.76391" lon="6.92136">
        <ele>1213.32</ele>
        <time>2011-09-06T13:12:48Z</time>
      </trkpt>
      <trkpt lat="43.76391" lon="6.92137">
        <ele>1209</ele>
        <time>2011-09-06T13:12:49Z</time>
      </trkpt>
      <trkpt lat="43.76391" lon="6.92138">
        <ele>1211.4</ele>
        <time>2011-09-06T13:12:50Z</time>
      </trkpt>
      <trkpt lat="43.76391" lon="6.9214">
        <ele>1211.4</ele>
        <time>2011-09-06T13:12:54Z</time>
      </trkpt>
      <trkpt lat="43.76391" lon="6.9214">
        <ele>1208.51</ele>
        <time>2011-09-06T13:12:56Z</time>
      </trkpt>
      <trkpt lat="43.76391" lon="6.9214">
        <ele>1211.88</ele>
        <time>2011-09-06T13:12:59Z</time>
      </trkpt>
      <trkpt lat="43.76391" lon="6.9214">
        <ele>1207.55</ele>
        <time>2011-09-06T13:13:00Z</time>
      </trkpt>
      <trkpt lat="43.76391" lon="6.9214">
        <ele>1208.51</ele>
        <time>2011-09-06T13:13:01Z</time>
      </trkpt>
      <trkpt lat="43.76391" lon="6.9214">
        <ele>1211.88</ele>
        <time>2011-09-06T13:13:05Z</time>
      </trkpt>
      <trkpt lat="43.76391" lon="6.9214">
        <ele>1211.4</ele>
        <time>2011-09-06T13:13:06Z</time>
      </trkpt>
      <trkpt lat="43.76391" lon="6.9214">
        <ele>1208.51</ele>
        <time>2011-09-06T13:13:07Z</time>
      </trkpt>
      <trkpt lat="43.76391" lon="6.9214">
        <ele>1208.51</ele>
        <time>2011-09-06T13:13:08Z</time>
      </trkpt>
      <trkpt lat="43.76391" lon="6.9214">
        <ele>1211.88</ele>
        <time>2011-09-06T13:13:10Z</time>
      </trkpt>
      <trkpt lat="43.76391" lon="6.9214">
        <ele>1208.03</ele>
        <time>2011-09-06T13:13:12Z</time>
      </trkpt>
      <trkpt lat="43.76391" lon="6.9214">
        <ele>1209.48</ele>
        <time>2011-09-06T13:13:13Z</time>
      </trkpt>
      <trkpt lat="43.76391" lon="6.9214">
        <ele>1209.48</ele>
        <time>2011-09-06T13:13:19Z</time>
      </trkpt>
      <trkpt lat="43.76391" lon="6.9214">
        <ele>1210.44</ele>
        <time>2011-09-06T13:13:21Z</time>
      </trkpt>
      <trkpt lat="43.76392" lon="6.92141">
        <ele>1209.48</ele>
        <time>2011-09-06T13:13:23Z</time>
      </trkpt>
      <trkpt lat="43.76392" lon="6.92141">
        <ele>1210.44</ele>
        <time>2011-09-06T13:13:44Z</time>
      </trkpt>
      <trkpt lat="43.76392" lon="6.92141">
        <ele>1207.07</ele>
        <time>2011-09-06T13:13:49Z</time>
      </trkpt>
      <trkpt lat="43.76392" lon="6.92141">
        <ele>1209</ele>
        <time>2011-09-06T13:13:50Z</time>
      </trkpt>
      <trkpt lat="43.76392" lon="6.92141">
        <ele>1209.96</ele>
        <time>2011-09-06T13:13:55Z</time>
      </trkpt>
      <trkpt lat="43.76392" lon="6.92141">
        <ele>1208.03</ele>
        <time>2011-09-06T13:13:57Z</time>
      </trkpt>
      <trkpt lat="43.76392" lon="6.92141">
        <ele>1211.88</ele>
        <time>2011-09-06T13:13:59Z</time>
      </trkpt>
      <trkpt lat="43.76392" lon="6.92141">
        <ele>1211.88</ele>
        <time>2011-09-06T13:14:00Z</time>
      </trkpt>
      <trkpt lat="43.76392" lon="6.92141">
        <ele>1206.59</ele>
        <time>2011-09-06T13:14:02Z</time>
      </trkpt>
      <trkpt lat="43.76392" lon="6.92141">
        <ele>1208.51</ele>
        <time>2011-09-06T13:14:03Z</time>
      </trkpt>
      <trkpt lat="43.76392" lon="6.92141">
        <ele>1209.96</ele>
        <time>2011-09-06T13:14:07Z</time>
      </trkpt>
      <trkpt lat="43.76391" lon="6.92143">
        <ele>1208.51</ele>
        <time>2011-09-06T13:14:11Z</time>
      </trkpt>
      <trkpt lat="43.76391" lon="6.92143">
        <ele>1211.88</ele>
        <time>2011-09-06T13:14:13Z</time>
      </trkpt>
      <trkpt lat="43.76391" lon="6.92143">
        <ele>1207.55</ele>
        <time>2011-09-06T13:14:15Z</time>
      </trkpt>
      <trkpt lat="43.76391" lon="6.92143">
        <ele>1208.03</ele>
        <time>2011-09-06T13:14:16Z</time>
      </trkpt>
      <trkpt lat="43.7639" lon="6.92144">
        <ele>1211.4</ele>
        <time>2011-09-06T13:14:17Z</time>
      </trkpt>
      <trkpt lat="43.7639" lon="6.92144">
        <ele>1207.55</ele>
        <time>2011-09-06T13:14:18Z</time>
      </trkpt>
      <trkpt lat="43.7639" lon="6.92144">
        <ele>1210.92</ele>
        <time>2011-09-06T13:14:19Z</time>
      </trkpt>
      <trkpt lat="43.76391" lon="6.92145">
        <ele>1207.07</ele>
        <time>2011-09-06T13:14:21Z</time>
      </trkpt>
      <trkpt lat="43.76391" lon="6.92146">
        <ele>1207.07</ele>
        <time>2011-09-06T13:14:22Z</time>
      </trkpt>
      <trkpt lat="43.76391" lon="6.92148">
        <ele>1211.88</ele>
        <time>2011-09-06T13:14:24Z</time>
      </trkpt>
      <trkpt lat="43.76391" lon="6.92149">
        <ele>1208.03</ele>
        <time>2011-09-06T13:14:25Z</time>
      </trkpt>
      <trkpt lat="43.76391" lon="6.92154">
        <ele>1209.96</ele>
        <time>2011-09-06T13:14:32Z</time>
      </trkpt>
      <trkpt lat="43.76391" lon="6.92156">
        <ele>1205.15</ele>
        <time>2011-09-06T13:14:34Z</time>
      </trkpt>
      <trkpt lat="43.76391" lon="6.92157">
        <ele>1206.11</ele>
        <time>2011-09-06T13:14:35Z</time>
      </trkpt>
      <trkpt lat="43.76392" lon="6.92158">
        <ele>1209.96</ele>
        <time>2011-09-06T13:14:36Z</time>
      </trkpt>
      <trkpt lat="43.76392" lon="6.92159">
        <ele>1208.51</ele>
        <time>2011-09-06T13:14:37Z</time>
      </trkpt>
      <trkpt lat="43.76392" lon="6.9216">
        <ele>1205.15</ele>
        <time>2011-09-06T13:14:38Z</time>
      </trkpt>
      <trkpt lat="43.76392" lon="6.9216">
        <ele>1209.48</ele>
        <time>2011-09-06T13:14:42Z</time>
      </trkpt>
      <trkpt lat="43.76392" lon="6.9216">
        <ele>1205.15</ele>
        <time>2011-09-06T13:14:44Z</time>
      </trkpt>
      <trkpt lat="43.76392" lon="6.9216">
        <ele>1209</ele>
        <time>2011-09-06T13:14:46Z</time>
      </trkpt>
      <trkpt lat="43.76392" lon="6.9216">
        <ele>1204.19</ele>
        <time>2011-09-06T13:14:48Z</time>
      </trkpt>
      <trkpt lat="43.76392" lon="6.9216">
        <ele>1208.51</ele>
        <time>2011-09-06T13:14:49Z</time>
      </trkpt>
      <trkpt lat="43.76394" lon="6.92161">
        <ele>1204.67</ele>
        <time>2011-09-06T13:14:51Z</time>
      </trkpt>
      <trkpt lat="43.76394" lon="6.92161">
        <ele>1204.67</ele>
        <time>2011-09-06T13:14:52Z</time>
      </trkpt>
      <trkpt lat="43.76394" lon="6.92162">
        <ele>1208.51</ele>
        <time>2011-09-06T13:14:53Z</time>
      </trkpt>
      <trkpt lat="43.76395" lon="6.92162">
        <ele>1208.03</ele>
        <time>2011-09-06T13:14:54Z</time>
      </trkpt>
      <trkpt lat="43.76397" lon="6.92164">
        <ele>1204.19</ele>
        <time>2011-09-06T13:14:56Z</time>
      </trkpt>
      <trkpt lat="43.76397" lon="6.92164">
        <ele>1204.67</ele>
        <time>2011-09-06T13:14:57Z</time>
      </trkpt>
      <trkpt lat="43.76397" lon="6.92165">
        <ele>1207.55</ele>
        <time>2011-09-06T13:14:59Z</time>
      </trkpt>
      <trkpt lat="43.76398" lon="6.92165">
        <ele>1203.23</ele>
        <time>2011-09-06T13:15:01Z</time>
      </trkpt>
      <trkpt lat="43.76398" lon="6.92165">
        <ele>1208.03</ele>
        <time>2011-09-06T13:15:03Z</time>
      </trkpt>
      <trkpt lat="43.76398" lon="6.92165">
        <ele>1204.19</ele>
        <time>2011-09-06T13:15:04Z</time>
      </trkpt>
      <trkpt lat="43.76398" lon="6.92165">
        <ele>1208.51</ele>
        <time>2011-09-06T13:15:08Z</time>
      </trkpt>
      <trkpt lat="43.76399" lon="6.92166">
        <ele>1204.19</ele>
        <time>2011-09-06T13:15:09Z</time>
      </trkpt>
      <trkpt lat="43.76399" lon="6.92167">
        <ele>1204.67</ele>
        <time>2011-09-06T13:15:10Z</time>
      </trkpt>
      <trkpt lat="43.764" lon="6.92168">
        <ele>1208.51</ele>
        <time>2011-09-06T13:15:11Z</time>
      </trkpt>
      <trkpt lat="43.76403" lon="6.92174">
        <ele>1205.15</ele>
        <time>2011-09-06T13:15:16Z</time>
      </trkpt>
      <trkpt lat="43.76408" lon="6.9218">
        <ele>1203.71</ele>
        <time>2011-09-06T13:15:21Z</time>
      </trkpt>
      <trkpt lat="43.76409" lon="6.92182">
        <ele>1205.15</ele>
        <time>2011-09-06T13:15:23Z</time>
      </trkpt>
      <trkpt lat="43.76411" lon="6.92184">
        <ele>1204.67</ele>
        <time>2011-09-06T13:15:25Z</time>
      </trkpt>
      <trkpt lat="43.76413" lon="6.92186">
        <ele>1205.15</ele>
        <time>2011-09-06T13:15:27Z</time>
      </trkpt>
      <trkpt lat="43.76414" lon="6.92188">
        <ele>1206.59</ele>
        <time>2011-09-06T13:15:29Z</time>
      </trkpt>
      <trkpt lat="43.76418" lon="6.92192">
        <ele>1202.27</ele>
        <time>2011-09-06T13:15:33Z</time>
      </trkpt>
      <trkpt lat="43.76418" lon="6.92193">
        <ele>1205.63</ele>
        <time>2011-09-06T13:15:34Z</time>
      </trkpt>
      <trkpt lat="43.76421" lon="6.92197">
        <ele>1203.23</ele>
        <time>2011-09-06T13:15:39Z</time>
      </trkpt>
      <trkpt lat="43.76422" lon="6.92198">
        <ele>1208.03</ele>
        <time>2011-09-06T13:15:40Z</time>
      </trkpt>
      <trkpt lat="43.76423" lon="6.92199">
        <ele>1207.55</ele>
        <time>2011-09-06T13:15:41Z</time>
      </trkpt>
      <trkpt lat="43.76424" lon="6.922">
        <ele>1208.03</ele>
        <time>2011-09-06T13:15:43Z</time>
      </trkpt>
      <trkpt lat="43.76426" lon="6.92202">
        <ele>1202.75</ele>
        <time>2011-09-06T13:15:45Z</time>
      </trkpt>
      <trkpt lat="43.76429" lon="6.92204">
        <ele>1203.71</ele>
        <time>2011-09-06T13:15:49Z</time>
      </trkpt>
      <trkpt lat="43.7643" lon="6.92206">
        <ele>1206.59</ele>
        <time>2011-09-06T13:15:51Z</time>
      </trkpt>
      <trkpt lat="43.76431" lon="6.92207">
        <ele>1208.03</ele>
        <time>2011-09-06T13:15:52Z</time>
      </trkpt>
      <trkpt lat="43.76434" lon="6.92211">
        <ele>1203.23</ele>
        <time>2011-09-06T13:15:56Z</time>
      </trkpt>
      <trkpt lat="43.76435" lon="6.92213">
        <ele>1207.55</ele>
        <time>2011-09-06T13:15:58Z</time>
      </trkpt>
      <trkpt lat="43.76436" lon="6.92216">
        <ele>1203.23</ele>
        <time>2011-09-06T13:16:00Z</time>
      </trkpt>
      <trkpt lat="43.76437" lon="6.92216">
        <ele>1205.15</ele>
        <time>2011-09-06T13:16:01Z</time>
      </trkpt>
      <trkpt lat="43.76437" lon="6.92217">
        <ele>1207.55</ele>
        <time>2011-09-06T13:16:03Z</time>
      </trkpt>
      <trkpt lat="43.76437" lon="6.92217">
        <ele>1204.67</ele>
        <time>2011-09-06T13:16:05Z</time>
      </trkpt>
      <trkpt lat="43.76437" lon="6.92217">
        <ele>1207.55</ele>
        <time>2011-09-06T13:16:11Z</time>
      </trkpt>
      <trkpt lat="43.76437" lon="6.92217">
        <ele>1203.71</ele>
        <time>2011-09-06T13:16:13Z</time>
      </trkpt>
      <trkpt lat="43.76437" lon="6.92217">
        <ele>1204.19</ele>
        <time>2011-09-06T13:16:14Z</time>
      </trkpt>
      <trkpt lat="43.76437" lon="6.92217">
        <ele>1207.55</ele>
        <time>2011-09-06T13:16:15Z</time>
      </trkpt>
      <trkpt lat="43.76438" lon="6.92217">
        <ele>1206.59</ele>
        <time>2011-09-06T13:16:16Z</time>
      </trkpt>
      <trkpt lat="43.7644" lon="6.92219">
        <ele>1205.15</ele>
        <time>2011-09-06T13:16:18Z</time>
      </trkpt>
      <trkpt lat="43.76442" lon="6.9222">
        <ele>1208.51</ele>
        <time>2011-09-06T13:16:19Z</time>
      </trkpt>
      <trkpt lat="43.76442" lon="6.9222">
        <ele>1204.67</ele>
        <time>2011-09-06T13:16:20Z</time>
      </trkpt>
      <trkpt lat="43.76447" lon="6.92223">
        <ele>1208.03</ele>
        <time>2011-09-06T13:16:25Z</time>
      </trkpt>
      <trkpt lat="43.7645" lon="6.92224">
        <ele>1204.19</ele>
        <time>2011-09-06T13:16:27Z</time>
      </trkpt>
      <trkpt lat="43.76451" lon="6.92224">
        <ele>1205.15</ele>
        <time>2011-09-06T13:16:28Z</time>
      </trkpt>
      <trkpt lat="43.76452" lon="6.92225">
        <ele>1208.51</ele>
        <time>2011-09-06T13:16:29Z</time>
      </trkpt>
      <trkpt lat="43.76452" lon="6.92226">
        <ele>1207.55</ele>
        <time>2011-09-06T13:16:30Z</time>
      </trkpt>
      <trkpt lat="43.76453" lon="6.92227">
        <ele>1205.63</ele>
        <time>2011-09-06T13:16:31Z</time>
      </trkpt>
      <trkpt lat="43.76454" lon="6.92231">
        <ele>1209.48</ele>
        <time>2011-09-06T13:16:34Z</time>
      </trkpt>
      <trkpt lat="43.76455" lon="6.92232">
        <ele>1208.03</ele>
        <time>2011-09-06T13:16:35Z</time>
      </trkpt>
      <trkpt lat="43.76458" lon="6.92241">
        <ele>1209.48</ele>
        <time>2011-09-06T13:16:45Z</time>
      </trkpt>
      <trkpt lat="43.7646" lon="6.92243">
        <ele>1207.55</ele>
        <time>2011-09-06T13:16:49Z</time>
      </trkpt>
      <trkpt lat="43.76461" lon="6.92244">
        <ele>1211.88</ele>
        <time>2011-09-06T13:16:50Z</time>
      </trkpt>
      <trkpt lat="43.76461" lon="6.92245">
        <ele>1209.48</ele>
        <time>2011-09-06T13:16:51Z</time>
      </trkpt>
      <trkpt lat="43.76461" lon="6.9225">
        <ele>1208.51</ele>
        <time>2011-09-06T13:16:57Z</time>
      </trkpt>
      <trkpt lat="43.76461" lon="6.92251">
        <ele>1209</ele>
        <time>2011-09-06T13:17:06Z</time>
      </trkpt>
      <trkpt lat="43.76459" lon="6.92251">
        <ele>1210.44</ele>
        <time>2011-09-06T13:17:08Z</time>
      </trkpt>
      <trkpt lat="43.76458" lon="6.92251">
        <ele>1207.55</ele>
        <time>2011-09-06T13:17:09Z</time>
      </trkpt>
      <trkpt lat="43.76457" lon="6.92251">
        <ele>1209.96</ele>
        <time>2011-09-06T13:17:10Z</time>
      </trkpt>
      <trkpt lat="43.76455" lon="6.92251">
        <ele>1209.96</ele>
        <time>2011-09-06T13:17:20Z</time>
      </trkpt>
      <trkpt lat="43.76455" lon="6.92251">
        <ele>1208.51</ele>
        <time>2011-09-06T13:17:22Z</time>
      </trkpt>
      <trkpt lat="43.76455" lon="6.92251">
        <ele>1211.88</ele>
        <time>2011-09-06T13:17:41Z</time>
      </trkpt>
      <trkpt lat="43.76455" lon="6.92251">
        <ele>1211.4</ele>
        <time>2011-09-06T13:17:42Z</time>
      </trkpt>
      <trkpt lat="43.76455" lon="6.92251">
        <ele>1207.55</ele>
        <time>2011-09-06T13:17:44Z</time>
      </trkpt>
      <trkpt lat="43.76455" lon="6.92251">
        <ele>1209.48</ele>
        <time>2011-09-06T13:17:45Z</time>
      </trkpt>
      <trkpt lat="43.76455" lon="6.92251">
        <ele>1209</ele>
        <time>2011-09-06T13:17:51Z</time>
      </trkpt>
      <trkpt lat="43.76455" lon="6.92251">
        <ele>1208.03</ele>
        <time>2011-09-06T13:17:57Z</time>
      </trkpt>
      <trkpt lat="43.76455" lon="6.92251">
        <ele>1211.4</ele>
        <time>2011-09-06T13:18:03Z</time>
      </trkpt>
      <trkpt lat="43.76455" lon="6.92251">
        <ele>1208.03</ele>
        <time>2011-09-06T13:18:06Z</time>
      </trkpt>
      <trkpt lat="43.76455" lon="6.92251">
        <ele>1212.36</ele>
        <time>2011-09-06T13:18:08Z</time>
      </trkpt>
      <trkpt lat="43.76455" lon="6.92251">
        <ele>1207.55</ele>
        <time>2011-09-06T13:18:10Z</time>
      </trkpt>
      <trkpt lat="43.76455" lon="6.92251">
        <ele>1208.51</ele>
        <time>2011-09-06T13:18:11Z</time>
      </trkpt>
      <trkpt lat="43.76455" lon="6.92251">
        <ele>1211.88</ele>
        <time>2011-09-06T13:18:12Z</time>
      </trkpt>
      <trkpt lat="43.76455" lon="6.92251">
        <ele>1211.4</ele>
        <time>2011-09-06T13:18:13Z</time>
      </trkpt>
      <trkpt lat="43.76455" lon="6.92251">
        <ele>1208.03</ele>
        <time>2011-09-06T13:18:17Z</time>
      </trkpt>
      <trkpt lat="43.76455" lon="6.92251">
        <ele>1210.92</ele>
        <time>2011-09-06T13:18:21Z</time>
      </trkpt>
      <trkpt lat="43.76455" lon="6.92251">
        <ele>1207.07</ele>
        <time>2011-09-06T13:18:25Z</time>
      </trkpt>
      <trkpt lat="43.76455" lon="6.92251">
        <ele>1208.51</ele>
        <time>2011-09-06T13:18:26Z</time>
      </trkpt>
      <trkpt lat="43.76455" lon="6.92251">
        <ele>1207.55</ele>
        <time>2011-09-06T13:18:33Z</time>
      </trkpt>
      <trkpt lat="43.76455" lon="6.92251">
        <ele>1211.88</ele>
        <time>2011-09-06T13:18:35Z</time>
      </trkpt>
      <trkpt lat="43.76455" lon="6.92251">
        <ele>1210.44</ele>
        <time>2011-09-06T13:18:36Z</time>
      </trkpt>
      <trkpt lat="43.76455" lon="6.92251">
        <ele>1211.4</ele>
        <time>2011-09-06T13:18:44Z</time>
      </trkpt>
      <trkpt lat="43.76455" lon="6.92251">
        <ele>1207.55</ele>
        <time>2011-09-06T13:18:47Z</time>
      </trkpt>
      <trkpt lat="43.76455" lon="6.92251">
        <ele>1211.4</ele>
        <time>2011-09-06T13:18:49Z</time>
      </trkpt>
      <trkpt lat="43.76455" lon="6.92251">
        <ele>1208.03</ele>
        <time>2011-09-06T13:18:50Z</time>
      </trkpt>
      <trkpt lat="43.76455" lon="6.92251">
        <ele>1211.88</ele>
        <time>2011-09-06T13:18:52Z</time>
      </trkpt>
      <trkpt lat="43.76455" lon="6.92251">
        <ele>1212.36</ele>
        <time>2011-09-06T13:18:53Z</time>
      </trkpt>
      <trkpt lat="43.76455" lon="6.92251">
        <ele>1208.03</ele>
        <time>2011-09-06T13:18:55Z</time>
      </trkpt>
      <trkpt lat="43.76455" lon="6.92251">
        <ele>1211.88</ele>
        <time>2011-09-06T13:18:58Z</time>
      </trkpt>
      <trkpt lat="43.76455" lon="6.92251">
        <ele>1211.4</ele>
        <time>2011-09-06T13:18:59Z</time>
      </trkpt>
      <trkpt lat="43.76455" lon="6.92251">
        <ele>1208.51</ele>
        <time>2011-09-06T13:19:01Z</time>
      </trkpt>
      <trkpt lat="43.76454" lon="6.92251">
        <ele>1208.03</ele>
        <time>2011-09-06T13:19:06Z</time>
      </trkpt>
      <trkpt lat="43.76454" lon="6.92251">
        <ele>1210.92</ele>
        <time>2011-09-06T13:19:09Z</time>
      </trkpt>
      <trkpt lat="43.76454" lon="6.92252">
        <ele>1207.55</ele>
        <time>2011-09-06T13:19:12Z</time>
      </trkpt>
      <trkpt lat="43.76455" lon="6.92254">
        <ele>1211.4</ele>
        <time>2011-09-06T13:19:17Z</time>
      </trkpt>
      <trkpt lat="43.76455" lon="6.92254">
        <ele>1211.4</ele>
        <time>2011-09-06T13:19:18Z</time>
      </trkpt>
      <trkpt lat="43.76457" lon="6.92255">
        <ele>1208.03</ele>
        <time>2011-09-06T13:19:20Z</time>
      </trkpt>
      <trkpt lat="43.7646" lon="6.92255">
        <ele>1211.4</ele>
        <time>2011-09-06T13:19:24Z</time>
      </trkpt>
      <trkpt lat="43.7646" lon="6.92256">
        <ele>1210.44</ele>
        <time>2011-09-06T13:19:25Z</time>
      </trkpt>
      <trkpt lat="43.76461" lon="6.92256">
        <ele>1207.07</ele>
        <time>2011-09-06T13:19:26Z</time>
      </trkpt>
      <trkpt lat="43.76464" lon="6.92258">
        <ele>1207.55</ele>
        <time>2011-09-06T13:19:30Z</time>
      </trkpt>
      <trkpt lat="43.76465" lon="6.92258">
        <ele>1208.03</ele>
        <time>2011-09-06T13:19:31Z</time>
      </trkpt>
      <trkpt lat="43.76466" lon="6.92259">
        <ele>1211.88</ele>
        <time>2011-09-06T13:19:34Z</time>
      </trkpt>
      <trkpt lat="43.76467" lon="6.92259">
        <ele>1211.4</ele>
        <time>2011-09-06T13:19:35Z</time>
      </trkpt>
      <trkpt lat="43.76468" lon="6.9226">
        <ele>1208.03</ele>
        <time>2011-09-06T13:19:37Z</time>
      </trkpt>
      <trkpt lat="43.76469" lon="6.9226">
        <ele>1208.51</ele>
        <time>2011-09-06T13:19:41Z</time>
      </trkpt>
      <trkpt lat="43.76469" lon="6.9226">
        <ele>1211.88</ele>
        <time>2011-09-06T13:19:43Z</time>
      </trkpt>
      <trkpt lat="43.76469" lon="6.9226">
        <ele>1211.88</ele>
        <time>2011-09-06T13:19:44Z</time>
      </trkpt>
      <trkpt lat="43.7647" lon="6.9226">
        <ele>1208.51</ele>
        <time>2011-09-06T13:19:46Z</time>
      </trkpt>
      <trkpt lat="43.7647" lon="6.9226">
        <ele>1212.36</ele>
        <time>2011-09-06T13:19:49Z</time>
      </trkpt>
      <trkpt lat="43.76473" lon="6.92258">
        <ele>1208.51</ele>
        <time>2011-09-06T13:20:01Z</time>
      </trkpt>
      <trkpt lat="43.76474" lon="6.92259">
        <ele>1212.36</ele>
        <time>2011-09-06T13:20:03Z</time>
      </trkpt>
      <trkpt lat="43.76474" lon="6.92259">
        <ele>1210.92</ele>
        <time>2011-09-06T13:20:04Z</time>
      </trkpt>
      <trkpt lat="43.76476" lon="6.9226">
        <ele>1209.48</ele>
        <time>2011-09-06T13:20:06Z</time>
      </trkpt>
      <trkpt lat="43.76477" lon="6.9226">
        <ele>1212.84</ele>
        <time>2011-09-06T13:20:07Z</time>
      </trkpt>
      <trkpt lat="43.76477" lon="6.9226">
        <ele>1212.36</ele>
        <time>2011-09-06T13:20:08Z</time>
      </trkpt>
      <trkpt lat="43.76479" lon="6.9226">
        <ele>1209</ele>
        <time>2011-09-06T13:20:10Z</time>
      </trkpt>
      <trkpt lat="43.76479" lon="6.9226">
        <ele>1209.96</ele>
        <time>2011-09-06T13:20:11Z</time>
      </trkpt>
      <trkpt lat="43.76479" lon="6.9226">
        <ele>1213.32</ele>
        <time>2011-09-06T13:20:13Z</time>
      </trkpt>
      <trkpt lat="43.76481" lon="6.92259">
        <ele>1209.48</ele>
        <time>2011-09-06T13:20:23Z</time>
      </trkpt>
      <trkpt lat="43.76482" lon="6.92261">
        <ele>1213.8</ele>
        <time>2011-09-06T13:20:27Z</time>
      </trkpt>
      <trkpt lat="43.76483" lon="6.92262">
        <ele>1214.28</ele>
        <time>2011-09-06T13:20:28Z</time>
      </trkpt>
      <trkpt lat="43.76485" lon="6.92262">
        <ele>1213.8</ele>
        <time>2011-09-06T13:20:30Z</time>
      </trkpt>
      <trkpt lat="43.76485" lon="6.92265">
        <ele>1210.44</ele>
        <time>2011-09-06T13:20:35Z</time>
      </trkpt>
      <trkpt lat="43.76486" lon="6.92265">
        <ele>1209.96</ele>
        <time>2011-09-06T13:20:36Z</time>
      </trkpt>
      <trkpt lat="43.76487" lon="6.92265">
        <ele>1213.32</ele>
        <time>2011-09-06T13:20:39Z</time>
      </trkpt>
      <trkpt lat="43.76489" lon="6.92265">
        <ele>1214.76</ele>
        <time>2011-09-06T13:20:41Z</time>
      </trkpt>
      <trkpt lat="43.7649" lon="6.92265">
        <ele>1214.76</ele>
        <time>2011-09-06T13:20:44Z</time>
      </trkpt>
      <trkpt lat="43.76492" lon="6.92263">
        <ele>1210.92</ele>
        <time>2011-09-06T13:20:46Z</time>
      </trkpt>
      <trkpt lat="43.76496" lon="6.92263">
        <ele>1214.76</ele>
        <time>2011-09-06T13:20:51Z</time>
      </trkpt>
      <trkpt lat="43.76497" lon="6.92263">
        <ele>1215.24</ele>
        <time>2011-09-06T13:20:52Z</time>
      </trkpt>
      <trkpt lat="43.76504" lon="6.92269">
        <ele>1211.88</ele>
        <time>2011-09-06T13:21:02Z</time>
      </trkpt>
      <trkpt lat="43.76506" lon="6.9227">
        <ele>1213.8</ele>
        <time>2011-09-06T13:21:05Z</time>
      </trkpt>
      <trkpt lat="43.76506" lon="6.92273">
        <ele>1216.21</ele>
        <time>2011-09-06T13:21:12Z</time>
      </trkpt>
      <trkpt lat="43.76503" lon="6.9228">
        <ele>1212.36</ele>
        <time>2011-09-06T13:21:17Z</time>
      </trkpt>
      <trkpt lat="43.76503" lon="6.92282">
        <ele>1215.72</ele>
        <time>2011-09-06T13:21:19Z</time>
      </trkpt>
      <trkpt lat="43.76503" lon="6.92284">
        <ele>1215.72</ele>
        <time>2011-09-06T13:21:20Z</time>
      </trkpt>
      <trkpt lat="43.76504" lon="6.92286">
        <ele>1211.88</ele>
        <time>2011-09-06T13:21:23Z</time>
      </trkpt>
      <trkpt lat="43.76504" lon="6.92287">
        <ele>1211.88</ele>
        <time>2011-09-06T13:21:24Z</time>
      </trkpt>
      <trkpt lat="43.76505" lon="6.92289">
        <ele>1214.76</ele>
        <time>2011-09-06T13:21:28Z</time>
      </trkpt>
      <trkpt lat="43.76505" lon="6.92289">
        <ele>1215.24</ele>
        <time>2011-09-06T13:21:29Z</time>
      </trkpt>
      <trkpt lat="43.76505" lon="6.92289">
        <ele>1211.4</ele>
        <time>2011-09-06T13:21:30Z</time>
      </trkpt>
      <trkpt lat="43.76506" lon="6.9229">
        <ele>1212.36</ele>
        <time>2011-09-06T13:21:31Z</time>
      </trkpt>
      <trkpt lat="43.76507" lon="6.9229">
        <ele>1215.72</ele>
        <time>2011-09-06T13:21:34Z</time>
      </trkpt>
      <trkpt lat="43.76511" lon="6.92291">
        <ele>1212.36</ele>
        <time>2011-09-06T13:21:42Z</time>
      </trkpt>
      <trkpt lat="43.76513" lon="6.92292">
        <ele>1215.72</ele>
        <time>2011-09-06T13:21:44Z</time>
      </trkpt>
      <trkpt lat="43.76513" lon="6.92292">
        <ele>1213.32</ele>
        <time>2011-09-06T13:21:53Z</time>
      </trkpt>
      <trkpt lat="43.7652" lon="6.92293">
        <ele>1210.92</ele>
        <time>2011-09-06T13:22:04Z</time>
      </trkpt>
      <trkpt lat="43.76522" lon="6.92293">
        <ele>1215.24</ele>
        <time>2011-09-06T13:22:07Z</time>
      </trkpt>
      <trkpt lat="43.76522" lon="6.92293">
        <ele>1211.4</ele>
        <time>2011-09-06T13:22:08Z</time>
      </trkpt>
      <trkpt lat="43.76523" lon="6.92293">
        <ele>1212.36</ele>
        <time>2011-09-06T13:22:12Z</time>
      </trkpt>
      <trkpt lat="43.76522" lon="6.92289">
        <ele>1213.32</ele>
        <time>2011-09-06T13:22:23Z</time>
      </trkpt>
      <trkpt lat="43.76521" lon="6.92289">
        <ele>1215.24</ele>
        <time>2011-09-06T13:22:41Z</time>
      </trkpt>
      <trkpt lat="43.76521" lon="6.92289">
        <ele>1211.4</ele>
        <time>2011-09-06T13:22:45Z</time>
      </trkpt>
      <trkpt lat="43.76521" lon="6.92289">
        <ele>1214.76</ele>
        <time>2011-09-06T13:22:46Z</time>
      </trkpt>
      <trkpt lat="43.76521" lon="6.92289">
        <ele>1214.76</ele>
        <time>2011-09-06T13:22:47Z</time>
      </trkpt>
      <trkpt lat="43.76521" lon="6.92289">
        <ele>1211.88</ele>
        <time>2011-09-06T13:23:03Z</time>
      </trkpt>
      <trkpt lat="43.76521" lon="6.92289">
        <ele>1212.36</ele>
        <time>2011-09-06T13:23:26Z</time>
      </trkpt>
      <trkpt lat="43.76521" lon="6.92289">
        <ele>1212.84</ele>
        <time>2011-09-06T13:23:27Z</time>
      </trkpt>
      <trkpt lat="43.76522" lon="6.92288">
        <ele>1212.36</ele>
        <time>2011-09-06T13:23:40Z</time>
      </trkpt>
      <trkpt lat="43.76522" lon="6.92288">
        <ele>1213.8</ele>
        <time>2011-09-06T13:23:42Z</time>
      </trkpt>
      <trkpt lat="43.76522" lon="6.92288">
        <ele>1212.36</ele>
        <time>2011-09-06T13:23:49Z</time>
      </trkpt>
      <trkpt lat="43.76522" lon="6.92288">
        <ele>1214.28</ele>
        <time>2011-09-06T13:23:54Z</time>
      </trkpt>
      <trkpt lat="43.76523" lon="6.92289">
        <ele>1212.36</ele>
        <time>2011-09-06T13:23:59Z</time>
      </trkpt>
      <trkpt lat="43.76524" lon="6.9229">
        <ele>1212.84</ele>
        <time>2011-09-06T13:24:01Z</time>
      </trkpt>
      <trkpt lat="43.76528" lon="6.92289">
        <ele>1211.88</ele>
        <time>2011-09-06T13:24:09Z</time>
      </trkpt>
      <trkpt lat="43.76529" lon="6.9229">
        <ele>1214.76</ele>
        <time>2011-09-06T13:24:13Z</time>
      </trkpt>
      <trkpt lat="43.76527" lon="6.92288">
        <ele>1214.76</ele>
        <time>2011-09-06T13:24:18Z</time>
      </trkpt>
      <trkpt lat="43.76527" lon="6.92283">
        <ele>1212.84</ele>
        <time>2011-09-06T13:24:27Z</time>
      </trkpt>
      <trkpt lat="43.76527" lon="6.92282">
        <ele>1213.8</ele>
        <time>2011-09-06T13:24:37Z</time>
      </trkpt>
      <trkpt lat="43.76528" lon="6.92283">
        <ele>1214.76</ele>
        <time>2011-09-06T13:24:44Z</time>
      </trkpt>
      <trkpt lat="43.76529" lon="6.92283">
        <ele>1215.24</ele>
        <time>2011-09-06T13:24:56Z</time>
      </trkpt>
      <trkpt lat="43.76529" lon="6.92283">
        <ele>1211.88</ele>
        <time>2011-09-06T13:25:18Z</time>
      </trkpt>
      <trkpt lat="43.76529" lon="6.92283">
        <ele>1212.36</ele>
        <time>2011-09-06T13:25:19Z</time>
      </trkpt>
      <trkpt lat="43.76529" lon="6.92283">
        <ele>1214.76</ele>
        <time>2011-09-06T13:25:24Z</time>
      </trkpt>
      <trkpt lat="43.76529" lon="6.92283">
        <ele>1212.36</ele>
        <time>2011-09-06T13:25:26Z</time>
      </trkpt>
      <trkpt lat="43.76529" lon="6.92283">
        <ele>1216.69</ele>
        <time>2011-09-06T13:25:30Z</time>
      </trkpt>
      <trkpt lat="43.76529" lon="6.92283">
        <ele>1216.69</ele>
        <time>2011-09-06T13:25:31Z</time>
      </trkpt>
      <trkpt lat="43.76529" lon="6.92283">
        <ele>1214.76</ele>
        <time>2011-09-06T13:25:33Z</time>
      </trkpt>
      <trkpt lat="43.76529" lon="6.92282">
        <ele>1213.32</ele>
        <time>2011-09-06T13:25:39Z</time>
      </trkpt>
      <trkpt lat="43.76529" lon="6.92282">
        <ele>1212.84</ele>
        <time>2011-09-06T13:25:41Z</time>
      </trkpt>
      <trkpt lat="43.76529" lon="6.92282">
        <ele>1214.76</ele>
        <time>2011-09-06T13:25:43Z</time>
      </trkpt>
      <trkpt lat="43.76529" lon="6.92282">
        <ele>1216.21</ele>
        <time>2011-09-06T13:25:50Z</time>
      </trkpt>
      <trkpt lat="43.7653" lon="6.92285">
        <ele>1212.84</ele>
        <time>2011-09-06T13:25:54Z</time>
      </trkpt>
      <trkpt lat="43.7653" lon="6.92285">
        <ele>1212.84</ele>
        <time>2011-09-06T13:25:55Z</time>
      </trkpt>
      <trkpt lat="43.7653" lon="6.92285">
        <ele>1215.72</ele>
        <time>2011-09-06T13:25:58Z</time>
      </trkpt>
      <trkpt lat="43.76531" lon="6.92286">
        <ele>1215.24</ele>
        <time>2011-09-06T13:25:59Z</time>
      </trkpt>
      <trkpt lat="43.76531" lon="6.92286">
        <ele>1212.36</ele>
        <time>2011-09-06T13:26:02Z</time>
      </trkpt>
      <trkpt lat="43.76531" lon="6.92287">
        <ele>1216.21</ele>
        <time>2011-09-06T13:26:08Z</time>
      </trkpt>
      <trkpt lat="43.76531" lon="6.92287">
        <ele>1214.76</ele>
        <time>2011-09-06T13:26:09Z</time>
      </trkpt>
      <trkpt lat="43.76531" lon="6.92288">
        <ele>1213.32</ele>
        <time>2011-09-06T13:26:21Z</time>
      </trkpt>
      <trkpt lat="43.76531" lon="6.92288">
        <ele>1214.76</ele>
        <time>2011-09-06T13:26:23Z</time>
      </trkpt>
      <trkpt lat="43.76529" lon="6.92289">
        <ele>1212.36</ele>
        <time>2011-09-06T13:26:34Z</time>
      </trkpt>
      <trkpt lat="43.76529" lon="6.92289">
        <ele>1214.76</ele>
        <time>2011-09-06T13:26:37Z</time>
      </trkpt>
      <trkpt lat="43.76529" lon="6.92289">
        <ele>1211.88</ele>
        <time>2011-09-06T13:26:43Z</time>
      </trkpt>
      <trkpt lat="43.76529" lon="6.92289">
        <ele>1212.84</ele>
        <time>2011-09-06T13:26:44Z</time>
      </trkpt>
      <trkpt lat="43.76529" lon="6.92289">
        <ele>1215.24</ele>
        <time>2011-09-06T13:26:47Z</time>
      </trkpt>
      <trkpt lat="43.76529" lon="6.92289">
        <ele>1211.88</ele>
        <time>2011-09-06T13:26:50Z</time>
      </trkpt>
      <trkpt lat="43.76529" lon="6.92289">
        <ele>1214.76</ele>
        <time>2011-09-06T13:26:52Z</time>
      </trkpt>
      <trkpt lat="43.76529" lon="6.92289">
        <ele>1212.36</ele>
        <time>2011-09-06T13:26:58Z</time>
      </trkpt>
      <trkpt lat="43.7653" lon="6.92289">
        <ele>1212.36</ele>
        <time>2011-09-06T13:27:04Z</time>
      </trkpt>
      <trkpt lat="43.76529" lon="6.92289">
        <ele>1213.8</ele>
        <time>2011-09-06T13:27:21Z</time>
      </trkpt>
      <trkpt lat="43.76529" lon="6.92289">
        <ele>1214.76</ele>
        <time>2011-09-06T13:27:26Z</time>
      </trkpt>
      <trkpt lat="43.76529" lon="6.92289">
        <ele>1212.84</ele>
        <time>2011-09-06T13:27:39Z</time>
      </trkpt>
      <trkpt lat="43.76529" lon="6.92289">
        <ele>1213.32</ele>
        <time>2011-09-06T13:27:45Z</time>
      </trkpt>
      <trkpt lat="43.76529" lon="6.92289">
        <ele>1213.32</ele>
        <time>2011-09-06T13:27:50Z</time>
      </trkpt>
      <trkpt lat="43.76529" lon="6.92289">
        <ele>1215.24</ele>
        <time>2011-09-06T13:27:52Z</time>
      </trkpt>
      <trkpt lat="43.76529" lon="6.92289">
        <ele>1212.36</ele>
        <time>2011-09-06T13:27:54Z</time>
      </trkpt>
      <trkpt lat="43.76529" lon="6.92289">
        <ele>1214.76</ele>
        <time>2011-09-06T13:27:57Z</time>
      </trkpt>
      <trkpt lat="43.76529" lon="6.9229">
        <ele>1212.36</ele>
        <time>2011-09-06T13:28:00Z</time>
      </trkpt>
      <trkpt lat="43.76529" lon="6.9229">
        <ele>1213.8</ele>
        <time>2011-09-06T13:28:23Z</time>
      </trkpt>
      <trkpt lat="43.76529" lon="6.9229">
        <ele>1214.28</ele>
        <time>2011-09-06T13:28:24Z</time>
      </trkpt>
      <trkpt lat="43.76529" lon="6.9229">
        <ele>1212.36</ele>
        <time>2011-09-06T13:28:26Z</time>
      </trkpt>
      <trkpt lat="43.76528" lon="6.92289">
        <ele>1215.24</ele>
        <time>2011-09-06T13:28:32Z</time>
      </trkpt>
      <trkpt lat="43.76528" lon="6.92289">
        <ele>1214.28</ele>
        <time>2011-09-06T13:28:33Z</time>
      </trkpt>
      <trkpt lat="43.76528" lon="6.92289">
        <ele>1214.28</ele>
        <time>2011-09-06T13:28:39Z</time>
      </trkpt>
      <trkpt lat="43.76528" lon="6.92289">
        <ele>1212.36</ele>
        <time>2011-09-06T13:28:41Z</time>
      </trkpt>
      <trkpt lat="43.76528" lon="6.92289">
        <ele>1214.76</ele>
        <time>2011-09-06T13:28:44Z</time>
      </trkpt>
      <trkpt lat="43.76528" lon="6.92289">
        <ele>1214.76</ele>
        <time>2011-09-06T13:28:55Z</time>
      </trkpt>
      <trkpt lat="43.76528" lon="6.92289">
        <ele>1213.8</ele>
        <time>2011-09-06T13:28:57Z</time>
      </trkpt>
      <trkpt lat="43.76528" lon="6.9229">
        <ele>1215.72</ele>
        <time>2011-09-06T13:29:02Z</time>
      </trkpt>
      <trkpt lat="43.76528" lon="6.9229">
        <ele>1212.84</ele>
        <time>2011-09-06T13:29:03Z</time>
      </trkpt>
      <trkpt lat="43.76528" lon="6.9229">
        <ele>1214.76</ele>
        <time>2011-09-06T13:29:07Z</time>
      </trkpt>
      <trkpt lat="43.76528" lon="6.9229">
        <ele>1212.84</ele>
        <time>2011-09-06T13:29:24Z</time>
      </trkpt>
      <trkpt lat="43.76528" lon="6.9229">
        <ele>1214.76</ele>
        <time>2011-09-06T13:29:27Z</time>
      </trkpt>
      <trkpt lat="43.76528" lon="6.9229">
        <ele>1213.32</ele>
        <time>2011-09-06T13:29:41Z</time>
      </trkpt>
      <trkpt lat="43.76528" lon="6.9229">
        <ele>1215.72</ele>
        <time>2011-09-06T13:29:45Z</time>
      </trkpt>
      <trkpt lat="43.76528" lon="6.9229">
        <ele>1212.36</ele>
        <time>2011-09-06T13:29:52Z</time>
      </trkpt>
      <trkpt lat="43.76528" lon="6.9229">
        <ele>1215.72</ele>
        <time>2011-09-06T13:29:54Z</time>
      </trkpt>
      <trkpt lat="43.76528" lon="6.92291">
        <ele>1215.24</ele>
        <time>2011-09-06T13:30:05Z</time>
      </trkpt>
      <trkpt lat="43.76528" lon="6.92291">
        <ele>1214.28</ele>
        <time>2011-09-06T13:30:07Z</time>
      </trkpt>
      <trkpt lat="43.76528" lon="6.92291">
        <ele>1214.76</ele>
        <time>2011-09-06T13:30:19Z</time>
      </trkpt>
      <trkpt lat="43.76528" lon="6.92291">
        <ele>1213.8</ele>
        <time>2011-09-06T13:30:21Z</time>
      </trkpt>
      <trkpt lat="43.76528" lon="6.92291">
        <ele>1215.72</ele>
        <time>2011-09-06T13:30:23Z</time>
      </trkpt>
      <trkpt lat="43.76528" lon="6.92291">
        <ele>1213.8</ele>
        <time>2011-09-06T13:30:25Z</time>
      </trkpt>
      <trkpt lat="43.76528" lon="6.92291">
        <ele>1214.28</ele>
        <time>2011-09-06T13:30:31Z</time>
      </trkpt>
      <trkpt lat="43.76528" lon="6.92291">
        <ele>1215.24</ele>
        <time>2011-09-06T13:30:33Z</time>
      </trkpt>
      <trkpt lat="43.76528" lon="6.92291">
        <ele>1213.8</ele>
        <time>2011-09-06T13:30:35Z</time>
      </trkpt>
      <trkpt lat="43.76528" lon="6.9229">
        <ele>1215.24</ele>
        <time>2011-09-06T13:30:58Z</time>
      </trkpt>
      <trkpt lat="43.76527" lon="6.92293">
        <ele>1215.72</ele>
        <time>2011-09-06T13:31:08Z</time>
      </trkpt>
      <trkpt lat="43.76525" lon="6.92294">
        <ele>1213.8</ele>
        <time>2011-09-06T13:31:10Z</time>
      </trkpt>
      <trkpt lat="43.76523" lon="6.92294">
        <ele>1212.84</ele>
        <time>2011-09-06T13:31:14Z</time>
      </trkpt>
      <trkpt lat="43.76523" lon="6.92294">
        <ele>1216.21</ele>
        <time>2011-09-06T13:31:17Z</time>
      </trkpt>
      <trkpt lat="43.76523" lon="6.92294">
        <ele>1211.88</ele>
        <time>2011-09-06T13:31:19Z</time>
      </trkpt>
      <trkpt lat="43.76523" lon="6.92294">
        <ele>1215.24</ele>
        <time>2011-09-06T13:31:24Z</time>
      </trkpt>
      <trkpt lat="43.76522" lon="6.92293">
        <ele>1214.28</ele>
        <time>2011-09-06T13:31:30Z</time>
      </trkpt>
      <trkpt lat="43.76522" lon="6.92293">
        <ele>1212.84</ele>
        <time>2011-09-06T13:31:31Z</time>
      </trkpt>
      <trkpt lat="43.76516" lon="6.92307">
        <ele>1213.32</ele>
        <time>2011-09-06T13:31:45Z</time>
      </trkpt>
      <trkpt lat="43.76515" lon="6.92309">
        <ele>1212.84</ele>
        <time>2011-09-06T13:31:47Z</time>
      </trkpt>
      <trkpt lat="43.76514" lon="6.92312">
        <ele>1211.88</ele>
        <time>2011-09-06T13:31:49Z</time>
      </trkpt>
      <trkpt lat="43.76513" lon="6.92313">
        <ele>1213.8</ele>
        <time>2011-09-06T13:31:50Z</time>
      </trkpt>
      <trkpt lat="43.76511" lon="6.92315">
        <ele>1212.36</ele>
        <time>2011-09-06T13:31:53Z</time>
      </trkpt>
      <trkpt lat="43.76506" lon="6.92317">
        <ele>1213.8</ele>
        <time>2011-09-06T13:31:58Z</time>
      </trkpt>
      <trkpt lat="43.76505" lon="6.92318">
        <ele>1211.4</ele>
        <time>2011-09-06T13:32:00Z</time>
      </trkpt>
      <trkpt lat="43.76505" lon="6.92318">
        <ele>1214.76</ele>
        <time>2011-09-06T13:32:01Z</time>
      </trkpt>
      <trkpt lat="43.76504" lon="6.92319">
        <ele>1213.32</ele>
        <time>2011-09-06T13:32:02Z</time>
      </trkpt>
      <trkpt lat="43.76502" lon="6.9232">
        <ele>1211.4</ele>
        <time>2011-09-06T13:32:05Z</time>
      </trkpt>
      <trkpt lat="43.76498" lon="6.92324">
        <ele>1210.44</ele>
        <time>2011-09-06T13:32:18Z</time>
      </trkpt>
      <trkpt lat="43.76498" lon="6.92324">
        <ele>1211.88</ele>
        <time>2011-09-06T13:32:20Z</time>
      </trkpt>
      <trkpt lat="43.76498" lon="6.92324">
        <ele>1210.44</ele>
        <time>2011-09-06T13:32:22Z</time>
      </trkpt>
      <trkpt lat="43.76498" lon="6.92324">
        <ele>1211.88</ele>
        <time>2011-09-06T13:32:24Z</time>
      </trkpt>
      <trkpt lat="43.76498" lon="6.92324">
        <ele>1210.44</ele>
        <time>2011-09-06T13:32:26Z</time>
      </trkpt>
      <trkpt lat="43.76498" lon="6.92324">
        <ele>1211.4</ele>
        <time>2011-09-06T13:32:28Z</time>
      </trkpt>
      <trkpt lat="43.76493" lon="6.92328">
        <ele>1211.88</ele>
        <time>2011-09-06T13:32:39Z</time>
      </trkpt>
      <trkpt lat="43.76492" lon="6.92329">
        <ele>1209.96</ele>
        <time>2011-09-06T13:32:41Z</time>
      </trkpt>
      <trkpt lat="43.76491" lon="6.9233">
        <ele>1213.32</ele>
        <time>2011-09-06T13:32:43Z</time>
      </trkpt>
      <trkpt lat="43.76489" lon="6.92332">
        <ele>1209.48</ele>
        <time>2011-09-06T13:32:48Z</time>
      </trkpt>
      <trkpt lat="43.76489" lon="6.92332">
        <ele>1212.84</ele>
        <time>2011-09-06T13:32:50Z</time>
      </trkpt>
      <trkpt lat="43.76489" lon="6.92332">
        <ele>1209</ele>
        <time>2011-09-06T13:32:57Z</time>
      </trkpt>
      <trkpt lat="43.76489" lon="6.92332">
        <ele>1212.36</ele>
        <time>2011-09-06T13:32:59Z</time>
      </trkpt>
      <trkpt lat="43.76489" lon="6.92332">
        <ele>1209</ele>
        <time>2011-09-06T13:33:03Z</time>
      </trkpt>
      <trkpt lat="43.76489" lon="6.92332">
        <ele>1212.36</ele>
        <time>2011-09-06T13:33:06Z</time>
      </trkpt>
      <trkpt lat="43.76489" lon="6.92332">
        <ele>1209.48</ele>
        <time>2011-09-06T13:33:07Z</time>
      </trkpt>
      <trkpt lat="43.76489" lon="6.92332">
        <ele>1209.48</ele>
        <time>2011-09-06T13:33:08Z</time>
      </trkpt>
      <trkpt lat="43.76489" lon="6.92332">
        <ele>1212.36</ele>
        <time>2011-09-06T13:33:12Z</time>
      </trkpt>
      <trkpt lat="43.76489" lon="6.92332">
        <ele>1212.36</ele>
        <time>2011-09-06T13:33:13Z</time>
      </trkpt>
      <trkpt lat="43.76489" lon="6.92332">
        <ele>1209</ele>
        <time>2011-09-06T13:33:27Z</time>
      </trkpt>
      <trkpt lat="43.76489" lon="6.92332">
        <ele>1212.36</ele>
        <time>2011-09-06T13:33:30Z</time>
      </trkpt>
      <trkpt lat="43.76489" lon="6.92332">
        <ele>1209</ele>
        <time>2011-09-06T13:33:41Z</time>
      </trkpt>
      <trkpt lat="43.76489" lon="6.92332">
        <ele>1211.4</ele>
        <time>2011-09-06T13:33:44Z</time>
      </trkpt>
      <trkpt lat="43.76489" lon="6.92332">
        <ele>1211.88</ele>
        <time>2011-09-06T13:33:54Z</time>
      </trkpt>
      <trkpt lat="43.76489" lon="6.92332">
        <ele>1212.36</ele>
        <time>2011-09-06T13:34:05Z</time>
      </trkpt>
      <trkpt lat="43.76489" lon="6.92333">
        <ele>1211.88</ele>
        <time>2011-09-06T13:34:18Z</time>
      </trkpt>
      <trkpt lat="43.76489" lon="6.92333">
        <ele>1208.51</ele>
        <time>2011-09-06T13:34:42Z</time>
      </trkpt>
      <trkpt lat="43.76489" lon="6.92333">
        <ele>1211.4</ele>
        <time>2011-09-06T13:34:43Z</time>
      </trkpt>
      <trkpt lat="43.76489" lon="6.92333">
        <ele>1208.51</ele>
        <time>2011-09-06T13:34:45Z</time>
      </trkpt>
      <trkpt lat="43.76489" lon="6.92333">
        <ele>1209.96</ele>
        <time>2011-09-06T13:34:46Z</time>
      </trkpt>
      <trkpt lat="43.76489" lon="6.92333">
        <ele>1210.92</ele>
        <time>2011-09-06T13:34:48Z</time>
      </trkpt>
      <trkpt lat="43.76489" lon="6.92333">
        <ele>1210.92</ele>
        <time>2011-09-06T13:34:54Z</time>
      </trkpt>
      <trkpt lat="43.76488" lon="6.92333">
        <ele>1209</ele>
        <time>2011-09-06T13:35:13Z</time>
      </trkpt>
      <trkpt lat="43.76488" lon="6.92333">
        <ele>1203.71</ele>
        <time>2011-09-06T13:35:18Z</time>
      </trkpt>
      <trkpt lat="43.76488" lon="6.92333">
        <ele>1211.4</ele>
        <time>2011-09-06T13:35:19Z</time>
      </trkpt>
      <trkpt lat="43.76487" lon="6.92332">
        <ele>1211.88</ele>
        <time>2011-09-06T13:35:30Z</time>
      </trkpt>
      <trkpt lat="43.76487" lon="6.92332">
        <ele>1209.96</ele>
        <time>2011-09-06T13:35:32Z</time>
      </trkpt>
      <trkpt lat="43.76487" lon="6.92332">
        <ele>1210.44</ele>
        <time>2011-09-06T13:35:46Z</time>
      </trkpt>
      <trkpt lat="43.76491" lon="6.92329">
        <ele>1209.48</ele>
        <time>2011-09-06T13:36:08Z</time>
      </trkpt>
      <trkpt lat="43.76492" lon="6.92328">
        <ele>1211.4</ele>
        <time>2011-09-06T13:36:09Z</time>
      </trkpt>
      <trkpt lat="43.76498" lon="6.92321">
        <ele>1212.84</ele>
        <time>2011-09-06T13:36:18Z</time>
      </trkpt>
      <trkpt lat="43.76498" lon="6.92321">
        <ele>1209.48</ele>
        <time>2011-09-06T13:36:19Z</time>
      </trkpt>
      <trkpt lat="43.76499" lon="6.92321">
        <ele>1212.84</ele>
        <time>2011-09-06T13:36:20Z</time>
      </trkpt>
      <trkpt lat="43.76495" lon="6.92324">
        <ele>1209.96</ele>
        <time>2011-09-06T13:36:34Z</time>
      </trkpt>
      <trkpt lat="43.76491" lon="6.92332">
        <ele>1210.44</ele>
        <time>2011-09-06T13:36:59Z</time>
      </trkpt>
      <trkpt lat="43.7649" lon="6.92335">
        <ele>1209.48</ele>
        <time>2011-09-06T13:37:12Z</time>
      </trkpt>
      <trkpt lat="43.76489" lon="6.92337">
        <ele>1209.96</ele>
        <time>2011-09-06T13:37:39Z</time>
      </trkpt>
      <trkpt lat="43.76489" lon="6.92336">
        <ele>1206.59</ele>
        <time>2011-09-06T13:37:52Z</time>
      </trkpt>
      <trkpt lat="43.76489" lon="6.92336">
        <ele>1210.44</ele>
        <time>2011-09-06T13:37:53Z</time>
      </trkpt>
      <trkpt lat="43.76489" lon="6.92336">
        <ele>1210.44</ele>
        <time>2011-09-06T13:37:54Z</time>
      </trkpt>
      <trkpt lat="43.76489" lon="6.92336">
        <ele>1209.96</ele>
        <time>2011-09-06T13:38:23Z</time>
      </trkpt>
      <trkpt lat="43.76488" lon="6.92337">
        <ele>1210.92</ele>
        <time>2011-09-06T13:38:41Z</time>
      </trkpt>
      <trkpt lat="43.76488" lon="6.92337">
        <ele>1210.44</ele>
        <time>2011-09-06T13:38:53Z</time>
      </trkpt>
      <trkpt lat="43.76488" lon="6.92337">
        <ele>1209</ele>
        <time>2011-09-06T13:39:04Z</time>
      </trkpt>
      <trkpt lat="43.76489" lon="6.92337">
        <ele>1210.44</ele>
        <time>2011-09-06T13:39:29Z</time>
      </trkpt>
      <trkpt lat="43.76489" lon="6.92337">
        <ele>1209.96</ele>
        <time>2011-09-06T13:39:31Z</time>
      </trkpt>
      <trkpt lat="43.76489" lon="6.92337">
        <ele>1209.48</ele>
        <time>2011-09-06T13:39:44Z</time>
      </trkpt>
      <trkpt lat="43.76489" lon="6.92337">
        <ele>1209.96</ele>
        <time>2011-09-06T13:39:48Z</time>
      </trkpt>
      <trkpt lat="43.7649" lon="6.92336">
        <ele>1209</ele>
        <time>2011-09-06T13:39:51Z</time>
      </trkpt>
      <trkpt lat="43.76494" lon="6.92334">
        <ele>1212.84</ele>
        <time>2011-09-06T13:40:02Z</time>
      </trkpt>
      <trkpt lat="43.76494" lon="6.92334">
        <ele>1210.92</ele>
        <time>2011-09-06T13:40:05Z</time>
      </trkpt>
      <trkpt lat="43.76494" lon="6.92334">
        <ele>1213.32</ele>
        <time>2011-09-06T13:40:18Z</time>
      </trkpt>
      <trkpt lat="43.76493" lon="6.92334">
        <ele>1210.92</ele>
        <time>2011-09-06T13:40:28Z</time>
      </trkpt>
      <trkpt lat="43.76492" lon="6.92334">
        <ele>1210.92</ele>
        <time>2011-09-06T13:40:42Z</time>
      </trkpt>
      <trkpt lat="43.7649" lon="6.92335">
        <ele>1209.96</ele>
        <time>2011-09-06T13:40:59Z</time>
      </trkpt>
      <trkpt lat="43.7649" lon="6.92335">
        <ele>1208.03</ele>
        <time>2011-09-06T13:41:19Z</time>
      </trkpt>
      <trkpt lat="43.7649" lon="6.92335">
        <ele>1208.51</ele>
        <time>2011-09-06T13:41:47Z</time>
      </trkpt>
      <trkpt lat="43.7649" lon="6.92335">
        <ele>1209</ele>
        <time>2011-09-06T13:42:24Z</time>
      </trkpt>
      <trkpt lat="43.7649" lon="6.92335">
        <ele>1209.96</ele>
        <time>2011-09-06T13:42:36Z</time>
      </trkpt>
      <trkpt lat="43.7649" lon="6.92335">
        <ele>1209</ele>
        <time>2011-09-06T13:43:15Z</time>
      </trkpt>
      <trkpt lat="43.7649" lon="6.92335">
        <ele>1210.44</ele>
        <time>2011-09-06T13:43:18Z</time>
      </trkpt>
      <trkpt lat="43.7649" lon="6.92335">
        <ele>1210.44</ele>
        <time>2011-09-06T13:43:54Z</time>
      </trkpt>
      <trkpt lat="43.7649" lon="6.92335">
        <ele>1209.48</ele>
        <time>2011-09-06T13:43:56Z</time>
      </trkpt>
      <trkpt lat="43.76489" lon="6.92335">
        <ele>1211.4</ele>
        <time>2011-09-06T13:44:36Z</time>
      </trkpt>
      <trkpt lat="43.76489" lon="6.92335">
        <ele>1210.92</ele>
        <time>2011-09-06T13:45:11Z</time>
      </trkpt>
      <trkpt lat="43.76489" lon="6.92335">
        <ele>1209.96</ele>
        <time>2011-09-06T13:45:52Z</time>
      </trkpt>
      <trkpt lat="43.76489" lon="6.92335">
        <ele>1210.92</ele>
        <time>2011-09-06T13:46:27Z</time>
      </trkpt>
      <trkpt lat="43.76489" lon="6.92335">
        <ele>1210.92</ele>
        <time>2011-09-06T13:46:50Z</time>
      </trkpt>
      <trkpt lat="43.76489" lon="6.92335">
        <ele>1209.48</ele>
        <time>2011-09-06T13:46:53Z</time>
      </trkpt>
      <trkpt lat="43.76489" lon="6.92335">
        <ele>1209.48</ele>
        <time>2011-09-06T13:47:14Z</time>
      </trkpt>
      <trkpt lat="43.76489" lon="6.92335">
        <ele>1210.44</ele>
        <time>2011-09-06T13:47:53Z</time>
      </trkpt>
      <trkpt lat="43.76488" lon="6.92335">
        <ele>1209</ele>
        <time>2011-09-06T13:48:17Z</time>
      </trkpt>
      <trkpt lat="43.76488" lon="6.92335">
        <ele>1201.79</ele>
        <time>2011-09-06T13:48:24Z</time>
      </trkpt>
      <trkpt lat="43.76488" lon="6.92335">
        <ele>1213.32</ele>
        <time>2011-09-06T13:48:25Z</time>
      </trkpt>
      <trkpt lat="43.76488" lon="6.92335">
        <ele>1209.96</ele>
        <time>2011-09-06T13:48:26Z</time>
      </trkpt>
      <trkpt lat="43.76488" lon="6.92335">
        <ele>1209</ele>
        <time>2011-09-06T13:48:27Z</time>
      </trkpt>
      <trkpt lat="43.76487" lon="6.92336">
        <ele>1206.11</ele>
        <time>2011-09-06T13:48:29Z</time>
      </trkpt>
      <trkpt lat="43.76487" lon="6.92336">
        <ele>1213.8</ele>
        <time>2011-09-06T13:48:31Z</time>
      </trkpt>
      <trkpt lat="43.76487" lon="6.92336">
        <ele>1210.92</ele>
        <time>2011-09-06T13:48:32Z</time>
      </trkpt>
      <trkpt lat="43.76487" lon="6.92336">
        <ele>1207.55</ele>
        <time>2011-09-06T13:48:52Z</time>
      </trkpt>
      <trkpt lat="43.76487" lon="6.92336">
        <ele>1211.88</ele>
        <time>2011-09-06T13:48:55Z</time>
      </trkpt>
      <trkpt lat="43.76488" lon="6.92336">
        <ele>1210.92</ele>
        <time>2011-09-06T13:49:14Z</time>
      </trkpt>
      <trkpt lat="43.76487" lon="6.92336">
        <ele>1209.96</ele>
        <time>2011-09-06T13:49:54Z</time>
      </trkpt>
      <trkpt lat="43.76487" lon="6.92336">
        <ele>1209.96</ele>
        <time>2011-09-06T13:50:13Z</time>
      </trkpt>
      <trkpt lat="43.76487" lon="6.92336">
        <ele>1210.92</ele>
        <time>2011-09-06T13:50:50Z</time>
      </trkpt>
      <trkpt lat="43.76487" lon="6.92336">
        <ele>1210.92</ele>
        <time>2011-09-06T13:50:55Z</time>
      </trkpt>
      <trkpt lat="43.76487" lon="6.92336">
        <ele>1210.92</ele>
        <time>2011-09-06T13:51:26Z</time>
      </trkpt>
      <trkpt lat="43.76487" lon="6.92336">
        <ele>1211.88</ele>
        <time>2011-09-06T13:51:33Z</time>
      </trkpt>
      <trkpt lat="43.76488" lon="6.92336">
        <ele>1211.4</ele>
        <time>2011-09-06T13:52:02Z</time>
      </trkpt>
      <trkpt lat="43.76487" lon="6.92336">
        <ele>1211.4</ele>
        <time>2011-09-06T13:52:31Z</time>
      </trkpt>
      <trkpt lat="43.76487" lon="6.92336">
        <ele>1211.4</ele>
        <time>2011-09-06T13:52:44Z</time>
      </trkpt>
      <trkpt lat="43.76487" lon="6.92336">
        <ele>1211.4</ele>
        <time>2011-09-06T13:52:57Z</time>
      </trkpt>
      <trkpt lat="43.76487" lon="6.92335">
        <ele>1210.92</ele>
        <time>2011-09-06T13:53:38Z</time>
      </trkpt>
      <trkpt lat="43.76487" lon="6.92336">
        <ele>1211.4</ele>
        <time>2011-09-06T13:54:04Z</time>
      </trkpt>
      <trkpt lat="43.76487" lon="6.92336">
        <ele>1210.92</ele>
        <time>2011-09-06T13:54:41Z</time>
      </trkpt>
      <trkpt lat="43.76487" lon="6.92336">
        <ele>1210.44</ele>
        <time>2011-09-06T13:55:02Z</time>
      </trkpt>
      <trkpt lat="43.76486" lon="6.92336">
        <ele>1211.4</ele>
        <time>2011-09-06T13:55:44Z</time>
      </trkpt>
      <trkpt lat="43.76486" lon="6.92336">
        <ele>1212.36</ele>
        <time>2011-09-06T13:55:54Z</time>
      </trkpt>
      <trkpt lat="43.76486" lon="6.92336">
        <ele>1210.92</ele>
        <time>2011-09-06T13:55:57Z</time>
      </trkpt>
      <trkpt lat="43.76486" lon="6.92336">
        <ele>1210.92</ele>
        <time>2011-09-06T13:56:06Z</time>
      </trkpt>
      <trkpt lat="43.76486" lon="6.92336">
        <ele>1211.88</ele>
        <time>2011-09-06T13:56:17Z</time>
      </trkpt>
      <trkpt lat="43.76487" lon="6.92336">
        <ele>1211.4</ele>
        <time>2011-09-06T13:56:48Z</time>
      </trkpt>
      <trkpt lat="43.76483" lon="6.92339">
        <ele>1211.88</ele>
        <time>2011-09-06T13:57:10Z</time>
      </trkpt>
      <trkpt lat="43.76482" lon="6.9234">
        <ele>1211.88</ele>
        <time>2011-09-06T13:57:11Z</time>
      </trkpt>
      <trkpt lat="43.76481" lon="6.92341">
        <ele>1210.44</ele>
        <time>2011-09-06T13:57:13Z</time>
      </trkpt>
      <trkpt lat="43.76476" lon="6.92346">
        <ele>1209.96</ele>
        <time>2011-09-06T13:57:26Z</time>
      </trkpt>
      <trkpt lat="43.76471" lon="6.92349">
        <ele>1209.48</ele>
        <time>2011-09-06T13:57:38Z</time>
      </trkpt>
      <trkpt lat="43.7647" lon="6.92349">
        <ele>1207.55</ele>
        <time>2011-09-06T13:57:40Z</time>
      </trkpt>
      <trkpt lat="43.7647" lon="6.92349">
        <ele>1209</ele>
        <time>2011-09-06T13:57:42Z</time>
      </trkpt>
      <trkpt lat="43.76468" lon="6.9235">
        <ele>1209</ele>
        <time>2011-09-06T13:57:45Z</time>
      </trkpt>
      <trkpt lat="43.76465" lon="6.92351">
        <ele>1206.59</ele>
        <time>2011-09-06T13:57:48Z</time>
      </trkpt>
      <trkpt lat="43.76454" lon="6.92353">
        <ele>1206.59</ele>
        <time>2011-09-06T13:58:02Z</time>
      </trkpt>
      <trkpt lat="43.76452" lon="6.92353">
        <ele>1206.59</ele>
        <time>2011-09-06T13:58:05Z</time>
      </trkpt>
      <trkpt lat="43.76446" lon="6.92362">
        <ele>1206.11</ele>
        <time>2011-09-06T13:58:20Z</time>
      </trkpt>
      <trkpt lat="43.76442" lon="6.92362">
        <ele>1204.19</ele>
        <time>2011-09-06T13:58:26Z</time>
      </trkpt>
      <trkpt lat="43.76434" lon="6.92362">
        <ele>1205.15</ele>
        <time>2011-09-06T13:58:36Z</time>
      </trkpt>
      <trkpt lat="43.76428" lon="6.92365">
        <ele>1203.23</ele>
        <time>2011-09-06T13:58:48Z</time>
      </trkpt>
      <trkpt lat="43.76418" lon="6.92362">
        <ele>1203.23</ele>
        <time>2011-09-06T13:59:00Z</time>
      </trkpt>
      <trkpt lat="43.76415" lon="6.9236">
        <ele>1201.79</ele>
        <time>2011-09-06T13:59:03Z</time>
      </trkpt>
      <trkpt lat="43.76406" lon="6.92352">
        <ele>1202.75</ele>
        <time>2011-09-06T13:59:15Z</time>
      </trkpt>
      <trkpt lat="43.76403" lon="6.92344">
        <ele>1203.23</ele>
        <time>2011-09-06T13:59:31Z</time>
      </trkpt>
      <trkpt lat="43.76406" lon="6.92341">
        <ele>1202.27</ele>
        <time>2011-09-06T13:59:51Z</time>
      </trkpt>
      <trkpt lat="43.76407" lon="6.92341">
        <ele>1203.23</ele>
        <time>2011-09-06T14:00:07Z</time>
      </trkpt>
      <trkpt lat="43.76407" lon="6.92341">
        <ele>1203.71</ele>
        <time>2011-09-06T14:00:27Z</time>
      </trkpt>
      <trkpt lat="43.76407" lon="6.92341">
        <ele>1201.79</ele>
        <time>2011-09-06T14:00:51Z</time>
      </trkpt>
      <trkpt lat="43.76407" lon="6.9234">
        <ele>1202.75</ele>
        <time>2011-09-06T14:01:25Z</time>
      </trkpt>
      <trkpt lat="43.76407" lon="6.9234">
        <ele>1201.79</ele>
        <time>2011-09-06T14:01:42Z</time>
      </trkpt>
      <trkpt lat="43.76407" lon="6.9234">
        <ele>1201.79</ele>
        <time>2011-09-06T14:02:02Z</time>
      </trkpt>
      <trkpt lat="43.76407" lon="6.9234">
        <ele>1201.3</ele>
        <time>2011-09-06T14:02:31Z</time>
      </trkpt>
      <trkpt lat="43.76407" lon="6.9234">
        <ele>1201.3</ele>
        <time>2011-09-06T14:02:35Z</time>
      </trkpt>
      <trkpt lat="43.76407" lon="6.92341">
        <ele>1202.27</ele>
        <time>2011-09-06T14:02:52Z</time>
      </trkpt>
      <trkpt lat="43.76407" lon="6.92341">
        <ele>1198.9</ele>
        <time>2011-09-06T14:02:59Z</time>
      </trkpt>
      <trkpt lat="43.76407" lon="6.92341">
        <ele>1201.79</ele>
        <time>2011-09-06T14:03:00Z</time>
      </trkpt>
      <trkpt lat="43.76407" lon="6.9234">
        <ele>1201.79</ele>
        <time>2011-09-06T14:03:32Z</time>
      </trkpt>
      <trkpt lat="43.76407" lon="6.9234">
        <ele>1203.23</ele>
        <time>2011-09-06T14:03:52Z</time>
      </trkpt>
      <trkpt lat="43.76407" lon="6.9234">
        <ele>1201.3</ele>
        <time>2011-09-06T14:03:55Z</time>
      </trkpt>
      <trkpt lat="43.76407" lon="6.92341">
        <ele>1204.67</ele>
        <time>2011-09-06T14:04:05Z</time>
      </trkpt>
      <trkpt lat="43.76407" lon="6.92341">
        <ele>1200.82</ele>
        <time>2011-09-06T14:04:08Z</time>
      </trkpt>
      <trkpt lat="43.76407" lon="6.92341">
        <ele>1204.19</ele>
        <time>2011-09-06T14:04:09Z</time>
      </trkpt>
      <trkpt lat="43.76407" lon="6.92341">
        <ele>1199.86</ele>
        <time>2011-09-06T14:04:12Z</time>
      </trkpt>
      <trkpt lat="43.76407" lon="6.92341">
        <ele>1203.71</ele>
        <time>2011-09-06T14:04:13Z</time>
      </trkpt>
      <trkpt lat="43.76407" lon="6.92341">
        <ele>1199.38</ele>
        <time>2011-09-06T14:04:14Z</time>
      </trkpt>
      <trkpt lat="43.76407" lon="6.92341">
        <ele>1202.75</ele>
        <time>2011-09-06T14:04:16Z</time>
      </trkpt>
      <trkpt lat="43.76407" lon="6.92341">
        <ele>1200.34</ele>
        <time>2011-09-06T14:04:24Z</time>
      </trkpt>
      <trkpt lat="43.76407" lon="6.92341">
        <ele>1203.71</ele>
        <time>2011-09-06T14:04:26Z</time>
      </trkpt>
      <trkpt lat="43.76407" lon="6.92341">
        <ele>1201.79</ele>
        <time>2011-09-06T14:04:27Z</time>
      </trkpt>
      <trkpt lat="43.76407" lon="6.92341">
        <ele>1205.15</ele>
        <time>2011-09-06T14:04:38Z</time>
      </trkpt>
      <trkpt lat="43.76407" lon="6.92341">
        <ele>1200.34</ele>
        <time>2011-09-06T14:04:39Z</time>
      </trkpt>
      <trkpt lat="43.76407" lon="6.92341">
        <ele>1203.71</ele>
        <time>2011-09-06T14:04:40Z</time>
      </trkpt>
      <trkpt lat="43.76407" lon="6.92341">
        <ele>1199.38</ele>
        <time>2011-09-06T14:04:42Z</time>
      </trkpt>
      <trkpt lat="43.76407" lon="6.92341">
        <ele>1204.67</ele>
        <time>2011-09-06T14:04:43Z</time>
      </trkpt>
      <trkpt lat="43.76407" lon="6.92341">
        <ele>1199.86</ele>
        <time>2011-09-06T14:04:44Z</time>
      </trkpt>
      <trkpt lat="43.76407" lon="6.92341">
        <ele>1203.23</ele>
        <time>2011-09-06T14:04:45Z</time>
      </trkpt>
      <trkpt lat="43.76407" lon="6.92341">
        <ele>1200.34</ele>
        <time>2011-09-06T14:04:47Z</time>
      </trkpt>
      <trkpt lat="43.76407" lon="6.92341">
        <ele>1204.19</ele>
        <time>2011-09-06T14:04:48Z</time>
      </trkpt>
      <trkpt lat="43.76407" lon="6.92341">
        <ele>1200.82</ele>
        <time>2011-09-06T14:04:50Z</time>
      </trkpt>
      <trkpt lat="43.76407" lon="6.92341">
        <ele>1204.19</ele>
        <time>2011-09-06T14:04:51Z</time>
      </trkpt>
      <trkpt lat="43.76407" lon="6.92341">
        <ele>1199.38</ele>
        <time>2011-09-06T14:04:52Z</time>
      </trkpt>
      <trkpt lat="43.76407" lon="6.92341">
        <ele>1201.3</ele>
        <time>2011-09-06T14:04:55Z</time>
      </trkpt>
      <trkpt lat="43.76407" lon="6.92341">
        <ele>1204.67</ele>
        <time>2011-09-06T14:05:09Z</time>
      </trkpt>
      <trkpt lat="43.76407" lon="6.92341">
        <ele>1199.86</ele>
        <time>2011-09-06T14:05:10Z</time>
      </trkpt>
      <trkpt lat="43.76407" lon="6.92341">
        <ele>1204.67</ele>
        <time>2011-09-06T14:05:11Z</time>
      </trkpt>
      <trkpt lat="43.76407" lon="6.92341">
        <ele>1198.9</ele>
        <time>2011-09-06T14:05:12Z</time>
      </trkpt>
      <trkpt lat="43.76407" lon="6.92341">
        <ele>1203.71</ele>
        <time>2011-09-06T14:05:13Z</time>
      </trkpt>
      <trkpt lat="43.76407" lon="6.92341">
        <ele>1199.86</ele>
        <time>2011-09-06T14:05:14Z</time>
      </trkpt>
      <trkpt lat="43.76407" lon="6.92341">
        <ele>1204.19</ele>
        <time>2011-09-06T14:05:15Z</time>
      </trkpt>
      <trkpt lat="43.76407" lon="6.92341">
        <ele>1199.86</ele>
        <time>2011-09-06T14:05:17Z</time>
      </trkpt>
      <trkpt lat="43.76407" lon="6.92341">
        <ele>1204.19</ele>
        <time>2011-09-06T14:05:18Z</time>
      </trkpt>
      <trkpt lat="43.76407" lon="6.92341">
        <ele>1199.38</ele>
        <time>2011-09-06T14:05:19Z</time>
      </trkpt>
      <trkpt lat="43.76407" lon="6.92341">
        <ele>1203.23</ele>
        <time>2011-09-06T14:05:21Z</time>
      </trkpt>
      <trkpt lat="43.76407" lon="6.92341">
        <ele>1198.9</ele>
        <time>2011-09-06T14:05:22Z</time>
      </trkpt>
      <trkpt lat="43.76407" lon="6.92341">
        <ele>1204.19</ele>
        <time>2011-09-06T14:05:23Z</time>
      </trkpt>
      <trkpt lat="43.76407" lon="6.92341">
        <ele>1200.34</ele>
        <time>2011-09-06T14:05:27Z</time>
      </trkpt>
      <trkpt lat="43.76407" lon="6.92341">
        <ele>1203.23</ele>
        <time>2011-09-06T14:05:32Z</time>
      </trkpt>
      <trkpt lat="43.76407" lon="6.92341">
        <ele>1198.9</ele>
        <time>2011-09-06T14:05:38Z</time>
      </trkpt>
      <trkpt lat="43.76407" lon="6.92341">
        <ele>1203.23</ele>
        <time>2011-09-06T14:05:39Z</time>
      </trkpt>
      <trkpt lat="43.76407" lon="6.92341">
        <ele>1199.86</ele>
        <time>2011-09-06T14:05:41Z</time>
      </trkpt>
      <trkpt lat="43.76407" lon="6.92341">
        <ele>1204.19</ele>
        <time>2011-09-06T14:05:42Z</time>
      </trkpt>
      <trkpt lat="43.76407" lon="6.92341">
        <ele>1199.38</ele>
        <time>2011-09-06T14:05:43Z</time>
      </trkpt>
      <trkpt lat="43.76407" lon="6.92341">
        <ele>1204.67</ele>
        <time>2011-09-06T14:05:45Z</time>
      </trkpt>
      <trkpt lat="43.76407" lon="6.92341">
        <ele>1198.9</ele>
        <time>2011-09-06T14:05:46Z</time>
      </trkpt>
      <trkpt lat="43.76407" lon="6.92341">
        <ele>1204.19</ele>
        <time>2011-09-06T14:05:48Z</time>
      </trkpt>
      <trkpt lat="43.76407" lon="6.92341">
        <ele>1200.82</ele>
        <time>2011-09-06T14:05:49Z</time>
      </trkpt>
      <trkpt lat="43.76407" lon="6.92341">
        <ele>1204.19</ele>
        <time>2011-09-06T14:05:52Z</time>
      </trkpt>
      <trkpt lat="43.76407" lon="6.92341">
        <ele>1199.38</ele>
        <time>2011-09-06T14:05:54Z</time>
      </trkpt>
      <trkpt lat="43.76407" lon="6.92341">
        <ele>1203.71</ele>
        <time>2011-09-06T14:05:55Z</time>
      </trkpt>
      <trkpt lat="43.76407" lon="6.92341">
        <ele>1199.86</ele>
        <time>2011-09-06T14:05:57Z</time>
      </trkpt>
      <trkpt lat="43.76407" lon="6.92341">
        <ele>1196.02</ele>
        <time>2011-09-06T14:06:02Z</time>
      </trkpt>
      <trkpt lat="43.76407" lon="6.92341">
        <ele>1204.67</ele>
        <time>2011-09-06T14:06:03Z</time>
      </trkpt>
      <trkpt lat="43.76407" lon="6.92341">
        <ele>1200.82</ele>
        <time>2011-09-06T14:06:04Z</time>
      </trkpt>
      <trkpt lat="43.76407" lon="6.92341">
        <ele>1204.67</ele>
        <time>2011-09-06T14:06:06Z</time>
      </trkpt>
      <trkpt lat="43.76407" lon="6.92341">
        <ele>1202.75</ele>
        <time>2011-09-06T14:06:07Z</time>
      </trkpt>
      <trkpt lat="43.76407" lon="6.92341">
        <ele>1198.42</ele>
        <time>2011-09-06T14:06:08Z</time>
      </trkpt>
      <trkpt lat="43.76407" lon="6.92341">
        <ele>1202.75</ele>
        <time>2011-09-06T14:06:09Z</time>
      </trkpt>
      <trkpt lat="43.76407" lon="6.92341">
        <ele>1198.9</ele>
        <time>2011-09-06T14:06:14Z</time>
      </trkpt>
      <trkpt lat="43.76407" lon="6.92341">
        <ele>1202.27</ele>
        <time>2011-09-06T14:06:15Z</time>
      </trkpt>
      <trkpt lat="43.76407" lon="6.92341">
        <ele>1198.9</ele>
        <time>2011-09-06T14:06:17Z</time>
      </trkpt>
      <trkpt lat="43.76407" lon="6.92341">
        <ele>1203.23</ele>
        <time>2011-09-06T14:06:18Z</time>
      </trkpt>
      <trkpt lat="43.76407" lon="6.92341">
        <ele>1199.86</ele>
        <time>2011-09-06T14:06:20Z</time>
      </trkpt>
      <trkpt lat="43.76407" lon="6.92341">
        <ele>1200.82</ele>
        <time>2011-09-06T14:06:21Z</time>
      </trkpt>
      <trkpt lat="43.76407" lon="6.92341">
        <ele>1204.19</ele>
        <time>2011-09-06T14:06:22Z</time>
      </trkpt>
      <trkpt lat="43.76407" lon="6.92341">
        <ele>1199.86</ele>
        <time>2011-09-06T14:06:23Z</time>
      </trkpt>
      <trkpt lat="43.76407" lon="6.92341">
        <ele>1204.19</ele>
        <time>2011-09-06T14:06:24Z</time>
      </trkpt>
      <trkpt lat="43.76407" lon="6.92341">
        <ele>1200.82</ele>
        <time>2011-09-06T14:06:25Z</time>
      </trkpt>
      <trkpt lat="43.76407" lon="6.92341">
        <ele>1203.71</ele>
        <time>2011-09-06T14:06:28Z</time>
      </trkpt>
      <trkpt lat="43.76407" lon="6.92341">
        <ele>1199.38</ele>
        <time>2011-09-06T14:06:31Z</time>
      </trkpt>
      <trkpt lat="43.76407" lon="6.92341">
        <ele>1203.71</ele>
        <time>2011-09-06T14:06:32Z</time>
      </trkpt>
      <trkpt lat="43.76407" lon="6.92341">
        <ele>1199.86</ele>
        <time>2011-09-06T14:06:33Z</time>
      </trkpt>
      <trkpt lat="43.76407" lon="6.92341">
        <ele>1203.71</ele>
        <time>2011-09-06T14:06:34Z</time>
      </trkpt>
      <trkpt lat="43.76407" lon="6.92341">
        <ele>1199.86</ele>
        <time>2011-09-06T14:06:36Z</time>
      </trkpt>
      <trkpt lat="43.76407" lon="6.92341">
        <ele>1204.67</ele>
        <time>2011-09-06T14:06:39Z</time>
      </trkpt>
      <trkpt lat="43.76407" lon="6.92341">
        <ele>1199.86</ele>
        <time>2011-09-06T14:06:40Z</time>
      </trkpt>
      <trkpt lat="43.76407" lon="6.92341">
        <ele>1204.67</ele>
        <time>2011-09-06T14:06:44Z</time>
      </trkpt>
      <trkpt lat="43.76407" lon="6.92341">
        <ele>1199.86</ele>
        <time>2011-09-06T14:06:45Z</time>
      </trkpt>
      <trkpt lat="43.76407" lon="6.92341">
        <ele>1201.3</ele>
        <time>2011-09-06T14:06:46Z</time>
      </trkpt>
      <trkpt lat="43.76407" lon="6.92341">
        <ele>1203.23</ele>
        <time>2011-09-06T14:06:53Z</time>
      </trkpt>
      <trkpt lat="43.76407" lon="6.92341">
        <ele>1201.3</ele>
        <time>2011-09-06T14:06:55Z</time>
      </trkpt>
      <trkpt lat="43.76407" lon="6.92341">
        <ele>1203.23</ele>
        <time>2011-09-06T14:07:00Z</time>
      </trkpt>
      <trkpt lat="43.76407" lon="6.92341">
        <ele>1198.9</ele>
        <time>2011-09-06T14:07:01Z</time>
      </trkpt>
      <trkpt lat="43.76407" lon="6.92341">
        <ele>1201.3</ele>
        <time>2011-09-06T14:07:02Z</time>
      </trkpt>
      <trkpt lat="43.76407" lon="6.92341">
        <ele>1202.75</ele>
        <time>2011-09-06T14:07:04Z</time>
      </trkpt>
      <trkpt lat="43.76407" lon="6.92341">
        <ele>1199.38</ele>
        <time>2011-09-06T14:07:10Z</time>
      </trkpt>
      <trkpt lat="43.76407" lon="6.92341">
        <ele>1203.71</ele>
        <time>2011-09-06T14:07:11Z</time>
      </trkpt>
      <trkpt lat="43.76407" lon="6.92341">
        <ele>1199.38</ele>
        <time>2011-09-06T14:07:13Z</time>
      </trkpt>
      <trkpt lat="43.76407" lon="6.92341">
        <ele>1202.75</ele>
        <time>2011-09-06T14:07:14Z</time>
      </trkpt>
      <trkpt lat="43.76407" lon="6.92341">
        <ele>1198.9</ele>
        <time>2011-09-06T14:07:25Z</time>
      </trkpt>
      <trkpt lat="43.76407" lon="6.92341">
        <ele>1205.63</ele>
        <time>2011-09-06T14:07:27Z</time>
      </trkpt>
      <trkpt lat="43.76407" lon="6.92341">
        <ele>1200.34</ele>
        <time>2011-09-06T14:07:28Z</time>
      </trkpt>
      <trkpt lat="43.76407" lon="6.92341">
        <ele>1204.67</ele>
        <time>2011-09-06T14:07:30Z</time>
      </trkpt>
      <trkpt lat="43.76407" lon="6.92341">
        <ele>1198.9</ele>
        <time>2011-09-06T14:07:31Z</time>
      </trkpt>
      <trkpt lat="43.76406" lon="6.92341">
        <ele>1203.71</ele>
        <time>2011-09-06T14:07:35Z</time>
      </trkpt>
      <trkpt lat="43.76406" lon="6.92341">
        <ele>1198.42</ele>
        <time>2011-09-06T14:07:38Z</time>
      </trkpt>
      <trkpt lat="43.76406" lon="6.92341">
        <ele>1203.23</ele>
        <time>2011-09-06T14:07:39Z</time>
      </trkpt>
      <trkpt lat="43.76406" lon="6.92341">
        <ele>1201.3</ele>
        <time>2011-09-06T14:07:42Z</time>
      </trkpt>
      <trkpt lat="43.76406" lon="6.92341">
        <ele>1200.82</ele>
        <time>2011-09-06T14:07:46Z</time>
      </trkpt>
      <trkpt lat="43.76406" lon="6.92341">
        <ele>1204.19</ele>
        <time>2011-09-06T14:07:47Z</time>
      </trkpt>
      <trkpt lat="43.76406" lon="6.92341">
        <ele>1200.34</ele>
        <time>2011-09-06T14:07:48Z</time>
      </trkpt>
      <trkpt lat="43.76406" lon="6.92341">
        <ele>1203.71</ele>
        <time>2011-09-06T14:07:49Z</time>
      </trkpt>
      <trkpt lat="43.76406" lon="6.92341">
        <ele>1200.82</ele>
        <time>2011-09-06T14:07:52Z</time>
      </trkpt>
      <trkpt lat="43.76406" lon="6.92341">
        <ele>1204.67</ele>
        <time>2011-09-06T14:07:57Z</time>
      </trkpt>
      <trkpt lat="43.76406" lon="6.92341">
        <ele>1202.75</ele>
        <time>2011-09-06T14:07:58Z</time>
      </trkpt>
      <trkpt lat="43.76406" lon="6.92341">
        <ele>1199.86</ele>
        <time>2011-09-06T14:08:00Z</time>
      </trkpt>
      <trkpt lat="43.76406" lon="6.92341">
        <ele>1203.71</ele>
        <time>2011-09-06T14:08:02Z</time>
      </trkpt>
      <trkpt lat="43.76406" lon="6.92341">
        <ele>1200.82</ele>
        <time>2011-09-06T14:08:03Z</time>
      </trkpt>
      <trkpt lat="43.76406" lon="6.92341">
        <ele>1203.71</ele>
        <time>2011-09-06T14:08:04Z</time>
      </trkpt>
      <trkpt lat="43.76406" lon="6.92341">
        <ele>1199.86</ele>
        <time>2011-09-06T14:08:06Z</time>
      </trkpt>
      <trkpt lat="43.76406" lon="6.92341">
        <ele>1200.34</ele>
        <time>2011-09-06T14:08:07Z</time>
      </trkpt>
      <trkpt lat="43.76406" lon="6.92341">
        <ele>1204.19</ele>
        <time>2011-09-06T14:08:08Z</time>
      </trkpt>
      <trkpt lat="43.76407" lon="6.92341">
        <ele>1203.23</ele>
        <time>2011-09-06T14:08:15Z</time>
      </trkpt>
      <trkpt lat="43.76407" lon="6.92341">
        <ele>1199.86</ele>
        <time>2011-09-06T14:08:17Z</time>
      </trkpt>
      <trkpt lat="43.76407" lon="6.92341">
        <ele>1199.86</ele>
        <time>2011-09-06T14:08:18Z</time>
      </trkpt>
      <trkpt lat="43.76407" lon="6.92341">
        <ele>1203.71</ele>
        <time>2011-09-06T14:08:23Z</time>
      </trkpt>
      <trkpt lat="43.76407" lon="6.92341">
        <ele>1203.23</ele>
        <time>2011-09-06T14:08:24Z</time>
      </trkpt>
      <trkpt lat="43.76407" lon="6.92341">
        <ele>1199.38</ele>
        <time>2011-09-06T14:08:30Z</time>
      </trkpt>
      <trkpt lat="43.76407" lon="6.92341">
        <ele>1199.86</ele>
        <time>2011-09-06T14:08:31Z</time>
      </trkpt>
      <trkpt lat="43.76407" lon="6.92341">
        <ele>1203.71</ele>
        <time>2011-09-06T14:08:33Z</time>
      </trkpt>
      <trkpt lat="43.76407" lon="6.92341">
        <ele>1202.75</ele>
        <time>2011-09-06T14:08:34Z</time>
      </trkpt>
      <trkpt lat="43.76407" lon="6.92341">
        <ele>1199.38</ele>
        <time>2011-09-06T14:08:38Z</time>
      </trkpt>
      <trkpt lat="43.76407" lon="6.92341">
        <ele>1199.86</ele>
        <time>2011-09-06T14:08:39Z</time>
      </trkpt>
      <trkpt lat="43.76407" lon="6.92341">
        <ele>1204.19</ele>
        <time>2011-09-06T14:08:42Z</time>
      </trkpt>
      <trkpt lat="43.76407" lon="6.92341">
        <ele>1203.71</ele>
        <time>2011-09-06T14:08:43Z</time>
      </trkpt>
      <trkpt lat="43.76407" lon="6.92341">
        <ele>1200.34</ele>
        <time>2011-09-06T14:08:45Z</time>
      </trkpt>
      <trkpt lat="43.76407" lon="6.92341">
        <ele>1199.86</ele>
        <time>2011-09-06T14:08:47Z</time>
      </trkpt>
      <trkpt lat="43.76407" lon="6.92341">
        <ele>1203.23</ele>
        <time>2011-09-06T14:08:50Z</time>
      </trkpt>
      <trkpt lat="43.76407" lon="6.92341">
        <ele>1203.71</ele>
        <time>2011-09-06T14:08:51Z</time>
      </trkpt>
      <trkpt lat="43.76407" lon="6.92341">
        <ele>1199.86</ele>
        <time>2011-09-06T14:08:54Z</time>
      </trkpt>
      <trkpt lat="43.76407" lon="6.92341">
        <ele>1201.79</ele>
        <time>2011-09-06T14:08:55Z</time>
      </trkpt>
      <trkpt lat="43.76407" lon="6.92341">
        <ele>1203.71</ele>
        <time>2011-09-06T14:09:01Z</time>
      </trkpt>
      <trkpt lat="43.76407" lon="6.92341">
        <ele>1198.9</ele>
        <time>2011-09-06T14:09:03Z</time>
      </trkpt>
      <trkpt lat="43.76407" lon="6.92341">
        <ele>1203.71</ele>
        <time>2011-09-06T14:09:04Z</time>
      </trkpt>
      <trkpt lat="43.76407" lon="6.92341">
        <ele>1198.9</ele>
        <time>2011-09-06T14:09:05Z</time>
      </trkpt>
      <trkpt lat="43.76407" lon="6.92341">
        <ele>1203.23</ele>
        <time>2011-09-06T14:09:07Z</time>
      </trkpt>
      <trkpt lat="43.76407" lon="6.92341">
        <ele>1202.75</ele>
        <time>2011-09-06T14:09:08Z</time>
      </trkpt>
      <trkpt lat="43.76407" lon="6.92341">
        <ele>1201.3</ele>
        <time>2011-09-06T14:09:15Z</time>
      </trkpt>
      <trkpt lat="43.76407" lon="6.92341">
        <ele>1201.79</ele>
        <time>2011-09-06T14:09:37Z</time>
      </trkpt>
      <trkpt lat="43.76407" lon="6.92341">
        <ele>1202.75</ele>
        <time>2011-09-06T14:09:44Z</time>
      </trkpt>
      <trkpt lat="43.76407" lon="6.92341">
        <ele>1199.38</ele>
        <time>2011-09-06T14:09:47Z</time>
      </trkpt>
      <trkpt lat="43.76407" lon="6.92341">
        <ele>1204.19</ele>
        <time>2011-09-06T14:09:48Z</time>
      </trkpt>
      <trkpt lat="43.76407" lon="6.92341">
        <ele>1199.38</ele>
        <time>2011-09-06T14:09:49Z</time>
      </trkpt>
      <trkpt lat="43.76407" lon="6.92341">
        <ele>1204.19</ele>
        <time>2011-09-06T14:09:51Z</time>
      </trkpt>
      <trkpt lat="43.76407" lon="6.92341">
        <ele>1203.23</ele>
        <time>2011-09-06T14:09:52Z</time>
      </trkpt>
      <trkpt lat="43.76407" lon="6.92341">
        <ele>1198.9</ele>
        <time>2011-09-06T14:09:53Z</time>
      </trkpt>
      <trkpt lat="43.76407" lon="6.92341">
        <ele>1201.79</ele>
        <time>2011-09-06T14:09:54Z</time>
      </trkpt>
      <trkpt lat="43.76407" lon="6.92341">
        <ele>1203.23</ele>
        <time>2011-09-06T14:09:56Z</time>
      </trkpt>
      <trkpt lat="43.76407" lon="6.92341">
        <ele>1199.38</ele>
        <time>2011-09-06T14:09:57Z</time>
      </trkpt>
      <trkpt lat="43.76407" lon="6.92341">
        <ele>1202.75</ele>
        <time>2011-09-06T14:09:58Z</time>
      </trkpt>
      <trkpt lat="43.76407" lon="6.92341">
        <ele>1199.38</ele>
        <time>2011-09-06T14:10:01Z</time>
      </trkpt>
      <trkpt lat="43.76407" lon="6.92341">
        <ele>1202.27</ele>
        <time>2011-09-06T14:10:02Z</time>
      </trkpt>
      <trkpt lat="43.76407" lon="6.92341">
        <ele>1198.9</ele>
        <time>2011-09-06T14:10:05Z</time>
      </trkpt>
      <trkpt lat="43.76407" lon="6.92341">
        <ele>1204.19</ele>
        <time>2011-09-06T14:10:07Z</time>
      </trkpt>
      <trkpt lat="43.76407" lon="6.92341">
        <ele>1202.27</ele>
        <time>2011-09-06T14:10:08Z</time>
      </trkpt>
      <trkpt lat="43.76407" lon="6.92341">
        <ele>1201.79</ele>
        <time>2011-09-06T14:10:10Z</time>
      </trkpt>
      <trkpt lat="43.76407" lon="6.92342">
        <ele>1203.23</ele>
        <time>2011-09-06T14:10:15Z</time>
      </trkpt>
      <trkpt lat="43.76407" lon="6.92342">
        <ele>1199.86</ele>
        <time>2011-09-06T14:10:21Z</time>
      </trkpt>
      <trkpt lat="43.76407" lon="6.92342">
        <ele>1199.86</ele>
        <time>2011-09-06T14:10:22Z</time>
      </trkpt>
      <trkpt lat="43.76407" lon="6.92342">
        <ele>1204.19</ele>
        <time>2011-09-06T14:10:23Z</time>
      </trkpt>
      <trkpt lat="43.76407" lon="6.92342">
        <ele>1201.3</ele>
        <time>2011-09-06T14:10:24Z</time>
      </trkpt>
      <trkpt lat="43.76407" lon="6.92342">
        <ele>1202.75</ele>
        <time>2011-09-06T14:10:27Z</time>
      </trkpt>
      <trkpt lat="43.76407" lon="6.92342">
        <ele>1202.75</ele>
        <time>2011-09-06T14:10:31Z</time>
      </trkpt>
      <trkpt lat="43.76407" lon="6.92342">
        <ele>1198.9</ele>
        <time>2011-09-06T14:10:34Z</time>
      </trkpt>
      <trkpt lat="43.76407" lon="6.92342">
        <ele>1199.38</ele>
        <time>2011-09-06T14:10:35Z</time>
      </trkpt>
      <trkpt lat="43.76407" lon="6.92342">
        <ele>1202.75</ele>
        <time>2011-09-06T14:10:36Z</time>
      </trkpt>
      <trkpt lat="43.76407" lon="6.92342">
        <ele>1200.82</ele>
        <time>2011-09-06T14:10:37Z</time>
      </trkpt>
      <trkpt lat="43.76407" lon="6.92342">
        <ele>1204.19</ele>
        <time>2011-09-06T14:10:40Z</time>
      </trkpt>
      <trkpt lat="43.76407" lon="6.92342">
        <ele>1203.71</ele>
        <time>2011-09-06T14:10:41Z</time>
      </trkpt>
      <trkpt lat="43.76407" lon="6.92342">
        <ele>1200.34</ele>
        <time>2011-09-06T14:10:42Z</time>
      </trkpt>
      <trkpt lat="43.76407" lon="6.92342">
        <ele>1199.86</ele>
        <time>2011-09-06T14:10:43Z</time>
      </trkpt>
      <trkpt lat="43.76407" lon="6.92342">
        <ele>1203.71</ele>
        <time>2011-09-06T14:10:44Z</time>
      </trkpt>
      <trkpt lat="43.76407" lon="6.92342">
        <ele>1203.71</ele>
        <time>2011-09-06T14:10:45Z</time>
      </trkpt>
      <trkpt lat="43.76407" lon="6.92342">
        <ele>1199.86</ele>
        <time>2011-09-06T14:10:46Z</time>
      </trkpt>
      <trkpt lat="43.76407" lon="6.92342">
        <ele>1200.82</ele>
        <time>2011-09-06T14:10:47Z</time>
      </trkpt>
      <trkpt lat="43.76407" lon="6.92342">
        <ele>1203.71</ele>
        <time>2011-09-06T14:10:50Z</time>
      </trkpt>
      <trkpt lat="43.76407" lon="6.92342">
        <ele>1198.9</ele>
        <time>2011-09-06T14:10:52Z</time>
      </trkpt>
      <trkpt lat="43.76407" lon="6.92342">
        <ele>1203.71</ele>
        <time>2011-09-06T14:10:54Z</time>
      </trkpt>
      <trkpt lat="43.76407" lon="6.92342">
        <ele>1200.34</ele>
        <time>2011-09-06T14:10:56Z</time>
      </trkpt>
      <trkpt lat="43.76407" lon="6.92342">
        <ele>1203.71</ele>
        <time>2011-09-06T14:10:57Z</time>
      </trkpt>
      <trkpt lat="43.76407" lon="6.92342">
        <ele>1202.27</ele>
        <time>2011-09-06T14:10:58Z</time>
      </trkpt>
      <trkpt lat="43.76407" lon="6.92342">
        <ele>1201.79</ele>
        <time>2011-09-06T14:11:00Z</time>
      </trkpt>
      <trkpt lat="43.76407" lon="6.92342">
        <ele>1201.79</ele>
        <time>2011-09-06T14:11:05Z</time>
      </trkpt>
      <trkpt lat="43.76407" lon="6.92342">
        <ele>1203.71</ele>
        <time>2011-09-06T14:11:08Z</time>
      </trkpt>
      <trkpt lat="43.76407" lon="6.92342">
        <ele>1199.86</ele>
        <time>2011-09-06T14:11:10Z</time>
      </trkpt>
      <trkpt lat="43.76407" lon="6.92341">
        <ele>1202.75</ele>
        <time>2011-09-06T14:11:12Z</time>
      </trkpt>
      <trkpt lat="43.76407" lon="6.92341">
        <ele>1199.38</ele>
        <time>2011-09-06T14:11:15Z</time>
      </trkpt>
      <trkpt lat="43.76407" lon="6.92341">
        <ele>1203.23</ele>
        <time>2011-09-06T14:11:16Z</time>
      </trkpt>
      <trkpt lat="43.76407" lon="6.92341">
        <ele>1202.27</ele>
        <time>2011-09-06T14:11:17Z</time>
      </trkpt>
      <trkpt lat="43.76407" lon="6.92341">
        <ele>1199.38</ele>
        <time>2011-09-06T14:11:18Z</time>
      </trkpt>
      <trkpt lat="43.76407" lon="6.92341">
        <ele>1199.86</ele>
        <time>2011-09-06T14:11:19Z</time>
      </trkpt>
      <trkpt lat="43.76407" lon="6.92341">
        <ele>1202.75</ele>
        <time>2011-09-06T14:11:20Z</time>
      </trkpt>
      <trkpt lat="43.76407" lon="6.92341">
        <ele>1198.42</ele>
        <time>2011-09-06T14:11:23Z</time>
      </trkpt>
      <trkpt lat="43.76407" lon="6.92341">
        <ele>1201.79</ele>
        <time>2011-09-06T14:11:24Z</time>
      </trkpt>
      <trkpt lat="43.76407" lon="6.92341">
        <ele>1200.34</ele>
        <time>2011-09-06T14:11:27Z</time>
      </trkpt>
      <trkpt lat="43.76407" lon="6.92341">
        <ele>1203.71</ele>
        <time>2011-09-06T14:11:28Z</time>
      </trkpt>
      <trkpt lat="43.76407" lon="6.92341">
        <ele>1202.27</ele>
        <time>2011-09-06T14:11:29Z</time>
      </trkpt>
      <trkpt lat="43.76407" lon="6.92341">
        <ele>1198.9</ele>
        <time>2011-09-06T14:11:30Z</time>
      </trkpt>
      <trkpt lat="43.76407" lon="6.92341">
        <ele>1202.27</ele>
        <time>2011-09-06T14:11:31Z</time>
      </trkpt>
      <trkpt lat="43.76407" lon="6.92341">
        <ele>1198.42</ele>
        <time>2011-09-06T14:11:38Z</time>
      </trkpt>
      <trkpt lat="43.76407" lon="6.92341">
        <ele>1203.71</ele>
        <time>2011-09-06T14:11:39Z</time>
      </trkpt>
      <trkpt lat="43.76407" lon="6.92341">
        <ele>1198.9</ele>
        <time>2011-09-06T14:11:41Z</time>
      </trkpt>
      <trkpt lat="43.76407" lon="6.92341">
        <ele>1201.79</ele>
        <time>2011-09-06T14:11:42Z</time>
      </trkpt>
      <trkpt lat="43.76407" lon="6.92341">
        <ele>1198.9</ele>
        <time>2011-09-06T14:11:45Z</time>
      </trkpt>
      <trkpt lat="43.76407" lon="6.92341">
        <ele>1203.23</ele>
        <time>2011-09-06T14:11:47Z</time>
      </trkpt>
      <trkpt lat="43.76407" lon="6.92341">
        <ele>1199.38</ele>
        <time>2011-09-06T14:11:49Z</time>
      </trkpt>
      <trkpt lat="43.76407" lon="6.92341">
        <ele>1203.23</ele>
        <time>2011-09-06T14:11:50Z</time>
      </trkpt>
      <trkpt lat="43.76407" lon="6.92341">
        <ele>1199.86</ele>
        <time>2011-09-06T14:11:51Z</time>
      </trkpt>
      <trkpt lat="43.76407" lon="6.92341">
        <ele>1203.71</ele>
        <time>2011-09-06T14:11:52Z</time>
      </trkpt>
      <trkpt lat="43.76407" lon="6.92341">
        <ele>1198.9</ele>
        <time>2011-09-06T14:11:54Z</time>
      </trkpt>
      <trkpt lat="43.76407" lon="6.92341">
        <ele>1199.86</ele>
        <time>2011-09-06T14:11:55Z</time>
      </trkpt>
      <trkpt lat="43.76407" lon="6.92342">
        <ele>1203.71</ele>
        <time>2011-09-06T14:11:58Z</time>
      </trkpt>
      <trkpt lat="43.76407" lon="6.92342">
        <ele>1198.9</ele>
        <time>2011-09-06T14:11:59Z</time>
      </trkpt>
      <trkpt lat="43.76407" lon="6.92342">
        <ele>1202.27</ele>
        <time>2011-09-06T14:12:00Z</time>
      </trkpt>
      <trkpt lat="43.76407" lon="6.92342">
        <ele>1198.9</ele>
        <time>2011-09-06T14:12:03Z</time>
      </trkpt>
      <trkpt lat="43.76407" lon="6.92342">
        <ele>1202.27</ele>
        <time>2011-09-06T14:12:05Z</time>
      </trkpt>
      <trkpt lat="43.76407" lon="6.92342">
        <ele>1203.71</ele>
        <time>2011-09-06T14:12:07Z</time>
      </trkpt>
      <trkpt lat="43.76407" lon="6.92342">
        <ele>1199.86</ele>
        <time>2011-09-06T14:12:08Z</time>
      </trkpt>
      <trkpt lat="43.76407" lon="6.92342">
        <ele>1204.19</ele>
        <time>2011-09-06T14:12:11Z</time>
      </trkpt>
      <trkpt lat="43.76407" lon="6.92342">
        <ele>1199.38</ele>
        <time>2011-09-06T14:12:17Z</time>
      </trkpt>
      <trkpt lat="43.76407" lon="6.92342">
        <ele>1201.3</ele>
        <time>2011-09-06T14:12:18Z</time>
      </trkpt>
      <trkpt lat="43.76407" lon="6.92342">
        <ele>1203.71</ele>
        <time>2011-09-06T14:12:20Z</time>
      </trkpt>
      <trkpt lat="43.76407" lon="6.92342">
        <ele>1199.38</ele>
        <time>2011-09-06T14:12:22Z</time>
      </trkpt>
      <trkpt lat="43.76407" lon="6.92341">
        <ele>1201.79</ele>
        <time>2011-09-06T14:12:40Z</time>
      </trkpt>
      <trkpt lat="43.76407" lon="6.92341">
        <ele>1200.34</ele>
        <time>2011-09-06T14:12:44Z</time>
      </trkpt>
      <trkpt lat="43.76407" lon="6.92341">
        <ele>1202.75</ele>
        <time>2011-09-06T14:12:47Z</time>
      </trkpt>
      <trkpt lat="43.76407" lon="6.92341">
        <ele>1198.9</ele>
        <time>2011-09-06T14:12:49Z</time>
      </trkpt>
      <trkpt lat="43.76407" lon="6.92341">
        <ele>1199.38</ele>
        <time>2011-09-06T14:12:50Z</time>
      </trkpt>
      <trkpt lat="43.76407" lon="6.92341">
        <ele>1204.19</ele>
        <time>2011-09-06T14:12:53Z</time>
      </trkpt>
      <trkpt lat="43.76407" lon="6.92341">
        <ele>1203.71</ele>
        <time>2011-09-06T14:12:54Z</time>
      </trkpt>
      <trkpt lat="43.76407" lon="6.92341">
        <ele>1200.34</ele>
        <time>2011-09-06T14:12:57Z</time>
      </trkpt>
      <trkpt lat="43.76407" lon="6.92341">
        <ele>1202.75</ele>
        <time>2011-09-06T14:12:59Z</time>
      </trkpt>
      <trkpt lat="43.76407" lon="6.92341">
        <ele>1198.9</ele>
        <time>2011-09-06T14:13:01Z</time>
      </trkpt>
      <trkpt lat="43.76407" lon="6.92341">
        <ele>1203.23</ele>
        <time>2011-09-06T14:13:03Z</time>
      </trkpt>
      <trkpt lat="43.76407" lon="6.92341">
        <ele>1199.38</ele>
        <time>2011-09-06T14:13:06Z</time>
      </trkpt>
      <trkpt lat="43.76407" lon="6.92341">
        <ele>1200.34</ele>
        <time>2011-09-06T14:13:11Z</time>
      </trkpt>
      <trkpt lat="43.76407" lon="6.92341">
        <ele>1204.19</ele>
        <time>2011-09-06T14:13:17Z</time>
      </trkpt>
      <trkpt lat="43.76407" lon="6.92341">
        <ele>1199.38</ele>
        <time>2011-09-06T14:13:20Z</time>
      </trkpt>
      <trkpt lat="43.76407" lon="6.92341">
        <ele>1199.38</ele>
        <time>2011-09-06T14:13:21Z</time>
      </trkpt>
      <trkpt lat="43.76407" lon="6.92341">
        <ele>1202.75</ele>
        <time>2011-09-06T14:13:22Z</time>
      </trkpt>
      <trkpt lat="43.76407" lon="6.92341">
        <ele>1203.23</ele>
        <time>2011-09-06T14:13:24Z</time>
      </trkpt>
      <trkpt lat="43.76407" lon="6.92341">
        <ele>1200.34</ele>
        <time>2011-09-06T14:13:26Z</time>
      </trkpt>
      <trkpt lat="43.76407" lon="6.92341">
        <ele>1199.38</ele>
        <time>2011-09-06T14:13:28Z</time>
      </trkpt>
      <trkpt lat="43.76407" lon="6.92341">
        <ele>1203.71</ele>
        <time>2011-09-06T14:13:30Z</time>
      </trkpt>
      <trkpt lat="43.76407" lon="6.92341">
        <ele>1203.71</ele>
        <time>2011-09-06T14:13:31Z</time>
      </trkpt>
      <trkpt lat="43.76407" lon="6.92341">
        <ele>1200.34</ele>
        <time>2011-09-06T14:13:32Z</time>
      </trkpt>
      <trkpt lat="43.76407" lon="6.92341">
        <ele>1203.71</ele>
        <time>2011-09-06T14:13:39Z</time>
      </trkpt>
      <trkpt lat="43.76407" lon="6.92341">
        <ele>1203.71</ele>
        <time>2011-09-06T14:13:40Z</time>
      </trkpt>
      <trkpt lat="43.76407" lon="6.92341">
        <ele>1200.34</ele>
        <time>2011-09-06T14:13:45Z</time>
      </trkpt>
      <trkpt lat="43.76407" lon="6.92341">
        <ele>1200.34</ele>
        <time>2011-09-06T14:13:46Z</time>
      </trkpt>
      <trkpt lat="43.76407" lon="6.92341">
        <ele>1204.19</ele>
        <time>2011-09-06T14:13:55Z</time>
      </trkpt>
      <trkpt lat="43.76407" lon="6.92341">
        <ele>1204.67</ele>
        <time>2011-09-06T14:13:59Z</time>
      </trkpt>
      <trkpt lat="43.76407" lon="6.92341">
        <ele>1202.75</ele>
        <time>2011-09-06T14:14:06Z</time>
      </trkpt>
      <trkpt lat="43.76407" lon="6.92341">
        <ele>1198.9</ele>
        <time>2011-09-06T14:14:09Z</time>
      </trkpt>
      <trkpt lat="43.76407" lon="6.92341">
        <ele>1198.9</ele>
        <time>2011-09-06T14:14:10Z</time>
      </trkpt>
      <trkpt lat="43.76407" lon="6.92341">
        <ele>1202.75</ele>
        <time>2011-09-06T14:14:13Z</time>
      </trkpt>
      <trkpt lat="43.76407" lon="6.92341">
        <ele>1198.9</ele>
        <time>2011-09-06T14:14:21Z</time>
      </trkpt>
      <trkpt lat="43.76407" lon="6.92341">
        <ele>1199.86</ele>
        <time>2011-09-06T14:14:22Z</time>
      </trkpt>
      <trkpt lat="43.76407" lon="6.92341">
        <ele>1203.71</ele>
        <time>2011-09-06T14:14:24Z</time>
      </trkpt>
      <trkpt lat="43.76407" lon="6.92341">
        <ele>1204.67</ele>
        <time>2011-09-06T14:14:26Z</time>
      </trkpt>
      <trkpt lat="43.76407" lon="6.92341">
        <ele>1199.38</ele>
        <time>2011-09-06T14:14:28Z</time>
      </trkpt>
      <trkpt lat="43.76407" lon="6.92341">
        <ele>1199.86</ele>
        <time>2011-09-06T14:14:29Z</time>
      </trkpt>
      <trkpt lat="43.76407" lon="6.92341">
        <ele>1202.75</ele>
        <time>2011-09-06T14:14:30Z</time>
      </trkpt>
      <trkpt lat="43.76407" lon="6.92341">
        <ele>1204.19</ele>
        <time>2011-09-06T14:14:32Z</time>
      </trkpt>
      <trkpt lat="43.76407" lon="6.92341">
        <ele>1198.9</ele>
        <time>2011-09-06T14:14:34Z</time>
      </trkpt>
      <trkpt lat="43.76407" lon="6.92341">
        <ele>1203.23</ele>
        <time>2011-09-06T14:14:37Z</time>
      </trkpt>
      <trkpt lat="43.76407" lon="6.92341">
        <ele>1199.38</ele>
        <time>2011-09-06T14:14:40Z</time>
      </trkpt>
      <trkpt lat="43.76407" lon="6.92341">
        <ele>1199.38</ele>
        <time>2011-09-06T14:14:41Z</time>
      </trkpt>
      <trkpt lat="43.76407" lon="6.92341">
        <ele>1204.19</ele>
        <time>2011-09-06T14:14:43Z</time>
      </trkpt>
      <trkpt lat="43.76407" lon="6.92341">
        <ele>1202.75</ele>
        <time>2011-09-06T14:14:44Z</time>
      </trkpt>
      <trkpt lat="43.76407" lon="6.92341">
        <ele>1199.38</ele>
        <time>2011-09-06T14:14:45Z</time>
      </trkpt>
      <trkpt lat="43.76407" lon="6.92341">
        <ele>1199.38</ele>
        <time>2011-09-06T14:14:46Z</time>
      </trkpt>
      <trkpt lat="43.76407" lon="6.92341">
        <ele>1203.71</ele>
        <time>2011-09-06T14:14:47Z</time>
      </trkpt>
      <trkpt lat="43.76407" lon="6.92341">
        <ele>1201.3</ele>
        <time>2011-09-06T14:14:48Z</time>
      </trkpt>
      <trkpt lat="43.76407" lon="6.92342">
        <ele>1204.19</ele>
        <time>2011-09-06T14:14:59Z</time>
      </trkpt>
      <trkpt lat="43.76407" lon="6.92342">
        <ele>1201.3</ele>
        <time>2011-09-06T14:15:01Z</time>
      </trkpt>
      <trkpt lat="43.76407" lon="6.92342">
        <ele>1199.38</ele>
        <time>2011-09-06T14:15:03Z</time>
      </trkpt>
      <trkpt lat="43.76407" lon="6.92342">
        <ele>1203.71</ele>
        <time>2011-09-06T14:15:04Z</time>
      </trkpt>
      <trkpt lat="43.76407" lon="6.92342">
        <ele>1204.19</ele>
        <time>2011-09-06T14:15:05Z</time>
      </trkpt>
      <trkpt lat="43.76407" lon="6.92342">
        <ele>1190.25</ele>
        <time>2011-09-06T14:15:07Z</time>
      </trkpt>
      <trkpt lat="43.76407" lon="6.92342">
        <ele>1198.42</ele>
        <time>2011-09-06T14:15:08Z</time>
      </trkpt>
      <trkpt lat="43.76407" lon="6.92342">
        <ele>1204.67</ele>
        <time>2011-09-06T14:15:09Z</time>
      </trkpt>
      <trkpt lat="43.76407" lon="6.92342">
        <ele>1202.27</ele>
        <time>2011-09-06T14:15:10Z</time>
      </trkpt>
      <trkpt lat="43.76407" lon="6.92342">
        <ele>1199.38</ele>
        <time>2011-09-06T14:15:11Z</time>
      </trkpt>
      <trkpt lat="43.76407" lon="6.92342">
        <ele>1203.23</ele>
        <time>2011-09-06T14:15:14Z</time>
      </trkpt>
      <trkpt lat="43.76407" lon="6.92342">
        <ele>1199.86</ele>
        <time>2011-09-06T14:15:15Z</time>
      </trkpt>
      <trkpt lat="43.76407" lon="6.92342">
        <ele>1203.23</ele>
        <time>2011-09-06T14:15:18Z</time>
      </trkpt>
      <trkpt lat="43.76407" lon="6.92342">
        <ele>1198.42</ele>
        <time>2011-09-06T14:15:19Z</time>
      </trkpt>
      <trkpt lat="43.76407" lon="6.92342">
        <ele>1202.27</ele>
        <time>2011-09-06T14:15:20Z</time>
      </trkpt>
      <trkpt lat="43.76407" lon="6.92342">
        <ele>1198.9</ele>
        <time>2011-09-06T14:15:22Z</time>
      </trkpt>
      <trkpt lat="43.76407" lon="6.92342">
        <ele>1203.71</ele>
        <time>2011-09-06T14:15:23Z</time>
      </trkpt>
      <trkpt lat="43.76407" lon="6.92342">
        <ele>1198.42</ele>
        <time>2011-09-06T14:15:24Z</time>
      </trkpt>
      <trkpt lat="43.76407" lon="6.92342">
        <ele>1203.23</ele>
        <time>2011-09-06T14:15:25Z</time>
      </trkpt>
      <trkpt lat="43.76407" lon="6.92342">
        <ele>1197.94</ele>
        <time>2011-09-06T14:15:27Z</time>
      </trkpt>
      <trkpt lat="43.76407" lon="6.92342">
        <ele>1202.75</ele>
        <time>2011-09-06T14:15:28Z</time>
      </trkpt>
      <trkpt lat="43.76407" lon="6.92342">
        <ele>1198.9</ele>
        <time>2011-09-06T14:15:30Z</time>
      </trkpt>
      <trkpt lat="43.76407" lon="6.92342">
        <ele>1202.75</ele>
        <time>2011-09-06T14:15:31Z</time>
      </trkpt>
      <trkpt lat="43.76407" lon="6.92342">
        <ele>1199.38</ele>
        <time>2011-09-06T14:15:33Z</time>
      </trkpt>
      <trkpt lat="43.76407" lon="6.92342">
        <ele>1203.71</ele>
        <time>2011-09-06T14:15:36Z</time>
      </trkpt>
      <trkpt lat="43.76407" lon="6.92342">
        <ele>1199.86</ele>
        <time>2011-09-06T14:15:37Z</time>
      </trkpt>
      <trkpt lat="43.76407" lon="6.92342">
        <ele>1203.71</ele>
        <time>2011-09-06T14:15:39Z</time>
      </trkpt>
      <trkpt lat="43.76407" lon="6.92342">
        <ele>1197.94</ele>
        <time>2011-09-06T14:15:40Z</time>
      </trkpt>
      <trkpt lat="43.76407" lon="6.92342">
        <ele>1202.27</ele>
        <time>2011-09-06T14:15:42Z</time>
      </trkpt>
      <trkpt lat="43.76407" lon="6.92342">
        <ele>1198.42</ele>
        <time>2011-09-06T14:15:43Z</time>
      </trkpt>
      <trkpt lat="43.76407" lon="6.92342">
        <ele>1203.23</ele>
        <time>2011-09-06T14:15:44Z</time>
      </trkpt>
      <trkpt lat="43.76407" lon="6.92342">
        <ele>1199.86</ele>
        <time>2011-09-06T14:15:45Z</time>
      </trkpt>
      <trkpt lat="43.76407" lon="6.92342">
        <ele>1203.23</ele>
        <time>2011-09-06T14:15:46Z</time>
      </trkpt>
      <trkpt lat="43.76407" lon="6.92342">
        <ele>1198.9</ele>
        <time>2011-09-06T14:15:47Z</time>
      </trkpt>
      <trkpt lat="43.76407" lon="6.92342">
        <ele>1202.27</ele>
        <time>2011-09-06T14:15:48Z</time>
      </trkpt>
      <trkpt lat="43.76407" lon="6.92342">
        <ele>1198.9</ele>
        <time>2011-09-06T14:15:52Z</time>
      </trkpt>
      <trkpt lat="43.76407" lon="6.92342">
        <ele>1204.19</ele>
        <time>2011-09-06T14:15:53Z</time>
      </trkpt>
      <trkpt lat="43.76407" lon="6.92342">
        <ele>1198.9</ele>
        <time>2011-09-06T14:15:54Z</time>
      </trkpt>
      <trkpt lat="43.76407" lon="6.92342">
        <ele>1202.75</ele>
        <time>2011-09-06T14:15:55Z</time>
      </trkpt>
      <trkpt lat="43.76407" lon="6.92342">
        <ele>1198.9</ele>
        <time>2011-09-06T14:15:57Z</time>
      </trkpt>
      <trkpt lat="43.76407" lon="6.92342">
        <ele>1199.86</ele>
        <time>2011-09-06T14:15:58Z</time>
      </trkpt>
      <trkpt lat="43.76407" lon="6.92342">
        <ele>1203.23</ele>
        <time>2011-09-06T14:15:59Z</time>
      </trkpt>
      <trkpt lat="43.76407" lon="6.92342">
        <ele>1199.86</ele>
        <time>2011-09-06T14:16:00Z</time>
      </trkpt>
      <trkpt lat="43.76407" lon="6.92342">
        <ele>1203.23</ele>
        <time>2011-09-06T14:16:05Z</time>
      </trkpt>
      <trkpt lat="43.76407" lon="6.92342">
        <ele>1198.9</ele>
        <time>2011-09-06T14:16:06Z</time>
      </trkpt>
      <trkpt lat="43.76407" lon="6.92342">
        <ele>1203.71</ele>
        <time>2011-09-06T14:16:07Z</time>
      </trkpt>
      <trkpt lat="43.76407" lon="6.92342">
        <ele>1198.42</ele>
        <time>2011-09-06T14:16:08Z</time>
      </trkpt>
      <trkpt lat="43.76407" lon="6.92342">
        <ele>1204.19</ele>
        <time>2011-09-06T14:16:09Z</time>
      </trkpt>
      <trkpt lat="43.76407" lon="6.92342">
        <ele>1199.38</ele>
        <time>2011-09-06T14:16:11Z</time>
      </trkpt>
      <trkpt lat="43.76407" lon="6.92342">
        <ele>1198.9</ele>
        <time>2011-09-06T14:16:12Z</time>
      </trkpt>
      <trkpt lat="43.76407" lon="6.92342">
        <ele>1203.23</ele>
        <time>2011-09-06T14:16:13Z</time>
      </trkpt>
      <trkpt lat="43.76407" lon="6.92342">
        <ele>1199.86</ele>
        <time>2011-09-06T14:16:14Z</time>
      </trkpt>
      <trkpt lat="43.76407" lon="6.92342">
        <ele>1203.23</ele>
        <time>2011-09-06T14:16:20Z</time>
      </trkpt>
      <trkpt lat="43.76407" lon="6.92342">
        <ele>1198.9</ele>
        <time>2011-09-06T14:16:21Z</time>
      </trkpt>
      <trkpt lat="43.76407" lon="6.92342">
        <ele>1202.75</ele>
        <time>2011-09-06T14:16:22Z</time>
      </trkpt>
      <trkpt lat="43.76407" lon="6.92342">
        <ele>1199.38</ele>
        <time>2011-09-06T14:16:26Z</time>
      </trkpt>
      <trkpt lat="43.76407" lon="6.92342">
        <ele>1203.23</ele>
        <time>2011-09-06T14:16:27Z</time>
      </trkpt>
      <trkpt lat="43.76407" lon="6.92342">
        <ele>1198.42</ele>
        <time>2011-09-06T14:16:28Z</time>
      </trkpt>
      <trkpt lat="43.76407" lon="6.92342">
        <ele>1204.19</ele>
        <time>2011-09-06T14:16:29Z</time>
      </trkpt>
      <trkpt lat="43.76407" lon="6.92342">
        <ele>1199.38</ele>
        <time>2011-09-06T14:16:30Z</time>
      </trkpt>
      <trkpt lat="43.76407" lon="6.92342">
        <ele>1203.71</ele>
        <time>2011-09-06T14:16:31Z</time>
      </trkpt>
      <trkpt lat="43.76407" lon="6.92342">
        <ele>1199.38</ele>
        <time>2011-09-06T14:16:32Z</time>
      </trkpt>
      <trkpt lat="43.76407" lon="6.92342">
        <ele>1204.19</ele>
        <time>2011-09-06T14:16:36Z</time>
      </trkpt>
      <trkpt lat="43.76407" lon="6.92342">
        <ele>1203.71</ele>
        <time>2011-09-06T14:16:37Z</time>
      </trkpt>
      <trkpt lat="43.76407" lon="6.92342">
        <ele>1199.86</ele>
        <time>2011-09-06T14:16:38Z</time>
      </trkpt>
      <trkpt lat="43.76408" lon="6.92342">
        <ele>1203.23</ele>
        <time>2011-09-06T14:16:39Z</time>
      </trkpt>
      <trkpt lat="43.76408" lon="6.92342">
        <ele>1199.38</ele>
        <time>2011-09-06T14:16:45Z</time>
      </trkpt>
      <trkpt lat="43.76408" lon="6.92342">
        <ele>1204.67</ele>
        <time>2011-09-06T14:16:46Z</time>
      </trkpt>
      <trkpt lat="43.76408" lon="6.92342">
        <ele>1199.38</ele>
        <time>2011-09-06T14:16:47Z</time>
      </trkpt>
      <trkpt lat="43.76408" lon="6.92342">
        <ele>1203.71</ele>
        <time>2011-09-06T14:16:48Z</time>
      </trkpt>
      <trkpt lat="43.76408" lon="6.92342">
        <ele>1199.86</ele>
        <time>2011-09-06T14:16:49Z</time>
      </trkpt>
      <trkpt lat="43.76408" lon="6.92342">
        <ele>1204.67</ele>
        <time>2011-09-06T14:16:51Z</time>
      </trkpt>
      <trkpt lat="43.76408" lon="6.92342">
        <ele>1199.38</ele>
        <time>2011-09-06T14:16:52Z</time>
      </trkpt>
      <trkpt lat="43.76408" lon="6.92342">
        <ele>1205.15</ele>
        <time>2011-09-06T14:16:53Z</time>
      </trkpt>
      <trkpt lat="43.76408" lon="6.92342">
        <ele>1200.34</ele>
        <time>2011-09-06T14:16:54Z</time>
      </trkpt>
      <trkpt lat="43.76408" lon="6.92342">
        <ele>1204.19</ele>
        <time>2011-09-06T14:17:00Z</time>
      </trkpt>
      <trkpt lat="43.76408" lon="6.92342">
        <ele>1198.9</ele>
        <time>2011-09-06T14:17:05Z</time>
      </trkpt>
      <trkpt lat="43.76408" lon="6.92342">
        <ele>1204.19</ele>
        <time>2011-09-06T14:17:06Z</time>
      </trkpt>
      <trkpt lat="43.76408" lon="6.92342">
        <ele>1201.3</ele>
        <time>2011-09-06T14:17:07Z</time>
      </trkpt>
      <trkpt lat="43.76408" lon="6.92343">
        <ele>1203.23</ele>
        <time>2011-09-06T14:17:26Z</time>
      </trkpt>
      <trkpt lat="43.76408" lon="6.92343">
        <ele>1199.38</ele>
        <time>2011-09-06T14:17:28Z</time>
      </trkpt>
      <trkpt lat="43.76408" lon="6.92343">
        <ele>1203.23</ele>
        <time>2011-09-06T14:17:30Z</time>
      </trkpt>
      <trkpt lat="43.76408" lon="6.92343">
        <ele>1198.9</ele>
        <time>2011-09-06T14:17:31Z</time>
      </trkpt>
      <trkpt lat="43.76408" lon="6.92343">
        <ele>1204.19</ele>
        <time>2011-09-06T14:17:32Z</time>
      </trkpt>
      <trkpt lat="43.76408" lon="6.92343">
        <ele>1200.82</ele>
        <time>2011-09-06T14:17:34Z</time>
      </trkpt>
      <trkpt lat="43.76408" lon="6.92343">
        <ele>1204.67</ele>
        <time>2011-09-06T14:17:35Z</time>
      </trkpt>
      <trkpt lat="43.76408" lon="6.92343">
        <ele>1200.34</ele>
        <time>2011-09-06T14:17:36Z</time>
      </trkpt>
      <trkpt lat="43.76408" lon="6.92343">
        <ele>1203.71</ele>
        <time>2011-09-06T14:17:37Z</time>
      </trkpt>
      <trkpt lat="43.76407" lon="6.92344">
        <ele>1199.38</ele>
        <time>2011-09-06T14:17:40Z</time>
      </trkpt>
      <trkpt lat="43.76406" lon="6.92346">
        <ele>1200.82</ele>
        <time>2011-09-06T14:17:42Z</time>
      </trkpt>
      <trkpt lat="43.76405" lon="6.92348">
        <ele>1204.19</ele>
        <time>2011-09-06T14:17:44Z</time>
      </trkpt>
      <trkpt lat="43.76404" lon="6.92349">
        <ele>1198.9</ele>
        <time>2011-09-06T14:17:45Z</time>
      </trkpt>
      <trkpt lat="43.76403" lon="6.92349">
        <ele>1203.71</ele>
        <time>2011-09-06T14:17:46Z</time>
      </trkpt>
      <trkpt lat="43.76402" lon="6.9235">
        <ele>1199.38</ele>
        <time>2011-09-06T14:17:47Z</time>
      </trkpt>
      <trkpt lat="43.76402" lon="6.92351">
        <ele>1202.27</ele>
        <time>2011-09-06T14:17:48Z</time>
      </trkpt>
      <trkpt lat="43.76399" lon="6.92353">
        <ele>1198.9</ele>
        <time>2011-09-06T14:17:51Z</time>
      </trkpt>
      <trkpt lat="43.76399" lon="6.92354">
        <ele>1203.23</ele>
        <time>2011-09-06T14:17:52Z</time>
      </trkpt>
      <trkpt lat="43.76397" lon="6.92356">
        <ele>1199.38</ele>
        <time>2011-09-06T14:17:54Z</time>
      </trkpt>
      <trkpt lat="43.76396" lon="6.92357">
        <ele>1202.75</ele>
        <time>2011-09-06T14:17:55Z</time>
      </trkpt>
      <trkpt lat="43.76394" lon="6.92358">
        <ele>1198.9</ele>
        <time>2011-09-06T14:17:57Z</time>
      </trkpt>
      <trkpt lat="43.76393" lon="6.92359">
        <ele>1202.75</ele>
        <time>2011-09-06T14:17:58Z</time>
      </trkpt>
      <trkpt lat="43.76391" lon="6.9236">
        <ele>1199.38</ele>
        <time>2011-09-06T14:18:00Z</time>
      </trkpt>
      <trkpt lat="43.7639" lon="6.9236">
        <ele>1199.86</ele>
        <time>2011-09-06T14:18:01Z</time>
      </trkpt>
      <trkpt lat="43.76388" lon="6.92361">
        <ele>1203.23</ele>
        <time>2011-09-06T14:18:03Z</time>
      </trkpt>
      <trkpt lat="43.76386" lon="6.92362">
        <ele>1200.34</ele>
        <time>2011-09-06T14:18:05Z</time>
      </trkpt>
      <trkpt lat="43.76385" lon="6.92362">
        <ele>1204.67</ele>
        <time>2011-09-06T14:18:06Z</time>
      </trkpt>
      <trkpt lat="43.76384" lon="6.92362">
        <ele>1198.9</ele>
        <time>2011-09-06T14:18:07Z</time>
      </trkpt>
      <trkpt lat="43.76384" lon="6.92361">
        <ele>1201.79</ele>
        <time>2011-09-06T14:18:08Z</time>
      </trkpt>
      <trkpt lat="43.76381" lon="6.92361">
        <ele>1200.34</ele>
        <time>2011-09-06T14:18:11Z</time>
      </trkpt>
      <trkpt lat="43.7638" lon="6.92361">
        <ele>1204.19</ele>
        <time>2011-09-06T14:18:12Z</time>
      </trkpt>
      <trkpt lat="43.76379" lon="6.92362">
        <ele>1200.82</ele>
        <time>2011-09-06T14:18:13Z</time>
      </trkpt>
      <trkpt lat="43.76379" lon="6.92362">
        <ele>1204.19</ele>
        <time>2011-09-06T14:18:14Z</time>
      </trkpt>
      <trkpt lat="43.76376" lon="6.92362">
        <ele>1198.9</ele>
        <time>2011-09-06T14:18:17Z</time>
      </trkpt>
      <trkpt lat="43.76376" lon="6.92362">
        <ele>1203.23</ele>
        <time>2011-09-06T14:18:18Z</time>
      </trkpt>
      <trkpt lat="43.76374" lon="6.92362">
        <ele>1199.38</ele>
        <time>2011-09-06T14:18:20Z</time>
      </trkpt>
      <trkpt lat="43.76373" lon="6.92362">
        <ele>1205.15</ele>
        <time>2011-09-06T14:18:21Z</time>
      </trkpt>
      <trkpt lat="43.76373" lon="6.92363">
        <ele>1199.38</ele>
        <time>2011-09-06T14:18:22Z</time>
      </trkpt>
      <trkpt lat="43.76372" lon="6.92364">
        <ele>1204.67</ele>
        <time>2011-09-06T14:18:24Z</time>
      </trkpt>
      <trkpt lat="43.76371" lon="6.92365">
        <ele>1200.82</ele>
        <time>2011-09-06T14:18:25Z</time>
      </trkpt>
      <trkpt lat="43.7637" lon="6.92366">
        <ele>1204.67</ele>
        <time>2011-09-06T14:18:27Z</time>
      </trkpt>
      <trkpt lat="43.7637" lon="6.92366">
        <ele>1200.34</ele>
        <time>2011-09-06T14:18:28Z</time>
      </trkpt>
      <trkpt lat="43.76368" lon="6.92368">
        <ele>1201.79</ele>
        <time>2011-09-06T14:18:34Z</time>
      </trkpt>
      <trkpt lat="43.76367" lon="6.92371">
        <ele>1204.67</ele>
        <time>2011-09-06T14:18:39Z</time>
      </trkpt>
      <trkpt lat="43.76366" lon="6.92372">
        <ele>1199.38</ele>
        <time>2011-09-06T14:18:42Z</time>
      </trkpt>
      <trkpt lat="43.76366" lon="6.92372">
        <ele>1202.75</ele>
        <time>2011-09-06T14:18:43Z</time>
      </trkpt>
      <trkpt lat="43.76366" lon="6.92375">
        <ele>1201.3</ele>
        <time>2011-09-06T14:18:51Z</time>
      </trkpt>
      <trkpt lat="43.76366" lon="6.92376">
        <ele>1205.15</ele>
        <time>2011-09-06T14:18:52Z</time>
      </trkpt>
      <trkpt lat="43.76366" lon="6.92382">
        <ele>1200.34</ele>
        <time>2011-09-06T14:18:56Z</time>
      </trkpt>
      <trkpt lat="43.76365" lon="6.92384">
        <ele>1204.19</ele>
        <time>2011-09-06T14:18:57Z</time>
      </trkpt>
      <trkpt lat="43.76364" lon="6.92389">
        <ele>1201.3</ele>
        <time>2011-09-06T14:19:00Z</time>
      </trkpt>
      <trkpt lat="43.76363" lon="6.92391">
        <ele>1202.27</ele>
        <time>2011-09-06T14:19:01Z</time>
      </trkpt>
      <trkpt lat="43.76363" lon="6.92392">
        <ele>1205.15</ele>
        <time>2011-09-06T14:19:02Z</time>
      </trkpt>
      <trkpt lat="43.76362" lon="6.92393">
        <ele>1202.75</ele>
        <time>2011-09-06T14:19:03Z</time>
      </trkpt>
      <trkpt lat="43.76357" lon="6.92402">
        <ele>1205.63</ele>
        <time>2011-09-06T14:19:14Z</time>
      </trkpt>
      <trkpt lat="43.76354" lon="6.92403">
        <ele>1201.3</ele>
        <time>2011-09-06T14:19:17Z</time>
      </trkpt>
      <trkpt lat="43.76353" lon="6.92405">
        <ele>1205.63</ele>
        <time>2011-09-06T14:19:20Z</time>
      </trkpt>
      <trkpt lat="43.7635" lon="6.92407">
        <ele>1202.27</ele>
        <time>2011-09-06T14:19:24Z</time>
      </trkpt>
      <trkpt lat="43.76349" lon="6.92408">
        <ele>1206.59</ele>
        <time>2011-09-06T14:19:26Z</time>
      </trkpt>
      <trkpt lat="43.76349" lon="6.92409">
        <ele>1204.19</ele>
        <time>2011-09-06T14:19:27Z</time>
      </trkpt>
      <trkpt lat="43.76348" lon="6.92411">
        <ele>1203.23</ele>
        <time>2011-09-06T14:19:29Z</time>
      </trkpt>
      <trkpt lat="43.76346" lon="6.92413">
        <ele>1207.55</ele>
        <time>2011-09-06T14:19:32Z</time>
      </trkpt>
      <trkpt lat="43.76345" lon="6.92414">
        <ele>1202.75</ele>
        <time>2011-09-06T14:19:34Z</time>
      </trkpt>
      <trkpt lat="43.76344" lon="6.92414">
        <ele>1205.63</ele>
        <time>2011-09-06T14:19:35Z</time>
      </trkpt>
      <trkpt lat="43.76342" lon="6.92416">
        <ele>1203.23</ele>
        <time>2011-09-06T14:19:39Z</time>
      </trkpt>
      <trkpt lat="43.76342" lon="6.92416">
        <ele>1207.55</ele>
        <time>2011-09-06T14:19:40Z</time>
      </trkpt>
      <trkpt lat="43.76341" lon="6.92417">
        <ele>1208.03</ele>
        <time>2011-09-06T14:19:42Z</time>
      </trkpt>
      <trkpt lat="43.7634" lon="6.92419">
        <ele>1206.11</ele>
        <time>2011-09-06T14:19:44Z</time>
      </trkpt>
      <trkpt lat="43.76338" lon="6.92421">
        <ele>1204.19</ele>
        <time>2011-09-06T14:19:46Z</time>
      </trkpt>
      <trkpt lat="43.76337" lon="6.92422">
        <ele>1209</ele>
        <time>2011-09-06T14:19:48Z</time>
      </trkpt>
      <trkpt lat="43.76336" lon="6.92423">
        <ele>1206.11</ele>
        <time>2011-09-06T14:19:49Z</time>
      </trkpt>
      <trkpt lat="43.76335" lon="6.92424">
        <ele>1204.67</ele>
        <time>2011-09-06T14:19:51Z</time>
      </trkpt>
      <trkpt lat="43.76332" lon="6.92424">
        <ele>1209</ele>
        <time>2011-09-06T14:19:58Z</time>
      </trkpt>
      <trkpt lat="43.76331" lon="6.92426">
        <ele>1204.67</ele>
        <time>2011-09-06T14:20:01Z</time>
      </trkpt>
      <trkpt lat="43.76331" lon="6.92426">
        <ele>1205.63</ele>
        <time>2011-09-06T14:20:02Z</time>
      </trkpt>
      <trkpt lat="43.7633" lon="6.92425">
        <ele>1209.48</ele>
        <time>2011-09-06T14:20:04Z</time>
      </trkpt>
      <trkpt lat="43.76329" lon="6.92425">
        <ele>1205.63</ele>
        <time>2011-09-06T14:20:06Z</time>
      </trkpt>
      <trkpt lat="43.76326" lon="6.92426">
        <ele>1209.48</ele>
        <time>2011-09-06T14:20:12Z</time>
      </trkpt>
      <trkpt lat="43.76326" lon="6.92427">
        <ele>1207.55</ele>
        <time>2011-09-06T14:20:13Z</time>
      </trkpt>
      <trkpt lat="43.76321" lon="6.92429">
        <ele>1209.48</ele>
        <time>2011-09-06T14:20:18Z</time>
      </trkpt>
      <trkpt lat="43.7632" lon="6.9243">
        <ele>1206.11</ele>
        <time>2011-09-06T14:20:20Z</time>
      </trkpt>
      <trkpt lat="43.7632" lon="6.9243">
        <ele>1210.44</ele>
        <time>2011-09-06T14:20:21Z</time>
      </trkpt>
      <trkpt lat="43.76318" lon="6.92433">
        <ele>1207.55</ele>
        <time>2011-09-06T14:20:24Z</time>
      </trkpt>
      <trkpt lat="43.76317" lon="6.92439">
        <ele>1207.55</ele>
        <time>2011-09-06T14:20:29Z</time>
      </trkpt>
      <trkpt lat="43.76317" lon="6.92441">
        <ele>1211.88</ele>
        <time>2011-09-06T14:20:32Z</time>
      </trkpt>
      <trkpt lat="43.76317" lon="6.92442">
        <ele>1208.51</ele>
        <time>2011-09-06T14:20:34Z</time>
      </trkpt>
      <trkpt lat="43.76317" lon="6.92442">
        <ele>1209</ele>
        <time>2011-09-06T14:20:35Z</time>
      </trkpt>
      <trkpt lat="43.76314" lon="6.92444">
        <ele>1211.88</ele>
        <time>2011-09-06T14:20:43Z</time>
      </trkpt>
      <trkpt lat="43.76311" lon="6.92446">
        <ele>1210.44</ele>
        <time>2011-09-06T14:20:47Z</time>
      </trkpt>
      <trkpt lat="43.76307" lon="6.92448">
        <ele>1208.03</ele>
        <time>2011-09-06T14:20:52Z</time>
      </trkpt>
      <trkpt lat="43.76306" lon="6.92449">
        <ele>1211.4</ele>
        <time>2011-09-06T14:20:55Z</time>
      </trkpt>
      <trkpt lat="43.76305" lon="6.92449">
        <ele>1210.92</ele>
        <time>2011-09-06T14:20:56Z</time>
      </trkpt>
      <trkpt lat="43.763" lon="6.9245">
        <ele>1212.36</ele>
        <time>2011-09-06T14:21:01Z</time>
      </trkpt>
      <trkpt lat="43.76296" lon="6.9245">
        <ele>1208.51</ele>
        <time>2011-09-06T14:21:06Z</time>
      </trkpt>
      <trkpt lat="43.76293" lon="6.9245">
        <ele>1212.84</ele>
        <time>2011-09-06T14:21:09Z</time>
      </trkpt>
      <trkpt lat="43.76293" lon="6.9245">
        <ele>1208.03</ele>
        <time>2011-09-06T14:21:10Z</time>
      </trkpt>
      <trkpt lat="43.76292" lon="6.92451">
        <ele>1208.03</ele>
        <time>2011-09-06T14:21:11Z</time>
      </trkpt>
      <trkpt lat="43.76292" lon="6.92451">
        <ele>1212.36</ele>
        <time>2011-09-06T14:21:12Z</time>
      </trkpt>
      <trkpt lat="43.76291" lon="6.92452">
        <ele>1211.88</ele>
        <time>2011-09-06T14:21:13Z</time>
      </trkpt>
      <trkpt lat="43.76291" lon="6.92453">
        <ele>1212.36</ele>
        <time>2011-09-06T14:21:14Z</time>
      </trkpt>
      <trkpt lat="43.76289" lon="6.92456">
        <ele>1209.96</ele>
        <time>2011-09-06T14:21:18Z</time>
      </trkpt>
      <trkpt lat="43.76286" lon="6.92459">
        <ele>1211.88</ele>
        <time>2011-09-06T14:21:24Z</time>
      </trkpt>
      <trkpt lat="43.76285" lon="6.92463">
        <ele>1209</ele>
        <time>2011-09-06T14:21:29Z</time>
      </trkpt>
      <trkpt lat="43.76284" lon="6.92464">
        <ele>1211.88</ele>
        <time>2011-09-06T14:21:32Z</time>
      </trkpt>
      <trkpt lat="43.76284" lon="6.92465">
        <ele>1211.88</ele>
        <time>2011-09-06T14:21:33Z</time>
      </trkpt>
      <trkpt lat="43.76284" lon="6.92466">
        <ele>1209</ele>
        <time>2011-09-06T14:21:34Z</time>
      </trkpt>
      <trkpt lat="43.76284" lon="6.92467">
        <ele>1209.96</ele>
        <time>2011-09-06T14:21:35Z</time>
      </trkpt>
      <trkpt lat="43.76284" lon="6.9247">
        <ele>1212.36</ele>
        <time>2011-09-06T14:21:44Z</time>
      </trkpt>
      <trkpt lat="43.76284" lon="6.9247">
        <ele>1209.48</ele>
        <time>2011-09-06T14:21:48Z</time>
      </trkpt>
      <trkpt lat="43.76284" lon="6.9247">
        <ele>1214.28</ele>
        <time>2011-09-06T14:21:52Z</time>
      </trkpt>
      <trkpt lat="43.76284" lon="6.9247">
        <ele>1214.28</ele>
        <time>2011-09-06T14:21:53Z</time>
      </trkpt>
      <trkpt lat="43.76283" lon="6.9247">
        <ele>1209.96</ele>
        <time>2011-09-06T14:21:56Z</time>
      </trkpt>
      <trkpt lat="43.76283" lon="6.9247">
        <ele>1210.44</ele>
        <time>2011-09-06T14:21:57Z</time>
      </trkpt>
      <trkpt lat="43.76283" lon="6.92471">
        <ele>1211.88</ele>
        <time>2011-09-06T14:21:59Z</time>
      </trkpt>
      <trkpt lat="43.76285" lon="6.92476">
        <ele>1213.32</ele>
        <time>2011-09-06T14:22:03Z</time>
      </trkpt>
      <trkpt lat="43.76286" lon="6.92482">
        <ele>1209.48</ele>
        <time>2011-09-06T14:22:08Z</time>
      </trkpt>
      <trkpt lat="43.76286" lon="6.92483">
        <ele>1209.48</ele>
        <time>2011-09-06T14:22:09Z</time>
      </trkpt>
      <trkpt lat="43.76288" lon="6.9249">
        <ele>1214.28</ele>
        <time>2011-09-06T14:22:14Z</time>
      </trkpt>
      <trkpt lat="43.76289" lon="6.92493">
        <ele>1209.96</ele>
        <time>2011-09-06T14:22:16Z</time>
      </trkpt>
      <trkpt lat="43.76289" lon="6.92494">
        <ele>1212.84</ele>
        <time>2011-09-06T14:22:17Z</time>
      </trkpt>
      <trkpt lat="43.76288" lon="6.92497">
        <ele>1214.28</ele>
        <time>2011-09-06T14:22:19Z</time>
      </trkpt>
      <trkpt lat="43.76286" lon="6.925">
        <ele>1211.4</ele>
        <time>2011-09-06T14:22:22Z</time>
      </trkpt>
      <trkpt lat="43.76285" lon="6.92502">
        <ele>1209.96</ele>
        <time>2011-09-06T14:22:24Z</time>
      </trkpt>
      <trkpt lat="43.76282" lon="6.92506">
        <ele>1210.44</ele>
        <time>2011-09-06T14:22:29Z</time>
      </trkpt>
      <trkpt lat="43.76282" lon="6.92507">
        <ele>1211.88</ele>
        <time>2011-09-06T14:22:30Z</time>
      </trkpt>
      <trkpt lat="43.76283" lon="6.9251">
        <ele>1215.24</ele>
        <time>2011-09-06T14:22:32Z</time>
      </trkpt>
      <trkpt lat="43.76283" lon="6.92515">
        <ele>1211.4</ele>
        <time>2011-09-06T14:22:37Z</time>
      </trkpt>
      <trkpt lat="43.76283" lon="6.92515">
        <ele>1215.24</ele>
        <time>2011-09-06T14:22:38Z</time>
      </trkpt>
      <trkpt lat="43.76283" lon="6.92515">
        <ele>1214.76</ele>
        <time>2011-09-06T14:22:39Z</time>
      </trkpt>
      <trkpt lat="43.76282" lon="6.92515">
        <ele>1210.92</ele>
        <time>2011-09-06T14:22:43Z</time>
      </trkpt>
      <trkpt lat="43.7628" lon="6.92515">
        <ele>1212.84</ele>
        <time>2011-09-06T14:22:45Z</time>
      </trkpt>
      <trkpt lat="43.76276" lon="6.92515">
        <ele>1211.4</ele>
        <time>2011-09-06T14:22:49Z</time>
      </trkpt>
      <trkpt lat="43.76276" lon="6.92515">
        <ele>1211.4</ele>
        <time>2011-09-06T14:22:50Z</time>
      </trkpt>
      <trkpt lat="43.76274" lon="6.92515">
        <ele>1216.21</ele>
        <time>2011-09-06T14:22:53Z</time>
      </trkpt>
      <trkpt lat="43.76273" lon="6.92517">
        <ele>1212.36</ele>
        <time>2011-09-06T14:22:55Z</time>
      </trkpt>
      <trkpt lat="43.76273" lon="6.92519">
        <ele>1216.21</ele>
        <time>2011-09-06T14:22:58Z</time>
      </trkpt>
      <trkpt lat="43.76273" lon="6.92519">
        <ele>1211.88</ele>
        <time>2011-09-06T14:23:01Z</time>
      </trkpt>
      <trkpt lat="43.76273" lon="6.92519">
        <ele>1212.36</ele>
        <time>2011-09-06T14:23:02Z</time>
      </trkpt>
      <trkpt lat="43.76273" lon="6.92519">
        <ele>1215.72</ele>
        <time>2011-09-06T14:23:03Z</time>
      </trkpt>
      <trkpt lat="43.76273" lon="6.92519">
        <ele>1212.36</ele>
        <time>2011-09-06T14:23:04Z</time>
      </trkpt>
      <trkpt lat="43.76273" lon="6.92518">
        <ele>1215.72</ele>
        <time>2011-09-06T14:23:06Z</time>
      </trkpt>
      <trkpt lat="43.76273" lon="6.92519">
        <ele>1211.88</ele>
        <time>2011-09-06T14:23:08Z</time>
      </trkpt>
      <trkpt lat="43.76273" lon="6.92519">
        <ele>1216.69</ele>
        <time>2011-09-06T14:23:10Z</time>
      </trkpt>
      <trkpt lat="43.76273" lon="6.92519">
        <ele>1215.24</ele>
        <time>2011-09-06T14:23:11Z</time>
      </trkpt>
      <trkpt lat="43.76273" lon="6.92519">
        <ele>1211.88</ele>
        <time>2011-09-06T14:23:12Z</time>
      </trkpt>
      <trkpt lat="43.76273" lon="6.92519">
        <ele>1214.28</ele>
        <time>2011-09-06T14:23:13Z</time>
      </trkpt>
      <trkpt lat="43.76273" lon="6.92519">
        <ele>1214.76</ele>
        <time>2011-09-06T14:23:15Z</time>
      </trkpt>
      <trkpt lat="43.76273" lon="6.92519">
        <ele>1211.4</ele>
        <time>2011-09-06T14:23:18Z</time>
      </trkpt>
      <trkpt lat="43.76273" lon="6.92519">
        <ele>1216.21</ele>
        <time>2011-09-06T14:23:20Z</time>
      </trkpt>
      <trkpt lat="43.76273" lon="6.92519">
        <ele>1215.72</ele>
        <time>2011-09-06T14:23:21Z</time>
      </trkpt>
      <trkpt lat="43.76273" lon="6.92519">
        <ele>1211.88</ele>
        <time>2011-09-06T14:23:22Z</time>
      </trkpt>
      <trkpt lat="43.76273" lon="6.92519">
        <ele>1213.8</ele>
        <time>2011-09-06T14:23:23Z</time>
      </trkpt>
      <trkpt lat="43.76273" lon="6.92519">
        <ele>1215.24</ele>
        <time>2011-09-06T14:23:25Z</time>
      </trkpt>
      <trkpt lat="43.76273" lon="6.92519">
        <ele>1212.36</ele>
        <time>2011-09-06T14:23:26Z</time>
      </trkpt>
      <trkpt lat="43.76273" lon="6.92519">
        <ele>1211.4</ele>
        <time>2011-09-06T14:23:28Z</time>
      </trkpt>
      <trkpt lat="43.76273" lon="6.92519">
        <ele>1216.21</ele>
        <time>2011-09-06T14:23:31Z</time>
      </trkpt>
      <trkpt lat="43.76273" lon="6.92519">
        <ele>1215.72</ele>
        <time>2011-09-06T14:23:32Z</time>
      </trkpt>
      <trkpt lat="43.76273" lon="6.92519">
        <ele>1211.88</ele>
        <time>2011-09-06T14:23:34Z</time>
      </trkpt>
      <trkpt lat="43.76273" lon="6.92519">
        <ele>1215.24</ele>
        <time>2011-09-06T14:23:35Z</time>
      </trkpt>
      <trkpt lat="43.76273" lon="6.92519">
        <ele>1211.4</ele>
        <time>2011-09-06T14:23:38Z</time>
      </trkpt>
      <trkpt lat="43.76273" lon="6.92519">
        <ele>1214.28</ele>
        <time>2011-09-06T14:23:39Z</time>
      </trkpt>
      <trkpt lat="43.76273" lon="6.92519">
        <ele>1214.76</ele>
        <time>2011-09-06T14:23:41Z</time>
      </trkpt>
      <trkpt lat="43.76273" lon="6.92519">
        <ele>1211.88</ele>
        <time>2011-09-06T14:23:44Z</time>
      </trkpt>
      <trkpt lat="43.76273" lon="6.92519">
        <ele>1215.24</ele>
        <time>2011-09-06T14:23:46Z</time>
      </trkpt>
      <trkpt lat="43.76272" lon="6.92518">
        <ele>1211.88</ele>
        <time>2011-09-06T14:23:48Z</time>
      </trkpt>
      <trkpt lat="43.76272" lon="6.92518">
        <ele>1211.88</ele>
        <time>2011-09-06T14:23:49Z</time>
      </trkpt>
      <trkpt lat="43.76272" lon="6.92518">
        <ele>1215.24</ele>
        <time>2011-09-06T14:23:50Z</time>
      </trkpt>
      <trkpt lat="43.76272" lon="6.92518">
        <ele>1211.88</ele>
        <time>2011-09-06T14:23:55Z</time>
      </trkpt>
      <trkpt lat="43.76272" lon="6.92518">
        <ele>1215.72</ele>
        <time>2011-09-06T14:23:57Z</time>
      </trkpt>
      <trkpt lat="43.76272" lon="6.92518">
        <ele>1215.24</ele>
        <time>2011-09-06T14:23:58Z</time>
      </trkpt>
      <trkpt lat="43.76272" lon="6.92518">
        <ele>1212.36</ele>
        <time>2011-09-06T14:24:00Z</time>
      </trkpt>
      <trkpt lat="43.76272" lon="6.92518">
        <ele>1216.21</ele>
        <time>2011-09-06T14:24:02Z</time>
      </trkpt>
      <trkpt lat="43.76272" lon="6.92518">
        <ele>1211.88</ele>
        <time>2011-09-06T14:24:06Z</time>
      </trkpt>
      <trkpt lat="43.76272" lon="6.92518">
        <ele>1214.76</ele>
        <time>2011-09-06T14:24:08Z</time>
      </trkpt>
      <trkpt lat="43.76272" lon="6.92518">
        <ele>1211.4</ele>
        <time>2011-09-06T14:24:11Z</time>
      </trkpt>
      <trkpt lat="43.76272" lon="6.92518">
        <ele>1214.76</ele>
        <time>2011-09-06T14:24:13Z</time>
      </trkpt>
      <trkpt lat="43.76271" lon="6.92518">
        <ele>1212.36</ele>
        <time>2011-09-06T14:24:18Z</time>
      </trkpt>
      <trkpt lat="43.76269" lon="6.92517">
        <ele>1214.28</ele>
        <time>2011-09-06T14:24:22Z</time>
      </trkpt>
      <trkpt lat="43.76268" lon="6.92516">
        <ele>1210.92</ele>
        <time>2011-09-06T14:24:23Z</time>
      </trkpt>
      <trkpt lat="43.76268" lon="6.92516">
        <ele>1211.88</ele>
        <time>2011-09-06T14:24:24Z</time>
      </trkpt>
      <trkpt lat="43.76267" lon="6.92516">
        <ele>1215.72</ele>
        <time>2011-09-06T14:24:25Z</time>
      </trkpt>
      <trkpt lat="43.76267" lon="6.92517">
        <ele>1215.24</ele>
        <time>2011-09-06T14:24:26Z</time>
      </trkpt>
      <trkpt lat="43.76266" lon="6.92516">
        <ele>1211.4</ele>
        <time>2011-09-06T14:24:27Z</time>
      </trkpt>
      <trkpt lat="43.76265" lon="6.92516">
        <ele>1215.24</ele>
        <time>2011-09-06T14:24:28Z</time>
      </trkpt>
      <trkpt lat="43.76262" lon="6.92516">
        <ele>1213.32</ele>
        <time>2011-09-06T14:24:31Z</time>
      </trkpt>
      <trkpt lat="43.76262" lon="6.92516">
        <ele>1209.96</ele>
        <time>2011-09-06T14:24:32Z</time>
      </trkpt>
      <trkpt lat="43.76261" lon="6.92516">
        <ele>1213.8</ele>
        <time>2011-09-06T14:24:33Z</time>
      </trkpt>
      <trkpt lat="43.7626" lon="6.92516">
        <ele>1210.44</ele>
        <time>2011-09-06T14:24:36Z</time>
      </trkpt>
      <trkpt lat="43.76259" lon="6.92516">
        <ele>1213.32</ele>
        <time>2011-09-06T14:24:37Z</time>
      </trkpt>
      <trkpt lat="43.76258" lon="6.92516">
        <ele>1212.84</ele>
        <time>2011-09-06T14:24:38Z</time>
      </trkpt>
      <trkpt lat="43.76258" lon="6.92517">
        <ele>1209.48</ele>
        <time>2011-09-06T14:24:39Z</time>
      </trkpt>
      <trkpt lat="43.76258" lon="6.92517">
        <ele>1212.84</ele>
        <time>2011-09-06T14:24:40Z</time>
      </trkpt>
      <trkpt lat="43.76253" lon="6.92513">
        <ele>1213.8</ele>
        <time>2011-09-06T14:24:50Z</time>
      </trkpt>
      <trkpt lat="43.76253" lon="6.92513">
        <ele>1209.96</ele>
        <time>2011-09-06T14:24:51Z</time>
      </trkpt>
      <trkpt lat="43.76253" lon="6.92513">
        <ele>1210.92</ele>
        <time>2011-09-06T14:24:52Z</time>
      </trkpt>
      <trkpt lat="43.76253" lon="6.92513">
        <ele>1214.76</ele>
        <time>2011-09-06T14:24:53Z</time>
      </trkpt>
      <trkpt lat="43.76253" lon="6.92513">
        <ele>1211.4</ele>
        <time>2011-09-06T14:24:54Z</time>
      </trkpt>
      <trkpt lat="43.76253" lon="6.92513">
        <ele>1214.76</ele>
        <time>2011-09-06T14:25:04Z</time>
      </trkpt>
      <trkpt lat="43.76253" lon="6.92513">
        <ele>1210.44</ele>
        <time>2011-09-06T14:25:05Z</time>
      </trkpt>
      <trkpt lat="43.76252" lon="6.92514">
        <ele>1213.8</ele>
        <time>2011-09-06T14:25:07Z</time>
      </trkpt>
      <trkpt lat="43.76252" lon="6.92515">
        <ele>1213.8</ele>
        <time>2011-09-06T14:25:08Z</time>
      </trkpt>
      <trkpt lat="43.76251" lon="6.92515">
        <ele>1209.96</ele>
        <time>2011-09-06T14:25:11Z</time>
      </trkpt>
      <trkpt lat="43.7625" lon="6.92515">
        <ele>1213.32</ele>
        <time>2011-09-06T14:25:12Z</time>
      </trkpt>
      <trkpt lat="43.76249" lon="6.92517">
        <ele>1210.44</ele>
        <time>2011-09-06T14:25:14Z</time>
      </trkpt>
      <trkpt lat="43.76246" lon="6.92519">
        <ele>1212.84</ele>
        <time>2011-09-06T14:25:17Z</time>
      </trkpt>
      <trkpt lat="43.76245" lon="6.9252">
        <ele>1209.48</ele>
        <time>2011-09-06T14:25:18Z</time>
      </trkpt>
      <trkpt lat="43.76242" lon="6.9252">
        <ele>1213.32</ele>
        <time>2011-09-06T14:25:20Z</time>
      </trkpt>
      <trkpt lat="43.76238" lon="6.92522">
        <ele>1211.88</ele>
        <time>2011-09-06T14:25:26Z</time>
      </trkpt>
      <trkpt lat="43.76237" lon="6.92522">
        <ele>1215.72</ele>
        <time>2011-09-06T14:25:27Z</time>
      </trkpt>
      <trkpt lat="43.76236" lon="6.92522">
        <ele>1211.88</ele>
        <time>2011-09-06T14:25:28Z</time>
      </trkpt>
      <trkpt lat="43.76236" lon="6.92522">
        <ele>1216.21</ele>
        <time>2011-09-06T14:25:30Z</time>
      </trkpt>
      <trkpt lat="43.76236" lon="6.92522">
        <ele>1212.36</ele>
        <time>2011-09-06T14:25:31Z</time>
      </trkpt>
      <trkpt lat="43.76236" lon="6.92522">
        <ele>1215.72</ele>
        <time>2011-09-06T14:25:36Z</time>
      </trkpt>
      <trkpt lat="43.76236" lon="6.92522">
        <ele>1211.4</ele>
        <time>2011-09-06T14:25:37Z</time>
      </trkpt>
      <trkpt lat="43.76236" lon="6.92523">
        <ele>1214.28</ele>
        <time>2011-09-06T14:25:39Z</time>
      </trkpt>
      <trkpt lat="43.76234" lon="6.92523">
        <ele>1215.72</ele>
        <time>2011-09-06T14:25:41Z</time>
      </trkpt>
      <trkpt lat="43.76233" lon="6.92523">
        <ele>1213.32</ele>
        <time>2011-09-06T14:25:44Z</time>
      </trkpt>
      <trkpt lat="43.76233" lon="6.92523">
        <ele>1216.69</ele>
        <time>2011-09-06T14:25:45Z</time>
      </trkpt>
      <trkpt lat="43.76233" lon="6.92524">
        <ele>1212.84</ele>
        <time>2011-09-06T14:25:46Z</time>
      </trkpt>
      <trkpt lat="43.76233" lon="6.92524">
        <ele>1216.69</ele>
        <time>2011-09-06T14:25:50Z</time>
      </trkpt>
      <trkpt lat="43.76233" lon="6.92524">
        <ele>1212.84</ele>
        <time>2011-09-06T14:25:51Z</time>
      </trkpt>
      <trkpt lat="43.76233" lon="6.92524">
        <ele>1216.21</ele>
        <time>2011-09-06T14:25:53Z</time>
      </trkpt>
      <trkpt lat="43.76232" lon="6.92525">
        <ele>1211.88</ele>
        <time>2011-09-06T14:25:54Z</time>
      </trkpt>
      <trkpt lat="43.76231" lon="6.92527">
        <ele>1216.69</ele>
        <time>2011-09-06T14:25:56Z</time>
      </trkpt>
      <trkpt lat="43.76231" lon="6.92527">
        <ele>1216.69</ele>
        <time>2011-09-06T14:25:57Z</time>
      </trkpt>
      <trkpt lat="43.76231" lon="6.92527">
        <ele>1213.32</ele>
        <time>2011-09-06T14:25:58Z</time>
      </trkpt>
      <trkpt lat="43.76231" lon="6.92527">
        <ele>1217.17</ele>
        <time>2011-09-06T14:26:00Z</time>
      </trkpt>
      <trkpt lat="43.7623" lon="6.92527">
        <ele>1213.8</ele>
        <time>2011-09-06T14:26:01Z</time>
      </trkpt>
      <trkpt lat="43.76228" lon="6.92529">
        <ele>1217.17</ele>
        <time>2011-09-06T14:26:08Z</time>
      </trkpt>
      <trkpt lat="43.76227" lon="6.9253">
        <ele>1215.24</ele>
        <time>2011-09-06T14:26:09Z</time>
      </trkpt>
      <trkpt lat="43.76225" lon="6.92532">
        <ele>1216.69</ele>
        <time>2011-09-06T14:26:11Z</time>
      </trkpt>
      <trkpt lat="43.76223" lon="6.92538">
        <ele>1213.32</ele>
        <time>2011-09-06T14:26:16Z</time>
      </trkpt>
      <trkpt lat="43.76222" lon="6.9254">
        <ele>1216.69</ele>
        <time>2011-09-06T14:26:18Z</time>
      </trkpt>
      <trkpt lat="43.76222" lon="6.92541">
        <ele>1212.84</ele>
        <time>2011-09-06T14:26:19Z</time>
      </trkpt>
      <trkpt lat="43.76222" lon="6.92541">
        <ele>1215.72</ele>
        <time>2011-09-06T14:26:20Z</time>
      </trkpt>
      <trkpt lat="43.76221" lon="6.92542">
        <ele>1214.28</ele>
        <time>2011-09-06T14:26:22Z</time>
      </trkpt>
      <trkpt lat="43.7622" lon="6.92545">
        <ele>1217.65</ele>
        <time>2011-09-06T14:26:24Z</time>
      </trkpt>
      <trkpt lat="43.7622" lon="6.92546">
        <ele>1217.17</ele>
        <time>2011-09-06T14:26:25Z</time>
      </trkpt>
      <trkpt lat="43.76219" lon="6.92548">
        <ele>1213.32</ele>
        <time>2011-09-06T14:26:26Z</time>
      </trkpt>
      <trkpt lat="43.76219" lon="6.92548">
        <ele>1215.24</ele>
        <time>2011-09-06T14:26:27Z</time>
      </trkpt>
      <trkpt lat="43.76218" lon="6.92549">
        <ele>1214.76</ele>
        <time>2011-09-06T14:26:28Z</time>
      </trkpt>
      <trkpt lat="43.76217" lon="6.9255">
        <ele>1217.65</ele>
        <time>2011-09-06T14:26:30Z</time>
      </trkpt>
      <trkpt lat="43.76216" lon="6.9255">
        <ele>1213.8</ele>
        <time>2011-09-06T14:26:31Z</time>
      </trkpt>
      <trkpt lat="43.76215" lon="6.92552">
        <ele>1217.17</ele>
        <time>2011-09-06T14:26:33Z</time>
      </trkpt>
      <trkpt lat="43.76214" lon="6.92553">
        <ele>1212.84</ele>
        <time>2011-09-06T14:26:34Z</time>
      </trkpt>
      <trkpt lat="43.76214" lon="6.92554">
        <ele>1217.17</ele>
        <time>2011-09-06T14:26:35Z</time>
      </trkpt>
      <trkpt lat="43.76211" lon="6.92558">
        <ele>1213.32</ele>
        <time>2011-09-06T14:26:40Z</time>
      </trkpt>
      <trkpt lat="43.7621" lon="6.92559">
        <ele>1217.17</ele>
        <time>2011-09-06T14:26:41Z</time>
      </trkpt>
      <trkpt lat="43.76211" lon="6.9256">
        <ele>1215.24</ele>
        <time>2011-09-06T14:26:42Z</time>
      </trkpt>
      <trkpt lat="43.76214" lon="6.92563">
        <ele>1213.32</ele>
        <time>2011-09-06T14:26:45Z</time>
      </trkpt>
      <trkpt lat="43.76215" lon="6.92563">
        <ele>1214.76</ele>
        <time>2011-09-06T14:26:46Z</time>
      </trkpt>
      <trkpt lat="43.76216" lon="6.92565">
        <ele>1212.84</ele>
        <time>2011-09-06T14:26:49Z</time>
      </trkpt>
      <trkpt lat="43.76216" lon="6.92566">
        <ele>1216.69</ele>
        <time>2011-09-06T14:26:50Z</time>
      </trkpt>
      <trkpt lat="43.76216" lon="6.92568">
        <ele>1211.88</ele>
        <time>2011-09-06T14:26:51Z</time>
      </trkpt>
      <trkpt lat="43.76216" lon="6.92569">
        <ele>1218.13</ele>
        <time>2011-09-06T14:26:52Z</time>
      </trkpt>
      <trkpt lat="43.76216" lon="6.9257">
        <ele>1212.36</ele>
        <time>2011-09-06T14:26:53Z</time>
      </trkpt>
      <trkpt lat="43.76216" lon="6.92571">
        <ele>1217.17</ele>
        <time>2011-09-06T14:26:54Z</time>
      </trkpt>
      <trkpt lat="43.76215" lon="6.92572">
        <ele>1212.84</ele>
        <time>2011-09-06T14:26:55Z</time>
      </trkpt>
      <trkpt lat="43.76215" lon="6.92573">
        <ele>1216.69</ele>
        <time>2011-09-06T14:26:56Z</time>
      </trkpt>
      <trkpt lat="43.76214" lon="6.92576">
        <ele>1211.88</ele>
        <time>2011-09-06T14:27:00Z</time>
      </trkpt>
      <trkpt lat="43.76212" lon="6.92578">
        <ele>1216.69</ele>
        <time>2011-09-06T14:27:02Z</time>
      </trkpt>
      <trkpt lat="43.76212" lon="6.92578">
        <ele>1211.88</ele>
        <time>2011-09-06T14:27:03Z</time>
      </trkpt>
      <trkpt lat="43.76212" lon="6.92578">
        <ele>1217.17</ele>
        <time>2011-09-06T14:27:04Z</time>
      </trkpt>
      <trkpt lat="43.76212" lon="6.92579">
        <ele>1212.36</ele>
        <time>2011-09-06T14:27:05Z</time>
      </trkpt>
      <trkpt lat="43.76212" lon="6.92579">
        <ele>1217.17</ele>
        <time>2011-09-06T14:27:06Z</time>
      </trkpt>
      <trkpt lat="43.76212" lon="6.92579">
        <ele>1213.32</ele>
        <time>2011-09-06T14:27:07Z</time>
      </trkpt>
      <trkpt lat="43.76212" lon="6.9258">
        <ele>1216.69</ele>
        <time>2011-09-06T14:27:08Z</time>
      </trkpt>
      <trkpt lat="43.76212" lon="6.9258">
        <ele>1213.32</ele>
        <time>2011-09-06T14:27:09Z</time>
      </trkpt>
      <trkpt lat="43.76212" lon="6.9258">
        <ele>1217.17</ele>
        <time>2011-09-06T14:27:13Z</time>
      </trkpt>
      <trkpt lat="43.76212" lon="6.9258">
        <ele>1216.21</ele>
        <time>2011-09-06T14:27:14Z</time>
      </trkpt>
      <trkpt lat="43.76211" lon="6.92581">
        <ele>1212.36</ele>
        <time>2011-09-06T14:27:17Z</time>
      </trkpt>
      <trkpt lat="43.76211" lon="6.92581">
        <ele>1215.72</ele>
        <time>2011-09-06T14:27:18Z</time>
      </trkpt>
      <trkpt lat="43.76211" lon="6.92583">
        <ele>1212.36</ele>
        <time>2011-09-06T14:27:21Z</time>
      </trkpt>
      <trkpt lat="43.7621" lon="6.92584">
        <ele>1216.69</ele>
        <time>2011-09-06T14:27:22Z</time>
      </trkpt>
      <trkpt lat="43.7621" lon="6.92585">
        <ele>1211.88</ele>
        <time>2011-09-06T14:27:23Z</time>
      </trkpt>
      <trkpt lat="43.7621" lon="6.92587">
        <ele>1216.69</ele>
        <time>2011-09-06T14:27:24Z</time>
      </trkpt>
      <trkpt lat="43.7621" lon="6.92587">
        <ele>1211.88</ele>
        <time>2011-09-06T14:27:25Z</time>
      </trkpt>
      <trkpt lat="43.7621" lon="6.9259">
        <ele>1217.17</ele>
        <time>2011-09-06T14:27:27Z</time>
      </trkpt>
      <trkpt lat="43.7621" lon="6.9259">
        <ele>1211.88</ele>
        <time>2011-09-06T14:27:28Z</time>
      </trkpt>
      <trkpt lat="43.76211" lon="6.92592">
        <ele>1216.69</ele>
        <time>2011-09-06T14:27:29Z</time>
      </trkpt>
      <trkpt lat="43.76211" lon="6.92593">
        <ele>1212.84</ele>
        <time>2011-09-06T14:27:30Z</time>
      </trkpt>
      <trkpt lat="43.76213" lon="6.92594">
        <ele>1213.32</ele>
        <time>2011-09-06T14:27:34Z</time>
      </trkpt>
      <trkpt lat="43.76214" lon="6.92595">
        <ele>1214.28</ele>
        <time>2011-09-06T14:27:36Z</time>
      </trkpt>
      <trkpt lat="43.76214" lon="6.92597">
        <ele>1211.4</ele>
        <time>2011-09-06T14:27:40Z</time>
      </trkpt>
      <trkpt lat="43.76215" lon="6.92597">
        <ele>1215.72</ele>
        <time>2011-09-06T14:27:41Z</time>
      </trkpt>
      <trkpt lat="43.76215" lon="6.92598">
        <ele>1210.44</ele>
        <time>2011-09-06T14:27:42Z</time>
      </trkpt>
      <trkpt lat="43.76215" lon="6.92599">
        <ele>1215.24</ele>
        <time>2011-09-06T14:27:43Z</time>
      </trkpt>
      <trkpt lat="43.76216" lon="6.92599">
        <ele>1209.96</ele>
        <time>2011-09-06T14:27:44Z</time>
      </trkpt>
      <trkpt lat="43.76216" lon="6.926">
        <ele>1215.24</ele>
        <time>2011-09-06T14:27:45Z</time>
      </trkpt>
      <trkpt lat="43.76217" lon="6.926">
        <ele>1211.88</ele>
        <time>2011-09-06T14:27:46Z</time>
      </trkpt>
      <trkpt lat="43.76217" lon="6.926">
        <ele>1215.24</ele>
        <time>2011-09-06T14:27:50Z</time>
      </trkpt>
      <trkpt lat="43.76217" lon="6.926">
        <ele>1209.96</ele>
        <time>2011-09-06T14:27:51Z</time>
      </trkpt>
      <trkpt lat="43.76218" lon="6.92601">
        <ele>1215.24</ele>
        <time>2011-09-06T14:27:52Z</time>
      </trkpt>
      <trkpt lat="43.76218" lon="6.92601">
        <ele>1209.96</ele>
        <time>2011-09-06T14:27:53Z</time>
      </trkpt>
      <trkpt lat="43.76218" lon="6.92601">
        <ele>1215.24</ele>
        <time>2011-09-06T14:27:54Z</time>
      </trkpt>
      <trkpt lat="43.76218" lon="6.92601">
        <ele>1210.44</ele>
        <time>2011-09-06T14:27:55Z</time>
      </trkpt>
      <trkpt lat="43.76218" lon="6.92601">
        <ele>1215.24</ele>
        <time>2011-09-06T14:27:56Z</time>
      </trkpt>
      <trkpt lat="43.76218" lon="6.92602">
        <ele>1210.44</ele>
        <time>2011-09-06T14:27:57Z</time>
      </trkpt>
      <trkpt lat="43.76218" lon="6.92603">
        <ele>1214.28</ele>
        <time>2011-09-06T14:27:58Z</time>
      </trkpt>
      <trkpt lat="43.76218" lon="6.92604">
        <ele>1209.96</ele>
        <time>2011-09-06T14:27:59Z</time>
      </trkpt>
      <trkpt lat="43.76219" lon="6.92605">
        <ele>1214.28</ele>
        <time>2011-09-06T14:28:00Z</time>
      </trkpt>
      <trkpt lat="43.76219" lon="6.92606">
        <ele>1210.44</ele>
        <time>2011-09-06T14:28:01Z</time>
      </trkpt>
      <trkpt lat="43.76219" lon="6.92608">
        <ele>1214.76</ele>
        <time>2011-09-06T14:28:03Z</time>
      </trkpt>
      <trkpt lat="43.7622" lon="6.92609">
        <ele>1209.96</ele>
        <time>2011-09-06T14:28:04Z</time>
      </trkpt>
      <trkpt lat="43.7622" lon="6.9261">
        <ele>1213.8</ele>
        <time>2011-09-06T14:28:05Z</time>
      </trkpt>
      <trkpt lat="43.76221" lon="6.92611">
        <ele>1210.44</ele>
        <time>2011-09-06T14:28:06Z</time>
      </trkpt>
      <trkpt lat="43.76222" lon="6.92617">
        <ele>1211.4</ele>
        <time>2011-09-06T14:28:12Z</time>
      </trkpt>
      <trkpt lat="43.76223" lon="6.92621">
        <ele>1209.48</ele>
        <time>2011-09-06T14:28:15Z</time>
      </trkpt>
      <trkpt lat="43.76223" lon="6.92622">
        <ele>1214.76</ele>
        <time>2011-09-06T14:28:16Z</time>
      </trkpt>
      <trkpt lat="43.76225" lon="6.92625">
        <ele>1210.44</ele>
        <time>2011-09-06T14:28:19Z</time>
      </trkpt>
      <trkpt lat="43.76229" lon="6.92628">
        <ele>1209</ele>
        <time>2011-09-06T14:28:31Z</time>
      </trkpt>
      <trkpt lat="43.76233" lon="6.92631">
        <ele>1211.4</ele>
        <time>2011-09-06T14:28:39Z</time>
      </trkpt>
      <trkpt lat="43.76233" lon="6.92634">
        <ele>1209.96</ele>
        <time>2011-09-06T14:28:41Z</time>
      </trkpt>
      <trkpt lat="43.76237" lon="6.92641">
        <ele>1211.4</ele>
        <time>2011-09-06T14:28:47Z</time>
      </trkpt>
      <trkpt lat="43.76239" lon="6.92642">
        <ele>1211.4</ele>
        <time>2011-09-06T14:28:49Z</time>
      </trkpt>
      <trkpt lat="43.76239" lon="6.92643">
        <ele>1206.59</ele>
        <time>2011-09-06T14:28:50Z</time>
      </trkpt>
      <trkpt lat="43.7624" lon="6.92643">
        <ele>1211.4</ele>
        <time>2011-09-06T14:28:51Z</time>
      </trkpt>
      <trkpt lat="43.7624" lon="6.92643">
        <ele>1207.07</ele>
        <time>2011-09-06T14:28:53Z</time>
      </trkpt>
      <trkpt lat="43.76241" lon="6.92642">
        <ele>1209</ele>
        <time>2011-09-06T14:28:54Z</time>
      </trkpt>
      <trkpt lat="43.76242" lon="6.92641">
        <ele>1205.15</ele>
        <time>2011-09-06T14:29:00Z</time>
      </trkpt>
      <trkpt lat="43.76242" lon="6.92641">
        <ele>1209.96</ele>
        <time>2011-09-06T14:29:01Z</time>
      </trkpt>
      <trkpt lat="43.76242" lon="6.92641">
        <ele>1204.67</ele>
        <time>2011-09-06T14:29:02Z</time>
      </trkpt>
      <trkpt lat="43.76242" lon="6.92641">
        <ele>1210.44</ele>
        <time>2011-09-06T14:29:03Z</time>
      </trkpt>
      <trkpt lat="43.76242" lon="6.92641">
        <ele>1205.63</ele>
        <time>2011-09-06T14:29:04Z</time>
      </trkpt>
      <trkpt lat="43.76242" lon="6.92641">
        <ele>1210.44</ele>
        <time>2011-09-06T14:29:05Z</time>
      </trkpt>
      <trkpt lat="43.76242" lon="6.92641">
        <ele>1205.15</ele>
        <time>2011-09-06T14:29:06Z</time>
      </trkpt>
      <trkpt lat="43.76242" lon="6.92641">
        <ele>1209.96</ele>
        <time>2011-09-06T14:29:07Z</time>
      </trkpt>
      <trkpt lat="43.76242" lon="6.92641">
        <ele>1206.59</ele>
        <time>2011-09-06T14:29:08Z</time>
      </trkpt>
      <trkpt lat="43.76242" lon="6.92641">
        <ele>1210.92</ele>
        <time>2011-09-06T14:29:10Z</time>
      </trkpt>
      <trkpt lat="43.76242" lon="6.92641">
        <ele>1205.15</ele>
        <time>2011-09-06T14:29:11Z</time>
      </trkpt>
      <trkpt lat="43.76242" lon="6.92641">
        <ele>1209.96</ele>
        <time>2011-09-06T14:29:12Z</time>
      </trkpt>
      <trkpt lat="43.76242" lon="6.92641">
        <ele>1205.15</ele>
        <time>2011-09-06T14:29:13Z</time>
      </trkpt>
      <trkpt lat="43.76242" lon="6.92641">
        <ele>1208.51</ele>
        <time>2011-09-06T14:29:14Z</time>
      </trkpt>
      <trkpt lat="43.76243" lon="6.9264">
        <ele>1204.67</ele>
        <time>2011-09-06T14:29:16Z</time>
      </trkpt>
      <trkpt lat="43.76243" lon="6.92638">
        <ele>1209</ele>
        <time>2011-09-06T14:29:17Z</time>
      </trkpt>
      <trkpt lat="43.76242" lon="6.92637">
        <ele>1203.71</ele>
        <time>2011-09-06T14:29:18Z</time>
      </trkpt>
      <trkpt lat="43.76242" lon="6.92632">
        <ele>1202.75</ele>
        <time>2011-09-06T14:29:23Z</time>
      </trkpt>
      <trkpt lat="43.76242" lon="6.92631">
        <ele>1207.07</ele>
        <time>2011-09-06T14:29:24Z</time>
      </trkpt>
      <trkpt lat="43.76242" lon="6.9263">
        <ele>1201.79</ele>
        <time>2011-09-06T14:29:25Z</time>
      </trkpt>
      <trkpt lat="43.76242" lon="6.92629">
        <ele>1206.11</ele>
        <time>2011-09-06T14:29:26Z</time>
      </trkpt>
      <trkpt lat="43.76242" lon="6.92628">
        <ele>1202.27</ele>
        <time>2011-09-06T14:29:27Z</time>
      </trkpt>
      <trkpt lat="43.76241" lon="6.92625">
        <ele>1203.23</ele>
        <time>2011-09-06T14:29:30Z</time>
      </trkpt>
      <trkpt lat="43.7624" lon="6.92624">
        <ele>1200.82</ele>
        <time>2011-09-06T14:29:32Z</time>
      </trkpt>
      <trkpt lat="43.76239" lon="6.92623">
        <ele>1206.59</ele>
        <time>2011-09-06T14:29:33Z</time>
      </trkpt>
      <trkpt lat="43.76239" lon="6.92623">
        <ele>1201.3</ele>
        <time>2011-09-06T14:29:34Z</time>
      </trkpt>
      <trkpt lat="43.76238" lon="6.92622">
        <ele>1206.59</ele>
        <time>2011-09-06T14:29:35Z</time>
      </trkpt>
      <trkpt lat="43.76238" lon="6.92621">
        <ele>1201.79</ele>
        <time>2011-09-06T14:29:36Z</time>
      </trkpt>
      <trkpt lat="43.76238" lon="6.9262">
        <ele>1205.63</ele>
        <time>2011-09-06T14:29:38Z</time>
      </trkpt>
      <trkpt lat="43.76238" lon="6.92619">
        <ele>1201.3</ele>
        <time>2011-09-06T14:29:39Z</time>
      </trkpt>
      <trkpt lat="43.76238" lon="6.92619">
        <ele>1206.59</ele>
        <time>2011-09-06T14:29:40Z</time>
      </trkpt>
      <trkpt lat="43.76238" lon="6.92619">
        <ele>1201.3</ele>
        <time>2011-09-06T14:29:41Z</time>
      </trkpt>
      <trkpt lat="43.76238" lon="6.92619">
        <ele>1207.55</ele>
        <time>2011-09-06T14:29:42Z</time>
      </trkpt>
      <trkpt lat="43.76237" lon="6.92618">
        <ele>1203.71</ele>
        <time>2011-09-06T14:29:43Z</time>
      </trkpt>
      <trkpt lat="43.76234" lon="6.92619">
        <ele>1207.07</ele>
        <time>2011-09-06T14:29:45Z</time>
      </trkpt>
      <trkpt lat="43.76234" lon="6.92619">
        <ele>1202.75</ele>
        <time>2011-09-06T14:29:46Z</time>
      </trkpt>
      <trkpt lat="43.76233" lon="6.92619">
        <ele>1208.03</ele>
        <time>2011-09-06T14:29:47Z</time>
      </trkpt>
      <trkpt lat="43.76233" lon="6.92618">
        <ele>1202.75</ele>
        <time>2011-09-06T14:29:48Z</time>
      </trkpt>
      <trkpt lat="43.76232" lon="6.92618">
        <ele>1207.55</ele>
        <time>2011-09-06T14:29:49Z</time>
      </trkpt>
      <trkpt lat="43.76231" lon="6.92617">
        <ele>1203.71</ele>
        <time>2011-09-06T14:29:50Z</time>
      </trkpt>
      <trkpt lat="43.76231" lon="6.92618">
        <ele>1207.55</ele>
        <time>2011-09-06T14:29:51Z</time>
      </trkpt>
      <trkpt lat="43.7623" lon="6.92618">
        <ele>1203.71</ele>
        <time>2011-09-06T14:29:55Z</time>
      </trkpt>
      <trkpt lat="43.7623" lon="6.92618">
        <ele>1208.51</ele>
        <time>2011-09-06T14:29:56Z</time>
      </trkpt>
      <trkpt lat="43.7623" lon="6.92618">
        <ele>1204.67</ele>
        <time>2011-09-06T14:29:57Z</time>
      </trkpt>
      <trkpt lat="43.7623" lon="6.92618">
        <ele>1209</ele>
        <time>2011-09-06T14:29:58Z</time>
      </trkpt>
      <trkpt lat="43.7623" lon="6.92618">
        <ele>1204.19</ele>
        <time>2011-09-06T14:29:59Z</time>
      </trkpt>
      <trkpt lat="43.7623" lon="6.92618">
        <ele>1208.03</ele>
        <time>2011-09-06T14:30:00Z</time>
      </trkpt>
      <trkpt lat="43.7623" lon="6.92618">
        <ele>1204.67</ele>
        <time>2011-09-06T14:30:01Z</time>
      </trkpt>
      <trkpt lat="43.7623" lon="6.92618">
        <ele>1207.55</ele>
        <time>2011-09-06T14:30:02Z</time>
      </trkpt>
      <trkpt lat="43.7623" lon="6.92618">
        <ele>1204.19</ele>
        <time>2011-09-06T14:30:08Z</time>
      </trkpt>
      <trkpt lat="43.7623" lon="6.92618">
        <ele>1209</ele>
        <time>2011-09-06T14:30:09Z</time>
      </trkpt>
      <trkpt lat="43.7623" lon="6.92618">
        <ele>1203.71</ele>
        <time>2011-09-06T14:30:10Z</time>
      </trkpt>
      <trkpt lat="43.7623" lon="6.92618">
        <ele>1209</ele>
        <time>2011-09-06T14:30:11Z</time>
      </trkpt>
      <trkpt lat="43.7623" lon="6.92618">
        <ele>1203.71</ele>
        <time>2011-09-06T14:30:12Z</time>
      </trkpt>
      <trkpt lat="43.7623" lon="6.92618">
        <ele>1208.03</ele>
        <time>2011-09-06T14:30:13Z</time>
      </trkpt>
      <trkpt lat="43.7623" lon="6.92618">
        <ele>1203.71</ele>
        <time>2011-09-06T14:30:14Z</time>
      </trkpt>
      <trkpt lat="43.7623" lon="6.92618">
        <ele>1208.03</ele>
        <time>2011-09-06T14:30:15Z</time>
      </trkpt>
      <trkpt lat="43.7623" lon="6.92618">
        <ele>1203.71</ele>
        <time>2011-09-06T14:30:19Z</time>
      </trkpt>
      <trkpt lat="43.7623" lon="6.92618">
        <ele>1208.51</ele>
        <time>2011-09-06T14:30:20Z</time>
      </trkpt>
      <trkpt lat="43.7623" lon="6.92618">
        <ele>1203.71</ele>
        <time>2011-09-06T14:30:21Z</time>
      </trkpt>
      <trkpt lat="43.7623" lon="6.92618">
        <ele>1208.51</ele>
        <time>2011-09-06T14:30:24Z</time>
      </trkpt>
      <trkpt lat="43.7623" lon="6.92618">
        <ele>1204.19</ele>
        <time>2011-09-06T14:30:25Z</time>
      </trkpt>
      <trkpt lat="43.7623" lon="6.92618">
        <ele>1209</ele>
        <time>2011-09-06T14:30:26Z</time>
      </trkpt>
      <trkpt lat="43.7623" lon="6.92618">
        <ele>1203.71</ele>
        <time>2011-09-06T14:30:27Z</time>
      </trkpt>
      <trkpt lat="43.7623" lon="6.92618">
        <ele>1207.55</ele>
        <time>2011-09-06T14:30:28Z</time>
      </trkpt>
      <trkpt lat="43.7623" lon="6.92618">
        <ele>1203.71</ele>
        <time>2011-09-06T14:30:32Z</time>
      </trkpt>
      <trkpt lat="43.7623" lon="6.92618">
        <ele>1207.07</ele>
        <time>2011-09-06T14:30:33Z</time>
      </trkpt>
      <trkpt lat="43.7623" lon="6.92618">
        <ele>1203.71</ele>
        <time>2011-09-06T14:30:34Z</time>
      </trkpt>
      <trkpt lat="43.7623" lon="6.92618">
        <ele>1208.51</ele>
        <time>2011-09-06T14:30:35Z</time>
      </trkpt>
      <trkpt lat="43.7623" lon="6.92618">
        <ele>1203.71</ele>
        <time>2011-09-06T14:30:36Z</time>
      </trkpt>
      <trkpt lat="43.7623" lon="6.92618">
        <ele>1209</ele>
        <time>2011-09-06T14:30:37Z</time>
      </trkpt>
      <trkpt lat="43.7623" lon="6.92618">
        <ele>1204.19</ele>
        <time>2011-09-06T14:30:38Z</time>
      </trkpt>
      <trkpt lat="43.7623" lon="6.92618">
        <ele>1208.51</ele>
        <time>2011-09-06T14:30:42Z</time>
      </trkpt>
      <trkpt lat="43.7623" lon="6.92619">
        <ele>1204.19</ele>
        <time>2011-09-06T14:30:43Z</time>
      </trkpt>
      <trkpt lat="43.7623" lon="6.9262">
        <ele>1208.51</ele>
        <time>2011-09-06T14:30:44Z</time>
      </trkpt>
      <trkpt lat="43.76229" lon="6.92621">
        <ele>1202.75</ele>
        <time>2011-09-06T14:30:45Z</time>
      </trkpt>
      <trkpt lat="43.76228" lon="6.92622">
        <ele>1207.07</ele>
        <time>2011-09-06T14:30:46Z</time>
      </trkpt>
      <trkpt lat="43.76227" lon="6.92622">
        <ele>1203.23</ele>
        <time>2011-09-06T14:30:49Z</time>
      </trkpt>
      <trkpt lat="43.76226" lon="6.92622">
        <ele>1208.03</ele>
        <time>2011-09-06T14:30:50Z</time>
      </trkpt>
      <trkpt lat="43.76226" lon="6.92623">
        <ele>1203.71</ele>
        <time>2011-09-06T14:30:51Z</time>
      </trkpt>
      <trkpt lat="43.76226" lon="6.92623">
        <ele>1208.51</ele>
        <time>2011-09-06T14:30:52Z</time>
      </trkpt>
      <trkpt lat="43.76226" lon="6.92623">
        <ele>1204.19</ele>
        <time>2011-09-06T14:30:53Z</time>
      </trkpt>
      <trkpt lat="43.76226" lon="6.92622">
        <ele>1209</ele>
        <time>2011-09-06T14:30:55Z</time>
      </trkpt>
      <trkpt lat="43.76226" lon="6.92622">
        <ele>1203.23</ele>
        <time>2011-09-06T14:30:56Z</time>
      </trkpt>
      <trkpt lat="43.76226" lon="6.92622">
        <ele>1209</ele>
        <time>2011-09-06T14:30:57Z</time>
      </trkpt>
      <trkpt lat="43.76226" lon="6.92622">
        <ele>1205.15</ele>
        <time>2011-09-06T14:30:58Z</time>
      </trkpt>
      <trkpt lat="43.76226" lon="6.92622">
        <ele>1209</ele>
        <time>2011-09-06T14:31:02Z</time>
      </trkpt>
      <trkpt lat="43.76226" lon="6.92622">
        <ele>1205.63</ele>
        <time>2011-09-06T14:31:03Z</time>
      </trkpt>
      <trkpt lat="43.76226" lon="6.92622">
        <ele>1209</ele>
        <time>2011-09-06T14:31:05Z</time>
      </trkpt>
      <trkpt lat="43.76226" lon="6.92622">
        <ele>1204.19</ele>
        <time>2011-09-06T14:31:06Z</time>
      </trkpt>
      <trkpt lat="43.76226" lon="6.92622">
        <ele>1208.03</ele>
        <time>2011-09-06T14:31:08Z</time>
      </trkpt>
      <trkpt lat="43.76226" lon="6.92622">
        <ele>1203.23</ele>
        <time>2011-09-06T14:31:09Z</time>
      </trkpt>
      <trkpt lat="43.76226" lon="6.92622">
        <ele>1208.51</ele>
        <time>2011-09-06T14:31:10Z</time>
      </trkpt>
      <trkpt lat="43.76226" lon="6.92622">
        <ele>1203.71</ele>
        <time>2011-09-06T14:31:11Z</time>
      </trkpt>
      <trkpt lat="43.76226" lon="6.92622">
        <ele>1208.51</ele>
        <time>2011-09-06T14:31:12Z</time>
      </trkpt>
      <trkpt lat="43.76226" lon="6.92622">
        <ele>1204.67</ele>
        <time>2011-09-06T14:31:13Z</time>
      </trkpt>
      <trkpt lat="43.76226" lon="6.92622">
        <ele>1209</ele>
        <time>2011-09-06T14:31:15Z</time>
      </trkpt>
      <trkpt lat="43.76226" lon="6.92622">
        <ele>1204.67</ele>
        <time>2011-09-06T14:31:16Z</time>
      </trkpt>
      <trkpt lat="43.76226" lon="6.92622">
        <ele>1208.51</ele>
        <time>2011-09-06T14:31:22Z</time>
      </trkpt>
      <trkpt lat="43.76226" lon="6.92622">
        <ele>1203.23</ele>
        <time>2011-09-06T14:31:23Z</time>
      </trkpt>
      <trkpt lat="43.76226" lon="6.92622">
        <ele>1207.55</ele>
        <time>2011-09-06T14:31:24Z</time>
      </trkpt>
      <trkpt lat="43.76226" lon="6.92622">
        <ele>1204.19</ele>
        <time>2011-09-06T14:31:25Z</time>
      </trkpt>
      <trkpt lat="43.76226" lon="6.92622">
        <ele>1208.51</ele>
        <time>2011-09-06T14:31:29Z</time>
      </trkpt>
      <trkpt lat="43.76226" lon="6.92622">
        <ele>1202.75</ele>
        <time>2011-09-06T14:31:30Z</time>
      </trkpt>
      <trkpt lat="43.76226" lon="6.92622">
        <ele>1206.11</ele>
        <time>2011-09-06T14:31:31Z</time>
      </trkpt>
      <trkpt lat="43.76227" lon="6.92621">
        <ele>1202.75</ele>
        <time>2011-09-06T14:31:35Z</time>
      </trkpt>
      <trkpt lat="43.76227" lon="6.92621">
        <ele>1208.51</ele>
        <time>2011-09-06T14:31:36Z</time>
      </trkpt>
      <trkpt lat="43.76227" lon="6.92621">
        <ele>1204.19</ele>
        <time>2011-09-06T14:31:37Z</time>
      </trkpt>
      <trkpt lat="43.76227" lon="6.92621">
        <ele>1207.55</ele>
        <time>2011-09-06T14:31:38Z</time>
      </trkpt>
      <trkpt lat="43.76227" lon="6.92621">
        <ele>1204.19</ele>
        <time>2011-09-06T14:31:40Z</time>
      </trkpt>
      <trkpt lat="43.76226" lon="6.92622">
        <ele>1207.55</ele>
        <time>2011-09-06T14:31:43Z</time>
      </trkpt>
      <trkpt lat="43.76226" lon="6.92622">
        <ele>1203.23</ele>
        <time>2011-09-06T14:31:44Z</time>
      </trkpt>
      <trkpt lat="43.76226" lon="6.92623">
        <ele>1207.07</ele>
        <time>2011-09-06T14:31:45Z</time>
      </trkpt>
      <trkpt lat="43.76226" lon="6.92623">
        <ele>1203.23</ele>
        <time>2011-09-06T14:31:46Z</time>
      </trkpt>
      <trkpt lat="43.76226" lon="6.92624">
        <ele>1207.07</ele>
        <time>2011-09-06T14:31:47Z</time>
      </trkpt>
      <trkpt lat="43.76226" lon="6.92625">
        <ele>1202.75</ele>
        <time>2011-09-06T14:31:49Z</time>
      </trkpt>
      <trkpt lat="43.76226" lon="6.92625">
        <ele>1207.07</ele>
        <time>2011-09-06T14:31:50Z</time>
      </trkpt>
      <trkpt lat="43.76225" lon="6.92626">
        <ele>1203.23</ele>
        <time>2011-09-06T14:31:52Z</time>
      </trkpt>
      <trkpt lat="43.76226" lon="6.92623">
        <ele>1206.59</ele>
        <time>2011-09-06T14:31:53Z</time>
      </trkpt>
      <trkpt lat="43.76225" lon="6.92621">
        <ele>1203.71</ele>
        <time>2011-09-06T14:31:58Z</time>
      </trkpt>
      <trkpt lat="43.76225" lon="6.92621">
        <ele>1207.55</ele>
        <time>2011-09-06T14:32:00Z</time>
      </trkpt>
      <trkpt lat="43.76225" lon="6.92621">
        <ele>1207.07</ele>
        <time>2011-09-06T14:32:01Z</time>
      </trkpt>
      <trkpt lat="43.76225" lon="6.92621">
        <ele>1203.23</ele>
        <time>2011-09-06T14:32:02Z</time>
      </trkpt>
      <trkpt lat="43.76225" lon="6.92621">
        <ele>1207.07</ele>
        <time>2011-09-06T14:32:03Z</time>
      </trkpt>
      <trkpt lat="43.76225" lon="6.92621">
        <ele>1206.11</ele>
        <time>2011-09-06T14:32:08Z</time>
      </trkpt>
      <trkpt lat="43.76225" lon="6.92621">
        <ele>1202.75</ele>
        <time>2011-09-06T14:32:09Z</time>
      </trkpt>
      <trkpt lat="43.76225" lon="6.92621">
        <ele>1203.71</ele>
        <time>2011-09-06T14:32:10Z</time>
      </trkpt>
      <trkpt lat="43.76225" lon="6.92621">
        <ele>1208.51</ele>
        <time>2011-09-06T14:32:11Z</time>
      </trkpt>
      <trkpt lat="43.76225" lon="6.92621">
        <ele>1203.71</ele>
        <time>2011-09-06T14:32:12Z</time>
      </trkpt>
      <trkpt lat="43.76225" lon="6.92621">
        <ele>1208.51</ele>
        <time>2011-09-06T14:32:17Z</time>
      </trkpt>
      <trkpt lat="43.76225" lon="6.92621">
        <ele>1205.15</ele>
        <time>2011-09-06T14:32:18Z</time>
      </trkpt>
      <trkpt lat="43.76225" lon="6.92621">
        <ele>1207.55</ele>
        <time>2011-09-06T14:32:21Z</time>
      </trkpt>
      <trkpt lat="43.76225" lon="6.92621">
        <ele>1204.19</ele>
        <time>2011-09-06T14:32:22Z</time>
      </trkpt>
      <trkpt lat="43.76225" lon="6.92621">
        <ele>1208.51</ele>
        <time>2011-09-06T14:32:24Z</time>
      </trkpt>
      <trkpt lat="43.76225" lon="6.92621">
        <ele>1205.15</ele>
        <time>2011-09-06T14:32:25Z</time>
      </trkpt>
      <trkpt lat="43.76225" lon="6.92621">
        <ele>1208.51</ele>
        <time>2011-09-06T14:32:27Z</time>
      </trkpt>
      <trkpt lat="43.76225" lon="6.92621">
        <ele>1207.07</ele>
        <time>2011-09-06T14:32:28Z</time>
      </trkpt>
      <trkpt lat="43.76225" lon="6.92621">
        <ele>1203.71</ele>
        <time>2011-09-06T14:32:29Z</time>
      </trkpt>
      <trkpt lat="43.76225" lon="6.92621">
        <ele>1203.23</ele>
        <time>2011-09-06T14:32:30Z</time>
      </trkpt>
      <trkpt lat="43.76225" lon="6.92621">
        <ele>1208.03</ele>
        <time>2011-09-06T14:32:31Z</time>
      </trkpt>
      <trkpt lat="43.76225" lon="6.92621">
        <ele>1206.59</ele>
        <time>2011-09-06T14:32:32Z</time>
      </trkpt>
      <trkpt lat="43.76225" lon="6.92621">
        <ele>1202.75</ele>
        <time>2011-09-06T14:32:33Z</time>
      </trkpt>
      <trkpt lat="43.76225" lon="6.92621">
        <ele>1205.63</ele>
        <time>2011-09-06T14:32:34Z</time>
      </trkpt>
      <trkpt lat="43.76226" lon="6.92621">
        <ele>1208.51</ele>
        <time>2011-09-06T14:32:38Z</time>
      </trkpt>
      <trkpt lat="43.76226" lon="6.92621">
        <ele>1204.67</ele>
        <time>2011-09-06T14:32:39Z</time>
      </trkpt>
      <trkpt lat="43.76227" lon="6.9262">
        <ele>1208.51</ele>
        <time>2011-09-06T14:32:45Z</time>
      </trkpt>
      <trkpt lat="43.76227" lon="6.9262">
        <ele>1203.23</ele>
        <time>2011-09-06T14:32:46Z</time>
      </trkpt>
      <trkpt lat="43.76232" lon="6.92618">
        <ele>1209.48</ele>
        <time>2011-09-06T14:32:51Z</time>
      </trkpt>
      <trkpt lat="43.76232" lon="6.92618">
        <ele>1205.63</ele>
        <time>2011-09-06T14:32:52Z</time>
      </trkpt>
      <trkpt lat="43.76232" lon="6.92618">
        <ele>1207.55</ele>
        <time>2011-09-06T14:32:55Z</time>
      </trkpt>
      <trkpt lat="43.76232" lon="6.92618">
        <ele>1203.23</ele>
        <time>2011-09-06T14:32:56Z</time>
      </trkpt>
      <trkpt lat="43.76232" lon="6.92618">
        <ele>1207.55</ele>
        <time>2011-09-06T14:32:57Z</time>
      </trkpt>
      <trkpt lat="43.76232" lon="6.92618">
        <ele>1203.23</ele>
        <time>2011-09-06T14:32:59Z</time>
      </trkpt>
      <trkpt lat="43.76232" lon="6.92618">
        <ele>1205.63</ele>
        <time>2011-09-06T14:33:00Z</time>
      </trkpt>
      <trkpt lat="43.76232" lon="6.92618">
        <ele>1209.48</ele>
        <time>2011-09-06T14:33:04Z</time>
      </trkpt>
      <trkpt lat="43.76232" lon="6.92618">
        <ele>1205.15</ele>
        <time>2011-09-06T14:33:05Z</time>
      </trkpt>
      <trkpt lat="43.76232" lon="6.92618">
        <ele>1209</ele>
        <time>2011-09-06T14:33:07Z</time>
      </trkpt>
      <trkpt lat="43.76232" lon="6.92618">
        <ele>1207.55</ele>
        <time>2011-09-06T14:33:08Z</time>
      </trkpt>
      <trkpt lat="43.76232" lon="6.92618">
        <ele>1203.23</ele>
        <time>2011-09-06T14:33:09Z</time>
      </trkpt>
      <trkpt lat="43.76232" lon="6.92618">
        <ele>1206.11</ele>
        <time>2011-09-06T14:33:10Z</time>
      </trkpt>
      <trkpt lat="43.76232" lon="6.92618">
        <ele>1209.96</ele>
        <time>2011-09-06T14:33:11Z</time>
      </trkpt>
      <trkpt lat="43.76232" lon="6.92618">
        <ele>1205.15</ele>
        <time>2011-09-06T14:33:12Z</time>
      </trkpt>
      <trkpt lat="43.76232" lon="6.92618">
        <ele>1209.48</ele>
        <time>2011-09-06T14:33:14Z</time>
      </trkpt>
      <trkpt lat="43.76232" lon="6.92618">
        <ele>1207.55</ele>
        <time>2011-09-06T14:33:15Z</time>
      </trkpt>
      <trkpt lat="43.76232" lon="6.92618">
        <ele>1203.23</ele>
        <time>2011-09-06T14:33:16Z</time>
      </trkpt>
      <trkpt lat="43.76232" lon="6.92618">
        <ele>1205.15</ele>
        <time>2011-09-06T14:33:17Z</time>
      </trkpt>
      <trkpt lat="43.76232" lon="6.92618">
        <ele>1209</ele>
        <time>2011-09-06T14:33:18Z</time>
      </trkpt>
      <trkpt lat="43.76232" lon="6.92618">
        <ele>1204.67</ele>
        <time>2011-09-06T14:33:19Z</time>
      </trkpt>
      <trkpt lat="43.76232" lon="6.92618">
        <ele>1208.03</ele>
        <time>2011-09-06T14:33:21Z</time>
      </trkpt>
      <trkpt lat="43.76232" lon="6.92618">
        <ele>1208.03</ele>
        <time>2011-09-06T14:33:22Z</time>
      </trkpt>
      <trkpt lat="43.76232" lon="6.92618">
        <ele>1204.67</ele>
        <time>2011-09-06T14:33:23Z</time>
      </trkpt>
      <trkpt lat="43.76232" lon="6.92618">
        <ele>1204.19</ele>
        <time>2011-09-06T14:33:24Z</time>
      </trkpt>
      <trkpt lat="43.76232" lon="6.92618">
        <ele>1207.55</ele>
        <time>2011-09-06T14:33:25Z</time>
      </trkpt>
      <trkpt lat="43.76232" lon="6.92618">
        <ele>1204.19</ele>
        <time>2011-09-06T14:33:26Z</time>
      </trkpt>
      <trkpt lat="43.76232" lon="6.92618">
        <ele>1208.51</ele>
        <time>2011-09-06T14:33:28Z</time>
      </trkpt>
      <trkpt lat="43.76232" lon="6.92618">
        <ele>1203.71</ele>
        <time>2011-09-06T14:33:29Z</time>
      </trkpt>
      <trkpt lat="43.76232" lon="6.92618">
        <ele>1209</ele>
        <time>2011-09-06T14:33:31Z</time>
      </trkpt>
      <trkpt lat="43.76231" lon="6.92619">
        <ele>1203.71</ele>
        <time>2011-09-06T14:33:32Z</time>
      </trkpt>
      <trkpt lat="43.76231" lon="6.92619">
        <ele>1208.03</ele>
        <time>2011-09-06T14:33:34Z</time>
      </trkpt>
      <trkpt lat="43.76231" lon="6.92619">
        <ele>1204.19</ele>
        <time>2011-09-06T14:33:35Z</time>
      </trkpt>
      <trkpt lat="43.76231" lon="6.92619">
        <ele>1204.19</ele>
        <time>2011-09-06T14:33:36Z</time>
      </trkpt>
      <trkpt lat="43.76231" lon="6.92619">
        <ele>1208.03</ele>
        <time>2011-09-06T14:33:37Z</time>
      </trkpt>
      <trkpt lat="43.76231" lon="6.92619">
        <ele>1203.23</ele>
        <time>2011-09-06T14:33:38Z</time>
      </trkpt>
      <trkpt lat="43.76231" lon="6.92619">
        <ele>1207.55</ele>
        <time>2011-09-06T14:33:39Z</time>
      </trkpt>
      <trkpt lat="43.76231" lon="6.92619">
        <ele>1204.19</ele>
        <time>2011-09-06T14:33:42Z</time>
      </trkpt>
      <trkpt lat="43.76231" lon="6.92619">
        <ele>1209</ele>
        <time>2011-09-06T14:33:43Z</time>
      </trkpt>
      <trkpt lat="43.76231" lon="6.92619">
        <ele>1205.15</ele>
        <time>2011-09-06T14:33:44Z</time>
      </trkpt>
      <trkpt lat="43.76231" lon="6.92619">
        <ele>1209.48</ele>
        <time>2011-09-06T14:33:49Z</time>
      </trkpt>
      <trkpt lat="43.76231" lon="6.92619">
        <ele>1204.67</ele>
        <time>2011-09-06T14:33:50Z</time>
      </trkpt>
      <trkpt lat="43.76231" lon="6.92617">
        <ele>1208.51</ele>
        <time>2011-09-06T14:33:52Z</time>
      </trkpt>
      <trkpt lat="43.76231" lon="6.92616">
        <ele>1206.59</ele>
        <time>2011-09-06T14:33:53Z</time>
      </trkpt>
      <trkpt lat="43.76231" lon="6.92615">
        <ele>1208.03</ele>
        <time>2011-09-06T14:33:55Z</time>
      </trkpt>
      <trkpt lat="43.76231" lon="6.92612">
        <ele>1202.75</ele>
        <time>2011-09-06T14:33:57Z</time>
      </trkpt>
      <trkpt lat="43.76231" lon="6.92612">
        <ele>1204.19</ele>
        <time>2011-09-06T14:33:58Z</time>
      </trkpt>
      <trkpt lat="43.76231" lon="6.92612">
        <ele>1208.51</ele>
        <time>2011-09-06T14:33:59Z</time>
      </trkpt>
      <trkpt lat="43.76231" lon="6.92612">
        <ele>1208.03</ele>
        <time>2011-09-06T14:34:00Z</time>
      </trkpt>
      <trkpt lat="43.76231" lon="6.92612">
        <ele>1203.23</ele>
        <time>2011-09-06T14:34:01Z</time>
      </trkpt>
      <trkpt lat="43.76231" lon="6.92612">
        <ele>1208.51</ele>
        <time>2011-09-06T14:34:02Z</time>
      </trkpt>
      <trkpt lat="43.76231" lon="6.92612">
        <ele>1203.71</ele>
        <time>2011-09-06T14:34:04Z</time>
      </trkpt>
      <trkpt lat="43.76231" lon="6.92612">
        <ele>1206.59</ele>
        <time>2011-09-06T14:34:05Z</time>
      </trkpt>
      <trkpt lat="43.76231" lon="6.92612">
        <ele>1203.23</ele>
        <time>2011-09-06T14:34:07Z</time>
      </trkpt>
      <trkpt lat="43.76231" lon="6.92612">
        <ele>1204.67</ele>
        <time>2011-09-06T14:34:08Z</time>
      </trkpt>
      <trkpt lat="43.76231" lon="6.92612">
        <ele>1208.51</ele>
        <time>2011-09-06T14:34:09Z</time>
      </trkpt>
      <trkpt lat="43.76231" lon="6.92612">
        <ele>1205.63</ele>
        <time>2011-09-06T14:34:10Z</time>
      </trkpt>
      <trkpt lat="43.76231" lon="6.92612">
        <ele>1206.59</ele>
        <time>2011-09-06T14:34:21Z</time>
      </trkpt>
      <trkpt lat="43.76231" lon="6.92612">
        <ele>1202.75</ele>
        <time>2011-09-06T14:34:22Z</time>
      </trkpt>
      <trkpt lat="43.76231" lon="6.92612">
        <ele>1206.11</ele>
        <time>2011-09-06T14:34:23Z</time>
      </trkpt>
      <trkpt lat="43.76231" lon="6.92612">
        <ele>1209</ele>
        <time>2011-09-06T14:34:30Z</time>
      </trkpt>
      <trkpt lat="43.76231" lon="6.92612">
        <ele>1206.59</ele>
        <time>2011-09-06T14:34:31Z</time>
      </trkpt>
      <trkpt lat="43.76231" lon="6.92612">
        <ele>1202.75</ele>
        <time>2011-09-06T14:34:32Z</time>
      </trkpt>
      <trkpt lat="43.76231" lon="6.92612">
        <ele>1207.07</ele>
        <time>2011-09-06T14:34:33Z</time>
      </trkpt>
      <trkpt lat="43.76231" lon="6.92612">
        <ele>1203.23</ele>
        <time>2011-09-06T14:34:36Z</time>
      </trkpt>
      <trkpt lat="43.76231" lon="6.92612">
        <ele>1206.11</ele>
        <time>2011-09-06T14:34:37Z</time>
      </trkpt>
      <trkpt lat="43.76231" lon="6.92612">
        <ele>1209.48</ele>
        <time>2011-09-06T14:34:38Z</time>
      </trkpt>
      <trkpt lat="43.76231" lon="6.92612">
        <ele>1204.19</ele>
        <time>2011-09-06T14:34:39Z</time>
      </trkpt>
      <trkpt lat="43.76231" lon="6.92612">
        <ele>1203.71</ele>
        <time>2011-09-06T14:34:40Z</time>
      </trkpt>
      <trkpt lat="43.76231" lon="6.92612">
        <ele>1208.03</ele>
        <time>2011-09-06T14:34:41Z</time>
      </trkpt>
      <trkpt lat="43.76231" lon="6.92612">
        <ele>1203.71</ele>
        <time>2011-09-06T14:34:42Z</time>
      </trkpt>
      <trkpt lat="43.76231" lon="6.92612">
        <ele>1207.07</ele>
        <time>2011-09-06T14:34:43Z</time>
      </trkpt>
      <trkpt lat="43.76231" lon="6.92612">
        <ele>1203.71</ele>
        <time>2011-09-06T14:34:46Z</time>
      </trkpt>
      <trkpt lat="43.76231" lon="6.92612">
        <ele>1206.59</ele>
        <time>2011-09-06T14:34:47Z</time>
      </trkpt>
      <trkpt lat="43.76231" lon="6.92612">
        <ele>1203.23</ele>
        <time>2011-09-06T14:34:49Z</time>
      </trkpt>
      <trkpt lat="43.76231" lon="6.92612">
        <ele>1204.19</ele>
        <time>2011-09-06T14:34:50Z</time>
      </trkpt>
      <trkpt lat="43.76231" lon="6.92612">
        <ele>1209</ele>
        <time>2011-09-06T14:34:51Z</time>
      </trkpt>
      <trkpt lat="43.76231" lon="6.92612">
        <ele>1205.15</ele>
        <time>2011-09-06T14:34:52Z</time>
      </trkpt>
      <trkpt lat="43.76231" lon="6.92612">
        <ele>1208.51</ele>
        <time>2011-09-06T14:34:54Z</time>
      </trkpt>
      <trkpt lat="43.76231" lon="6.92612">
        <ele>1207.55</ele>
        <time>2011-09-06T14:34:55Z</time>
      </trkpt>
      <trkpt lat="43.76231" lon="6.92612">
        <ele>1203.23</ele>
        <time>2011-09-06T14:34:56Z</time>
      </trkpt>
      <trkpt lat="43.76231" lon="6.92612">
        <ele>1206.59</ele>
        <time>2011-09-06T14:34:57Z</time>
      </trkpt>
      <trkpt lat="43.76231" lon="6.92612">
        <ele>1205.15</ele>
        <time>2011-09-06T14:35:00Z</time>
      </trkpt>
      <trkpt lat="43.76231" lon="6.92612">
        <ele>1209</ele>
        <time>2011-09-06T14:35:01Z</time>
      </trkpt>
      <trkpt lat="43.76231" lon="6.92612">
        <ele>1204.19</ele>
        <time>2011-09-06T14:35:02Z</time>
      </trkpt>
      <trkpt lat="43.76231" lon="6.92612">
        <ele>1209</ele>
        <time>2011-09-06T14:35:04Z</time>
      </trkpt>
      <trkpt lat="43.76231" lon="6.92612">
        <ele>1203.71</ele>
        <time>2011-09-06T14:35:05Z</time>
      </trkpt>
      <trkpt lat="43.76231" lon="6.92612">
        <ele>1204.19</ele>
        <time>2011-09-06T14:35:06Z</time>
      </trkpt>
      <trkpt lat="43.76231" lon="6.92612">
        <ele>1208.03</ele>
        <time>2011-09-06T14:35:07Z</time>
      </trkpt>
      <trkpt lat="43.76231" lon="6.92612">
        <ele>1207.07</ele>
        <time>2011-09-06T14:35:08Z</time>
      </trkpt>
      <trkpt lat="43.76231" lon="6.92612">
        <ele>1203.71</ele>
        <time>2011-09-06T14:35:09Z</time>
      </trkpt>
      <trkpt lat="43.76231" lon="6.92612">
        <ele>1207.07</ele>
        <time>2011-09-06T14:35:10Z</time>
      </trkpt>
      <trkpt lat="43.76231" lon="6.92612">
        <ele>1203.23</ele>
        <time>2011-09-06T14:35:13Z</time>
      </trkpt>
      <trkpt lat="43.76231" lon="6.92612">
        <ele>1207.55</ele>
        <time>2011-09-06T14:35:14Z</time>
      </trkpt>
      <trkpt lat="43.76231" lon="6.92612">
        <ele>1204.19</ele>
        <time>2011-09-06T14:35:16Z</time>
      </trkpt>
      <trkpt lat="43.76231" lon="6.92612">
        <ele>1204.67</ele>
        <time>2011-09-06T14:35:17Z</time>
      </trkpt>
      <trkpt lat="43.76231" lon="6.92612">
        <ele>1208.51</ele>
        <time>2011-09-06T14:35:21Z</time>
      </trkpt>
      <trkpt lat="43.76231" lon="6.92612">
        <ele>1203.23</ele>
        <time>2011-09-06T14:35:22Z</time>
      </trkpt>
      <trkpt lat="43.76231" lon="6.92612">
        <ele>1208.03</ele>
        <time>2011-09-06T14:35:23Z</time>
      </trkpt>
      <trkpt lat="43.76231" lon="6.92612">
        <ele>1205.15</ele>
        <time>2011-09-06T14:35:24Z</time>
      </trkpt>
      <trkpt lat="43.76231" lon="6.92612">
        <ele>1209</ele>
        <time>2011-09-06T14:35:26Z</time>
      </trkpt>
      <trkpt lat="43.76231" lon="6.92612">
        <ele>1207.07</ele>
        <time>2011-09-06T14:35:27Z</time>
      </trkpt>
      <trkpt lat="43.76231" lon="6.92612">
        <ele>1203.23</ele>
        <time>2011-09-06T14:35:28Z</time>
      </trkpt>
      <trkpt lat="43.76231" lon="6.92612">
        <ele>1208.51</ele>
        <time>2011-09-06T14:35:29Z</time>
      </trkpt>
      <trkpt lat="43.76231" lon="6.92612">
        <ele>1205.63</ele>
        <time>2011-09-06T14:35:30Z</time>
      </trkpt>
      <trkpt lat="43.76231" lon="6.92612">
        <ele>1209.96</ele>
        <time>2011-09-06T14:35:32Z</time>
      </trkpt>
      <trkpt lat="43.76231" lon="6.92612">
        <ele>1205.63</ele>
        <time>2011-09-06T14:35:33Z</time>
      </trkpt>
      <trkpt lat="43.76231" lon="6.92612">
        <ele>1209.48</ele>
        <time>2011-09-06T14:35:36Z</time>
      </trkpt>
      <trkpt lat="43.76231" lon="6.92612">
        <ele>1205.15</ele>
        <time>2011-09-06T14:35:37Z</time>
      </trkpt>
      <trkpt lat="43.76231" lon="6.92612">
        <ele>1209</ele>
        <time>2011-09-06T14:35:39Z</time>
      </trkpt>
      <trkpt lat="43.76231" lon="6.92612">
        <ele>1208.03</ele>
        <time>2011-09-06T14:35:40Z</time>
      </trkpt>
      <trkpt lat="43.76231" lon="6.92612">
        <ele>1203.71</ele>
        <time>2011-09-06T14:35:41Z</time>
      </trkpt>
      <trkpt lat="43.76231" lon="6.92612">
        <ele>1208.51</ele>
        <time>2011-09-06T14:35:42Z</time>
      </trkpt>
      <trkpt lat="43.76231" lon="6.92612">
        <ele>1204.19</ele>
        <time>2011-09-06T14:35:44Z</time>
      </trkpt>
      <trkpt lat="43.76231" lon="6.92612">
        <ele>1208.03</ele>
        <time>2011-09-06T14:35:46Z</time>
      </trkpt>
      <trkpt lat="43.76231" lon="6.92612">
        <ele>1208.03</ele>
        <time>2011-09-06T14:35:47Z</time>
      </trkpt>
      <trkpt lat="43.76231" lon="6.92612">
        <ele>1203.71</ele>
        <time>2011-09-06T14:35:48Z</time>
      </trkpt>
      <trkpt lat="43.76231" lon="6.92612">
        <ele>1206.11</ele>
        <time>2011-09-06T14:35:49Z</time>
      </trkpt>
      <trkpt lat="43.76231" lon="6.92612">
        <ele>1209.48</ele>
        <time>2011-09-06T14:35:50Z</time>
      </trkpt>
      <trkpt lat="43.76231" lon="6.92612">
        <ele>1206.11</ele>
        <time>2011-09-06T14:35:51Z</time>
      </trkpt>
      <trkpt lat="43.76231" lon="6.92612">
        <ele>1209.48</ele>
        <time>2011-09-06T14:36:01Z</time>
      </trkpt>
      <trkpt lat="43.76231" lon="6.92612">
        <ele>1204.67</ele>
        <time>2011-09-06T14:36:02Z</time>
      </trkpt>
      <trkpt lat="43.76231" lon="6.92612">
        <ele>1209</ele>
        <time>2011-09-06T14:36:06Z</time>
      </trkpt>
      <trkpt lat="43.76231" lon="6.92612">
        <ele>1205.15</ele>
        <time>2011-09-06T14:36:07Z</time>
      </trkpt>
      <trkpt lat="43.76231" lon="6.92612">
        <ele>1209</ele>
        <time>2011-09-06T14:36:09Z</time>
      </trkpt>
      <trkpt lat="43.76231" lon="6.92612">
        <ele>1203.23</ele>
        <time>2011-09-06T14:36:11Z</time>
      </trkpt>
      <trkpt lat="43.76231" lon="6.92612">
        <ele>1207.07</ele>
        <time>2011-09-06T14:36:12Z</time>
      </trkpt>
      <trkpt lat="43.76231" lon="6.92612">
        <ele>1204.19</ele>
        <time>2011-09-06T14:36:14Z</time>
      </trkpt>
      <trkpt lat="43.76231" lon="6.92612">
        <ele>1209</ele>
        <time>2011-09-06T14:36:17Z</time>
      </trkpt>
      <trkpt lat="43.76231" lon="6.92612">
        <ele>1205.15</ele>
        <time>2011-09-06T14:36:18Z</time>
      </trkpt>
      <trkpt lat="43.76231" lon="6.92612">
        <ele>1209.48</ele>
        <time>2011-09-06T14:36:20Z</time>
      </trkpt>
      <trkpt lat="43.76231" lon="6.92612">
        <ele>1203.71</ele>
        <time>2011-09-06T14:36:21Z</time>
      </trkpt>
      <trkpt lat="43.76231" lon="6.92612">
        <ele>1207.07</ele>
        <time>2011-09-06T14:36:22Z</time>
      </trkpt>
      <trkpt lat="43.76231" lon="6.92612">
        <ele>1203.23</ele>
        <time>2011-09-06T14:36:24Z</time>
      </trkpt>
      <trkpt lat="43.76231" lon="6.92612">
        <ele>1205.15</ele>
        <time>2011-09-06T14:36:25Z</time>
      </trkpt>
      <trkpt lat="43.76231" lon="6.92612">
        <ele>1208.51</ele>
        <time>2011-09-06T14:36:26Z</time>
      </trkpt>
      <trkpt lat="43.76231" lon="6.92612">
        <ele>1204.19</ele>
        <time>2011-09-06T14:36:27Z</time>
      </trkpt>
      <trkpt lat="43.76231" lon="6.92612">
        <ele>1208.51</ele>
        <time>2011-09-06T14:36:31Z</time>
      </trkpt>
      <trkpt lat="43.76231" lon="6.92612">
        <ele>1205.15</ele>
        <time>2011-09-06T14:36:32Z</time>
      </trkpt>
      <trkpt lat="43.76231" lon="6.92612">
        <ele>1208.51</ele>
        <time>2011-09-06T14:36:39Z</time>
      </trkpt>
      <trkpt lat="43.76231" lon="6.92612">
        <ele>1203.71</ele>
        <time>2011-09-06T14:36:42Z</time>
      </trkpt>
      <trkpt lat="43.76231" lon="6.92612">
        <ele>1208.03</ele>
        <time>2011-09-06T14:36:43Z</time>
      </trkpt>
      <trkpt lat="43.76231" lon="6.92612">
        <ele>1203.23</ele>
        <time>2011-09-06T14:36:45Z</time>
      </trkpt>
      <trkpt lat="43.76231" lon="6.92612">
        <ele>1209</ele>
        <time>2011-09-06T14:36:46Z</time>
      </trkpt>
      <trkpt lat="43.76231" lon="6.92612">
        <ele>1203.71</ele>
        <time>2011-09-06T14:36:47Z</time>
      </trkpt>
      <trkpt lat="43.76231" lon="6.92612">
        <ele>1207.55</ele>
        <time>2011-09-06T14:36:48Z</time>
      </trkpt>
      <trkpt lat="43.76231" lon="6.92612">
        <ele>1203.71</ele>
        <time>2011-09-06T14:36:52Z</time>
      </trkpt>
      <trkpt lat="43.76231" lon="6.92612">
        <ele>1207.55</ele>
        <time>2011-09-06T14:36:53Z</time>
      </trkpt>
      <trkpt lat="43.76231" lon="6.92612">
        <ele>1203.71</ele>
        <time>2011-09-06T14:37:00Z</time>
      </trkpt>
      <trkpt lat="43.76231" lon="6.92612">
        <ele>1208.51</ele>
        <time>2011-09-06T14:37:01Z</time>
      </trkpt>
      <trkpt lat="43.76231" lon="6.92612">
        <ele>1205.15</ele>
        <time>2011-09-06T14:37:03Z</time>
      </trkpt>
      <trkpt lat="43.76231" lon="6.92612">
        <ele>1209.48</ele>
        <time>2011-09-06T14:37:04Z</time>
      </trkpt>
      <trkpt lat="43.76231" lon="6.92612">
        <ele>1205.63</ele>
        <time>2011-09-06T14:37:05Z</time>
      </trkpt>
      <trkpt lat="43.76231" lon="6.92612">
        <ele>1209</ele>
        <time>2011-09-06T14:37:07Z</time>
      </trkpt>
      <trkpt lat="43.76231" lon="6.92612">
        <ele>1205.15</ele>
        <time>2011-09-06T14:37:09Z</time>
      </trkpt>
      <trkpt lat="43.76231" lon="6.92612">
        <ele>1209</ele>
        <time>2011-09-06T14:37:10Z</time>
      </trkpt>
      <trkpt lat="43.76231" lon="6.92612">
        <ele>1203.23</ele>
        <time>2011-09-06T14:37:11Z</time>
      </trkpt>
      <trkpt lat="43.76231" lon="6.92612">
        <ele>1208.03</ele>
        <time>2011-09-06T14:37:12Z</time>
      </trkpt>
      <trkpt lat="43.76231" lon="6.92612">
        <ele>1203.71</ele>
        <time>2011-09-06T14:37:14Z</time>
      </trkpt>
      <trkpt lat="43.76231" lon="6.92612">
        <ele>1209.48</ele>
        <time>2011-09-06T14:37:15Z</time>
      </trkpt>
      <trkpt lat="43.76231" lon="6.92612">
        <ele>1203.71</ele>
        <time>2011-09-06T14:37:16Z</time>
      </trkpt>
      <trkpt lat="43.76231" lon="6.92612">
        <ele>1207.55</ele>
        <time>2011-09-06T14:37:17Z</time>
      </trkpt>
      <trkpt lat="43.76231" lon="6.92612">
        <ele>1204.19</ele>
        <time>2011-09-06T14:37:19Z</time>
      </trkpt>
      <trkpt lat="43.76231" lon="6.92612">
        <ele>1209</ele>
        <time>2011-09-06T14:37:20Z</time>
      </trkpt>
      <trkpt lat="43.76231" lon="6.92612">
        <ele>1203.71</ele>
        <time>2011-09-06T14:37:24Z</time>
      </trkpt>
      <trkpt lat="43.76231" lon="6.92612">
        <ele>1208.03</ele>
        <time>2011-09-06T14:37:25Z</time>
      </trkpt>
      <trkpt lat="43.7623" lon="6.92612">
        <ele>1203.71</ele>
        <time>2011-09-06T14:37:27Z</time>
      </trkpt>
      <trkpt lat="43.7623" lon="6.92612">
        <ele>1207.55</ele>
        <time>2011-09-06T14:37:28Z</time>
      </trkpt>
      <trkpt lat="43.7623" lon="6.92612">
        <ele>1203.71</ele>
        <time>2011-09-06T14:37:30Z</time>
      </trkpt>
      <trkpt lat="43.7623" lon="6.92612">
        <ele>1205.15</ele>
        <time>2011-09-06T14:37:31Z</time>
      </trkpt>
      <trkpt lat="43.7623" lon="6.92612">
        <ele>1209</ele>
        <time>2011-09-06T14:37:32Z</time>
      </trkpt>
      <trkpt lat="43.7623" lon="6.92612">
        <ele>1204.67</ele>
        <time>2011-09-06T14:37:33Z</time>
      </trkpt>
      <trkpt lat="43.76231" lon="6.92612">
        <ele>1209</ele>
        <time>2011-09-06T14:37:35Z</time>
      </trkpt>
      <trkpt lat="43.76231" lon="6.92612">
        <ele>1203.71</ele>
        <time>2011-09-06T14:37:36Z</time>
      </trkpt>
      <trkpt lat="43.76231" lon="6.92612">
        <ele>1207.55</ele>
        <time>2011-09-06T14:37:37Z</time>
      </trkpt>
      <trkpt lat="43.76231" lon="6.92612">
        <ele>1203.23</ele>
        <time>2011-09-06T14:37:39Z</time>
      </trkpt>
      <trkpt lat="43.76231" lon="6.92612">
        <ele>1207.07</ele>
        <time>2011-09-06T14:37:40Z</time>
      </trkpt>
      <trkpt lat="43.76231" lon="6.92612">
        <ele>1204.19</ele>
        <time>2011-09-06T14:37:42Z</time>
      </trkpt>
      <trkpt lat="43.76231" lon="6.92612">
        <ele>1205.63</ele>
        <time>2011-09-06T14:37:43Z</time>
      </trkpt>
      <trkpt lat="43.76231" lon="6.92612">
        <ele>1209</ele>
        <time>2011-09-06T14:37:44Z</time>
      </trkpt>
      <trkpt lat="43.76231" lon="6.92612">
        <ele>1204.19</ele>
        <time>2011-09-06T14:37:45Z</time>
      </trkpt>
      <trkpt lat="43.76231" lon="6.92612">
        <ele>1207.55</ele>
        <time>2011-09-06T14:37:46Z</time>
      </trkpt>
      <trkpt lat="43.76231" lon="6.92612">
        <ele>1204.19</ele>
        <time>2011-09-06T14:37:48Z</time>
      </trkpt>
      <trkpt lat="43.76231" lon="6.92613">
        <ele>1209.48</ele>
        <time>2011-09-06T14:37:49Z</time>
      </trkpt>
      <trkpt lat="43.76231" lon="6.92613">
        <ele>1204.67</ele>
        <time>2011-09-06T14:37:51Z</time>
      </trkpt>
      <trkpt lat="43.76231" lon="6.92613">
        <ele>1206.11</ele>
        <time>2011-09-06T14:37:52Z</time>
      </trkpt>
      <trkpt lat="43.76231" lon="6.92613">
        <ele>1209.48</ele>
        <time>2011-09-06T14:37:53Z</time>
      </trkpt>
      <trkpt lat="43.76231" lon="6.92613">
        <ele>1205.63</ele>
        <time>2011-09-06T14:37:54Z</time>
      </trkpt>
      <trkpt lat="43.76231" lon="6.92613">
        <ele>1209.48</ele>
        <time>2011-09-06T14:38:02Z</time>
      </trkpt>
      <trkpt lat="43.76231" lon="6.92613">
        <ele>1205.63</ele>
        <time>2011-09-06T14:38:03Z</time>
      </trkpt>
      <trkpt lat="43.76231" lon="6.92613">
        <ele>1209</ele>
        <time>2011-09-06T14:38:06Z</time>
      </trkpt>
      <trkpt lat="43.76231" lon="6.92613">
        <ele>1205.15</ele>
        <time>2011-09-06T14:38:07Z</time>
      </trkpt>
      <trkpt lat="43.76231" lon="6.92613">
        <ele>1205.15</ele>
        <time>2011-09-06T14:38:08Z</time>
      </trkpt>
      <trkpt lat="43.76231" lon="6.92613">
        <ele>1208.51</ele>
        <time>2011-09-06T14:38:09Z</time>
      </trkpt>
      <trkpt lat="43.76231" lon="6.92613">
        <ele>1204.19</ele>
        <time>2011-09-06T14:38:10Z</time>
      </trkpt>
      <trkpt lat="43.76231" lon="6.92613">
        <ele>1208.51</ele>
        <time>2011-09-06T14:38:12Z</time>
      </trkpt>
      <trkpt lat="43.76231" lon="6.92613">
        <ele>1203.23</ele>
        <time>2011-09-06T14:38:13Z</time>
      </trkpt>
      <trkpt lat="43.76231" lon="6.92613">
        <ele>1208.51</ele>
        <time>2011-09-06T14:38:14Z</time>
      </trkpt>
      <trkpt lat="43.76231" lon="6.92613">
        <ele>1205.15</ele>
        <time>2011-09-06T14:38:16Z</time>
      </trkpt>
      <trkpt lat="43.76231" lon="6.92613">
        <ele>1206.11</ele>
        <time>2011-09-06T14:38:17Z</time>
      </trkpt>
      <trkpt lat="43.76231" lon="6.92612">
        <ele>1205.15</ele>
        <time>2011-09-06T14:38:31Z</time>
      </trkpt>
      <trkpt lat="43.76231" lon="6.92612">
        <ele>1209</ele>
        <time>2011-09-06T14:38:32Z</time>
      </trkpt>
      <trkpt lat="43.76231" lon="6.92612">
        <ele>1204.19</ele>
        <time>2011-09-06T14:38:33Z</time>
      </trkpt>
      <trkpt lat="43.76231" lon="6.92612">
        <ele>1207.55</ele>
        <time>2011-09-06T14:38:34Z</time>
      </trkpt>
      <trkpt lat="43.76231" lon="6.92612">
        <ele>1203.71</ele>
        <time>2011-09-06T14:38:36Z</time>
      </trkpt>
      <trkpt lat="43.76231" lon="6.92612">
        <ele>1208.51</ele>
        <time>2011-09-06T14:38:37Z</time>
      </trkpt>
      <trkpt lat="43.76231" lon="6.92612">
        <ele>1204.19</ele>
        <time>2011-09-06T14:38:38Z</time>
      </trkpt>
      <trkpt lat="43.76231" lon="6.92612">
        <ele>1208.03</ele>
        <time>2011-09-06T14:38:39Z</time>
      </trkpt>
      <trkpt lat="43.76231" lon="6.92612">
        <ele>1204.19</ele>
        <time>2011-09-06T14:38:41Z</time>
      </trkpt>
      <trkpt lat="43.76231" lon="6.92612">
        <ele>1207.55</ele>
        <time>2011-09-06T14:38:42Z</time>
      </trkpt>
      <trkpt lat="43.76231" lon="6.92612">
        <ele>1205.63</ele>
        <time>2011-09-06T14:38:45Z</time>
      </trkpt>
      <trkpt lat="43.76231" lon="6.92612">
        <ele>1208.03</ele>
        <time>2011-09-06T14:38:47Z</time>
      </trkpt>
      <trkpt lat="43.76231" lon="6.92612">
        <ele>1203.23</ele>
        <time>2011-09-06T14:38:48Z</time>
      </trkpt>
      <trkpt lat="43.76231" lon="6.92612">
        <ele>1209.48</ele>
        <time>2011-09-06T14:38:49Z</time>
      </trkpt>
      <trkpt lat="43.76231" lon="6.92612">
        <ele>1205.63</ele>
        <time>2011-09-06T14:38:50Z</time>
      </trkpt>
      <trkpt lat="43.76231" lon="6.92612">
        <ele>1209</ele>
        <time>2011-09-06T14:38:52Z</time>
      </trkpt>
      <trkpt lat="43.76231" lon="6.92612">
        <ele>1204.67</ele>
        <time>2011-09-06T14:38:54Z</time>
      </trkpt>
      <trkpt lat="43.76231" lon="6.92612">
        <ele>1209</ele>
        <time>2011-09-06T14:38:55Z</time>
      </trkpt>
      <trkpt lat="43.76231" lon="6.92612">
        <ele>1203.71</ele>
        <time>2011-09-06T14:38:57Z</time>
      </trkpt>
      <trkpt lat="43.76231" lon="6.92612">
        <ele>1207.55</ele>
        <time>2011-09-06T14:38:58Z</time>
      </trkpt>
      <trkpt lat="43.76231" lon="6.92612">
        <ele>1204.19</ele>
        <time>2011-09-06T14:39:00Z</time>
      </trkpt>
      <trkpt lat="43.76231" lon="6.92612">
        <ele>1208.51</ele>
        <time>2011-09-06T14:39:01Z</time>
      </trkpt>
      <trkpt lat="43.76231" lon="6.92612">
        <ele>1204.19</ele>
        <time>2011-09-06T14:39:03Z</time>
      </trkpt>
      <trkpt lat="43.76231" lon="6.92612">
        <ele>1209</ele>
        <time>2011-09-06T14:39:04Z</time>
      </trkpt>
      <trkpt lat="43.76231" lon="6.92612">
        <ele>1205.63</ele>
        <time>2011-09-06T14:39:05Z</time>
      </trkpt>
      <trkpt lat="43.76231" lon="6.92612">
        <ele>1209</ele>
        <time>2011-09-06T14:39:07Z</time>
      </trkpt>
      <trkpt lat="43.76231" lon="6.92612">
        <ele>1205.15</ele>
        <time>2011-09-06T14:39:08Z</time>
      </trkpt>
      <trkpt lat="43.76231" lon="6.92612">
        <ele>1209</ele>
        <time>2011-09-06T14:39:10Z</time>
      </trkpt>
      <trkpt lat="43.76231" lon="6.92612">
        <ele>1205.63</ele>
        <time>2011-09-06T14:39:11Z</time>
      </trkpt>
      <trkpt lat="43.76231" lon="6.92612">
        <ele>1209.96</ele>
        <time>2011-09-06T14:39:13Z</time>
      </trkpt>
      <trkpt lat="43.76231" lon="6.92612">
        <ele>1206.11</ele>
        <time>2011-09-06T14:39:14Z</time>
      </trkpt>
      <trkpt lat="43.76231" lon="6.92612">
        <ele>1209.48</ele>
        <time>2011-09-06T14:39:25Z</time>
      </trkpt>
      <trkpt lat="43.76231" lon="6.92612">
        <ele>1204.67</ele>
        <time>2011-09-06T14:39:26Z</time>
      </trkpt>
      <trkpt lat="43.76231" lon="6.92612">
        <ele>1209</ele>
        <time>2011-09-06T14:39:27Z</time>
      </trkpt>
      <trkpt lat="43.76231" lon="6.92612">
        <ele>1204.67</ele>
        <time>2011-09-06T14:39:28Z</time>
      </trkpt>
      <trkpt lat="43.76231" lon="6.92612">
        <ele>1207.55</ele>
        <time>2011-09-06T14:39:30Z</time>
      </trkpt>
      <trkpt lat="43.76231" lon="6.92612">
        <ele>1204.19</ele>
        <time>2011-09-06T14:39:31Z</time>
      </trkpt>
      <trkpt lat="43.76231" lon="6.92612">
        <ele>1209</ele>
        <time>2011-09-06T14:39:33Z</time>
      </trkpt>
      <trkpt lat="43.76231" lon="6.92612">
        <ele>1203.71</ele>
        <time>2011-09-06T14:39:34Z</time>
      </trkpt>
      <trkpt lat="43.76231" lon="6.92612">
        <ele>1207.55</ele>
        <time>2011-09-06T14:39:35Z</time>
      </trkpt>
      <trkpt lat="43.76231" lon="6.92612">
        <ele>1203.71</ele>
        <time>2011-09-06T14:39:37Z</time>
      </trkpt>
      <trkpt lat="43.76231" lon="6.92612">
        <ele>1209</ele>
        <time>2011-09-06T14:39:38Z</time>
      </trkpt>
      <trkpt lat="43.76231" lon="6.92612">
        <ele>1204.19</ele>
        <time>2011-09-06T14:39:39Z</time>
      </trkpt>
      <trkpt lat="43.76231" lon="6.92612">
        <ele>1209.48</ele>
        <time>2011-09-06T14:39:40Z</time>
      </trkpt>
      <trkpt lat="43.76231" lon="6.92612">
        <ele>1206.11</ele>
        <time>2011-09-06T14:39:41Z</time>
      </trkpt>
      <trkpt lat="43.76231" lon="6.92612">
        <ele>1209</ele>
        <time>2011-09-06T14:39:48Z</time>
      </trkpt>
      <trkpt lat="43.76231" lon="6.92612">
        <ele>1204.67</ele>
        <time>2011-09-06T14:39:49Z</time>
      </trkpt>
      <trkpt lat="43.76231" lon="6.92612">
        <ele>1209</ele>
        <time>2011-09-06T14:39:52Z</time>
      </trkpt>
      <trkpt lat="43.76231" lon="6.92612">
        <ele>1203.71</ele>
        <time>2011-09-06T14:39:53Z</time>
      </trkpt>
      <trkpt lat="43.76231" lon="6.92612">
        <ele>1209</ele>
        <time>2011-09-06T14:39:54Z</time>
      </trkpt>
      <trkpt lat="43.76231" lon="6.92612">
        <ele>1204.19</ele>
        <time>2011-09-06T14:39:55Z</time>
      </trkpt>
      <trkpt lat="43.76231" lon="6.92612">
        <ele>1209</ele>
        <time>2011-09-06T14:39:56Z</time>
      </trkpt>
      <trkpt lat="43.76231" lon="6.92612">
        <ele>1204.67</ele>
        <time>2011-09-06T14:39:57Z</time>
      </trkpt>
      <trkpt lat="43.76231" lon="6.92612">
        <ele>1209</ele>
        <time>2011-09-06T14:39:58Z</time>
      </trkpt>
      <trkpt lat="43.76231" lon="6.92612">
        <ele>1205.15</ele>
        <time>2011-09-06T14:39:59Z</time>
      </trkpt>
      <trkpt lat="43.76231" lon="6.92612">
        <ele>1209.48</ele>
        <time>2011-09-06T14:40:00Z</time>
      </trkpt>
      <trkpt lat="43.76231" lon="6.92612">
        <ele>1204.19</ele>
        <time>2011-09-06T14:40:03Z</time>
      </trkpt>
      <trkpt lat="43.76231" lon="6.92612">
        <ele>1209.48</ele>
        <time>2011-09-06T14:40:04Z</time>
      </trkpt>
      <trkpt lat="43.76231" lon="6.92612">
        <ele>1203.71</ele>
        <time>2011-09-06T14:40:05Z</time>
      </trkpt>
      <trkpt lat="43.76231" lon="6.92612">
        <ele>1209</ele>
        <time>2011-09-06T14:40:06Z</time>
      </trkpt>
      <trkpt lat="43.76231" lon="6.92612">
        <ele>1204.67</ele>
        <time>2011-09-06T14:40:07Z</time>
      </trkpt>
      <trkpt lat="43.76231" lon="6.92612">
        <ele>1209</ele>
        <time>2011-09-06T14:40:17Z</time>
      </trkpt>
      <trkpt lat="43.76231" lon="6.92612">
        <ele>1208.03</ele>
        <time>2011-09-06T14:40:18Z</time>
      </trkpt>
      <trkpt lat="43.76231" lon="6.92612">
        <ele>1204.19</ele>
        <time>2011-09-06T14:40:23Z</time>
      </trkpt>
      <trkpt lat="43.76231" lon="6.92612">
        <ele>1209</ele>
        <time>2011-09-06T14:40:24Z</time>
      </trkpt>
      <trkpt lat="43.76231" lon="6.92612">
        <ele>1203.71</ele>
        <time>2011-09-06T14:40:25Z</time>
      </trkpt>
      <trkpt lat="43.76231" lon="6.92612">
        <ele>1209</ele>
        <time>2011-09-06T14:40:26Z</time>
      </trkpt>
      <trkpt lat="43.76231" lon="6.92612">
        <ele>1204.19</ele>
        <time>2011-09-06T14:40:27Z</time>
      </trkpt>
      <trkpt lat="43.76231" lon="6.92612">
        <ele>1208.03</ele>
        <time>2011-09-06T14:40:28Z</time>
      </trkpt>
      <trkpt lat="43.76231" lon="6.92611">
        <ele>1204.67</ele>
        <time>2011-09-06T14:40:29Z</time>
      </trkpt>
      <trkpt lat="43.76231" lon="6.92611">
        <ele>1208.03</ele>
        <time>2011-09-06T14:40:30Z</time>
      </trkpt>
      <trkpt lat="43.76231" lon="6.92611">
        <ele>1204.67</ele>
        <time>2011-09-06T14:40:31Z</time>
      </trkpt>
      <trkpt lat="43.76231" lon="6.92611">
        <ele>1208.51</ele>
        <time>2011-09-06T14:40:32Z</time>
      </trkpt>
      <trkpt lat="43.76231" lon="6.92611">
        <ele>1204.67</ele>
        <time>2011-09-06T14:40:33Z</time>
      </trkpt>
      <trkpt lat="43.76231" lon="6.92611">
        <ele>1209</ele>
        <time>2011-09-06T14:40:34Z</time>
      </trkpt>
      <trkpt lat="43.76231" lon="6.92611">
        <ele>1204.19</ele>
        <time>2011-09-06T14:40:35Z</time>
      </trkpt>
      <trkpt lat="43.76231" lon="6.92611">
        <ele>1207.55</ele>
        <time>2011-09-06T14:40:39Z</time>
      </trkpt>
      <trkpt lat="43.76231" lon="6.92611">
        <ele>1203.71</ele>
        <time>2011-09-06T14:40:52Z</time>
      </trkpt>
      <trkpt lat="43.76231" lon="6.92611">
        <ele>1207.07</ele>
        <time>2011-09-06T14:40:54Z</time>
      </trkpt>
      <trkpt lat="43.76231" lon="6.92611">
        <ele>1206.11</ele>
        <time>2011-09-06T14:41:07Z</time>
      </trkpt>
      <trkpt lat="43.76231" lon="6.92611">
        <ele>1208.51</ele>
        <time>2011-09-06T14:41:30Z</time>
      </trkpt>
      <trkpt lat="43.76231" lon="6.92611">
        <ele>1204.19</ele>
        <time>2011-09-06T14:41:31Z</time>
      </trkpt>
      <trkpt lat="43.76231" lon="6.92611">
        <ele>1208.03</ele>
        <time>2011-09-06T14:41:32Z</time>
      </trkpt>
      <trkpt lat="43.76231" lon="6.92611">
        <ele>1203.71</ele>
        <time>2011-09-06T14:41:33Z</time>
      </trkpt>
      <trkpt lat="43.76231" lon="6.92611">
        <ele>1208.51</ele>
        <time>2011-09-06T14:41:34Z</time>
      </trkpt>
      <trkpt lat="43.76231" lon="6.92611">
        <ele>1204.67</ele>
        <time>2011-09-06T14:41:35Z</time>
      </trkpt>
      <trkpt lat="43.76231" lon="6.92611">
        <ele>1209</ele>
        <time>2011-09-06T14:41:36Z</time>
      </trkpt>
      <trkpt lat="43.76231" lon="6.92611">
        <ele>1203.71</ele>
        <time>2011-09-06T14:41:37Z</time>
      </trkpt>
      <trkpt lat="43.76231" lon="6.92611">
        <ele>1208.03</ele>
        <time>2011-09-06T14:41:38Z</time>
      </trkpt>
      <trkpt lat="43.76231" lon="6.92611">
        <ele>1204.67</ele>
        <time>2011-09-06T14:41:39Z</time>
      </trkpt>
      <trkpt lat="43.76231" lon="6.92611">
        <ele>1208.03</ele>
        <time>2011-09-06T14:41:40Z</time>
      </trkpt>
      <trkpt lat="43.76231" lon="6.92611">
        <ele>1204.67</ele>
        <time>2011-09-06T14:41:42Z</time>
      </trkpt>
      <trkpt lat="43.76231" lon="6.92611">
        <ele>1208.03</ele>
        <time>2011-09-06T14:41:43Z</time>
      </trkpt>
      <trkpt lat="43.76231" lon="6.92611">
        <ele>1204.19</ele>
        <time>2011-09-06T14:41:44Z</time>
      </trkpt>
      <trkpt lat="43.76231" lon="6.92611">
        <ele>1207.55</ele>
        <time>2011-09-06T14:41:45Z</time>
      </trkpt>
      <trkpt lat="43.76231" lon="6.92611">
        <ele>1204.67</ele>
        <time>2011-09-06T14:41:55Z</time>
      </trkpt>
      <trkpt lat="43.76231" lon="6.92611">
        <ele>1209</ele>
        <time>2011-09-06T14:41:56Z</time>
      </trkpt>
      <trkpt lat="43.76231" lon="6.92611">
        <ele>1204.67</ele>
        <time>2011-09-06T14:41:57Z</time>
      </trkpt>
      <trkpt lat="43.76231" lon="6.92611">
        <ele>1208.03</ele>
        <time>2011-09-06T14:41:58Z</time>
      </trkpt>
      <trkpt lat="43.76231" lon="6.92611">
        <ele>1204.67</ele>
        <time>2011-09-06T14:42:04Z</time>
      </trkpt>
      <trkpt lat="43.76231" lon="6.92611">
        <ele>1208.03</ele>
        <time>2011-09-06T14:42:05Z</time>
      </trkpt>
      <trkpt lat="43.76231" lon="6.92611">
        <ele>1203.71</ele>
        <time>2011-09-06T14:42:06Z</time>
      </trkpt>
      <trkpt lat="43.76231" lon="6.92611">
        <ele>1208.51</ele>
        <time>2011-09-06T14:42:07Z</time>
      </trkpt>
      <trkpt lat="43.76231" lon="6.92611">
        <ele>1204.19</ele>
        <time>2011-09-06T14:42:08Z</time>
      </trkpt>
      <trkpt lat="43.76231" lon="6.92611">
        <ele>1209.48</ele>
        <time>2011-09-06T14:42:09Z</time>
      </trkpt>
      <trkpt lat="43.76231" lon="6.92611">
        <ele>1203.71</ele>
        <time>2011-09-06T14:42:10Z</time>
      </trkpt>
      <trkpt lat="43.76231" lon="6.92611">
        <ele>1208.51</ele>
        <time>2011-09-06T14:42:11Z</time>
      </trkpt>
      <trkpt lat="43.76231" lon="6.92611">
        <ele>1204.19</ele>
        <time>2011-09-06T14:42:12Z</time>
      </trkpt>
      <trkpt lat="43.76231" lon="6.92611">
        <ele>1208.51</ele>
        <time>2011-09-06T14:42:13Z</time>
      </trkpt>
      <trkpt lat="43.76231" lon="6.92611">
        <ele>1204.19</ele>
        <time>2011-09-06T14:42:14Z</time>
      </trkpt>
      <trkpt lat="43.76231" lon="6.92611">
        <ele>1208.51</ele>
        <time>2011-09-06T14:42:16Z</time>
      </trkpt>
      <trkpt lat="43.76231" lon="6.92611">
        <ele>1204.67</ele>
        <time>2011-09-06T14:42:17Z</time>
      </trkpt>
      <trkpt lat="43.76231" lon="6.92611">
        <ele>1208.03</ele>
        <time>2011-09-06T14:42:18Z</time>
      </trkpt>
      <trkpt lat="43.76231" lon="6.92611">
        <ele>1204.67</ele>
        <time>2011-09-06T14:42:19Z</time>
      </trkpt>
      <trkpt lat="43.76231" lon="6.92611">
        <ele>1209</ele>
        <time>2011-09-06T14:42:21Z</time>
      </trkpt>
      <trkpt lat="43.76231" lon="6.92611">
        <ele>1204.19</ele>
        <time>2011-09-06T14:42:22Z</time>
      </trkpt>
      <trkpt lat="43.76231" lon="6.92611">
        <ele>1209</ele>
        <time>2011-09-06T14:42:23Z</time>
      </trkpt>
      <trkpt lat="43.76231" lon="6.92611">
        <ele>1203.23</ele>
        <time>2011-09-06T14:42:24Z</time>
      </trkpt>
      <trkpt lat="43.76231" lon="6.92611">
        <ele>1208.51</ele>
        <time>2011-09-06T14:42:25Z</time>
      </trkpt>
      <trkpt lat="43.76231" lon="6.92611">
        <ele>1203.71</ele>
        <time>2011-09-06T14:42:26Z</time>
      </trkpt>
      <trkpt lat="43.76231" lon="6.92611">
        <ele>1209</ele>
        <time>2011-09-06T14:42:27Z</time>
      </trkpt>
      <trkpt lat="43.76231" lon="6.92611">
        <ele>1204.67</ele>
        <time>2011-09-06T14:42:28Z</time>
      </trkpt>
      <trkpt lat="43.76231" lon="6.92611">
        <ele>1208.51</ele>
        <time>2011-09-06T14:42:29Z</time>
      </trkpt>
      <trkpt lat="43.76231" lon="6.92611">
        <ele>1203.71</ele>
        <time>2011-09-06T14:42:30Z</time>
      </trkpt>
      <trkpt lat="43.76231" lon="6.92611">
        <ele>1209</ele>
        <time>2011-09-06T14:42:31Z</time>
      </trkpt>
      <trkpt lat="43.76231" lon="6.92611">
        <ele>1204.19</ele>
        <time>2011-09-06T14:42:32Z</time>
      </trkpt>
      <trkpt lat="43.76231" lon="6.92611">
        <ele>1209</ele>
        <time>2011-09-06T14:42:33Z</time>
      </trkpt>
      <trkpt lat="43.76231" lon="6.92611">
        <ele>1204.19</ele>
        <time>2011-09-06T14:42:34Z</time>
      </trkpt>
      <trkpt lat="43.76231" lon="6.92611">
        <ele>1209</ele>
        <time>2011-09-06T14:42:35Z</time>
      </trkpt>
      <trkpt lat="43.76231" lon="6.92611">
        <ele>1204.19</ele>
        <time>2011-09-06T14:42:36Z</time>
      </trkpt>
      <trkpt lat="43.76231" lon="6.92611">
        <ele>1209</ele>
        <time>2011-09-06T14:42:37Z</time>
      </trkpt>
      <trkpt lat="43.76231" lon="6.92611">
        <ele>1205.63</ele>
        <time>2011-09-06T14:42:38Z</time>
      </trkpt>
      <trkpt lat="43.76231" lon="6.92611">
        <ele>1209</ele>
        <time>2011-09-06T14:42:39Z</time>
      </trkpt>
      <trkpt lat="43.76231" lon="6.92611">
        <ele>1205.15</ele>
        <time>2011-09-06T14:42:42Z</time>
      </trkpt>
      <trkpt lat="43.76231" lon="6.92611">
        <ele>1209.48</ele>
        <time>2011-09-06T14:42:46Z</time>
      </trkpt>
      <trkpt lat="43.76231" lon="6.92611">
        <ele>1204.67</ele>
        <time>2011-09-06T14:42:47Z</time>
      </trkpt>
      <trkpt lat="43.76231" lon="6.92611">
        <ele>1208.51</ele>
        <time>2011-09-06T14:42:51Z</time>
      </trkpt>
      <trkpt lat="43.76231" lon="6.92611">
        <ele>1205.15</ele>
        <time>2011-09-06T14:42:52Z</time>
      </trkpt>
      <trkpt lat="43.76231" lon="6.92611">
        <ele>1208.51</ele>
        <time>2011-09-06T14:42:53Z</time>
      </trkpt>
      <trkpt lat="43.76231" lon="6.92611">
        <ele>1205.15</ele>
        <time>2011-09-06T14:42:54Z</time>
      </trkpt>
      <trkpt lat="43.76231" lon="6.92611">
        <ele>1208.03</ele>
        <time>2011-09-06T14:42:55Z</time>
      </trkpt>
      <trkpt lat="43.76231" lon="6.92611">
        <ele>1204.67</ele>
        <time>2011-09-06T14:43:03Z</time>
      </trkpt>
      <trkpt lat="43.76231" lon="6.92611">
        <ele>1208.03</ele>
        <time>2011-09-06T14:43:10Z</time>
      </trkpt>
      <trkpt lat="43.76231" lon="6.92611">
        <ele>1206.59</ele>
        <time>2011-09-06T14:43:11Z</time>
      </trkpt>
      <trkpt lat="43.76231" lon="6.92611">
        <ele>1209.48</ele>
        <time>2011-09-06T14:43:32Z</time>
      </trkpt>
      <trkpt lat="43.76231" lon="6.92611">
        <ele>1204.67</ele>
        <time>2011-09-06T14:43:34Z</time>
      </trkpt>
      <trkpt lat="43.76231" lon="6.92611">
        <ele>1208.51</ele>
        <time>2011-09-06T14:43:35Z</time>
      </trkpt>
      <trkpt lat="43.76231" lon="6.92611">
        <ele>1204.19</ele>
        <time>2011-09-06T14:43:39Z</time>
      </trkpt>
      <trkpt lat="43.76231" lon="6.92611">
        <ele>1208.03</ele>
        <time>2011-09-06T14:43:40Z</time>
      </trkpt>
      <trkpt lat="43.76231" lon="6.92611">
        <ele>1204.67</ele>
        <time>2011-09-06T14:43:44Z</time>
      </trkpt>
      <trkpt lat="43.76231" lon="6.92611">
        <ele>1209.96</ele>
        <time>2011-09-06T14:43:46Z</time>
      </trkpt>
      <trkpt lat="43.76231" lon="6.92611">
        <ele>1204.67</ele>
        <time>2011-09-06T14:43:47Z</time>
      </trkpt>
      <trkpt lat="43.76231" lon="6.92611">
        <ele>1208.03</ele>
        <time>2011-09-06T14:43:48Z</time>
      </trkpt>
      <trkpt lat="43.76231" lon="6.92611">
        <ele>1204.19</ele>
        <time>2011-09-06T14:43:50Z</time>
      </trkpt>
      <trkpt lat="43.76231" lon="6.92611">
        <ele>1209</ele>
        <time>2011-09-06T14:43:51Z</time>
      </trkpt>
      <trkpt lat="43.76231" lon="6.92611">
        <ele>1204.67</ele>
        <time>2011-09-06T14:43:52Z</time>
      </trkpt>
      <trkpt lat="43.76231" lon="6.92611">
        <ele>1209</ele>
        <time>2011-09-06T14:43:56Z</time>
      </trkpt>
      <trkpt lat="43.76231" lon="6.92611">
        <ele>1205.15</ele>
        <time>2011-09-06T14:43:57Z</time>
      </trkpt>
      <trkpt lat="43.76231" lon="6.92611">
        <ele>1208.51</ele>
        <time>2011-09-06T14:44:00Z</time>
      </trkpt>
      <trkpt lat="43.76231" lon="6.92611">
        <ele>1205.63</ele>
        <time>2011-09-06T14:44:01Z</time>
      </trkpt>
      <trkpt lat="43.76231" lon="6.92611">
        <ele>1208.51</ele>
        <time>2011-09-06T14:44:05Z</time>
      </trkpt>
      <trkpt lat="43.76231" lon="6.92611">
        <ele>1205.15</ele>
        <time>2011-09-06T14:44:09Z</time>
      </trkpt>
      <trkpt lat="43.76231" lon="6.92611">
        <ele>1209.48</ele>
        <time>2011-09-06T14:44:12Z</time>
      </trkpt>
      <trkpt lat="43.76231" lon="6.92611">
        <ele>1204.67</ele>
        <time>2011-09-06T14:44:13Z</time>
      </trkpt>
      <trkpt lat="43.76231" lon="6.92611">
        <ele>1209.48</ele>
        <time>2011-09-06T14:44:16Z</time>
      </trkpt>
      <trkpt lat="43.76231" lon="6.92611">
        <ele>1205.63</ele>
        <time>2011-09-06T14:44:17Z</time>
      </trkpt>
      <trkpt lat="43.76231" lon="6.92611">
        <ele>1209</ele>
        <time>2011-09-06T14:44:19Z</time>
      </trkpt>
      <trkpt lat="43.76231" lon="6.92611">
        <ele>1205.63</ele>
        <time>2011-09-06T14:44:20Z</time>
      </trkpt>
      <trkpt lat="43.76231" lon="6.92611">
        <ele>1209</ele>
        <time>2011-09-06T14:44:22Z</time>
      </trkpt>
      <trkpt lat="43.76231" lon="6.92611">
        <ele>1207.07</ele>
        <time>2011-09-06T14:44:23Z</time>
      </trkpt>
      <trkpt lat="43.76231" lon="6.92611">
        <ele>1206.11</ele>
        <time>2011-09-06T14:44:32Z</time>
      </trkpt>
      <trkpt lat="43.76231" lon="6.92614">
        <ele>1208.03</ele>
        <time>2011-09-06T14:44:52Z</time>
      </trkpt>
      <trkpt lat="43.76231" lon="6.92614">
        <ele>1205.15</ele>
        <time>2011-09-06T14:44:53Z</time>
      </trkpt>
      <trkpt lat="43.76231" lon="6.92614">
        <ele>1205.63</ele>
        <time>2011-09-06T14:44:54Z</time>
      </trkpt>
      <trkpt lat="43.76231" lon="6.92614">
        <ele>1206.59</ele>
        <time>2011-09-06T14:44:56Z</time>
      </trkpt>
      <trkpt lat="43.76233" lon="6.92617">
        <ele>1203.71</ele>
        <time>2011-09-06T14:45:00Z</time>
      </trkpt>
      <trkpt lat="43.76233" lon="6.92617">
        <ele>1207.07</ele>
        <time>2011-09-06T14:45:02Z</time>
      </trkpt>
      <trkpt lat="43.76233" lon="6.92617">
        <ele>1205.63</ele>
        <time>2011-09-06T14:45:03Z</time>
      </trkpt>
      <trkpt lat="43.76234" lon="6.9262">
        <ele>1206.59</ele>
        <time>2011-09-06T14:45:06Z</time>
      </trkpt>
      <trkpt lat="43.76234" lon="6.92621">
        <ele>1202.75</ele>
        <time>2011-09-06T14:45:07Z</time>
      </trkpt>
      <trkpt lat="43.76235" lon="6.92623">
        <ele>1207.55</ele>
        <time>2011-09-06T14:45:09Z</time>
      </trkpt>
      <trkpt lat="43.76236" lon="6.92624">
        <ele>1203.71</ele>
        <time>2011-09-06T14:45:10Z</time>
      </trkpt>
      <trkpt lat="43.76238" lon="6.92626">
        <ele>1207.07</ele>
        <time>2011-09-06T14:45:12Z</time>
      </trkpt>
      <trkpt lat="43.76239" lon="6.9263">
        <ele>1207.55</ele>
        <time>2011-09-06T14:45:17Z</time>
      </trkpt>
      <trkpt lat="43.76239" lon="6.92631">
        <ele>1204.19</ele>
        <time>2011-09-06T14:45:19Z</time>
      </trkpt>
      <trkpt lat="43.76239" lon="6.92632">
        <ele>1207.55</ele>
        <time>2011-09-06T14:45:20Z</time>
      </trkpt>
      <trkpt lat="43.76238" lon="6.92633">
        <ele>1203.71</ele>
        <time>2011-09-06T14:45:22Z</time>
      </trkpt>
      <trkpt lat="43.76238" lon="6.92633">
        <ele>1207.55</ele>
        <time>2011-09-06T14:45:23Z</time>
      </trkpt>
      <trkpt lat="43.7624" lon="6.92637">
        <ele>1208.51</ele>
        <time>2011-09-06T14:45:28Z</time>
      </trkpt>
      <trkpt lat="43.76242" lon="6.92638">
        <ele>1206.59</ele>
        <time>2011-09-06T14:45:30Z</time>
      </trkpt>
      <trkpt lat="43.76242" lon="6.92639">
        <ele>1207.07</ele>
        <time>2011-09-06T14:45:31Z</time>
      </trkpt>
      <trkpt lat="43.76245" lon="6.92641">
        <ele>1210.92</ele>
        <time>2011-09-06T14:45:35Z</time>
      </trkpt>
      <trkpt lat="43.76246" lon="6.92641">
        <ele>1209.96</ele>
        <time>2011-09-06T14:45:36Z</time>
      </trkpt>
      <trkpt lat="43.76248" lon="6.92648">
        <ele>1211.88</ele>
        <time>2011-09-06T14:45:46Z</time>
      </trkpt>
      <trkpt lat="43.76247" lon="6.92649">
        <ele>1208.03</ele>
        <time>2011-09-06T14:45:47Z</time>
      </trkpt>
      <trkpt lat="43.76246" lon="6.92649">
        <ele>1210.44</ele>
        <time>2011-09-06T14:45:48Z</time>
      </trkpt>
      <trkpt lat="43.76244" lon="6.92649">
        <ele>1213.32</ele>
        <time>2011-09-06T14:45:51Z</time>
      </trkpt>
      <trkpt lat="43.76239" lon="6.9265">
        <ele>1213.32</ele>
        <time>2011-09-06T14:45:56Z</time>
      </trkpt>
      <trkpt lat="43.76238" lon="6.9265">
        <ele>1209.96</ele>
        <time>2011-09-06T14:45:58Z</time>
      </trkpt>
      <trkpt lat="43.76237" lon="6.92651">
        <ele>1212.84</ele>
        <time>2011-09-06T14:45:59Z</time>
      </trkpt>
      <trkpt lat="43.76236" lon="6.9265">
        <ele>1214.28</ele>
        <time>2011-09-06T14:46:01Z</time>
      </trkpt>
      <trkpt lat="43.76236" lon="6.9265">
        <ele>1210.44</ele>
        <time>2011-09-06T14:46:03Z</time>
      </trkpt>
      <trkpt lat="43.76236" lon="6.9265">
        <ele>1213.8</ele>
        <time>2011-09-06T14:46:04Z</time>
      </trkpt>
      <trkpt lat="43.76235" lon="6.9265">
        <ele>1210.44</ele>
        <time>2011-09-06T14:46:06Z</time>
      </trkpt>
      <trkpt lat="43.76234" lon="6.9265">
        <ele>1214.76</ele>
        <time>2011-09-06T14:46:08Z</time>
      </trkpt>
      <trkpt lat="43.76234" lon="6.92651">
        <ele>1214.28</ele>
        <time>2011-09-06T14:46:09Z</time>
      </trkpt>
      <trkpt lat="43.76234" lon="6.92651">
        <ele>1210.92</ele>
        <time>2011-09-06T14:46:11Z</time>
      </trkpt>
      <trkpt lat="43.76234" lon="6.92651">
        <ele>1214.28</ele>
        <time>2011-09-06T14:46:12Z</time>
      </trkpt>
      <trkpt lat="43.76234" lon="6.92651">
        <ele>1210.44</ele>
        <time>2011-09-06T14:46:15Z</time>
      </trkpt>
      <trkpt lat="43.76234" lon="6.92651">
        <ele>1214.76</ele>
        <time>2011-09-06T14:46:19Z</time>
      </trkpt>
      <trkpt lat="43.76234" lon="6.92651">
        <ele>1213.8</ele>
        <time>2011-09-06T14:46:20Z</time>
      </trkpt>
      <trkpt lat="43.76234" lon="6.92651">
        <ele>1211.4</ele>
        <time>2011-09-06T14:46:25Z</time>
      </trkpt>
      <trkpt lat="43.76234" lon="6.92651">
        <ele>1212.84</ele>
        <time>2011-09-06T14:46:27Z</time>
      </trkpt>
      <trkpt lat="43.76234" lon="6.92651">
        <ele>1210.92</ele>
        <time>2011-09-06T14:46:29Z</time>
      </trkpt>
      <trkpt lat="43.76234" lon="6.92651">
        <ele>1215.24</ele>
        <time>2011-09-06T14:46:31Z</time>
      </trkpt>
      <trkpt lat="43.76234" lon="6.92651">
        <ele>1211.4</ele>
        <time>2011-09-06T14:46:32Z</time>
      </trkpt>
      <trkpt lat="43.76233" lon="6.92652">
        <ele>1214.76</ele>
        <time>2011-09-06T14:46:34Z</time>
      </trkpt>
      <trkpt lat="43.76233" lon="6.92652">
        <ele>1214.28</ele>
        <time>2011-09-06T14:46:35Z</time>
      </trkpt>
      <trkpt lat="43.76233" lon="6.92653">
        <ele>1211.4</ele>
        <time>2011-09-06T14:46:40Z</time>
      </trkpt>
      <trkpt lat="43.76233" lon="6.92653">
        <ele>1215.24</ele>
        <time>2011-09-06T14:46:41Z</time>
      </trkpt>
      <trkpt lat="43.76233" lon="6.92654">
        <ele>1215.24</ele>
        <time>2011-09-06T14:46:42Z</time>
      </trkpt>
      <trkpt lat="43.76232" lon="6.92654">
        <ele>1212.84</ele>
        <time>2011-09-06T14:46:45Z</time>
      </trkpt>
      <trkpt lat="43.76232" lon="6.92654">
        <ele>1216.21</ele>
        <time>2011-09-06T14:46:46Z</time>
      </trkpt>
      <trkpt lat="43.76232" lon="6.92654">
        <ele>1211.88</ele>
        <time>2011-09-06T14:46:48Z</time>
      </trkpt>
      <trkpt lat="43.76232" lon="6.92654">
        <ele>1216.21</ele>
        <time>2011-09-06T14:46:50Z</time>
      </trkpt>
      <trkpt lat="43.76231" lon="6.92654">
        <ele>1211.88</ele>
        <time>2011-09-06T14:46:52Z</time>
      </trkpt>
      <trkpt lat="43.76229" lon="6.92655">
        <ele>1216.21</ele>
        <time>2011-09-06T14:46:55Z</time>
      </trkpt>
      <trkpt lat="43.76227" lon="6.92655">
        <ele>1213.8</ele>
        <time>2011-09-06T14:46:57Z</time>
      </trkpt>
      <trkpt lat="43.76225" lon="6.92657">
        <ele>1213.32</ele>
        <time>2011-09-06T14:47:00Z</time>
      </trkpt>
      <trkpt lat="43.76224" lon="6.92657">
        <ele>1216.69</ele>
        <time>2011-09-06T14:47:01Z</time>
      </trkpt>
      <trkpt lat="43.76223" lon="6.92657">
        <ele>1217.17</ele>
        <time>2011-09-06T14:47:02Z</time>
      </trkpt>
      <trkpt lat="43.76221" lon="6.92657">
        <ele>1216.21</ele>
        <time>2011-09-06T14:47:04Z</time>
      </trkpt>
      <trkpt lat="43.76218" lon="6.92657">
        <ele>1214.76</ele>
        <time>2011-09-06T14:47:08Z</time>
      </trkpt>
      <trkpt lat="43.76215" lon="6.92657">
        <ele>1215.24</ele>
        <time>2011-09-06T14:47:12Z</time>
      </trkpt>
      <trkpt lat="43.76207" lon="6.92658">
        <ele>1214.76</ele>
        <time>2011-09-06T14:47:21Z</time>
      </trkpt>
      <trkpt lat="43.76207" lon="6.92658">
        <ele>1219.57</ele>
        <time>2011-09-06T14:47:22Z</time>
      </trkpt>
      <trkpt lat="43.76204" lon="6.9266">
        <ele>1218.13</ele>
        <time>2011-09-06T14:47:25Z</time>
      </trkpt>
      <trkpt lat="43.76204" lon="6.92661">
        <ele>1213.8</ele>
        <time>2011-09-06T14:47:26Z</time>
      </trkpt>
      <trkpt lat="43.76203" lon="6.92662">
        <ele>1218.61</ele>
        <time>2011-09-06T14:47:28Z</time>
      </trkpt>
      <trkpt lat="43.76202" lon="6.92662">
        <ele>1214.76</ele>
        <time>2011-09-06T14:47:29Z</time>
      </trkpt>
      <trkpt lat="43.76199" lon="6.92663">
        <ele>1218.61</ele>
        <time>2011-09-06T14:47:32Z</time>
      </trkpt>
      <trkpt lat="43.76195" lon="6.92664">
        <ele>1215.24</ele>
        <time>2011-09-06T14:47:37Z</time>
      </trkpt>
      <trkpt lat="43.76194" lon="6.92665">
        <ele>1219.57</ele>
        <time>2011-09-06T14:47:38Z</time>
      </trkpt>
      <trkpt lat="43.76193" lon="6.92666">
        <ele>1214.76</ele>
        <time>2011-09-06T14:47:40Z</time>
      </trkpt>
      <trkpt lat="43.76192" lon="6.92667">
        <ele>1218.61</ele>
        <time>2011-09-06T14:47:41Z</time>
      </trkpt>
      <trkpt lat="43.7619" lon="6.92668">
        <ele>1215.24</ele>
        <time>2011-09-06T14:47:45Z</time>
      </trkpt>
      <trkpt lat="43.76189" lon="6.92668">
        <ele>1216.69</ele>
        <time>2011-09-06T14:47:46Z</time>
      </trkpt>
      <trkpt lat="43.76189" lon="6.92668">
        <ele>1218.61</ele>
        <time>2011-09-06T14:47:48Z</time>
      </trkpt>
      <trkpt lat="43.76189" lon="6.92668">
        <ele>1214.28</ele>
        <time>2011-09-06T14:47:50Z</time>
      </trkpt>
      <trkpt lat="43.76189" lon="6.92668">
        <ele>1217.65</ele>
        <time>2011-09-06T14:47:51Z</time>
      </trkpt>
      <trkpt lat="43.76188" lon="6.92669">
        <ele>1216.69</ele>
        <time>2011-09-06T14:47:53Z</time>
      </trkpt>
      <trkpt lat="43.76186" lon="6.9267">
        <ele>1218.13</ele>
        <time>2011-09-06T14:47:55Z</time>
      </trkpt>
      <trkpt lat="43.76185" lon="6.92671">
        <ele>1216.21</ele>
        <time>2011-09-06T14:47:57Z</time>
      </trkpt>
      <trkpt lat="43.76183" lon="6.92672">
        <ele>1219.09</ele>
        <time>2011-09-06T14:47:58Z</time>
      </trkpt>
      <trkpt lat="43.76176" lon="6.92676">
        <ele>1221.01</ele>
        <time>2011-09-06T14:48:06Z</time>
      </trkpt>
      <trkpt lat="43.76172" lon="6.92677">
        <ele>1220.53</ele>
        <time>2011-09-06T14:48:11Z</time>
      </trkpt>
      <trkpt lat="43.76171" lon="6.92678">
        <ele>1217.17</ele>
        <time>2011-09-06T14:48:12Z</time>
      </trkpt>
      <trkpt lat="43.7617" lon="6.92678">
        <ele>1218.61</ele>
        <time>2011-09-06T14:48:13Z</time>
      </trkpt>
      <trkpt lat="43.7617" lon="6.92678">
        <ele>1221.49</ele>
        <time>2011-09-06T14:48:14Z</time>
      </trkpt>
      <trkpt lat="43.76168" lon="6.92678">
        <ele>1220.53</ele>
        <time>2011-09-06T14:48:15Z</time>
      </trkpt>
      <trkpt lat="43.76165" lon="6.92677">
        <ele>1218.13</ele>
        <time>2011-09-06T14:48:20Z</time>
      </trkpt>
      <trkpt lat="43.76164" lon="6.92677">
        <ele>1221.97</ele>
        <time>2011-09-06T14:48:21Z</time>
      </trkpt>
      <trkpt lat="43.76162" lon="6.92676">
        <ele>1218.61</ele>
        <time>2011-09-06T14:48:24Z</time>
      </trkpt>
      <trkpt lat="43.7616" lon="6.92676">
        <ele>1223.42</ele>
        <time>2011-09-06T14:48:26Z</time>
      </trkpt>
      <trkpt lat="43.7616" lon="6.92675">
        <ele>1220.53</ele>
        <time>2011-09-06T14:48:27Z</time>
      </trkpt>
      <trkpt lat="43.76157" lon="6.92674">
        <ele>1222.45</ele>
        <time>2011-09-06T14:48:30Z</time>
      </trkpt>
      <trkpt lat="43.76156" lon="6.92674">
        <ele>1221.97</ele>
        <time>2011-09-06T14:48:31Z</time>
      </trkpt>
      <trkpt lat="43.76154" lon="6.92674">
        <ele>1218.13</ele>
        <time>2011-09-06T14:48:34Z</time>
      </trkpt>
      <trkpt lat="43.76153" lon="6.92673">
        <ele>1218.13</ele>
        <time>2011-09-06T14:48:35Z</time>
      </trkpt>
      <trkpt lat="43.76151" lon="6.92673">
        <ele>1222.45</ele>
        <time>2011-09-06T14:48:37Z</time>
      </trkpt>
      <trkpt lat="43.76151" lon="6.92672">
        <ele>1222.45</ele>
        <time>2011-09-06T14:48:38Z</time>
      </trkpt>
      <trkpt lat="43.7615" lon="6.92672">
        <ele>1219.57</ele>
        <time>2011-09-06T14:48:39Z</time>
      </trkpt>
      <trkpt lat="43.76148" lon="6.92671">
        <ele>1219.09</ele>
        <time>2011-09-06T14:48:41Z</time>
      </trkpt>
      <trkpt lat="43.76147" lon="6.92671">
        <ele>1221.97</ele>
        <time>2011-09-06T14:48:42Z</time>
      </trkpt>
      <trkpt lat="43.76146" lon="6.9267">
        <ele>1221.01</ele>
        <time>2011-09-06T14:48:43Z</time>
      </trkpt>
      <trkpt lat="43.76145" lon="6.9267">
        <ele>1217.65</ele>
        <time>2011-09-06T14:48:45Z</time>
      </trkpt>
      <trkpt lat="43.76143" lon="6.92669">
        <ele>1221.97</ele>
        <time>2011-09-06T14:48:48Z</time>
      </trkpt>
      <trkpt lat="43.76141" lon="6.92669">
        <ele>1219.09</ele>
        <time>2011-09-06T14:48:50Z</time>
      </trkpt>
      <trkpt lat="43.76139" lon="6.92668">
        <ele>1222.45</ele>
        <time>2011-09-06T14:48:53Z</time>
      </trkpt>
      <trkpt lat="43.76138" lon="6.92668">
        <ele>1220.53</ele>
        <time>2011-09-06T14:48:54Z</time>
      </trkpt>
      <trkpt lat="43.76136" lon="6.92667">
        <ele>1219.09</ele>
        <time>2011-09-06T14:48:56Z</time>
      </trkpt>
      <trkpt lat="43.76134" lon="6.92666">
        <ele>1222.45</ele>
        <time>2011-09-06T14:48:59Z</time>
      </trkpt>
      <trkpt lat="43.76131" lon="6.92666">
        <ele>1217.65</ele>
        <time>2011-09-06T14:49:01Z</time>
      </trkpt>
      <trkpt lat="43.7613" lon="6.92666">
        <ele>1219.09</ele>
        <time>2011-09-06T14:49:02Z</time>
      </trkpt>
      <trkpt lat="43.7613" lon="6.92666">
        <ele>1222.45</ele>
        <time>2011-09-06T14:49:03Z</time>
      </trkpt>
      <trkpt lat="43.76129" lon="6.92665">
        <ele>1220.53</ele>
        <time>2011-09-06T14:49:04Z</time>
      </trkpt>
      <trkpt lat="43.76127" lon="6.92665">
        <ele>1219.09</ele>
        <time>2011-09-06T14:49:06Z</time>
      </trkpt>
      <trkpt lat="43.76125" lon="6.92664">
        <ele>1221.01</ele>
        <time>2011-09-06T14:49:08Z</time>
      </trkpt>
      <trkpt lat="43.76124" lon="6.92664">
        <ele>1218.13</ele>
        <time>2011-09-06T14:49:09Z</time>
      </trkpt>
      <trkpt lat="43.76123" lon="6.92665">
        <ele>1220.53</ele>
        <time>2011-09-06T14:49:11Z</time>
      </trkpt>
      <trkpt lat="43.7612" lon="6.92665">
        <ele>1222.45</ele>
        <time>2011-09-06T14:49:13Z</time>
      </trkpt>
      <trkpt lat="43.76119" lon="6.92665">
        <ele>1222.45</ele>
        <time>2011-09-06T14:49:14Z</time>
      </trkpt>
      <trkpt lat="43.76117" lon="6.92665">
        <ele>1218.61</ele>
        <time>2011-09-06T14:49:16Z</time>
      </trkpt>
      <trkpt lat="43.76116" lon="6.92663">
        <ele>1222.93</ele>
        <time>2011-09-06T14:49:18Z</time>
      </trkpt>
      <trkpt lat="43.76115" lon="6.92662">
        <ele>1221.01</ele>
        <time>2011-09-06T14:49:19Z</time>
      </trkpt>
      <trkpt lat="43.76113" lon="6.92661">
        <ele>1220.05</ele>
        <time>2011-09-06T14:49:21Z</time>
      </trkpt>
      <trkpt lat="43.76112" lon="6.92661">
        <ele>1222.45</ele>
        <time>2011-09-06T14:49:23Z</time>
      </trkpt>
      <trkpt lat="43.76111" lon="6.92661">
        <ele>1218.61</ele>
        <time>2011-09-06T14:49:26Z</time>
      </trkpt>
      <trkpt lat="43.76111" lon="6.92661">
        <ele>1222.93</ele>
        <time>2011-09-06T14:49:27Z</time>
      </trkpt>
      <trkpt lat="43.76111" lon="6.92661">
        <ele>1219.09</ele>
        <time>2011-09-06T14:49:29Z</time>
      </trkpt>
      <trkpt lat="43.7611" lon="6.92661">
        <ele>1222.45</ele>
        <time>2011-09-06T14:49:31Z</time>
      </trkpt>
      <trkpt lat="43.76109" lon="6.9266">
        <ele>1218.61</ele>
        <time>2011-09-06T14:49:32Z</time>
      </trkpt>
      <trkpt lat="43.76109" lon="6.9266">
        <ele>1221.97</ele>
        <time>2011-09-06T14:49:33Z</time>
      </trkpt>
      <trkpt lat="43.76107" lon="6.92658">
        <ele>1222.93</ele>
        <time>2011-09-06T14:49:35Z</time>
      </trkpt>
      <trkpt lat="43.76106" lon="6.92658">
        <ele>1221.01</ele>
        <time>2011-09-06T14:49:36Z</time>
      </trkpt>
      <trkpt lat="43.76104" lon="6.92655">
        <ele>1222.45</ele>
        <time>2011-09-06T14:49:38Z</time>
      </trkpt>
      <trkpt lat="43.76102" lon="6.92653">
        <ele>1219.09</ele>
        <time>2011-09-06T14:49:41Z</time>
      </trkpt>
      <trkpt lat="43.76098" lon="6.92649">
        <ele>1223.42</ele>
        <time>2011-09-06T14:49:46Z</time>
      </trkpt>
      <trkpt lat="43.76096" lon="6.92648">
        <ele>1220.05</ele>
        <time>2011-09-06T14:49:49Z</time>
      </trkpt>
      <trkpt lat="43.76094" lon="6.92647">
        <ele>1224.38</ele>
        <time>2011-09-06T14:49:51Z</time>
      </trkpt>
      <trkpt lat="43.76093" lon="6.92647">
        <ele>1222.45</ele>
        <time>2011-09-06T14:49:52Z</time>
      </trkpt>
      <trkpt lat="43.7609" lon="6.92648">
        <ele>1220.53</ele>
        <time>2011-09-06T14:49:57Z</time>
      </trkpt>
      <trkpt lat="43.76087" lon="6.92648">
        <ele>1224.86</ele>
        <time>2011-09-06T14:50:01Z</time>
      </trkpt>
      <trkpt lat="43.76086" lon="6.92647">
        <ele>1221.01</ele>
        <time>2011-09-06T14:50:03Z</time>
      </trkpt>
      <trkpt lat="43.76085" lon="6.92646">
        <ele>1223.9</ele>
        <time>2011-09-06T14:50:04Z</time>
      </trkpt>
      <trkpt lat="43.76085" lon="6.92646">
        <ele>1220.05</ele>
        <time>2011-09-06T14:50:07Z</time>
      </trkpt>
      <trkpt lat="43.76085" lon="6.92646">
        <ele>1224.38</ele>
        <time>2011-09-06T14:50:08Z</time>
      </trkpt>
      <trkpt lat="43.76084" lon="6.92645">
        <ele>1220.05</ele>
        <time>2011-09-06T14:50:10Z</time>
      </trkpt>
      <trkpt lat="43.76081" lon="6.92642">
        <ele>1224.86</ele>
        <time>2011-09-06T14:50:13Z</time>
      </trkpt>
      <trkpt lat="43.7608" lon="6.92642">
        <ele>1224.86</ele>
        <time>2011-09-06T14:50:14Z</time>
      </trkpt>
      <trkpt lat="43.7608" lon="6.92641">
        <ele>1223.42</ele>
        <time>2011-09-06T14:50:16Z</time>
      </trkpt>
      <trkpt lat="43.76079" lon="6.9264">
        <ele>1226.3</ele>
        <time>2011-09-06T14:50:18Z</time>
      </trkpt>
      <trkpt lat="43.76078" lon="6.9264">
        <ele>1224.86</ele>
        <time>2011-09-06T14:50:19Z</time>
      </trkpt>
      <trkpt lat="43.76077" lon="6.9264">
        <ele>1221.97</ele>
        <time>2011-09-06T14:50:21Z</time>
      </trkpt>
      <trkpt lat="43.76075" lon="6.9264">
        <ele>1224.38</ele>
        <time>2011-09-06T14:50:23Z</time>
      </trkpt>
      <trkpt lat="43.76075" lon="6.9264">
        <ele>1222.45</ele>
        <time>2011-09-06T14:50:25Z</time>
      </trkpt>
      <trkpt lat="43.76075" lon="6.9264">
        <ele>1226.78</ele>
        <time>2011-09-06T14:50:28Z</time>
      </trkpt>
      <trkpt lat="43.76074" lon="6.9264">
        <ele>1222.45</ele>
        <time>2011-09-06T14:50:30Z</time>
      </trkpt>
      <trkpt lat="43.76071" lon="6.92642">
        <ele>1226.3</ele>
        <time>2011-09-06T14:50:33Z</time>
      </trkpt>
      <trkpt lat="43.7607" lon="6.92642">
        <ele>1224.86</ele>
        <time>2011-09-06T14:50:34Z</time>
      </trkpt>
      <trkpt lat="43.76068" lon="6.92643">
        <ele>1222.45</ele>
        <time>2011-09-06T14:50:36Z</time>
      </trkpt>
      <trkpt lat="43.76066" lon="6.92644">
        <ele>1225.82</ele>
        <time>2011-09-06T14:50:38Z</time>
      </trkpt>
      <trkpt lat="43.76062" lon="6.92643">
        <ele>1226.78</ele>
        <time>2011-09-06T14:50:45Z</time>
      </trkpt>
      <trkpt lat="43.76061" lon="6.92643">
        <ele>1223.42</ele>
        <time>2011-09-06T14:50:46Z</time>
      </trkpt>
      <trkpt lat="43.76059" lon="6.92644">
        <ele>1227.26</ele>
        <time>2011-09-06T14:50:49Z</time>
      </trkpt>
      <trkpt lat="43.76058" lon="6.92644">
        <ele>1223.9</ele>
        <time>2011-09-06T14:50:50Z</time>
      </trkpt>
      <trkpt lat="43.76055" lon="6.92644">
        <ele>1227.26</ele>
        <time>2011-09-06T14:50:54Z</time>
      </trkpt>
      <trkpt lat="43.76054" lon="6.92644">
        <ele>1224.38</ele>
        <time>2011-09-06T14:50:55Z</time>
      </trkpt>
      <trkpt lat="43.76052" lon="6.92646">
        <ele>1227.74</ele>
        <time>2011-09-06T14:50:58Z</time>
      </trkpt>
      <trkpt lat="43.76052" lon="6.92645">
        <ele>1222.93</ele>
        <time>2011-09-06T14:50:59Z</time>
      </trkpt>
      <trkpt lat="43.76051" lon="6.92645">
        <ele>1226.78</ele>
        <time>2011-09-06T14:51:01Z</time>
      </trkpt>
      <trkpt lat="43.76051" lon="6.92645">
        <ele>1225.82</ele>
        <time>2011-09-06T14:51:02Z</time>
      </trkpt>
      <trkpt lat="43.76051" lon="6.92645">
        <ele>1222.45</ele>
        <time>2011-09-06T14:51:03Z</time>
      </trkpt>
      <trkpt lat="43.76051" lon="6.92645">
        <ele>1222.45</ele>
        <time>2011-09-06T14:51:04Z</time>
      </trkpt>
      <trkpt lat="43.76051" lon="6.92645">
        <ele>1226.78</ele>
        <time>2011-09-06T14:51:06Z</time>
      </trkpt>
      <trkpt lat="43.76051" lon="6.92645">
        <ele>1224.86</ele>
        <time>2011-09-06T14:51:07Z</time>
      </trkpt>
      <trkpt lat="43.76051" lon="6.92645">
        <ele>1224.86</ele>
        <time>2011-09-06T14:51:14Z</time>
      </trkpt>
      <trkpt lat="43.76051" lon="6.92645">
        <ele>1227.74</ele>
        <time>2011-09-06T14:51:21Z</time>
      </trkpt>
      <trkpt lat="43.76051" lon="6.92645">
        <ele>1224.38</ele>
        <time>2011-09-06T14:51:22Z</time>
      </trkpt>
      <trkpt lat="43.76051" lon="6.92645">
        <ele>1226.3</ele>
        <time>2011-09-06T14:51:25Z</time>
      </trkpt>
      <trkpt lat="43.7605" lon="6.92645">
        <ele>1222.93</ele>
        <time>2011-09-06T14:51:27Z</time>
      </trkpt>
      <trkpt lat="43.76049" lon="6.92645">
        <ele>1226.3</ele>
        <time>2011-09-06T14:51:29Z</time>
      </trkpt>
      <trkpt lat="43.76048" lon="6.92646">
        <ele>1224.38</ele>
        <time>2011-09-06T14:51:30Z</time>
      </trkpt>
      <trkpt lat="43.76047" lon="6.92646">
        <ele>1223.42</ele>
        <time>2011-09-06T14:51:32Z</time>
      </trkpt>
      <trkpt lat="43.76046" lon="6.92646">
        <ele>1227.26</ele>
        <time>2011-09-06T14:51:33Z</time>
      </trkpt>
      <trkpt lat="43.76046" lon="6.92646">
        <ele>1225.34</ele>
        <time>2011-09-06T14:51:34Z</time>
      </trkpt>
      <trkpt lat="43.76046" lon="6.92646">
        <ele>1223.9</ele>
        <time>2011-09-06T14:51:36Z</time>
      </trkpt>
      <trkpt lat="43.76046" lon="6.92646">
        <ele>1226.78</ele>
        <time>2011-09-06T14:51:37Z</time>
      </trkpt>
      <trkpt lat="43.76046" lon="6.92646">
        <ele>1222.45</ele>
        <time>2011-09-06T14:51:38Z</time>
      </trkpt>
      <trkpt lat="43.76046" lon="6.92646">
        <ele>1227.26</ele>
        <time>2011-09-06T14:51:41Z</time>
      </trkpt>
      <trkpt lat="43.76046" lon="6.92646">
        <ele>1222.93</ele>
        <time>2011-09-06T14:51:42Z</time>
      </trkpt>
      <trkpt lat="43.76046" lon="6.92646">
        <ele>1226.78</ele>
        <time>2011-09-06T14:51:44Z</time>
      </trkpt>
      <trkpt lat="43.76046" lon="6.92646">
        <ele>1225.34</ele>
        <time>2011-09-06T14:51:45Z</time>
      </trkpt>
      <trkpt lat="43.76046" lon="6.92646">
        <ele>1221.97</ele>
        <time>2011-09-06T14:51:46Z</time>
      </trkpt>
      <trkpt lat="43.76046" lon="6.92645">
        <ele>1224.38</ele>
        <time>2011-09-06T14:51:47Z</time>
      </trkpt>
      <trkpt lat="43.76045" lon="6.92645">
        <ele>1222.45</ele>
        <time>2011-09-06T14:51:54Z</time>
      </trkpt>
      <trkpt lat="43.76045" lon="6.92645">
        <ele>1226.3</ele>
        <time>2011-09-06T14:51:55Z</time>
      </trkpt>
      <trkpt lat="43.76044" lon="6.92645">
        <ele>1224.38</ele>
        <time>2011-09-06T14:51:56Z</time>
      </trkpt>
      <trkpt lat="43.76043" lon="6.92645">
        <ele>1221.49</ele>
        <time>2011-09-06T14:51:57Z</time>
      </trkpt>
      <trkpt lat="43.76042" lon="6.92645">
        <ele>1226.3</ele>
        <time>2011-09-06T14:51:58Z</time>
      </trkpt>
      <trkpt lat="43.76041" lon="6.92645">
        <ele>1223.42</ele>
        <time>2011-09-06T14:51:59Z</time>
      </trkpt>
      <trkpt lat="43.7604" lon="6.92644">
        <ele>1221.97</ele>
        <time>2011-09-06T14:52:00Z</time>
      </trkpt>
      <trkpt lat="43.76036" lon="6.92641">
        <ele>1222.45</ele>
        <time>2011-09-06T14:52:04Z</time>
      </trkpt>
      <trkpt lat="43.76035" lon="6.92641">
        <ele>1221.49</ele>
        <time>2011-09-06T14:52:05Z</time>
      </trkpt>
      <trkpt lat="43.76033" lon="6.92641">
        <ele>1224.38</ele>
        <time>2011-09-06T14:52:07Z</time>
      </trkpt>
      <trkpt lat="43.76032" lon="6.92641">
        <ele>1221.01</ele>
        <time>2011-09-06T14:52:08Z</time>
      </trkpt>
      <trkpt lat="43.76029" lon="6.92641">
        <ele>1224.38</ele>
        <time>2011-09-06T14:52:10Z</time>
      </trkpt>
      <trkpt lat="43.76027" lon="6.92642">
        <ele>1220.53</ele>
        <time>2011-09-06T14:52:11Z</time>
      </trkpt>
      <trkpt lat="43.76026" lon="6.92642">
        <ele>1223.9</ele>
        <time>2011-09-06T14:52:12Z</time>
      </trkpt>
      <trkpt lat="43.76024" lon="6.92642">
        <ele>1220.53</ele>
        <time>2011-09-06T14:52:14Z</time>
      </trkpt>
      <trkpt lat="43.76023" lon="6.92642">
        <ele>1222.45</ele>
        <time>2011-09-06T14:52:15Z</time>
      </trkpt>
      <trkpt lat="43.76022" lon="6.92642">
        <ele>1224.38</ele>
        <time>2011-09-06T14:52:16Z</time>
      </trkpt>
      <trkpt lat="43.76019" lon="6.92642">
        <ele>1223.9</ele>
        <time>2011-09-06T14:52:19Z</time>
      </trkpt>
      <trkpt lat="43.76018" lon="6.92642">
        <ele>1224.86</ele>
        <time>2011-09-06T14:52:20Z</time>
      </trkpt>
      <trkpt lat="43.76013" lon="6.92641">
        <ele>1225.34</ele>
        <time>2011-09-06T14:52:23Z</time>
      </trkpt>
      <trkpt lat="43.76012" lon="6.92641">
        <ele>1221.49</ele>
        <time>2011-09-06T14:52:24Z</time>
      </trkpt>
      <trkpt lat="43.76011" lon="6.92641">
        <ele>1222.93</ele>
        <time>2011-09-06T14:52:25Z</time>
      </trkpt>
      <trkpt lat="43.76008" lon="6.9264">
        <ele>1221.49</ele>
        <time>2011-09-06T14:52:27Z</time>
      </trkpt>
      <trkpt lat="43.76006" lon="6.9264">
        <ele>1224.86</ele>
        <time>2011-09-06T14:52:29Z</time>
      </trkpt>
      <trkpt lat="43.76005" lon="6.92641">
        <ele>1221.49</ele>
        <time>2011-09-06T14:52:30Z</time>
      </trkpt>
      <trkpt lat="43.76004" lon="6.92641">
        <ele>1225.82</ele>
        <time>2011-09-06T14:52:31Z</time>
      </trkpt>
      <trkpt lat="43.76002" lon="6.92641">
        <ele>1221.49</ele>
        <time>2011-09-06T14:52:33Z</time>
      </trkpt>
      <trkpt lat="43.76" lon="6.92642">
        <ele>1225.34</ele>
        <time>2011-09-06T14:52:35Z</time>
      </trkpt>
      <trkpt lat="43.76" lon="6.92641">
        <ele>1221.49</ele>
        <time>2011-09-06T14:52:37Z</time>
      </trkpt>
      <trkpt lat="43.76" lon="6.92641">
        <ele>1226.78</ele>
        <time>2011-09-06T14:52:38Z</time>
      </trkpt>
      <trkpt lat="43.76" lon="6.92641">
        <ele>1221.97</ele>
        <time>2011-09-06T14:52:39Z</time>
      </trkpt>
      <trkpt lat="43.76" lon="6.92641">
        <ele>1225.82</ele>
        <time>2011-09-06T14:52:41Z</time>
      </trkpt>
      <trkpt lat="43.76" lon="6.92641">
        <ele>1221.49</ele>
        <time>2011-09-06T14:52:42Z</time>
      </trkpt>
      <trkpt lat="43.76" lon="6.92641">
        <ele>1225.82</ele>
        <time>2011-09-06T14:52:45Z</time>
      </trkpt>
      <trkpt lat="43.76" lon="6.92641">
        <ele>1221.49</ele>
        <time>2011-09-06T14:52:46Z</time>
      </trkpt>
      <trkpt lat="43.76" lon="6.92641">
        <ele>1225.82</ele>
        <time>2011-09-06T14:52:50Z</time>
      </trkpt>
      <trkpt lat="43.76" lon="6.92641">
        <ele>1221.01</ele>
        <time>2011-09-06T14:52:51Z</time>
      </trkpt>
      <trkpt lat="43.76" lon="6.92641">
        <ele>1224.86</ele>
        <time>2011-09-06T14:52:52Z</time>
      </trkpt>
      <trkpt lat="43.76" lon="6.92641">
        <ele>1221.49</ele>
        <time>2011-09-06T14:52:57Z</time>
      </trkpt>
      <trkpt lat="43.75999" lon="6.9264">
        <ele>1225.82</ele>
        <time>2011-09-06T14:52:58Z</time>
      </trkpt>
      <trkpt lat="43.75998" lon="6.9264">
        <ele>1225.34</ele>
        <time>2011-09-06T14:52:59Z</time>
      </trkpt>
      <trkpt lat="43.75997" lon="6.9264">
        <ele>1221.49</ele>
        <time>2011-09-06T14:53:00Z</time>
      </trkpt>
      <trkpt lat="43.75996" lon="6.92639">
        <ele>1225.82</ele>
        <time>2011-09-06T14:53:01Z</time>
      </trkpt>
      <trkpt lat="43.75995" lon="6.92639">
        <ele>1222.45</ele>
        <time>2011-09-06T14:53:03Z</time>
      </trkpt>
      <trkpt lat="43.75995" lon="6.92639">
        <ele>1226.78</ele>
        <time>2011-09-06T14:53:04Z</time>
      </trkpt>
      <trkpt lat="43.75994" lon="6.92639">
        <ele>1222.93</ele>
        <time>2011-09-06T14:53:05Z</time>
      </trkpt>
      <trkpt lat="43.75992" lon="6.9264">
        <ele>1227.26</ele>
        <time>2011-09-06T14:53:07Z</time>
      </trkpt>
      <trkpt lat="43.75991" lon="6.92639">
        <ele>1226.3</ele>
        <time>2011-09-06T14:53:08Z</time>
      </trkpt>
      <trkpt lat="43.7599" lon="6.92639">
        <ele>1221.97</ele>
        <time>2011-09-06T14:53:09Z</time>
      </trkpt>
      <trkpt lat="43.75989" lon="6.92639">
        <ele>1226.78</ele>
        <time>2011-09-06T14:53:10Z</time>
      </trkpt>
      <trkpt lat="43.75987" lon="6.9264">
        <ele>1222.93</ele>
        <time>2011-09-06T14:53:12Z</time>
      </trkpt>
      <trkpt lat="43.75986" lon="6.9264">
        <ele>1227.26</ele>
        <time>2011-09-06T14:53:13Z</time>
      </trkpt>
      <trkpt lat="43.75985" lon="6.9264">
        <ele>1222.93</ele>
        <time>2011-09-06T14:53:14Z</time>
      </trkpt>
      <trkpt lat="43.75983" lon="6.92641">
        <ele>1226.3</ele>
        <time>2011-09-06T14:53:16Z</time>
      </trkpt>
      <trkpt lat="43.75982" lon="6.92641">
        <ele>1221.97</ele>
        <time>2011-09-06T14:53:17Z</time>
      </trkpt>
      <trkpt lat="43.75982" lon="6.92641">
        <ele>1225.82</ele>
        <time>2011-09-06T14:53:18Z</time>
      </trkpt>
      <trkpt lat="43.75975" lon="6.92642">
        <ele>1227.26</ele>
        <time>2011-09-06T14:53:29Z</time>
      </trkpt>
      <trkpt lat="43.75974" lon="6.92642">
        <ele>1224.38</ele>
        <time>2011-09-06T14:53:31Z</time>
      </trkpt>
      <trkpt lat="43.75972" lon="6.92642">
        <ele>1228.7</ele>
        <time>2011-09-06T14:53:33Z</time>
      </trkpt>
      <trkpt lat="43.75971" lon="6.92642">
        <ele>1224.86</ele>
        <time>2011-09-06T14:53:35Z</time>
      </trkpt>
      <trkpt lat="43.7597" lon="6.92643">
        <ele>1229.18</ele>
        <time>2011-09-06T14:53:36Z</time>
      </trkpt>
      <trkpt lat="43.75968" lon="6.92643">
        <ele>1226.3</ele>
        <time>2011-09-06T14:53:38Z</time>
      </trkpt>
      <trkpt lat="43.75966" lon="6.92643">
        <ele>1224.86</ele>
        <time>2011-09-06T14:53:40Z</time>
      </trkpt>
      <trkpt lat="43.75963" lon="6.92644">
        <ele>1226.3</ele>
        <time>2011-09-06T14:53:42Z</time>
      </trkpt>
      <trkpt lat="43.7596" lon="6.92645">
        <ele>1228.7</ele>
        <time>2011-09-06T14:53:45Z</time>
      </trkpt>
      <trkpt lat="43.75959" lon="6.92645">
        <ele>1225.82</ele>
        <time>2011-09-06T14:53:46Z</time>
      </trkpt>
      <trkpt lat="43.75958" lon="6.92645">
        <ele>1229.18</ele>
        <time>2011-09-06T14:53:47Z</time>
      </trkpt>
      <trkpt lat="43.75958" lon="6.92645">
        <ele>1225.34</ele>
        <time>2011-09-06T14:53:48Z</time>
      </trkpt>
      <trkpt lat="43.75957" lon="6.92645">
        <ele>1230.14</ele>
        <time>2011-09-06T14:53:49Z</time>
      </trkpt>
      <trkpt lat="43.75956" lon="6.92646">
        <ele>1226.3</ele>
        <time>2011-09-06T14:53:50Z</time>
      </trkpt>
      <trkpt lat="43.75954" lon="6.92646">
        <ele>1229.18</ele>
        <time>2011-09-06T14:53:51Z</time>
      </trkpt>
      <trkpt lat="43.75953" lon="6.92646">
        <ele>1225.82</ele>
        <time>2011-09-06T14:53:53Z</time>
      </trkpt>
      <trkpt lat="43.75952" lon="6.92647">
        <ele>1229.66</ele>
        <time>2011-09-06T14:53:54Z</time>
      </trkpt>
      <trkpt lat="43.75951" lon="6.92646">
        <ele>1225.34</ele>
        <time>2011-09-06T14:53:55Z</time>
      </trkpt>
      <trkpt lat="43.7595" lon="6.92646">
        <ele>1230.62</ele>
        <time>2011-09-06T14:53:56Z</time>
      </trkpt>
      <trkpt lat="43.75949" lon="6.92646">
        <ele>1225.82</ele>
        <time>2011-09-06T14:53:58Z</time>
      </trkpt>
      <trkpt lat="43.75948" lon="6.92646">
        <ele>1230.62</ele>
        <time>2011-09-06T14:53:59Z</time>
      </trkpt>
      <trkpt lat="43.75945" lon="6.92645">
        <ele>1226.3</ele>
        <time>2011-09-06T14:54:01Z</time>
      </trkpt>
      <trkpt lat="43.75944" lon="6.92645">
        <ele>1230.62</ele>
        <time>2011-09-06T14:54:02Z</time>
      </trkpt>
      <trkpt lat="43.75943" lon="6.92645">
        <ele>1225.82</ele>
        <time>2011-09-06T14:54:03Z</time>
      </trkpt>
      <trkpt lat="43.75942" lon="6.92645">
        <ele>1226.3</ele>
        <time>2011-09-06T14:54:05Z</time>
      </trkpt>
      <trkpt lat="43.75941" lon="6.92644">
        <ele>1229.66</ele>
        <time>2011-09-06T14:54:06Z</time>
      </trkpt>
      <trkpt lat="43.75937" lon="6.92645">
        <ele>1228.7</ele>
        <time>2011-09-06T14:54:13Z</time>
      </trkpt>
      <trkpt lat="43.75934" lon="6.92646">
        <ele>1229.66</ele>
        <time>2011-09-06T14:54:16Z</time>
      </trkpt>
      <trkpt lat="43.75924" lon="6.92643">
        <ele>1226.78</ele>
        <time>2011-09-06T14:54:29Z</time>
      </trkpt>
      <trkpt lat="43.75923" lon="6.92643">
        <ele>1231.59</ele>
        <time>2011-09-06T14:54:30Z</time>
      </trkpt>
      <trkpt lat="43.75922" lon="6.92643">
        <ele>1228.7</ele>
        <time>2011-09-06T14:54:31Z</time>
      </trkpt>
      <trkpt lat="43.75921" lon="6.92643">
        <ele>1232.07</ele>
        <time>2011-09-06T14:54:33Z</time>
      </trkpt>
      <trkpt lat="43.7592" lon="6.92643">
        <ele>1226.78</ele>
        <time>2011-09-06T14:54:34Z</time>
      </trkpt>
      <trkpt lat="43.7592" lon="6.92642">
        <ele>1232.07</ele>
        <time>2011-09-06T14:54:35Z</time>
      </trkpt>
      <trkpt lat="43.75917" lon="6.92642">
        <ele>1232.07</ele>
        <time>2011-09-06T14:54:38Z</time>
      </trkpt>
      <trkpt lat="43.75916" lon="6.92642">
        <ele>1227.26</ele>
        <time>2011-09-06T14:54:39Z</time>
      </trkpt>
      <trkpt lat="43.75916" lon="6.92641">
        <ele>1231.11</ele>
        <time>2011-09-06T14:54:40Z</time>
      </trkpt>
      <trkpt lat="43.75915" lon="6.92641">
        <ele>1225.82</ele>
        <time>2011-09-06T14:54:42Z</time>
      </trkpt>
      <trkpt lat="43.75914" lon="6.9264">
        <ele>1231.11</ele>
        <time>2011-09-06T14:54:43Z</time>
      </trkpt>
      <trkpt lat="43.75913" lon="6.9264">
        <ele>1228.7</ele>
        <time>2011-09-06T14:54:46Z</time>
      </trkpt>
      <trkpt lat="43.75909" lon="6.9264">
        <ele>1231.11</ele>
        <time>2011-09-06T14:54:51Z</time>
      </trkpt>
      <trkpt lat="43.75909" lon="6.9264">
        <ele>1227.74</ele>
        <time>2011-09-06T14:54:53Z</time>
      </trkpt>
      <trkpt lat="43.75908" lon="6.9264">
        <ele>1228.7</ele>
        <time>2011-09-06T14:54:54Z</time>
      </trkpt>
      <trkpt lat="43.75908" lon="6.9264">
        <ele>1233.03</ele>
        <time>2011-09-06T14:54:55Z</time>
      </trkpt>
      <trkpt lat="43.75908" lon="6.9264">
        <ele>1232.07</ele>
        <time>2011-09-06T14:54:56Z</time>
      </trkpt>
      <trkpt lat="43.75905" lon="6.92642">
        <ele>1230.62</ele>
        <time>2011-09-06T14:55:03Z</time>
      </trkpt>
      <trkpt lat="43.75903" lon="6.92643">
        <ele>1233.99</ele>
        <time>2011-09-06T14:55:05Z</time>
      </trkpt>
      <trkpt lat="43.75901" lon="6.92644">
        <ele>1228.7</ele>
        <time>2011-09-06T14:55:07Z</time>
      </trkpt>
      <trkpt lat="43.75901" lon="6.92644">
        <ele>1231.11</ele>
        <time>2011-09-06T14:55:08Z</time>
      </trkpt>
      <trkpt lat="43.75892" lon="6.92638">
        <ele>1232.55</ele>
        <time>2011-09-06T14:55:20Z</time>
      </trkpt>
      <trkpt lat="43.7589" lon="6.92636">
        <ele>1229.18</ele>
        <time>2011-09-06T14:55:23Z</time>
      </trkpt>
      <trkpt lat="43.75889" lon="6.92636">
        <ele>1233.51</ele>
        <time>2011-09-06T14:55:24Z</time>
      </trkpt>
      <trkpt lat="43.75889" lon="6.92636">
        <ele>1230.14</ele>
        <time>2011-09-06T14:55:25Z</time>
      </trkpt>
      <trkpt lat="43.75881" lon="6.92633">
        <ele>1233.99</ele>
        <time>2011-09-06T14:55:34Z</time>
      </trkpt>
      <trkpt lat="43.7588" lon="6.92633">
        <ele>1233.99</ele>
        <time>2011-09-06T14:55:35Z</time>
      </trkpt>
      <trkpt lat="43.75877" lon="6.92633">
        <ele>1235.43</ele>
        <time>2011-09-06T14:55:38Z</time>
      </trkpt>
      <trkpt lat="43.75866" lon="6.92641">
        <ele>1234.47</ele>
        <time>2011-09-06T14:55:53Z</time>
      </trkpt>
      <trkpt lat="43.75865" lon="6.92641">
        <ele>1237.35</ele>
        <time>2011-09-06T14:55:54Z</time>
      </trkpt>
      <trkpt lat="43.75864" lon="6.92642">
        <ele>1234.47</ele>
        <time>2011-09-06T14:55:55Z</time>
      </trkpt>
      <trkpt lat="43.75863" lon="6.92642">
        <ele>1237.83</ele>
        <time>2011-09-06T14:55:56Z</time>
      </trkpt>
      <trkpt lat="43.75862" lon="6.92648">
        <ele>1237.35</ele>
        <time>2011-09-06T14:56:01Z</time>
      </trkpt>
      <trkpt lat="43.75856" lon="6.92659">
        <ele>1238.8</ele>
        <time>2011-09-06T14:56:16Z</time>
      </trkpt>
      <trkpt lat="43.75851" lon="6.92665">
        <ele>1241.68</ele>
        <time>2011-09-06T14:56:25Z</time>
      </trkpt>
      <trkpt lat="43.75851" lon="6.92666">
        <ele>1238.32</ele>
        <time>2011-09-06T14:56:26Z</time>
      </trkpt>
      <trkpt lat="43.7585" lon="6.92668">
        <ele>1241.2</ele>
        <time>2011-09-06T14:56:29Z</time>
      </trkpt>
      <trkpt lat="43.75842" lon="6.92671">
        <ele>1239.76</ele>
        <time>2011-09-06T14:56:40Z</time>
      </trkpt>
      <trkpt lat="43.7584" lon="6.92672">
        <ele>1244.08</ele>
        <time>2011-09-06T14:56:42Z</time>
      </trkpt>
      <trkpt lat="43.75838" lon="6.92673">
        <ele>1242.64</ele>
        <time>2011-09-06T14:56:45Z</time>
      </trkpt>
      <trkpt lat="43.7583" lon="6.92678">
        <ele>1245.53</ele>
        <time>2011-09-06T14:56:57Z</time>
      </trkpt>
      <trkpt lat="43.75826" lon="6.9268">
        <ele>1246.01</ele>
        <time>2011-09-06T14:57:04Z</time>
      </trkpt>
      <trkpt lat="43.75822" lon="6.92682">
        <ele>1248.41</ele>
        <time>2011-09-06T14:57:07Z</time>
      </trkpt>
      <trkpt lat="43.75821" lon="6.92683">
        <ele>1244.08</ele>
        <time>2011-09-06T14:57:09Z</time>
      </trkpt>
      <trkpt lat="43.7582" lon="6.92684">
        <ele>1246.97</ele>
        <time>2011-09-06T14:57:10Z</time>
      </trkpt>
      <trkpt lat="43.75819" lon="6.92684">
        <ele>1247.45</ele>
        <time>2011-09-06T14:57:12Z</time>
      </trkpt>
      <trkpt lat="43.75817" lon="6.92685">
        <ele>1246.97</ele>
        <time>2011-09-06T14:57:14Z</time>
      </trkpt>
      <trkpt lat="43.75815" lon="6.92688">
        <ele>1246.01</ele>
        <time>2011-09-06T14:57:17Z</time>
      </trkpt>
      <trkpt lat="43.75813" lon="6.92691">
        <ele>1246.01</ele>
        <time>2011-09-06T14:57:22Z</time>
      </trkpt>
      <trkpt lat="43.75811" lon="6.92693">
        <ele>1249.37</ele>
        <time>2011-09-06T14:57:26Z</time>
      </trkpt>
      <trkpt lat="43.75805" lon="6.92698">
        <ele>1247.45</ele>
        <time>2011-09-06T14:57:33Z</time>
      </trkpt>
      <trkpt lat="43.75797" lon="6.92706">
        <ele>1247.93</ele>
        <time>2011-09-06T14:57:45Z</time>
      </trkpt>
      <trkpt lat="43.75794" lon="6.92709">
        <ele>1250.81</ele>
        <time>2011-09-06T14:57:48Z</time>
      </trkpt>
      <trkpt lat="43.75793" lon="6.9271">
        <ele>1249.37</ele>
        <time>2011-09-06T14:57:50Z</time>
      </trkpt>
      <trkpt lat="43.75792" lon="6.92712">
        <ele>1252.74</ele>
        <time>2011-09-06T14:57:52Z</time>
      </trkpt>
      <trkpt lat="43.75792" lon="6.92712">
        <ele>1249.37</ele>
        <time>2011-09-06T14:57:53Z</time>
      </trkpt>
      <trkpt lat="43.75791" lon="6.92713">
        <ele>1249.37</ele>
        <time>2011-09-06T14:57:54Z</time>
      </trkpt>
      <trkpt lat="43.75789" lon="6.92715">
        <ele>1252.74</ele>
        <time>2011-09-06T14:57:56Z</time>
      </trkpt>
      <trkpt lat="43.75789" lon="6.92716">
        <ele>1248.89</ele>
        <time>2011-09-06T14:57:57Z</time>
      </trkpt>
      <trkpt lat="43.75788" lon="6.92716">
        <ele>1252.74</ele>
        <time>2011-09-06T14:57:58Z</time>
      </trkpt>
      <trkpt lat="43.75781" lon="6.92722">
        <ele>1252.25</ele>
        <time>2011-09-06T14:58:07Z</time>
      </trkpt>
      <trkpt lat="43.75771" lon="6.92726">
        <ele>1254.18</ele>
        <time>2011-09-06T14:58:18Z</time>
      </trkpt>
      <trkpt lat="43.75767" lon="6.9273">
        <ele>1254.66</ele>
        <time>2011-09-06T14:58:24Z</time>
      </trkpt>
      <trkpt lat="43.75763" lon="6.92733">
        <ele>1253.7</ele>
        <time>2011-09-06T14:58:29Z</time>
      </trkpt>
      <trkpt lat="43.75759" lon="6.92735">
        <ele>1253.7</ele>
        <time>2011-09-06T14:58:33Z</time>
      </trkpt>
      <trkpt lat="43.75754" lon="6.92739">
        <ele>1255.14</ele>
        <time>2011-09-06T14:58:39Z</time>
      </trkpt>
      <trkpt lat="43.7574" lon="6.92745">
        <ele>1256.1</ele>
        <time>2011-09-06T14:58:53Z</time>
      </trkpt>
      <trkpt lat="43.75733" lon="6.92745">
        <ele>1256.58</ele>
        <time>2011-09-06T14:59:00Z</time>
      </trkpt>
      <trkpt lat="43.75725" lon="6.92742">
        <ele>1259.46</ele>
        <time>2011-09-06T14:59:10Z</time>
      </trkpt>
      <trkpt lat="43.75715" lon="6.92742">
        <ele>1256.58</ele>
        <time>2011-09-06T14:59:22Z</time>
      </trkpt>
      <trkpt lat="43.75711" lon="6.9274">
        <ele>1256.58</ele>
        <time>2011-09-06T14:59:26Z</time>
      </trkpt>
      <trkpt lat="43.75704" lon="6.92734">
        <ele>1257.06</ele>
        <time>2011-09-06T14:59:34Z</time>
      </trkpt>
      <trkpt lat="43.75702" lon="6.92733">
        <ele>1255.62</ele>
        <time>2011-09-06T14:59:36Z</time>
      </trkpt>
      <trkpt lat="43.75689" lon="6.92735">
        <ele>1256.1</ele>
        <time>2011-09-06T14:59:49Z</time>
      </trkpt>
      <trkpt lat="43.75687" lon="6.92735">
        <ele>1257.54</ele>
        <time>2011-09-06T14:59:51Z</time>
      </trkpt>
      <trkpt lat="43.75681" lon="6.92736">
        <ele>1256.58</ele>
        <time>2011-09-06T14:59:57Z</time>
      </trkpt>
      <trkpt lat="43.7567" lon="6.92737">
        <ele>1258.02</ele>
        <time>2011-09-06T15:00:10Z</time>
      </trkpt>
      <trkpt lat="43.75658" lon="6.92737">
        <ele>1258.98</ele>
        <time>2011-09-06T15:00:23Z</time>
      </trkpt>
      <trkpt lat="43.75658" lon="6.92726">
        <ele>1257.54</ele>
        <time>2011-09-06T15:00:30Z</time>
      </trkpt>
      <trkpt lat="43.75656" lon="6.92724">
        <ele>1258.98</ele>
        <time>2011-09-06T15:00:37Z</time>
      </trkpt>
      <trkpt lat="43.75654" lon="6.92726">
        <ele>1258.98</ele>
        <time>2011-09-06T15:00:40Z</time>
      </trkpt>
      <trkpt lat="43.7565" lon="6.92732">
        <ele>1259.94</ele>
        <time>2011-09-06T15:00:45Z</time>
      </trkpt>
      <trkpt lat="43.75643" lon="6.9274">
        <ele>1258.98</ele>
        <time>2011-09-06T15:00:55Z</time>
      </trkpt>
      <trkpt lat="43.75634" lon="6.92746">
        <ele>1258.5</ele>
        <time>2011-09-06T15:01:03Z</time>
      </trkpt>
      <trkpt lat="43.7562" lon="6.92757">
        <ele>1259.46</ele>
        <time>2011-09-06T15:01:15Z</time>
      </trkpt>
      <trkpt lat="43.75606" lon="6.92768">
        <ele>1258.98</ele>
        <time>2011-09-06T15:01:27Z</time>
      </trkpt>
      <trkpt lat="43.75601" lon="6.92772">
        <ele>1258.98</ele>
        <time>2011-09-06T15:01:31Z</time>
      </trkpt>
      <trkpt lat="43.75596" lon="6.92778">
        <ele>1258.98</ele>
        <time>2011-09-06T15:01:37Z</time>
      </trkpt>
      <trkpt lat="43.75588" lon="6.92792">
        <ele>1258.5</ele>
        <time>2011-09-06T15:01:47Z</time>
      </trkpt>
      <trkpt lat="43.75588" lon="6.92796">
        <ele>1257.54</ele>
        <time>2011-09-06T15:01:50Z</time>
      </trkpt>
      <trkpt lat="43.75582" lon="6.92805">
        <ele>1258.5</ele>
        <time>2011-09-06T15:01:58Z</time>
      </trkpt>
      <trkpt lat="43.75574" lon="6.92819">
        <ele>1258.02</ele>
        <time>2011-09-06T15:02:09Z</time>
      </trkpt>
      <trkpt lat="43.75573" lon="6.92821">
        <ele>1259.46</ele>
        <time>2011-09-06T15:02:11Z</time>
      </trkpt>
      <trkpt lat="43.75565" lon="6.92831">
        <ele>1259.94</ele>
        <time>2011-09-06T15:02:20Z</time>
      </trkpt>
      <trkpt lat="43.7556" lon="6.92833">
        <ele>1258.5</ele>
        <time>2011-09-06T15:02:25Z</time>
      </trkpt>
      <trkpt lat="43.75555" lon="6.92836">
        <ele>1259.94</ele>
        <time>2011-09-06T15:02:30Z</time>
      </trkpt>
      <trkpt lat="43.75542" lon="6.92848">
        <ele>1261.87</ele>
        <time>2011-09-06T15:02:44Z</time>
      </trkpt>
      <trkpt lat="43.75539" lon="6.92852">
        <ele>1260.43</ele>
        <time>2011-09-06T15:02:49Z</time>
      </trkpt>
      <trkpt lat="43.75529" lon="6.92863">
        <ele>1262.83</ele>
        <time>2011-09-06T15:03:03Z</time>
      </trkpt>
      <trkpt lat="43.75525" lon="6.92867">
        <ele>1263.31</ele>
        <time>2011-09-06T15:03:14Z</time>
      </trkpt>
      <trkpt lat="43.75523" lon="6.92875">
        <ele>1265.23</ele>
        <time>2011-09-06T15:03:31Z</time>
      </trkpt>
      <trkpt lat="43.75522" lon="6.92878">
        <ele>1263.79</ele>
        <time>2011-09-06T15:03:34Z</time>
      </trkpt>
      <trkpt lat="43.75512" lon="6.92887">
        <ele>1266.19</ele>
        <time>2011-09-06T15:03:44Z</time>
      </trkpt>
      <trkpt lat="43.75507" lon="6.92894">
        <ele>1265.23</ele>
        <time>2011-09-06T15:03:51Z</time>
      </trkpt>
      <trkpt lat="43.75503" lon="6.92903">
        <ele>1265.71</ele>
        <time>2011-09-06T15:03:59Z</time>
      </trkpt>
      <trkpt lat="43.75502" lon="6.92907">
        <ele>1266.67</ele>
        <time>2011-09-06T15:04:02Z</time>
      </trkpt>
      <trkpt lat="43.75498" lon="6.92912">
        <ele>1266.67</ele>
        <time>2011-09-06T15:04:08Z</time>
      </trkpt>
      <trkpt lat="43.75487" lon="6.92917">
        <ele>1268.12</ele>
        <time>2011-09-06T15:04:21Z</time>
      </trkpt>
      <trkpt lat="43.75479" lon="6.92921">
        <ele>1268.6</ele>
        <time>2011-09-06T15:04:30Z</time>
      </trkpt>
      <trkpt lat="43.75473" lon="6.92925">
        <ele>1270.04</ele>
        <time>2011-09-06T15:04:36Z</time>
      </trkpt>
      <trkpt lat="43.75472" lon="6.92926">
        <ele>1269.56</ele>
        <time>2011-09-06T15:04:38Z</time>
      </trkpt>
      <trkpt lat="43.75459" lon="6.92932">
        <ele>1270.04</ele>
        <time>2011-09-06T15:04:51Z</time>
      </trkpt>
      <trkpt lat="43.75459" lon="6.92932">
        <ele>1269.08</ele>
        <time>2011-09-06T15:04:52Z</time>
      </trkpt>
      <trkpt lat="43.75446" lon="6.92935">
        <ele>1270.52</ele>
        <time>2011-09-06T15:05:03Z</time>
      </trkpt>
      <trkpt lat="43.75433" lon="6.92942">
        <ele>1271.96</ele>
        <time>2011-09-06T15:05:17Z</time>
      </trkpt>
      <trkpt lat="43.75421" lon="6.92947">
        <ele>1272.92</ele>
        <time>2011-09-06T15:05:30Z</time>
      </trkpt>
      <trkpt lat="43.75408" lon="6.92952">
        <ele>1273.88</ele>
        <time>2011-09-06T15:05:44Z</time>
      </trkpt>
      <trkpt lat="43.75402" lon="6.92957">
        <ele>1274.85</ele>
        <time>2011-09-06T15:05:51Z</time>
      </trkpt>
      <trkpt lat="43.75392" lon="6.92963">
        <ele>1276.77</ele>
        <time>2011-09-06T15:06:04Z</time>
      </trkpt>
      <trkpt lat="43.75386" lon="6.92966">
        <ele>1278.69</ele>
        <time>2011-09-06T15:06:14Z</time>
      </trkpt>
      <trkpt lat="43.75384" lon="6.92968">
        <ele>1277.73</ele>
        <time>2011-09-06T15:06:20Z</time>
      </trkpt>
      <trkpt lat="43.75381" lon="6.9297">
        <ele>1276.77</ele>
        <time>2011-09-06T15:06:39Z</time>
      </trkpt>
      <trkpt lat="43.75379" lon="6.9297">
        <ele>1279.17</ele>
        <time>2011-09-06T15:06:44Z</time>
      </trkpt>
      <trkpt lat="43.75375" lon="6.92974">
        <ele>1280.13</ele>
        <time>2011-09-06T15:06:59Z</time>
      </trkpt>
      <trkpt lat="43.75375" lon="6.92974">
        <ele>1279.65</ele>
        <time>2011-09-06T15:07:19Z</time>
      </trkpt>
      <trkpt lat="43.75375" lon="6.92974">
        <ele>1278.69</ele>
        <time>2011-09-06T15:07:42Z</time>
      </trkpt>
      <trkpt lat="43.75375" lon="6.92974">
        <ele>1278.69</ele>
        <time>2011-09-06T15:08:10Z</time>
      </trkpt>
      <trkpt lat="43.75375" lon="6.92974">
        <ele>1279.17</ele>
        <time>2011-09-06T15:08:36Z</time>
      </trkpt>
      <trkpt lat="43.75375" lon="6.92974">
        <ele>1278.21</ele>
        <time>2011-09-06T15:09:02Z</time>
      </trkpt>
      <trkpt lat="43.75375" lon="6.92974">
        <ele>1278.21</ele>
        <time>2011-09-06T15:09:30Z</time>
      </trkpt>
      <trkpt lat="43.75375" lon="6.92974">
        <ele>1278.21</ele>
        <time>2011-09-06T15:09:58Z</time>
      </trkpt>
      <trkpt lat="43.75375" lon="6.92974">
        <ele>1280.13</ele>
        <time>2011-09-06T15:10:29Z</time>
      </trkpt>
      <trkpt lat="43.75375" lon="6.92974">
        <ele>1279.65</ele>
        <time>2011-09-06T15:10:55Z</time>
      </trkpt>
      <trkpt lat="43.75375" lon="6.92974">
        <ele>1279.65</ele>
        <time>2011-09-06T15:11:27Z</time>
      </trkpt>
      <trkpt lat="43.75375" lon="6.92974">
        <ele>1277.25</ele>
        <time>2011-09-06T15:11:56Z</time>
      </trkpt>
      <trkpt lat="43.75375" lon="6.92974">
        <ele>1278.21</ele>
        <time>2011-09-06T15:12:29Z</time>
      </trkpt>
      <trkpt lat="43.75375" lon="6.92974">
        <ele>1278.69</ele>
        <time>2011-09-06T15:12:53Z</time>
      </trkpt>
      <trkpt lat="43.75375" lon="6.92973">
        <ele>1279.17</ele>
        <time>2011-09-06T15:13:27Z</time>
      </trkpt>
      <trkpt lat="43.75375" lon="6.92973">
        <ele>1279.17</ele>
        <time>2011-09-06T15:13:59Z</time>
      </trkpt>
      <trkpt lat="43.75375" lon="6.92973">
        <ele>1278.21</ele>
        <time>2011-09-06T15:14:20Z</time>
      </trkpt>
      <trkpt lat="43.75375" lon="6.92973">
        <ele>1277.25</ele>
        <time>2011-09-06T15:14:59Z</time>
      </trkpt>
      <trkpt lat="43.75375" lon="6.92973">
        <ele>1278.21</ele>
        <time>2011-09-06T15:15:28Z</time>
      </trkpt>
      <trkpt lat="43.75375" lon="6.92973">
        <ele>1278.21</ele>
        <time>2011-09-06T15:15:50Z</time>
      </trkpt>
      <trkpt lat="43.75365" lon="6.92974">
        <ele>1277.25</ele>
        <time>2011-09-06T15:16:08Z</time>
      </trkpt>
      <trkpt lat="43.75358" lon="6.92979">
        <ele>1276.77</ele>
        <time>2011-09-06T15:16:26Z</time>
      </trkpt>
      <trkpt lat="43.75354" lon="6.92968">
        <ele>1275.81</ele>
        <time>2011-09-06T15:16:41Z</time>
      </trkpt>
      <trkpt lat="43.75348" lon="6.92953">
        <ele>1273.88</ele>
        <time>2011-09-06T15:16:58Z</time>
      </trkpt>
      <trkpt lat="43.75346" lon="6.9295">
        <ele>1272.44</ele>
        <time>2011-09-06T15:17:01Z</time>
      </trkpt>
      <trkpt lat="43.75335" lon="6.92933">
        <ele>1269.08</ele>
        <time>2011-09-06T15:17:15Z</time>
      </trkpt>
      <trkpt lat="43.75332" lon="6.92929">
        <ele>1269.08</ele>
        <time>2011-09-06T15:17:21Z</time>
      </trkpt>
      <trkpt lat="43.75328" lon="6.92928">
        <ele>1267.64</ele>
        <time>2011-09-06T15:17:24Z</time>
      </trkpt>
      <trkpt lat="43.75317" lon="6.92924">
        <ele>1269.56</ele>
        <time>2011-09-06T15:17:43Z</time>
      </trkpt>
      <trkpt lat="43.7531" lon="6.92918">
        <ele>1268.12</ele>
        <time>2011-09-06T15:17:59Z</time>
      </trkpt>
      <trkpt lat="43.75288" lon="6.9291">
        <ele>1269.08</ele>
        <time>2011-09-06T15:18:21Z</time>
      </trkpt>
      <trkpt lat="43.75267" lon="6.92907">
        <ele>1267.64</ele>
        <time>2011-09-06T15:18:40Z</time>
      </trkpt>
      <trkpt lat="43.75264" lon="6.92908">
        <ele>1268.6</ele>
        <time>2011-09-06T15:18:43Z</time>
      </trkpt>
      <trkpt lat="43.75259" lon="6.92907">
        <ele>1268.12</ele>
        <time>2011-09-06T15:18:47Z</time>
      </trkpt>
      <trkpt lat="43.75251" lon="6.9291">
        <ele>1268.6</ele>
        <time>2011-09-06T15:18:55Z</time>
      </trkpt>
      <trkpt lat="43.75233" lon="6.92931">
        <ele>1269.56</ele>
        <time>2011-09-06T15:19:16Z</time>
      </trkpt>
      <trkpt lat="43.75225" lon="6.92936">
        <ele>1266.19</ele>
        <time>2011-09-06T15:19:27Z</time>
      </trkpt>
      <trkpt lat="43.75218" lon="6.92944">
        <ele>1267.16</ele>
        <time>2011-09-06T15:19:37Z</time>
      </trkpt>
      <trkpt lat="43.75215" lon="6.92954">
        <ele>1268.12</ele>
        <time>2011-09-06T15:19:44Z</time>
      </trkpt>
      <trkpt lat="43.75201" lon="6.92971">
        <ele>1268.12</ele>
        <time>2011-09-06T15:20:03Z</time>
      </trkpt>
      <trkpt lat="43.75199" lon="6.9298">
        <ele>1268.6</ele>
        <time>2011-09-06T15:20:11Z</time>
      </trkpt>
      <trkpt lat="43.75198" lon="6.92987">
        <ele>1268.12</ele>
        <time>2011-09-06T15:20:16Z</time>
      </trkpt>
      <trkpt lat="43.75193" lon="6.92999">
        <ele>1268.12</ele>
        <time>2011-09-06T15:20:24Z</time>
      </trkpt>
      <trkpt lat="43.75191" lon="6.93001">
        <ele>1268.12</ele>
        <time>2011-09-06T15:20:42Z</time>
      </trkpt>
      <trkpt lat="43.75191" lon="6.93001">
        <ele>1266.67</ele>
        <time>2011-09-06T15:20:44Z</time>
      </trkpt>
      <trkpt lat="43.75191" lon="6.93001">
        <ele>1267.64</ele>
        <time>2011-09-06T15:21:00Z</time>
      </trkpt>
      <trkpt lat="43.75191" lon="6.93001">
        <ele>1266.67</ele>
        <time>2011-09-06T15:21:01Z</time>
      </trkpt>
      <trkpt lat="43.75182" lon="6.93005">
        <ele>1267.16</ele>
        <time>2011-09-06T15:21:22Z</time>
      </trkpt>
      <trkpt lat="43.75182" lon="6.93005">
        <ele>1267.64</ele>
        <time>2011-09-06T15:21:24Z</time>
      </trkpt>
      <trkpt lat="43.75182" lon="6.93005">
        <ele>1267.16</ele>
        <time>2011-09-06T15:21:50Z</time>
      </trkpt>
      <trkpt lat="43.75182" lon="6.93005">
        <ele>1267.16</ele>
        <time>2011-09-06T15:22:16Z</time>
      </trkpt>
      <trkpt lat="43.75182" lon="6.93005">
        <ele>1267.16</ele>
        <time>2011-09-06T15:22:45Z</time>
      </trkpt>
      <trkpt lat="43.75182" lon="6.93006">
        <ele>1267.64</ele>
        <time>2011-09-06T15:23:22Z</time>
      </trkpt>
      <trkpt lat="43.75182" lon="6.93008">
        <ele>1268.12</ele>
        <time>2011-09-06T15:23:36Z</time>
      </trkpt>
      <trkpt lat="43.75182" lon="6.93031">
        <ele>1269.56</ele>
        <time>2011-09-06T15:23:54Z</time>
      </trkpt>
      <trkpt lat="43.75182" lon="6.9304">
        <ele>1268.6</ele>
        <time>2011-09-06T15:24:03Z</time>
      </trkpt>
      <trkpt lat="43.75183" lon="6.9306">
        <ele>1270.04</ele>
        <time>2011-09-06T15:24:17Z</time>
      </trkpt>
      <trkpt lat="43.75183" lon="6.93079">
        <ele>1269.56</ele>
        <time>2011-09-06T15:24:30Z</time>
      </trkpt>
      <trkpt lat="43.75183" lon="6.93101">
        <ele>1269.56</ele>
        <time>2011-09-06T15:24:47Z</time>
      </trkpt>
      <trkpt lat="43.75187" lon="6.93115">
        <ele>1270.04</ele>
        <time>2011-09-06T15:24:59Z</time>
      </trkpt>
      <trkpt lat="43.7519" lon="6.93136">
        <ele>1270.04</ele>
        <time>2011-09-06T15:25:14Z</time>
      </trkpt>
      <trkpt lat="43.75193" lon="6.93157">
        <ele>1269.08</ele>
        <time>2011-09-06T15:25:29Z</time>
      </trkpt>
      <trkpt lat="43.75193" lon="6.93178">
        <ele>1270.04</ele>
        <time>2011-09-06T15:25:44Z</time>
      </trkpt>
      <trkpt lat="43.75194" lon="6.93197">
        <ele>1269.56</ele>
        <time>2011-09-06T15:25:58Z</time>
      </trkpt>
      <trkpt lat="43.75193" lon="6.93218">
        <ele>1270.52</ele>
        <time>2011-09-06T15:26:13Z</time>
      </trkpt>
      <trkpt lat="43.75193" lon="6.9322">
        <ele>1271</ele>
        <time>2011-09-06T15:26:15Z</time>
      </trkpt>
      <trkpt lat="43.75193" lon="6.93223">
        <ele>1271</ele>
        <time>2011-09-06T15:26:17Z</time>
      </trkpt>
      <trkpt lat="43.75191" lon="6.93248">
        <ele>1272.44</ele>
        <time>2011-09-06T15:26:34Z</time>
      </trkpt>
      <trkpt lat="43.75189" lon="6.93261">
        <ele>1272.92</ele>
        <time>2011-09-06T15:26:45Z</time>
      </trkpt>
      <trkpt lat="43.7519" lon="6.93269">
        <ele>1273.4</ele>
        <time>2011-09-06T15:26:54Z</time>
      </trkpt>
      <trkpt lat="43.75195" lon="6.93288">
        <ele>1272.92</ele>
        <time>2011-09-06T15:27:08Z</time>
      </trkpt>
      <trkpt lat="43.752" lon="6.93307">
        <ele>1271.96</ele>
        <time>2011-09-06T15:27:22Z</time>
      </trkpt>
      <trkpt lat="43.75201" lon="6.93313">
        <ele>1271.96</ele>
        <time>2011-09-06T15:27:27Z</time>
      </trkpt>
      <trkpt lat="43.75201" lon="6.9333">
        <ele>1272.44</ele>
        <time>2011-09-06T15:27:40Z</time>
      </trkpt>
      <trkpt lat="43.75199" lon="6.93348">
        <ele>1271.96</ele>
        <time>2011-09-06T15:27:56Z</time>
      </trkpt>
      <trkpt lat="43.75199" lon="6.93355">
        <ele>1271.48</ele>
        <time>2011-09-06T15:28:01Z</time>
      </trkpt>
      <trkpt lat="43.75201" lon="6.93375">
        <ele>1271</ele>
        <time>2011-09-06T15:28:16Z</time>
      </trkpt>
      <trkpt lat="43.75202" lon="6.93385">
        <ele>1270.52</ele>
        <time>2011-09-06T15:28:23Z</time>
      </trkpt>
      <trkpt lat="43.75201" lon="6.93388">
        <ele>1270.52</ele>
        <time>2011-09-06T15:28:25Z</time>
      </trkpt>
      <trkpt lat="43.752" lon="6.93406">
        <ele>1271</ele>
        <time>2011-09-06T15:28:41Z</time>
      </trkpt>
      <trkpt lat="43.75198" lon="6.9342">
        <ele>1272.92</ele>
        <time>2011-09-06T15:28:54Z</time>
      </trkpt>
      <trkpt lat="43.75197" lon="6.93421">
        <ele>1271.96</ele>
        <time>2011-09-06T15:28:55Z</time>
      </trkpt>
      <trkpt lat="43.75195" lon="6.93437">
        <ele>1272.92</ele>
        <time>2011-09-06T15:29:11Z</time>
      </trkpt>
      <trkpt lat="43.75192" lon="6.93453">
        <ele>1274.36</ele>
        <time>2011-09-06T15:29:25Z</time>
      </trkpt>
      <trkpt lat="43.75191" lon="6.93456">
        <ele>1274.85</ele>
        <time>2011-09-06T15:29:29Z</time>
      </trkpt>
      <trkpt lat="43.75188" lon="6.93466">
        <ele>1275.33</ele>
        <time>2011-09-06T15:29:37Z</time>
      </trkpt>
      <trkpt lat="43.75187" lon="6.93475">
        <ele>1276.29</ele>
        <time>2011-09-06T15:29:47Z</time>
      </trkpt>
      <trkpt lat="43.75187" lon="6.93479">
        <ele>1276.77</ele>
        <time>2011-09-06T15:29:50Z</time>
      </trkpt>
      <trkpt lat="43.75185" lon="6.93488">
        <ele>1277.25</ele>
        <time>2011-09-06T15:29:57Z</time>
      </trkpt>
      <trkpt lat="43.75182" lon="6.93501">
        <ele>1277.73</ele>
        <time>2011-09-06T15:30:07Z</time>
      </trkpt>
      <trkpt lat="43.75179" lon="6.93519">
        <ele>1279.17</ele>
        <time>2011-09-06T15:30:22Z</time>
      </trkpt>
      <trkpt lat="43.75179" lon="6.93522">
        <ele>1278.69</ele>
        <time>2011-09-06T15:30:25Z</time>
      </trkpt>
      <trkpt lat="43.7518" lon="6.93534">
        <ele>1278.21</ele>
        <time>2011-09-06T15:30:34Z</time>
      </trkpt>
      <trkpt lat="43.75184" lon="6.93542">
        <ele>1278.69</ele>
        <time>2011-09-06T15:30:48Z</time>
      </trkpt>
      <trkpt lat="43.75184" lon="6.93542">
        <ele>1279.65</ele>
        <time>2011-09-06T15:31:11Z</time>
      </trkpt>
      <trkpt lat="43.75184" lon="6.93542">
        <ele>1278.69</ele>
        <time>2011-09-06T15:31:42Z</time>
      </trkpt>
      <trkpt lat="43.75184" lon="6.93542">
        <ele>1278.21</ele>
        <time>2011-09-06T15:32:08Z</time>
      </trkpt>
      <trkpt lat="43.75184" lon="6.93542">
        <ele>1278.69</ele>
        <time>2011-09-06T15:32:33Z</time>
      </trkpt>
      <trkpt lat="43.75184" lon="6.93543">
        <ele>1278.69</ele>
        <time>2011-09-06T15:32:58Z</time>
      </trkpt>
      <trkpt lat="43.75184" lon="6.93543">
        <ele>1278.69</ele>
        <time>2011-09-06T15:33:30Z</time>
      </trkpt>
      <trkpt lat="43.75185" lon="6.93551">
        <ele>1278.21</ele>
        <time>2011-09-06T15:33:52Z</time>
      </trkpt>
      <trkpt lat="43.75181" lon="6.93572">
        <ele>1278.21</ele>
        <time>2011-09-06T15:34:05Z</time>
      </trkpt>
      <trkpt lat="43.75176" lon="6.93588">
        <ele>1278.21</ele>
        <time>2011-09-06T15:34:18Z</time>
      </trkpt>
      <trkpt lat="43.75176" lon="6.93591">
        <ele>1278.69</ele>
        <time>2011-09-06T15:34:20Z</time>
      </trkpt>
      <trkpt lat="43.75168" lon="6.93605">
        <ele>1279.17</ele>
        <time>2011-09-06T15:34:34Z</time>
      </trkpt>
      <trkpt lat="43.7516" lon="6.93616">
        <ele>1279.17</ele>
        <time>2011-09-06T15:34:47Z</time>
      </trkpt>
      <trkpt lat="43.75159" lon="6.93618">
        <ele>1278.69</ele>
        <time>2011-09-06T15:34:48Z</time>
      </trkpt>
      <trkpt lat="43.75155" lon="6.93625">
        <ele>1279.17</ele>
        <time>2011-09-06T15:35:03Z</time>
      </trkpt>
      <trkpt lat="43.75155" lon="6.93625">
        <ele>1279.17</ele>
        <time>2011-09-06T15:35:35Z</time>
      </trkpt>
      <trkpt lat="43.75155" lon="6.93625">
        <ele>1278.69</ele>
        <time>2011-09-06T15:35:54Z</time>
      </trkpt>
      <trkpt lat="43.75155" lon="6.93625">
        <ele>1278.21</ele>
        <time>2011-09-06T15:36:19Z</time>
      </trkpt>
      <trkpt lat="43.75155" lon="6.93625">
        <ele>1277.25</ele>
        <time>2011-09-06T15:36:51Z</time>
      </trkpt>
      <trkpt lat="43.75155" lon="6.93625">
        <ele>1278.21</ele>
        <time>2011-09-06T15:37:16Z</time>
      </trkpt>
      <trkpt lat="43.75155" lon="6.93625">
        <ele>1277.73</ele>
        <time>2011-09-06T15:37:34Z</time>
      </trkpt>
      <trkpt lat="43.75155" lon="6.93625">
        <ele>1278.21</ele>
        <time>2011-09-06T15:37:58Z</time>
      </trkpt>
      <trkpt lat="43.75157" lon="6.93621">
        <ele>1279.17</ele>
        <time>2011-09-06T15:38:10Z</time>
      </trkpt>
      <trkpt lat="43.75161" lon="6.9361">
        <ele>1279.17</ele>
        <time>2011-09-06T15:38:24Z</time>
      </trkpt>
      <trkpt lat="43.75163" lon="6.93593">
        <ele>1280.13</ele>
        <time>2011-09-06T15:38:38Z</time>
      </trkpt>
      <trkpt lat="43.75164" lon="6.93582">
        <ele>1279.17</ele>
        <time>2011-09-06T15:38:46Z</time>
      </trkpt>
      <trkpt lat="43.75168" lon="6.93569">
        <ele>1278.69</ele>
        <time>2011-09-06T15:38:59Z</time>
      </trkpt>
      <trkpt lat="43.75167" lon="6.93552">
        <ele>1278.69</ele>
        <time>2011-09-06T15:39:10Z</time>
      </trkpt>
      <trkpt lat="43.75169" lon="6.93532">
        <ele>1278.69</ele>
        <time>2011-09-06T15:39:26Z</time>
      </trkpt>
      <trkpt lat="43.75169" lon="6.93518">
        <ele>1277.25</ele>
        <time>2011-09-06T15:39:34Z</time>
      </trkpt>
      <trkpt lat="43.75169" lon="6.93501">
        <ele>1275.81</ele>
        <time>2011-09-06T15:39:48Z</time>
      </trkpt>
      <trkpt lat="43.75168" lon="6.93484">
        <ele>1274.85</ele>
        <time>2011-09-06T15:39:59Z</time>
      </trkpt>
      <trkpt lat="43.75168" lon="6.93463">
        <ele>1274.85</ele>
        <time>2011-09-06T15:40:13Z</time>
      </trkpt>
      <trkpt lat="43.75167" lon="6.93448">
        <ele>1272.44</ele>
        <time>2011-09-06T15:40:23Z</time>
      </trkpt>
      <trkpt lat="43.75167" lon="6.93432">
        <ele>1271.96</ele>
        <time>2011-09-06T15:40:35Z</time>
      </trkpt>
      <trkpt lat="43.75169" lon="6.93418">
        <ele>1270.04</ele>
        <time>2011-09-06T15:40:43Z</time>
      </trkpt>
      <trkpt lat="43.75169" lon="6.93397">
        <ele>1269.56</ele>
        <time>2011-09-06T15:40:57Z</time>
      </trkpt>
      <trkpt lat="43.75168" lon="6.93389">
        <ele>1270.52</ele>
        <time>2011-09-06T15:41:02Z</time>
      </trkpt>
      <trkpt lat="43.75168" lon="6.93365">
        <ele>1270.52</ele>
        <time>2011-09-06T15:41:16Z</time>
      </trkpt>
      <trkpt lat="43.75168" lon="6.93347">
        <ele>1270.52</ele>
        <time>2011-09-06T15:41:28Z</time>
      </trkpt>
      <trkpt lat="43.75173" lon="6.9333">
        <ele>1271.48</ele>
        <time>2011-09-06T15:41:41Z</time>
      </trkpt>
      <trkpt lat="43.75184" lon="6.9332">
        <ele>1272.44</ele>
        <time>2011-09-06T15:41:53Z</time>
      </trkpt>
      <trkpt lat="43.75185" lon="6.93318">
        <ele>1271</ele>
        <time>2011-09-06T15:42:08Z</time>
      </trkpt>
      <trkpt lat="43.75185" lon="6.93318">
        <ele>1271</ele>
        <time>2011-09-06T15:42:32Z</time>
      </trkpt>
      <trkpt lat="43.75185" lon="6.93318">
        <ele>1270.52</ele>
        <time>2011-09-06T15:42:46Z</time>
      </trkpt>
      <trkpt lat="43.75189" lon="6.93312">
        <ele>1270.52</ele>
        <time>2011-09-06T15:42:51Z</time>
      </trkpt>
      <trkpt lat="43.75192" lon="6.93287">
        <ele>1271.96</ele>
        <time>2011-09-06T15:43:05Z</time>
      </trkpt>
      <trkpt lat="43.75192" lon="6.93283">
        <ele>1270.52</ele>
        <time>2011-09-06T15:43:08Z</time>
      </trkpt>
      <trkpt lat="43.75192" lon="6.93269">
        <ele>1271</ele>
        <time>2011-09-06T15:43:14Z</time>
      </trkpt>
      <trkpt lat="43.75192" lon="6.93257">
        <ele>1270.52</ele>
        <time>2011-09-06T15:43:18Z</time>
      </trkpt>
      <trkpt lat="43.75189" lon="6.93225">
        <ele>1269.08</ele>
        <time>2011-09-06T15:43:32Z</time>
      </trkpt>
      <trkpt lat="43.7519" lon="6.93209">
        <ele>1267.64</ele>
        <time>2011-09-06T15:43:39Z</time>
      </trkpt>
      <trkpt lat="43.75189" lon="6.93185">
        <ele>1267.16</ele>
        <time>2011-09-06T15:43:50Z</time>
      </trkpt>
      <trkpt lat="43.7519" lon="6.93155">
        <ele>1268.12</ele>
        <time>2011-09-06T15:44:06Z</time>
      </trkpt>
      <trkpt lat="43.75188" lon="6.93127">
        <ele>1267.64</ele>
        <time>2011-09-06T15:44:19Z</time>
      </trkpt>
      <trkpt lat="43.7519" lon="6.93098">
        <ele>1268.12</ele>
        <time>2011-09-06T15:44:32Z</time>
      </trkpt>
      <trkpt lat="43.75192" lon="6.93089">
        <ele>1267.16</ele>
        <time>2011-09-06T15:44:38Z</time>
      </trkpt>
      <trkpt lat="43.7519" lon="6.93066">
        <ele>1267.16</ele>
        <time>2011-09-06T15:44:53Z</time>
      </trkpt>
      <trkpt lat="43.75189" lon="6.93046">
        <ele>1267.16</ele>
        <time>2011-09-06T15:45:08Z</time>
      </trkpt>
      <trkpt lat="43.75188" lon="6.93026">
        <ele>1265.71</ele>
        <time>2011-09-06T15:45:19Z</time>
      </trkpt>
      <trkpt lat="43.75189" lon="6.93013">
        <ele>1265.23</ele>
        <time>2011-09-06T15:45:27Z</time>
      </trkpt>
      <trkpt lat="43.75191" lon="6.93002">
        <ele>1264.27</ele>
        <time>2011-09-06T15:45:35Z</time>
      </trkpt>
      <trkpt lat="43.75194" lon="6.92995">
        <ele>1265.71</ele>
        <time>2011-09-06T15:45:40Z</time>
      </trkpt>
      <trkpt lat="43.75201" lon="6.9298">
        <ele>1265.71</ele>
        <time>2011-09-06T15:45:53Z</time>
      </trkpt>
      <trkpt lat="43.752" lon="6.92971">
        <ele>1264.27</ele>
        <time>2011-09-06T15:46:00Z</time>
      </trkpt>
      <trkpt lat="43.7519" lon="6.92944">
        <ele>1263.79</ele>
        <time>2011-09-06T15:46:17Z</time>
      </trkpt>
      <trkpt lat="43.75184" lon="6.92932">
        <ele>1261.39</ele>
        <time>2011-09-06T15:46:25Z</time>
      </trkpt>
      <trkpt lat="43.75175" lon="6.92918">
        <ele>1258.02</ele>
        <time>2011-09-06T15:46:38Z</time>
      </trkpt>
      <trkpt lat="43.75174" lon="6.92909">
        <ele>1257.06</ele>
        <time>2011-09-06T15:46:45Z</time>
      </trkpt>
      <trkpt lat="43.75174" lon="6.92899">
        <ele>1256.1</ele>
        <time>2011-09-06T15:46:52Z</time>
      </trkpt>
      <trkpt lat="43.75173" lon="6.92891">
        <ele>1256.1</ele>
        <time>2011-09-06T15:46:57Z</time>
      </trkpt>
      <trkpt lat="43.75175" lon="6.92881">
        <ele>1253.22</ele>
        <time>2011-09-06T15:47:02Z</time>
      </trkpt>
      <trkpt lat="43.75176" lon="6.92869">
        <ele>1253.22</ele>
        <time>2011-09-06T15:47:14Z</time>
      </trkpt>
      <trkpt lat="43.75166" lon="6.92848">
        <ele>1252.25</ele>
        <time>2011-09-06T15:47:27Z</time>
      </trkpt>
      <trkpt lat="43.75162" lon="6.92844">
        <ele>1252.74</ele>
        <time>2011-09-06T15:47:34Z</time>
      </trkpt>
      <trkpt lat="43.75154" lon="6.92835">
        <ele>1254.18</ele>
        <time>2011-09-06T15:47:51Z</time>
      </trkpt>
      <trkpt lat="43.75154" lon="6.92835">
        <ele>1254.66</ele>
        <time>2011-09-06T15:47:59Z</time>
      </trkpt>
      <trkpt lat="43.75154" lon="6.9283">
        <ele>1257.54</ele>
        <time>2011-09-06T15:48:04Z</time>
      </trkpt>
      <trkpt lat="43.75154" lon="6.92818">
        <ele>1259.46</ele>
        <time>2011-09-06T15:48:16Z</time>
      </trkpt>
      <trkpt lat="43.75154" lon="6.92807">
        <ele>1260.91</ele>
        <time>2011-09-06T15:48:31Z</time>
      </trkpt>
      <trkpt lat="43.75153" lon="6.92804">
        <ele>1261.87</ele>
        <time>2011-09-06T15:48:34Z</time>
      </trkpt>
      <trkpt lat="43.75156" lon="6.92798">
        <ele>1262.83</ele>
        <time>2011-09-06T15:48:49Z</time>
      </trkpt>
      <trkpt lat="43.75156" lon="6.92797">
        <ele>1262.83</ele>
        <time>2011-09-06T15:48:50Z</time>
      </trkpt>
      <trkpt lat="43.75156" lon="6.92786">
        <ele>1263.79</ele>
        <time>2011-09-06T15:49:03Z</time>
      </trkpt>
      <trkpt lat="43.75156" lon="6.92784">
        <ele>1264.27</ele>
        <time>2011-09-06T15:49:11Z</time>
      </trkpt>
      <trkpt lat="43.75157" lon="6.92771">
        <ele>1265.23</ele>
        <time>2011-09-06T15:49:19Z</time>
      </trkpt>
      <trkpt lat="43.75161" lon="6.92762">
        <ele>1268.12</ele>
        <time>2011-09-06T15:49:26Z</time>
      </trkpt>
      <trkpt lat="43.75163" lon="6.92759">
        <ele>1267.64</ele>
        <time>2011-09-06T15:49:29Z</time>
      </trkpt>
      <trkpt lat="43.75163" lon="6.92754">
        <ele>1266.67</ele>
        <time>2011-09-06T15:49:45Z</time>
      </trkpt>
      <trkpt lat="43.75163" lon="6.92748">
        <ele>1264.75</ele>
        <time>2011-09-06T15:49:51Z</time>
      </trkpt>
      <trkpt lat="43.75163" lon="6.92746">
        <ele>1264.75</ele>
        <time>2011-09-06T15:49:52Z</time>
      </trkpt>
      <trkpt lat="43.75153" lon="6.92724">
        <ele>1262.83</ele>
        <time>2011-09-06T15:50:07Z</time>
      </trkpt>
      <trkpt lat="43.75148" lon="6.9271">
        <ele>1262.35</ele>
        <time>2011-09-06T15:50:15Z</time>
      </trkpt>
      <trkpt lat="43.75143" lon="6.92688">
        <ele>1261.87</ele>
        <time>2011-09-06T15:50:29Z</time>
      </trkpt>
      <trkpt lat="43.75143" lon="6.92685">
        <ele>1262.83</ele>
        <time>2011-09-06T15:50:30Z</time>
      </trkpt>
      <trkpt lat="43.75145" lon="6.92666">
        <ele>1262.83</ele>
        <time>2011-09-06T15:50:44Z</time>
      </trkpt>
      <trkpt lat="43.75144" lon="6.92657">
        <ele>1261.87</ele>
        <time>2011-09-06T15:50:50Z</time>
      </trkpt>
      <trkpt lat="43.75146" lon="6.92641">
        <ele>1263.31</ele>
        <time>2011-09-06T15:51:01Z</time>
      </trkpt>
      <trkpt lat="43.75147" lon="6.92633">
        <ele>1262.83</ele>
        <time>2011-09-06T15:51:06Z</time>
      </trkpt>
      <trkpt lat="43.75147" lon="6.92632">
        <ele>1263.31</ele>
        <time>2011-09-06T15:51:07Z</time>
      </trkpt>
      <trkpt lat="43.75149" lon="6.92622">
        <ele>1263.31</ele>
        <time>2011-09-06T15:51:13Z</time>
      </trkpt>
      <trkpt lat="43.7515" lon="6.92617">
        <ele>1263.79</ele>
        <time>2011-09-06T15:51:16Z</time>
      </trkpt>
      <trkpt lat="43.7515" lon="6.92607">
        <ele>1262.35</ele>
        <time>2011-09-06T15:51:23Z</time>
      </trkpt>
      <trkpt lat="43.7515" lon="6.92599">
        <ele>1263.31</ele>
        <time>2011-09-06T15:51:28Z</time>
      </trkpt>
      <trkpt lat="43.75147" lon="6.92584">
        <ele>1262.83</ele>
        <time>2011-09-06T15:51:43Z</time>
      </trkpt>
      <trkpt lat="43.75143" lon="6.92555">
        <ele>1261.87</ele>
        <time>2011-09-06T15:52:04Z</time>
      </trkpt>
      <trkpt lat="43.75143" lon="6.92541">
        <ele>1260.91</ele>
        <time>2011-09-06T15:52:12Z</time>
      </trkpt>
      <trkpt lat="43.75145" lon="6.92522">
        <ele>1262.35</ele>
        <time>2011-09-06T15:52:25Z</time>
      </trkpt>
      <trkpt lat="43.7515" lon="6.92502">
        <ele>1261.87</ele>
        <time>2011-09-06T15:52:39Z</time>
      </trkpt>
      <trkpt lat="43.75152" lon="6.92491">
        <ele>1263.31</ele>
        <time>2011-09-06T15:52:48Z</time>
      </trkpt>
      <trkpt lat="43.75158" lon="6.92475">
        <ele>1263.31</ele>
        <time>2011-09-06T15:53:02Z</time>
      </trkpt>
      <trkpt lat="43.75159" lon="6.92472">
        <ele>1262.35</ele>
        <time>2011-09-06T15:53:04Z</time>
      </trkpt>
      <trkpt lat="43.75156" lon="6.92463">
        <ele>1263.31</ele>
        <time>2011-09-06T15:53:18Z</time>
      </trkpt>
      <trkpt lat="43.75157" lon="6.92461">
        <ele>1262.83</ele>
        <time>2011-09-06T15:53:34Z</time>
      </trkpt>
      <trkpt lat="43.75158" lon="6.92455">
        <ele>1262.35</ele>
        <time>2011-09-06T15:53:49Z</time>
      </trkpt>
      <trkpt lat="43.75157" lon="6.92448">
        <ele>1261.87</ele>
        <time>2011-09-06T15:54:10Z</time>
      </trkpt>
      <trkpt lat="43.75158" lon="6.92441">
        <ele>1262.35</ele>
        <time>2011-09-06T15:54:23Z</time>
      </trkpt>
      <trkpt lat="43.75157" lon="6.92442">
        <ele>1261.39</ele>
        <time>2011-09-06T15:54:38Z</time>
      </trkpt>
      <trkpt lat="43.75158" lon="6.9244">
        <ele>1261.87</ele>
        <time>2011-09-06T15:54:54Z</time>
      </trkpt>
      <trkpt lat="43.75158" lon="6.92439">
        <ele>1261.39</ele>
        <time>2011-09-06T15:54:56Z</time>
      </trkpt>
      <trkpt lat="43.75154" lon="6.92436">
        <ele>1260.91</ele>
        <time>2011-09-06T15:55:02Z</time>
      </trkpt>
      <trkpt lat="43.7514" lon="6.92428">
        <ele>1261.39</ele>
        <time>2011-09-06T15:55:15Z</time>
      </trkpt>
      <trkpt lat="43.75132" lon="6.92417">
        <ele>1261.87</ele>
        <time>2011-09-06T15:55:28Z</time>
      </trkpt>
      <trkpt lat="43.75126" lon="6.9241">
        <ele>1261.39</ele>
        <time>2011-09-06T15:55:41Z</time>
      </trkpt>
      <trkpt lat="43.75126" lon="6.92404">
        <ele>1262.35</ele>
        <time>2011-09-06T15:55:50Z</time>
      </trkpt>
    </trkseg>
  </trk>
</gpx>